<?xml version="1.0" encoding="UTF-8" standalone="no" ?><gpx xmlns="http://www.topografix.com/GPX/1/1" xmlns:gpxx="http://www.garmin.com/xmlschemas/GpxExtensions/v3" xmlns:wptx1="http://www.garmin.com/xmlschemas/WaypointExtension/v1" xmlns:gpxtpx="http://www.garmin.com/xmlschemas/TrackPointExtension/v1" creator="GuideVTT.com" version="1.1" xmlns:xsi="http://www.w3.org/2001/XMLSchema-instance" xsi:schemaLocation="http://www.topografix.com/GPX/1/1 http://www.topografix.com/GPX/1/1/gpx.xsd http://www.garmin.com/xmlschemas/GpxExtensions/v3 http://www8.garmin.com/xmlschemas/GpxExtensionsv3.xsd http://www.garmin.com/xmlschemas/WaypointExtension/v1 http://www8.garmin.com/xmlschemas/WaypointExtensionv1.xsd http://www.garmin.com/xmlschemas/TrackPointExtension/v1 http://www.garmin.com/xmlschemas/TrackPointExtensionv1.xsd">
<metadata><link href="http://www.garmin.com"><text>Garmin International</text></link><time>2013-06-22T15:13:50Z</time></metadata>
<trk><name>rp2025-21.gpx</name><extensions><gpxx:TrackExtension><gpxx:DisplayColor>Cyan</gpxx:DisplayColor></gpxx:TrackExtension></extensions><trkseg>
<trkpt lat="46.25434" lon="7.53336"><ele>1324.4</ele><time>2025-08-09T09:40:04Z</time></trkpt>
<trkpt lat="46.25451" lon="7.53327"><ele>1324.2</ele><time>2025-08-09T09:40:09Z</time></trkpt>
<trkpt lat="46.25473" lon="7.53314"><ele>1323.8</ele><time>2025-08-09T09:40:16Z</time></trkpt>
<trkpt lat="46.25491" lon="7.53302"><ele>1323.8</ele><time>2025-08-09T09:40:22Z</time></trkpt>
<trkpt lat="46.25521" lon="7.5328"><ele>1323.6</ele><time>2025-08-09T09:40:30Z</time></trkpt>
<trkpt lat="46.25538" lon="7.53267"><ele>1323</ele><time>2025-08-09T09:40:35Z</time></trkpt>
<trkpt lat="46.25549" lon="7.53244"><ele>1322.6</ele><time>2025-08-09T09:40:40Z</time></trkpt>
<trkpt lat="46.25553" lon="7.53235"><ele>1322.6</ele><time>2025-08-09T09:40:42Z</time></trkpt>
<trkpt lat="46.25565" lon="7.5321"><ele>1322</ele><time>2025-08-09T09:40:47Z</time></trkpt>
<trkpt lat="46.25568" lon="7.53206"><ele>1321.8</ele><time>2025-08-09T09:40:48Z</time></trkpt>
<trkpt lat="46.25574" lon="7.53197"><ele>1321.6</ele><time>2025-08-09T09:40:50Z</time></trkpt>
<trkpt lat="46.25577" lon="7.53193"><ele>1321.4</ele><time>2025-08-09T09:40:51Z</time></trkpt>
<trkpt lat="46.2559" lon="7.53178"><ele>1321.2</ele><time>2025-08-09T09:40:55Z</time></trkpt>
<trkpt lat="46.25599" lon="7.53169"><ele>1320.8</ele><time>2025-08-09T09:40:58Z</time></trkpt>
<trkpt lat="46.2561" lon="7.53155"><ele>1320.4</ele><time>2025-08-09T09:41:02Z</time></trkpt>
<trkpt lat="46.25622" lon="7.5314"><ele>1320</ele><time>2025-08-09T09:41:07Z</time></trkpt>
<trkpt lat="46.2563" lon="7.53131"><ele>1319.6</ele><time>2025-08-09T09:41:10Z</time></trkpt>
<trkpt lat="46.25631" lon="7.53126"><ele>1319.6</ele><time>2025-08-09T09:41:11Z</time></trkpt>
<trkpt lat="46.25629" lon="7.53122"><ele>1319.6</ele><time>2025-08-09T09:41:12Z</time></trkpt>
<trkpt lat="46.25628" lon="7.53119"><ele>1319.6</ele><time>2025-08-09T09:41:13Z</time></trkpt>
<trkpt lat="46.25627" lon="7.53097"><ele>1321.2</ele><time>2025-08-09T09:41:18Z</time></trkpt>
<trkpt lat="46.25627" lon="7.53089"><ele>1321.6</ele><time>2025-08-09T09:41:20Z</time></trkpt>
<trkpt lat="46.25627" lon="7.53081"><ele>1322.2</ele><time>2025-08-09T09:41:22Z</time></trkpt>
<trkpt lat="46.25626" lon="7.53075"><ele>1322.4</ele><time>2025-08-09T09:41:24Z</time></trkpt>
<trkpt lat="46.25626" lon="7.53072"><ele>1322.6</ele><time>2025-08-09T09:41:25Z</time></trkpt>
<trkpt lat="46.25622" lon="7.53058"><ele>1323.6</ele><time>2025-08-09T09:41:29Z</time></trkpt>
<trkpt lat="46.25622" lon="7.53054"><ele>1323.8</ele><time>2025-08-09T09:41:30Z</time></trkpt>
<trkpt lat="46.25621" lon="7.5305"><ele>1323.8</ele><time>2025-08-09T09:41:31Z</time></trkpt>
<trkpt lat="46.25617" lon="7.53033"><ele>1324.4</ele><time>2025-08-09T09:41:35Z</time></trkpt>
<trkpt lat="46.25614" lon="7.53024"><ele>1324.4</ele><time>2025-08-09T09:41:37Z</time></trkpt>
<trkpt lat="46.25608" lon="7.52997"><ele>1324.8</ele><time>2025-08-09T09:41:43Z</time></trkpt>
<trkpt lat="46.25605" lon="7.52985"><ele>1325.2</ele><time>2025-08-09T09:41:46Z</time></trkpt>
<trkpt lat="46.25603" lon="7.52974"><ele>1325.8</ele><time>2025-08-09T09:41:49Z</time></trkpt>
<trkpt lat="46.256" lon="7.52961"><ele>1326.4</ele><time>2025-08-09T09:41:53Z</time></trkpt>
<trkpt lat="46.25599" lon="7.52955"><ele>1326.8</ele><time>2025-08-09T09:41:55Z</time></trkpt>
<trkpt lat="46.25597" lon="7.52945"><ele>1327.4</ele><time>2025-08-09T09:41:59Z</time></trkpt>
<trkpt lat="46.25593" lon="7.52938"><ele>1327.8</ele><time>2025-08-09T09:42:02Z</time></trkpt>
<trkpt lat="46.25591" lon="7.52937"><ele>1328</ele><time>2025-08-09T09:42:03Z</time></trkpt>
<trkpt lat="46.25589" lon="7.52936"><ele>1328.2</ele><time>2025-08-09T09:42:04Z</time></trkpt>
<trkpt lat="46.25582" lon="7.52937"><ele>1329</ele><time>2025-08-09T09:42:08Z</time></trkpt>
<trkpt lat="46.25579" lon="7.52936"><ele>1329.4</ele><time>2025-08-09T09:42:10Z</time></trkpt>
<trkpt lat="46.25573" lon="7.52936"><ele>1330.2</ele><time>2025-08-09T09:42:14Z</time></trkpt>
<trkpt lat="46.25569" lon="7.52936"><ele>1330.6</ele><time>2025-08-09T09:42:16Z</time></trkpt>
<trkpt lat="46.25564" lon="7.52935"><ele>1331.2</ele><time>2025-08-09T09:42:19Z</time></trkpt>
<trkpt lat="46.25556" lon="7.52937"><ele>1332.4</ele><time>2025-08-09T09:42:24Z</time></trkpt>
<trkpt lat="46.25549" lon="7.52943"><ele>1333.4</ele><time>2025-08-09T09:42:29Z</time></trkpt>
<trkpt lat="46.25545" lon="7.52948"><ele>1334</ele><time>2025-08-09T09:42:32Z</time></trkpt>
<trkpt lat="46.25539" lon="7.52958"><ele>1334.6</ele><time>2025-08-09T09:42:37Z</time></trkpt>
<trkpt lat="46.25536" lon="7.52966"><ele>1335.2</ele><time>2025-08-09T09:42:41Z</time></trkpt>
<trkpt lat="46.25534" lon="7.52969"><ele>1335.6</ele><time>2025-08-09T09:42:43Z</time></trkpt>
<trkpt lat="46.25529" lon="7.5298"><ele>1336.6</ele><time>2025-08-09T09:42:49Z</time></trkpt>
<trkpt lat="46.25524" lon="7.52991"><ele>1337.8</ele><time>2025-08-09T09:42:55Z</time></trkpt>
<trkpt lat="46.25521" lon="7.52997"><ele>1338.6</ele><time>2025-08-09T09:42:58Z</time></trkpt>
<trkpt lat="46.2552" lon="7.53"><ele>1338.8</ele><time>2025-08-09T09:43:00Z</time></trkpt>
<trkpt lat="46.25517" lon="7.53009"><ele>1339.8</ele><time>2025-08-09T09:43:05Z</time></trkpt>
<trkpt lat="46.25516" lon="7.53011"><ele>1340</ele><time>2025-08-09T09:43:06Z</time></trkpt>
<trkpt lat="46.25511" lon="7.53022"><ele>1341</ele><time>2025-08-09T09:43:12Z</time></trkpt>
<trkpt lat="46.25508" lon="7.53025"><ele>1341.4</ele><time>2025-08-09T09:43:14Z</time></trkpt>
<trkpt lat="46.25501" lon="7.53028"><ele>1342.2</ele><time>2025-08-09T09:43:18Z</time></trkpt>
<trkpt lat="46.25496" lon="7.53028"><ele>1342.8</ele><time>2025-08-09T09:43:21Z</time></trkpt>
<trkpt lat="46.25491" lon="7.53027"><ele>1343.4</ele><time>2025-08-09T09:43:24Z</time></trkpt>
<trkpt lat="46.25484" lon="7.53023"><ele>1344.2</ele><time>2025-08-09T09:43:29Z</time></trkpt>
<trkpt lat="46.25482" lon="7.53022"><ele>1344.4</ele><time>2025-08-09T09:43:30Z</time></trkpt>
<trkpt lat="46.25475" lon="7.53018"><ele>1345.4</ele><time>2025-08-09T09:43:35Z</time></trkpt>
<trkpt lat="46.25473" lon="7.53014"><ele>1345.8</ele><time>2025-08-09T09:43:37Z</time></trkpt>
<trkpt lat="46.25468" lon="7.5301"><ele>1346.4</ele><time>2025-08-09T09:43:41Z</time></trkpt>
<trkpt lat="46.25463" lon="7.53006"><ele>1347.2</ele><time>2025-08-09T09:43:45Z</time></trkpt>
<trkpt lat="46.25462" lon="7.53005"><ele>1347.4</ele><time>2025-08-09T09:43:46Z</time></trkpt>
<trkpt lat="46.25455" lon="7.53"><ele>1348.4</ele><time>2025-08-09T09:43:52Z</time></trkpt>
<trkpt lat="46.25452" lon="7.52998"><ele>1348.8</ele><time>2025-08-09T09:43:54Z</time></trkpt>
<trkpt lat="46.25446" lon="7.52992"><ele>1349.6</ele><time>2025-08-09T09:43:59Z</time></trkpt>
<trkpt lat="46.25442" lon="7.52987"><ele>1350.4</ele><time>2025-08-09T09:44:03Z</time></trkpt>
<trkpt lat="46.25438" lon="7.52983"><ele>1350.8</ele><time>2025-08-09T09:44:06Z</time></trkpt>
<trkpt lat="46.25432" lon="7.52974"><ele>1351.8</ele><time>2025-08-09T09:44:12Z</time></trkpt>
<trkpt lat="46.25424" lon="7.52966"><ele>1353</ele><time>2025-08-09T09:44:19Z</time></trkpt>
<trkpt lat="46.25422" lon="7.52963"><ele>1353.2</ele><time>2025-08-09T09:44:21Z</time></trkpt>
<trkpt lat="46.25416" lon="7.52956"><ele>1354</ele><time>2025-08-09T09:44:26Z</time></trkpt>
<trkpt lat="46.25414" lon="7.52953"><ele>1354.4</ele><time>2025-08-09T09:44:28Z</time></trkpt>
<trkpt lat="46.25409" lon="7.52946"><ele>1355</ele><time>2025-08-09T09:44:32Z</time></trkpt>
<trkpt lat="46.25406" lon="7.52943"><ele>1355.4</ele><time>2025-08-09T09:44:34Z</time></trkpt>
<trkpt lat="46.25403" lon="7.52935"><ele>1356.2</ele><time>2025-08-09T09:44:38Z</time></trkpt>
<trkpt lat="46.25402" lon="7.52929"><ele>1356.6</ele><time>2025-08-09T09:44:41Z</time></trkpt>
<trkpt lat="46.25399" lon="7.52923"><ele>1357.2</ele><time>2025-08-09T09:44:44Z</time></trkpt>
<trkpt lat="46.25397" lon="7.52912"><ele>1358</ele><time>2025-08-09T09:44:49Z</time></trkpt>
<trkpt lat="46.25397" lon="7.5291"><ele>1358.2</ele><time>2025-08-09T09:44:50Z</time></trkpt>
<trkpt lat="46.25395" lon="7.52897"><ele>1359.2</ele><time>2025-08-09T09:44:56Z</time></trkpt>
<trkpt lat="46.25393" lon="7.52884"><ele>1360.2</ele><time>2025-08-09T09:45:02Z</time></trkpt>
<trkpt lat="46.25393" lon="7.52882"><ele>1360.4</ele><time>2025-08-09T09:45:03Z</time></trkpt>
<trkpt lat="46.25391" lon="7.52875"><ele>1361.2</ele><time>2025-08-09T09:45:07Z</time></trkpt>
<trkpt lat="46.25385" lon="7.52864"><ele>1362.2</ele><time>2025-08-09T09:45:13Z</time></trkpt>
<trkpt lat="46.25377" lon="7.52859"><ele>1363.4</ele><time>2025-08-09T09:45:19Z</time></trkpt>
<trkpt lat="46.25374" lon="7.52858"><ele>1363.6</ele><time>2025-08-09T09:45:21Z</time></trkpt>
<trkpt lat="46.25366" lon="7.52857"><ele>1364.4</ele><time>2025-08-09T09:45:26Z</time></trkpt>
<trkpt lat="46.25359" lon="7.52855"><ele>1365.2</ele><time>2025-08-09T09:45:31Z</time></trkpt>
<trkpt lat="46.25357" lon="7.52855"><ele>1365.4</ele><time>2025-08-09T09:45:32Z</time></trkpt>
<trkpt lat="46.25347" lon="7.52855"><ele>1366.4</ele><time>2025-08-09T09:45:38Z</time></trkpt>
<trkpt lat="46.25345" lon="7.52855"><ele>1366.6</ele><time>2025-08-09T09:45:39Z</time></trkpt>
<trkpt lat="46.25338" lon="7.52853"><ele>1367.6</ele><time>2025-08-09T09:45:44Z</time></trkpt>
<trkpt lat="46.25336" lon="7.52853"><ele>1368</ele><time>2025-08-09T09:45:46Z</time></trkpt>
<trkpt lat="46.2533" lon="7.5285"><ele>1368.6</ele><time>2025-08-09T09:45:50Z</time></trkpt>
<trkpt lat="46.25326" lon="7.52848"><ele>1369.2</ele><time>2025-08-09T09:45:53Z</time></trkpt>
<trkpt lat="46.25321" lon="7.52846"><ele>1369.8</ele><time>2025-08-09T09:45:56Z</time></trkpt>
<trkpt lat="46.25316" lon="7.52841"><ele>1370.6</ele><time>2025-08-09T09:46:00Z</time></trkpt>
<trkpt lat="46.25314" lon="7.52838"><ele>1371</ele><time>2025-08-09T09:46:02Z</time></trkpt>
<trkpt lat="46.25307" lon="7.52829"><ele>1372.2</ele><time>2025-08-09T09:46:08Z</time></trkpt>
<trkpt lat="46.25307" lon="7.52827"><ele>1372.4</ele><time>2025-08-09T09:46:09Z</time></trkpt>
<trkpt lat="46.25306" lon="7.5281"><ele>1373.2</ele><time>2025-08-09T09:46:16Z</time></trkpt>
<trkpt lat="46.25307" lon="7.52806"><ele>1373.4</ele><time>2025-08-09T09:46:18Z</time></trkpt>
<trkpt lat="46.25309" lon="7.52793"><ele>1374.2</ele><time>2025-08-09T09:46:24Z</time></trkpt>
<trkpt lat="46.25309" lon="7.52788"><ele>1374.6</ele><time>2025-08-09T09:46:26Z</time></trkpt>
<trkpt lat="46.25306" lon="7.52778"><ele>1375.2</ele><time>2025-08-09T09:46:31Z</time></trkpt>
<trkpt lat="46.25305" lon="7.52774"><ele>1375.6</ele><time>2025-08-09T09:46:33Z</time></trkpt>
<trkpt lat="46.25297" lon="7.52764"><ele>1376.2</ele><time>2025-08-09T09:46:39Z</time></trkpt>
<trkpt lat="46.25295" lon="7.52762"><ele>1376.4</ele><time>2025-08-09T09:46:40Z</time></trkpt>
<trkpt lat="46.25284" lon="7.52759"><ele>1377</ele><time>2025-08-09T09:46:45Z</time></trkpt>
<trkpt lat="46.25275" lon="7.52758"><ele>1377.4</ele><time>2025-08-09T09:46:49Z</time></trkpt>
<trkpt lat="46.25269" lon="7.52757"><ele>1378.2</ele><time>2025-08-09T09:46:52Z</time></trkpt>
<trkpt lat="46.25266" lon="7.52757"><ele>1378.6</ele><time>2025-08-09T09:46:54Z</time></trkpt>
<trkpt lat="46.25257" lon="7.52755"><ele>1379.6</ele><time>2025-08-09T09:47:00Z</time></trkpt>
<trkpt lat="46.25255" lon="7.52755"><ele>1379.8</ele><time>2025-08-09T09:47:01Z</time></trkpt>
<trkpt lat="46.25249" lon="7.52754"><ele>1380.6</ele><time>2025-08-09T09:47:05Z</time></trkpt>
<trkpt lat="46.25243" lon="7.52751"><ele>1381.4</ele><time>2025-08-09T09:47:09Z</time></trkpt>
<trkpt lat="46.25242" lon="7.52751"><ele>1381.6</ele><time>2025-08-09T09:47:10Z</time></trkpt>
<trkpt lat="46.25236" lon="7.52743"><ele>1382.8</ele><time>2025-08-09T09:47:16Z</time></trkpt>
<trkpt lat="46.25235" lon="7.52741"><ele>1383</ele><time>2025-08-09T09:47:17Z</time></trkpt>
<trkpt lat="46.25233" lon="7.52732"><ele>1384</ele><time>2025-08-09T09:47:22Z</time></trkpt>
<trkpt lat="46.25232" lon="7.52724"><ele>1384.8</ele><time>2025-08-09T09:47:26Z</time></trkpt>
<trkpt lat="46.25232" lon="7.52721"><ele>1385.2</ele><time>2025-08-09T09:47:28Z</time></trkpt>
<trkpt lat="46.25231" lon="7.52713"><ele>1386</ele><time>2025-08-09T09:47:32Z</time></trkpt>
<trkpt lat="46.2523" lon="7.52709"><ele>1386.4</ele><time>2025-08-09T09:47:34Z</time></trkpt>
<trkpt lat="46.25228" lon="7.52698"><ele>1387.4</ele><time>2025-08-09T09:47:40Z</time></trkpt>
<trkpt lat="46.25228" lon="7.52696"><ele>1387.6</ele><time>2025-08-09T09:47:41Z</time></trkpt>
<trkpt lat="46.25226" lon="7.52684"><ele>1388.6</ele><time>2025-08-09T09:47:47Z</time></trkpt>
<trkpt lat="46.25225" lon="7.52682"><ele>1388.6</ele><time>2025-08-09T09:47:48Z</time></trkpt>
<trkpt lat="46.25223" lon="7.52671"><ele>1389.8</ele><time>2025-08-09T09:47:54Z</time></trkpt>
<trkpt lat="46.25223" lon="7.52669"><ele>1389.8</ele><time>2025-08-09T09:47:55Z</time></trkpt>
<trkpt lat="46.25222" lon="7.52658"><ele>1390.8</ele><time>2025-08-09T09:48:00Z</time></trkpt>
<trkpt lat="46.2522" lon="7.52649"><ele>1391.6</ele><time>2025-08-09T09:48:04Z</time></trkpt>
<trkpt lat="46.25219" lon="7.52647"><ele>1391.8</ele><time>2025-08-09T09:48:05Z</time></trkpt>
<trkpt lat="46.25217" lon="7.52635"><ele>1393</ele><time>2025-08-09T09:48:11Z</time></trkpt>
<trkpt lat="46.25216" lon="7.52631"><ele>1393.4</ele><time>2025-08-09T09:48:13Z</time></trkpt>
<trkpt lat="46.25214" lon="7.52623"><ele>1394</ele><time>2025-08-09T09:48:17Z</time></trkpt>
<trkpt lat="46.25213" lon="7.52612"><ele>1395</ele><time>2025-08-09T09:48:22Z</time></trkpt>
<trkpt lat="46.25213" lon="7.5261"><ele>1395.2</ele><time>2025-08-09T09:48:23Z</time></trkpt>
<trkpt lat="46.25211" lon="7.52598"><ele>1396.2</ele><time>2025-08-09T09:48:29Z</time></trkpt>
<trkpt lat="46.2521" lon="7.52586"><ele>1397.4</ele><time>2025-08-09T09:48:35Z</time></trkpt>
<trkpt lat="46.25208" lon="7.52582"><ele>1397.8</ele><time>2025-08-09T09:48:37Z</time></trkpt>
<trkpt lat="46.25206" lon="7.52575"><ele>1398.6</ele><time>2025-08-09T09:48:41Z</time></trkpt>
<trkpt lat="46.25204" lon="7.52563"><ele>1399.6</ele><time>2025-08-09T09:48:47Z</time></trkpt>
<trkpt lat="46.25202" lon="7.52553"><ele>1400.6</ele><time>2025-08-09T09:48:52Z</time></trkpt>
<trkpt lat="46.25199" lon="7.52546"><ele>1401.2</ele><time>2025-08-09T09:48:56Z</time></trkpt>
<trkpt lat="46.25198" lon="7.52541"><ele>1401.8</ele><time>2025-08-09T09:48:59Z</time></trkpt>
<trkpt lat="46.25197" lon="7.52534"><ele>1402.4</ele><time>2025-08-09T09:49:03Z</time></trkpt>
<trkpt lat="46.25197" lon="7.52528"><ele>1402.8</ele><time>2025-08-09T09:49:06Z</time></trkpt>
<trkpt lat="46.25197" lon="7.52516"><ele>1403.8</ele><time>2025-08-09T09:49:12Z</time></trkpt>
<trkpt lat="46.25196" lon="7.52514"><ele>1404</ele><time>2025-08-09T09:49:13Z</time></trkpt>
<trkpt lat="46.25195" lon="7.52503"><ele>1405</ele><time>2025-08-09T09:49:18Z</time></trkpt>
<trkpt lat="46.25195" lon="7.52501"><ele>1405.2</ele><time>2025-08-09T09:49:19Z</time></trkpt>
<trkpt lat="46.25195" lon="7.52488"><ele>1406.2</ele><time>2025-08-09T09:49:25Z</time></trkpt>
<trkpt lat="46.25195" lon="7.52486"><ele>1406.4</ele><time>2025-08-09T09:49:26Z</time></trkpt>
<trkpt lat="46.25193" lon="7.52473"><ele>1407.4</ele><time>2025-08-09T09:49:32Z</time></trkpt>
<trkpt lat="46.25192" lon="7.52468"><ele>1407.8</ele><time>2025-08-09T09:49:34Z</time></trkpt>
<trkpt lat="46.2519" lon="7.5246"><ele>1408.6</ele><time>2025-08-09T09:49:38Z</time></trkpt>
<trkpt lat="46.25187" lon="7.52454"><ele>1409.4</ele><time>2025-08-09T09:49:42Z</time></trkpt>
<trkpt lat="46.25186" lon="7.52451"><ele>1409.6</ele><time>2025-08-09T09:49:44Z</time></trkpt>
<trkpt lat="46.2518" lon="7.52441"><ele>1410.8</ele><time>2025-08-09T09:49:51Z</time></trkpt>
<trkpt lat="46.25176" lon="7.52432"><ele>1411.8</ele><time>2025-08-09T09:49:56Z</time></trkpt>
<trkpt lat="46.25174" lon="7.52428"><ele>1412.2</ele><time>2025-08-09T09:49:59Z</time></trkpt>
<trkpt lat="46.25172" lon="7.52422"><ele>1413</ele><time>2025-08-09T09:50:02Z</time></trkpt>
<trkpt lat="46.2517" lon="7.52415"><ele>1413.8</ele><time>2025-08-09T09:50:06Z</time></trkpt>
<trkpt lat="46.25169" lon="7.52413"><ele>1414</ele><time>2025-08-09T09:50:07Z</time></trkpt>
<trkpt lat="46.25165" lon="7.52405"><ele>1415</ele><time>2025-08-09T09:50:12Z</time></trkpt>
<trkpt lat="46.25163" lon="7.524"><ele>1415.8</ele><time>2025-08-09T09:50:15Z</time></trkpt>
<trkpt lat="46.25162" lon="7.52396"><ele>1416.2</ele><time>2025-08-09T09:50:17Z</time></trkpt>
<trkpt lat="46.25157" lon="7.52386"><ele>1417.2</ele><time>2025-08-09T09:50:22Z</time></trkpt>
<trkpt lat="46.25156" lon="7.52384"><ele>1417.6</ele><time>2025-08-09T09:50:23Z</time></trkpt>
<trkpt lat="46.25154" lon="7.52378"><ele>1418.4</ele><time>2025-08-09T09:50:26Z</time></trkpt>
<trkpt lat="46.25151" lon="7.52371"><ele>1419.2</ele><time>2025-08-09T09:50:30Z</time></trkpt>
<trkpt lat="46.2515" lon="7.52369"><ele>1419.4</ele><time>2025-08-09T09:50:31Z</time></trkpt>
<trkpt lat="46.25147" lon="7.52359"><ele>1420.4</ele><time>2025-08-09T09:50:36Z</time></trkpt>
<trkpt lat="46.25146" lon="7.52358"><ele>1420.6</ele><time>2025-08-09T09:50:37Z</time></trkpt>
<trkpt lat="46.25138" lon="7.52347"><ele>1421.6</ele><time>2025-08-09T09:50:44Z</time></trkpt>
<trkpt lat="46.25136" lon="7.52344"><ele>1422</ele><time>2025-08-09T09:50:46Z</time></trkpt>
<trkpt lat="46.25134" lon="7.52337"><ele>1422.6</ele><time>2025-08-09T09:50:50Z</time></trkpt>
<trkpt lat="46.25132" lon="7.52332"><ele>1423.2</ele><time>2025-08-09T09:50:53Z</time></trkpt>
<trkpt lat="46.25131" lon="7.52326"><ele>1423.6</ele><time>2025-08-09T09:50:56Z</time></trkpt>
<trkpt lat="46.2513" lon="7.52316"><ele>1424.6</ele><time>2025-08-09T09:51:01Z</time></trkpt>
<trkpt lat="46.25127" lon="7.52305"><ele>1425.8</ele><time>2025-08-09T09:51:07Z</time></trkpt>
<trkpt lat="46.25125" lon="7.52302"><ele>1426</ele><time>2025-08-09T09:51:09Z</time></trkpt>
<trkpt lat="46.2512" lon="7.52297"><ele>1427</ele><time>2025-08-09T09:51:14Z</time></trkpt>
<trkpt lat="46.25118" lon="7.52295"><ele>1427.2</ele><time>2025-08-09T09:51:16Z</time></trkpt>
<trkpt lat="46.25112" lon="7.52292"><ele>1428</ele><time>2025-08-09T09:51:21Z</time></trkpt>
<trkpt lat="46.2511" lon="7.52291"><ele>1428.4</ele><time>2025-08-09T09:51:23Z</time></trkpt>
<trkpt lat="46.25104" lon="7.52288"><ele>1429.2</ele><time>2025-08-09T09:51:27Z</time></trkpt>
<trkpt lat="46.25101" lon="7.52285"><ele>1429.8</ele><time>2025-08-09T09:51:30Z</time></trkpt>
<trkpt lat="46.25098" lon="7.52283"><ele>1430.4</ele><time>2025-08-09T09:51:32Z</time></trkpt>
<trkpt lat="46.25091" lon="7.52278"><ele>1431.4</ele><time>2025-08-09T09:51:38Z</time></trkpt>
<trkpt lat="46.25085" lon="7.52275"><ele>1432.4</ele><time>2025-08-09T09:51:43Z</time></trkpt>
<trkpt lat="46.25084" lon="7.52275"><ele>1432.6</ele><time>2025-08-09T09:51:44Z</time></trkpt>
<trkpt lat="46.25079" lon="7.5227"><ele>1433.6</ele><time>2025-08-09T09:51:49Z</time></trkpt>
<trkpt lat="46.25077" lon="7.52269"><ele>1434</ele><time>2025-08-09T09:51:51Z</time></trkpt>
<trkpt lat="46.25072" lon="7.52265"><ele>1434.6</ele><time>2025-08-09T09:51:55Z</time></trkpt>
<trkpt lat="46.25066" lon="7.52262"><ele>1435.6</ele><time>2025-08-09T09:52:00Z</time></trkpt>
<trkpt lat="46.2506" lon="7.5226"><ele>1436.8</ele><time>2025-08-09T09:52:06Z</time></trkpt>
<trkpt lat="46.25057" lon="7.52259"><ele>1437.4</ele><time>2025-08-09T09:52:09Z</time></trkpt>
<trkpt lat="46.25053" lon="7.52258"><ele>1438</ele><time>2025-08-09T09:52:12Z</time></trkpt>
<trkpt lat="46.25047" lon="7.52258"><ele>1438.8</ele><time>2025-08-09T09:52:17Z</time></trkpt>
<trkpt lat="46.25046" lon="7.52258"><ele>1439</ele><time>2025-08-09T09:52:18Z</time></trkpt>
<trkpt lat="46.25039" lon="7.52257"><ele>1440.2</ele><time>2025-08-09T09:52:24Z</time></trkpt>
<trkpt lat="46.25032" lon="7.52254"><ele>1441.2</ele><time>2025-08-09T09:52:30Z</time></trkpt>
<trkpt lat="46.25025" lon="7.52252"><ele>1442.4</ele><time>2025-08-09T09:52:36Z</time></trkpt>
<trkpt lat="46.25023" lon="7.52251"><ele>1442.8</ele><time>2025-08-09T09:52:38Z</time></trkpt>
<trkpt lat="46.25018" lon="7.52251"><ele>1443.4</ele><time>2025-08-09T09:52:42Z</time></trkpt>
<trkpt lat="46.25012" lon="7.5225"><ele>1444.4</ele><time>2025-08-09T09:52:47Z</time></trkpt>
<trkpt lat="46.25007" lon="7.52249"><ele>1445.4</ele><time>2025-08-09T09:52:53Z</time></trkpt>
<trkpt lat="46.25005" lon="7.52249"><ele>1445.6</ele><time>2025-08-09T09:52:55Z</time></trkpt>
<trkpt lat="46.25002" lon="7.52249"><ele>1446.2</ele><time>2025-08-09T09:52:58Z</time></trkpt>
<trkpt lat="46.25" lon="7.52249"><ele>1446.6</ele><time>2025-08-09T09:53:00Z</time></trkpt>
<trkpt lat="46.24995" lon="7.52249"><ele>1447.2</ele><time>2025-08-09T09:53:04Z</time></trkpt>
<trkpt lat="46.24992" lon="7.52249"><ele>1447.8</ele><time>2025-08-09T09:53:07Z</time></trkpt>
<trkpt lat="46.24989" lon="7.52248"><ele>1448.2</ele><time>2025-08-09T09:53:10Z</time></trkpt>
<trkpt lat="46.24986" lon="7.52249"><ele>1448.8</ele><time>2025-08-09T09:53:13Z</time></trkpt>
<trkpt lat="46.24982" lon="7.52248"><ele>1449.4</ele><time>2025-08-09T09:53:17Z</time></trkpt>
<trkpt lat="46.24979" lon="7.52248"><ele>1450</ele><time>2025-08-09T09:53:20Z</time></trkpt>
<trkpt lat="46.24974" lon="7.52247"><ele>1450.8</ele><time>2025-08-09T09:53:24Z</time></trkpt>
<trkpt lat="46.24973" lon="7.52247"><ele>1451</ele><time>2025-08-09T09:53:25Z</time></trkpt>
<trkpt lat="46.24969" lon="7.52247"><ele>1451.6</ele><time>2025-08-09T09:53:28Z</time></trkpt>
<trkpt lat="46.24967" lon="7.52247"><ele>1452</ele><time>2025-08-09T09:53:30Z</time></trkpt>
<trkpt lat="46.2496" lon="7.52246"><ele>1453</ele><time>2025-08-09T09:53:35Z</time></trkpt>
<trkpt lat="46.24959" lon="7.52246"><ele>1453</ele><time>2025-08-09T09:53:36Z</time></trkpt>
<trkpt lat="46.24954" lon="7.52245"><ele>1454.2</ele><time>2025-08-09T09:53:41Z</time></trkpt>
<trkpt lat="46.24951" lon="7.52246"><ele>1454.6</ele><time>2025-08-09T09:53:44Z</time></trkpt>
<trkpt lat="46.24946" lon="7.52246"><ele>1455.2</ele><time>2025-08-09T09:53:47Z</time></trkpt>
<trkpt lat="46.24944" lon="7.52246"><ele>1455.6</ele><time>2025-08-09T09:53:49Z</time></trkpt>
<trkpt lat="46.24939" lon="7.52246"><ele>1456.4</ele><time>2025-08-09T09:53:53Z</time></trkpt>
<trkpt lat="46.24938" lon="7.52247"><ele>1456.6</ele><time>2025-08-09T09:53:54Z</time></trkpt>
<trkpt lat="46.24931" lon="7.52249"><ele>1457.4</ele><time>2025-08-09T09:53:59Z</time></trkpt>
<trkpt lat="46.24929" lon="7.5225"><ele>1457.8</ele><time>2025-08-09T09:54:01Z</time></trkpt>
<trkpt lat="46.24924" lon="7.5225"><ele>1458.6</ele><time>2025-08-09T09:54:05Z</time></trkpt>
<trkpt lat="46.24921" lon="7.52251"><ele>1459</ele><time>2025-08-09T09:54:08Z</time></trkpt>
<trkpt lat="46.24917" lon="7.52253"><ele>1459.6</ele><time>2025-08-09T09:54:11Z</time></trkpt>
<trkpt lat="46.24912" lon="7.52255"><ele>1460.8</ele><time>2025-08-09T09:54:16Z</time></trkpt>
<trkpt lat="46.24904" lon="7.52257"><ele>1461.8</ele><time>2025-08-09T09:54:22Z</time></trkpt>
<trkpt lat="46.24903" lon="7.52257"><ele>1462</ele><time>2025-08-09T09:54:23Z</time></trkpt>
<trkpt lat="46.24898" lon="7.52255"><ele>1463</ele><time>2025-08-09T09:54:27Z</time></trkpt>
<trkpt lat="46.24894" lon="7.52253"><ele>1463.8</ele><time>2025-08-09T09:54:31Z</time></trkpt>
<trkpt lat="46.24891" lon="7.52251"><ele>1464</ele><time>2025-08-09T09:54:33Z</time></trkpt>
<trkpt lat="46.24886" lon="7.52245"><ele>1465</ele><time>2025-08-09T09:54:38Z</time></trkpt>
<trkpt lat="46.24885" lon="7.52245"><ele>1465.2</ele><time>2025-08-09T09:54:39Z</time></trkpt>
<trkpt lat="46.2488" lon="7.52238"><ele>1466.2</ele><time>2025-08-09T09:54:45Z</time></trkpt>
<trkpt lat="46.24875" lon="7.52235"><ele>1467.2</ele><time>2025-08-09T09:54:50Z</time></trkpt>
<trkpt lat="46.24873" lon="7.52233"><ele>1467.6</ele><time>2025-08-09T09:54:52Z</time></trkpt>
<trkpt lat="46.24869" lon="7.52231"><ele>1468.4</ele><time>2025-08-09T09:54:55Z</time></trkpt>
<trkpt lat="46.24862" lon="7.52227"><ele>1469.4</ele><time>2025-08-09T09:55:01Z</time></trkpt>
<trkpt lat="46.24856" lon="7.52223"><ele>1470.6</ele><time>2025-08-09T09:55:07Z</time></trkpt>
<trkpt lat="46.24855" lon="7.52223"><ele>1470.6</ele><time>2025-08-09T09:55:08Z</time></trkpt>
<trkpt lat="46.24849" lon="7.52221"><ele>1471.6</ele><time>2025-08-09T09:55:14Z</time></trkpt>
<trkpt lat="46.24848" lon="7.5222"><ele>1471.8</ele><time>2025-08-09T09:55:15Z</time></trkpt>
<trkpt lat="46.24844" lon="7.52217"><ele>1472.6</ele><time>2025-08-09T09:55:20Z</time></trkpt>
<trkpt lat="46.24843" lon="7.52216"><ele>1472.8</ele><time>2025-08-09T09:55:21Z</time></trkpt>
<trkpt lat="46.24838" lon="7.52215"><ele>1473.6</ele><time>2025-08-09T09:55:25Z</time></trkpt>
<trkpt lat="46.24834" lon="7.52214"><ele>1474.6</ele><time>2025-08-09T09:55:29Z</time></trkpt>
<trkpt lat="46.24832" lon="7.52213"><ele>1474.8</ele><time>2025-08-09T09:55:30Z</time></trkpt>
<trkpt lat="46.24827" lon="7.52214"><ele>1475.6</ele><time>2025-08-09T09:55:35Z</time></trkpt>
<trkpt lat="46.24826" lon="7.52214"><ele>1475.8</ele><time>2025-08-09T09:55:36Z</time></trkpt>
<trkpt lat="46.24819" lon="7.52214"><ele>1476.6</ele><time>2025-08-09T09:55:41Z</time></trkpt>
<trkpt lat="46.24817" lon="7.52214"><ele>1476.8</ele><time>2025-08-09T09:55:43Z</time></trkpt>
<trkpt lat="46.24816" lon="7.52214"><ele>1477</ele><time>2025-08-09T09:55:44Z</time></trkpt>
<trkpt lat="46.24809" lon="7.52215"><ele>1478</ele><time>2025-08-09T09:55:50Z</time></trkpt>
<trkpt lat="46.24808" lon="7.52215"><ele>1478.2</ele><time>2025-08-09T09:55:51Z</time></trkpt>
<trkpt lat="46.24801" lon="7.52212"><ele>1479.2</ele><time>2025-08-09T09:55:57Z</time></trkpt>
<trkpt lat="46.24796" lon="7.52208"><ele>1480.2</ele><time>2025-08-09T09:56:02Z</time></trkpt>
<trkpt lat="46.24793" lon="7.52207"><ele>1480.6</ele><time>2025-08-09T09:56:05Z</time></trkpt>
<trkpt lat="46.24789" lon="7.52205"><ele>1481.2</ele><time>2025-08-09T09:56:09Z</time></trkpt>
<trkpt lat="46.24787" lon="7.52203"><ele>1481.6</ele><time>2025-08-09T09:56:11Z</time></trkpt>
<trkpt lat="46.24782" lon="7.522"><ele>1482.2</ele><time>2025-08-09T09:56:15Z</time></trkpt>
<trkpt lat="46.24775" lon="7.522"><ele>1483</ele><time>2025-08-09T09:56:20Z</time></trkpt>
<trkpt lat="46.24771" lon="7.52205"><ele>1483.2</ele><time>2025-08-09T09:56:23Z</time></trkpt>
<trkpt lat="46.24771" lon="7.52207"><ele>1483.4</ele><time>2025-08-09T09:56:24Z</time></trkpt>
<trkpt lat="46.24772" lon="7.5221"><ele>1483.8</ele><time>2025-08-09T09:56:26Z</time></trkpt>
<trkpt lat="46.24775" lon="7.52214"><ele>1484.4</ele><time>2025-08-09T09:56:29Z</time></trkpt>
<trkpt lat="46.24779" lon="7.52217"><ele>1484.8</ele><time>2025-08-09T09:56:32Z</time></trkpt>
<trkpt lat="46.24789" lon="7.52224"><ele>1485.2</ele><time>2025-08-09T09:56:39Z</time></trkpt>
<trkpt lat="46.2479" lon="7.52225"><ele>1485.4</ele><time>2025-08-09T09:56:40Z</time></trkpt>
<trkpt lat="46.24801" lon="7.52232"><ele>1486</ele><time>2025-08-09T09:56:46Z</time></trkpt>
<trkpt lat="46.24804" lon="7.52235"><ele>1486.4</ele><time>2025-08-09T09:56:48Z</time></trkpt>
<trkpt lat="46.24811" lon="7.52239"><ele>1487</ele><time>2025-08-09T09:56:52Z</time></trkpt>
<trkpt lat="46.24814" lon="7.52242"><ele>1487.4</ele><time>2025-08-09T09:56:54Z</time></trkpt>
<trkpt lat="46.2482" lon="7.52246"><ele>1488.2</ele><time>2025-08-09T09:56:58Z</time></trkpt>
<trkpt lat="46.24823" lon="7.5225"><ele>1488.6</ele><time>2025-08-09T09:57:00Z</time></trkpt>
<trkpt lat="46.2483" lon="7.52262"><ele>1489.2</ele><time>2025-08-09T09:57:05Z</time></trkpt>
<trkpt lat="46.24832" lon="7.5227"><ele>1489.6</ele><time>2025-08-09T09:57:08Z</time></trkpt>
<trkpt lat="46.24835" lon="7.5228"><ele>1490.4</ele><time>2025-08-09T09:57:12Z</time></trkpt>
<trkpt lat="46.24836" lon="7.52282"><ele>1490.6</ele><time>2025-08-09T09:57:13Z</time></trkpt>
<trkpt lat="46.24836" lon="7.52285"><ele>1490.8</ele><time>2025-08-09T09:57:14Z</time></trkpt>
<trkpt lat="46.24837" lon="7.52294"><ele>1491.4</ele><time>2025-08-09T09:57:17Z</time></trkpt>
<trkpt lat="46.24838" lon="7.52302"><ele>1491.8</ele><time>2025-08-09T09:57:20Z</time></trkpt>
<trkpt lat="46.2484" lon="7.52313"><ele>1492.6</ele><time>2025-08-09T09:57:25Z</time></trkpt>
<trkpt lat="46.2484" lon="7.52316"><ele>1492.8</ele><time>2025-08-09T09:57:26Z</time></trkpt>
<trkpt lat="46.24845" lon="7.52325"><ele>1494</ele><time>2025-08-09T09:57:31Z</time></trkpt>
<trkpt lat="46.24854" lon="7.52329"><ele>1495</ele><time>2025-08-09T09:57:37Z</time></trkpt>
<trkpt lat="46.24856" lon="7.52331"><ele>1495.2</ele><time>2025-08-09T09:57:39Z</time></trkpt>
<trkpt lat="46.24857" lon="7.52333"><ele>1495.2</ele><time>2025-08-09T09:57:40Z</time></trkpt>
<trkpt lat="46.24859" lon="7.52336"><ele>1495.6</ele><time>2025-08-09T09:57:43Z</time></trkpt>
<trkpt lat="46.24867" lon="7.52343"><ele>1496.2</ele><time>2025-08-09T09:57:49Z</time></trkpt>
<trkpt lat="46.24869" lon="7.52345"><ele>1496.4</ele><time>2025-08-09T09:57:51Z</time></trkpt>
<trkpt lat="46.24884" lon="7.52347"><ele>1497</ele><time>2025-08-09T09:57:59Z</time></trkpt>
<trkpt lat="46.24886" lon="7.52347"><ele>1497.2</ele><time>2025-08-09T09:58:00Z</time></trkpt>
<trkpt lat="46.24895" lon="7.52345"><ele>1497.6</ele><time>2025-08-09T09:58:05Z</time></trkpt>
<trkpt lat="46.24897" lon="7.52346"><ele>1497.8</ele><time>2025-08-09T09:58:06Z</time></trkpt>
<trkpt lat="46.24904" lon="7.52349"><ele>1498.2</ele><time>2025-08-09T09:58:10Z</time></trkpt>
<trkpt lat="46.24915" lon="7.52363"><ele>1498.4</ele><time>2025-08-09T09:58:15Z</time></trkpt>
<trkpt lat="46.24927" lon="7.5239"><ele>1498.6</ele><time>2025-08-09T09:58:22Z</time></trkpt>
<trkpt lat="46.24934" lon="7.52416"><ele>1499.2</ele><time>2025-08-09T09:58:28Z</time></trkpt>
<trkpt lat="46.24935" lon="7.5244"><ele>1499.2</ele><time>2025-08-09T09:58:33Z</time></trkpt>
<trkpt lat="46.24934" lon="7.52449"><ele>1499.4</ele><time>2025-08-09T09:58:35Z</time></trkpt>
<trkpt lat="46.24932" lon="7.52474"><ele>1500.2</ele><time>2025-08-09T09:58:41Z</time></trkpt>
<trkpt lat="46.24931" lon="7.52478"><ele>1500.4</ele><time>2025-08-09T09:58:42Z</time></trkpt>
<trkpt lat="46.24927" lon="7.52507"><ele>1501.2</ele><time>2025-08-09T09:58:50Z</time></trkpt>
<trkpt lat="46.24927" lon="7.5251"><ele>1501.4</ele><time>2025-08-09T09:58:51Z</time></trkpt>
<trkpt lat="46.24925" lon="7.52531"><ele>1502.4</ele><time>2025-08-09T09:58:57Z</time></trkpt>
<trkpt lat="46.24924" lon="7.52538"><ele>1502.6</ele><time>2025-08-09T09:58:59Z</time></trkpt>
<trkpt lat="46.24922" lon="7.52563"><ele>1503.6</ele><time>2025-08-09T09:59:06Z</time></trkpt>
<trkpt lat="46.24922" lon="7.52566"><ele>1503.8</ele><time>2025-08-09T09:59:07Z</time></trkpt>
<trkpt lat="46.24921" lon="7.52593"><ele>1504.6</ele><time>2025-08-09T09:59:15Z</time></trkpt>
<trkpt lat="46.24921" lon="7.52597"><ele>1504.8</ele><time>2025-08-09T09:59:16Z</time></trkpt>
<trkpt lat="46.2492" lon="7.5262"><ele>1506</ele><time>2025-08-09T09:59:23Z</time></trkpt>
<trkpt lat="46.24922" lon="7.52643"><ele>1506.8</ele><time>2025-08-09T09:59:30Z</time></trkpt>
<trkpt lat="46.24922" lon="7.52646"><ele>1507</ele><time>2025-08-09T09:59:31Z</time></trkpt>
<trkpt lat="46.24922" lon="7.52664"><ele>1508</ele><time>2025-08-09T09:59:37Z</time></trkpt>
<trkpt lat="46.24922" lon="7.52671"><ele>1508.2</ele><time>2025-08-09T09:59:39Z</time></trkpt>
<trkpt lat="46.24921" lon="7.5269"><ele>1509</ele><time>2025-08-09T09:59:45Z</time></trkpt>
<trkpt lat="46.24921" lon="7.52696"><ele>1509.2</ele><time>2025-08-09T09:59:47Z</time></trkpt>
<trkpt lat="46.24923" lon="7.5271"><ele>1510.2</ele><time>2025-08-09T09:59:52Z</time></trkpt>
<trkpt lat="46.24923" lon="7.52713"><ele>1510.4</ele><time>2025-08-09T09:59:53Z</time></trkpt>
<trkpt lat="46.24925" lon="7.52732"><ele>1511.2</ele><time>2025-08-09T09:59:59Z</time></trkpt>
<trkpt lat="46.24925" lon="7.52738"><ele>1511.4</ele><time>2025-08-09T10:00:01Z</time></trkpt>
<trkpt lat="46.24925" lon="7.52757"><ele>1512.4</ele><time>2025-08-09T10:00:07Z</time></trkpt>
<trkpt lat="46.24925" lon="7.5276"><ele>1512.6</ele><time>2025-08-09T10:00:08Z</time></trkpt>
<trkpt lat="46.24925" lon="7.52776"><ele>1513.2</ele><time>2025-08-09T10:00:13Z</time></trkpt>
<trkpt lat="46.24923" lon="7.52786"><ele>1513.6</ele><time>2025-08-09T10:00:16Z</time></trkpt>
<trkpt lat="46.24918" lon="7.52804"><ele>1514</ele><time>2025-08-09T10:00:21Z</time></trkpt>
<trkpt lat="46.24912" lon="7.52828"><ele>1514.6</ele><time>2025-08-09T10:00:28Z</time></trkpt>
<trkpt lat="46.24911" lon="7.52831"><ele>1514.6</ele><time>2025-08-09T10:00:29Z</time></trkpt>
<trkpt lat="46.24908" lon="7.52853"><ele>1515.4</ele><time>2025-08-09T10:00:35Z</time></trkpt>
<trkpt lat="46.24907" lon="7.52872"><ele>1515.8</ele><time>2025-08-09T10:00:40Z</time></trkpt>
<trkpt lat="46.24907" lon="7.52881"><ele>1516</ele><time>2025-08-09T10:00:42Z</time></trkpt>
<trkpt lat="46.24907" lon="7.52904"><ele>1516.6</ele><time>2025-08-09T10:00:48Z</time></trkpt>
<trkpt lat="46.24907" lon="7.52912"><ele>1516.8</ele><time>2025-08-09T10:00:50Z</time></trkpt>
<trkpt lat="46.24906" lon="7.52935"><ele>1517.6</ele><time>2025-08-09T10:00:56Z</time></trkpt>
<trkpt lat="46.24906" lon="7.52942"><ele>1518</ele><time>2025-08-09T10:00:58Z</time></trkpt>
<trkpt lat="46.24904" lon="7.52961"><ele>1519</ele><time>2025-08-09T10:01:04Z</time></trkpt>
<trkpt lat="46.24904" lon="7.52964"><ele>1519.2</ele><time>2025-08-09T10:01:05Z</time></trkpt>
<trkpt lat="46.24902" lon="7.52981"><ele>1520</ele><time>2025-08-09T10:01:10Z</time></trkpt>
<trkpt lat="46.24902" lon="7.52984"><ele>1520.2</ele><time>2025-08-09T10:01:11Z</time></trkpt>
<trkpt lat="46.24901" lon="7.53004"><ele>1521.2</ele><time>2025-08-09T10:01:17Z</time></trkpt>
<trkpt lat="46.24901" lon="7.53007"><ele>1521.4</ele><time>2025-08-09T10:01:18Z</time></trkpt>
<trkpt lat="46.24903" lon="7.53027"><ele>1522.2</ele><time>2025-08-09T10:01:24Z</time></trkpt>
<trkpt lat="46.24903" lon="7.53045"><ele>1523.2</ele><time>2025-08-09T10:01:30Z</time></trkpt>
<trkpt lat="46.24903" lon="7.53048"><ele>1523.4</ele><time>2025-08-09T10:01:31Z</time></trkpt>
<trkpt lat="46.24902" lon="7.53074"><ele>1524.4</ele><time>2025-08-09T10:01:38Z</time></trkpt>
<trkpt lat="46.24902" lon="7.53078"><ele>1524.6</ele><time>2025-08-09T10:01:39Z</time></trkpt>
<trkpt lat="46.24894" lon="7.53102"><ele>1525</ele><time>2025-08-09T10:01:46Z</time></trkpt>
<trkpt lat="46.24891" lon="7.53112"><ele>1525.4</ele><time>2025-08-09T10:01:49Z</time></trkpt>
<trkpt lat="46.24884" lon="7.53136"><ele>1526</ele><time>2025-08-09T10:01:56Z</time></trkpt>
<trkpt lat="46.24882" lon="7.53162"><ele>1526.4</ele><time>2025-08-09T10:02:02Z</time></trkpt>
<trkpt lat="46.2488" lon="7.53173"><ele>1526.8</ele><time>2025-08-09T10:02:05Z</time></trkpt>
<trkpt lat="46.24875" lon="7.53193"><ele>1527.6</ele><time>2025-08-09T10:02:11Z</time></trkpt>
<trkpt lat="46.24872" lon="7.53202"><ele>1528</ele><time>2025-08-09T10:02:14Z</time></trkpt>
<trkpt lat="46.24869" lon="7.53212"><ele>1528.8</ele><time>2025-08-09T10:02:17Z</time></trkpt>
<trkpt lat="46.24864" lon="7.5323"><ele>1529.6</ele><time>2025-08-09T10:02:23Z</time></trkpt>
<trkpt lat="46.24863" lon="7.53237"><ele>1529.8</ele><time>2025-08-09T10:02:25Z</time></trkpt>
<trkpt lat="46.2486" lon="7.53253"><ele>1530.6</ele><time>2025-08-09T10:02:30Z</time></trkpt>
<trkpt lat="46.24859" lon="7.53259"><ele>1530.8</ele><time>2025-08-09T10:02:32Z</time></trkpt>
<trkpt lat="46.24859" lon="7.53276"><ele>1531.6</ele><time>2025-08-09T10:02:37Z</time></trkpt>
<trkpt lat="46.24858" lon="7.53282"><ele>1532</ele><time>2025-08-09T10:02:39Z</time></trkpt>
<trkpt lat="46.24856" lon="7.53305"><ele>1532.6</ele><time>2025-08-09T10:02:46Z</time></trkpt>
<trkpt lat="46.24855" lon="7.53314"><ele>1533</ele><time>2025-08-09T10:02:49Z</time></trkpt>
<trkpt lat="46.24854" lon="7.53327"><ele>1533.6</ele><time>2025-08-09T10:02:53Z</time></trkpt>
<trkpt lat="46.24853" lon="7.53344"><ele>1534.2</ele><time>2025-08-09T10:02:58Z</time></trkpt>
<trkpt lat="46.24852" lon="7.53347"><ele>1534.4</ele><time>2025-08-09T10:02:59Z</time></trkpt>
<trkpt lat="46.24848" lon="7.53367"><ele>1535.4</ele><time>2025-08-09T10:03:05Z</time></trkpt>
<trkpt lat="46.24846" lon="7.53373"><ele>1535.6</ele><time>2025-08-09T10:03:07Z</time></trkpt>
<trkpt lat="46.24841" lon="7.53395"><ele>1536.4</ele><time>2025-08-09T10:03:14Z</time></trkpt>
<trkpt lat="46.2484" lon="7.5342"><ele>1537.2</ele><time>2025-08-09T10:03:21Z</time></trkpt>
<trkpt lat="46.2484" lon="7.5344"><ele>1537.4</ele><time>2025-08-09T10:03:26Z</time></trkpt>
<trkpt lat="46.2484" lon="7.53454"><ele>1538</ele><time>2025-08-09T10:03:30Z</time></trkpt>
<trkpt lat="46.24835" lon="7.53483"><ele>1538.4</ele><time>2025-08-09T10:03:37Z</time></trkpt>
<trkpt lat="46.24833" lon="7.53491"><ele>1538.6</ele><time>2025-08-09T10:03:39Z</time></trkpt>
<trkpt lat="46.24828" lon="7.53512"><ele>1539</ele><time>2025-08-09T10:03:45Z</time></trkpt>
<trkpt lat="46.24825" lon="7.5353"><ele>1539.6</ele><time>2025-08-09T10:03:50Z</time></trkpt>
<trkpt lat="46.24822" lon="7.53539"><ele>1540</ele><time>2025-08-09T10:03:53Z</time></trkpt>
<trkpt lat="46.24819" lon="7.53547"><ele>1540.6</ele><time>2025-08-09T10:03:56Z</time></trkpt>
<trkpt lat="46.24813" lon="7.53567"><ele>1541.8</ele><time>2025-08-09T10:04:03Z</time></trkpt>
<trkpt lat="46.24808" lon="7.53587"><ele>1542.6</ele><time>2025-08-09T10:04:11Z</time></trkpt>
<trkpt lat="46.24808" lon="7.5359"><ele>1542.8</ele><time>2025-08-09T10:04:12Z</time></trkpt>
<trkpt lat="46.24809" lon="7.53609"><ele>1544</ele><time>2025-08-09T10:04:19Z</time></trkpt>
<trkpt lat="46.24809" lon="7.53611"><ele>1544.2</ele><time>2025-08-09T10:04:20Z</time></trkpt>
<trkpt lat="46.24809" lon="7.53628"><ele>1545</ele><time>2025-08-09T10:04:26Z</time></trkpt>
<trkpt lat="46.24809" lon="7.53631"><ele>1545.2</ele><time>2025-08-09T10:04:27Z</time></trkpt>
<trkpt lat="46.24806" lon="7.53647"><ele>1546</ele><time>2025-08-09T10:04:33Z</time></trkpt>
<trkpt lat="46.24805" lon="7.53652"><ele>1546.4</ele><time>2025-08-09T10:04:35Z</time></trkpt>
<trkpt lat="46.24796" lon="7.53661"><ele>1547.2</ele><time>2025-08-09T10:04:40Z</time></trkpt>
<trkpt lat="46.24794" lon="7.53662"><ele>1547.2</ele><time>2025-08-09T10:04:41Z</time></trkpt>
<trkpt lat="46.24777" lon="7.53666"><ele>1548</ele><time>2025-08-09T10:04:49Z</time></trkpt>
<trkpt lat="46.24775" lon="7.53667"><ele>1548.2</ele><time>2025-08-09T10:04:50Z</time></trkpt>
<trkpt lat="46.24759" lon="7.53674"><ele>1549</ele><time>2025-08-09T10:04:58Z</time></trkpt>
<trkpt lat="46.24757" lon="7.53675"><ele>1549.2</ele><time>2025-08-09T10:04:59Z</time></trkpt>
<trkpt lat="46.24747" lon="7.53685"><ele>1550.2</ele><time>2025-08-09T10:05:05Z</time></trkpt>
<trkpt lat="46.24734" lon="7.537"><ele>1551.2</ele><time>2025-08-09T10:05:13Z</time></trkpt>
<trkpt lat="46.24724" lon="7.53712"><ele>1552.4</ele><time>2025-08-09T10:05:19Z</time></trkpt>
<trkpt lat="46.24721" lon="7.53715"><ele>1552.6</ele><time>2025-08-09T10:05:21Z</time></trkpt>
<trkpt lat="46.2471" lon="7.53728"><ele>1553.4</ele><time>2025-08-09T10:05:27Z</time></trkpt>
<trkpt lat="46.24705" lon="7.53734"><ele>1553.8</ele><time>2025-08-09T10:05:30Z</time></trkpt>
<trkpt lat="46.24693" lon="7.53744"><ele>1554.6</ele><time>2025-08-09T10:05:36Z</time></trkpt>
<trkpt lat="46.24685" lon="7.53751"><ele>1555</ele><time>2025-08-09T10:05:40Z</time></trkpt>
<trkpt lat="46.24679" lon="7.53753"><ele>1555.6</ele><time>2025-08-09T10:05:43Z</time></trkpt>
<trkpt lat="46.2467" lon="7.53753"><ele>1556.2</ele><time>2025-08-09T10:05:47Z</time></trkpt>
<trkpt lat="46.24664" lon="7.53749"><ele>1556.6</ele><time>2025-08-09T10:05:50Z</time></trkpt>
<trkpt lat="46.24654" lon="7.53746"><ele>1557.2</ele><time>2025-08-09T10:05:55Z</time></trkpt>
<trkpt lat="46.24642" lon="7.53747"><ele>1557.8</ele><time>2025-08-09T10:06:00Z</time></trkpt>
<trkpt lat="46.24636" lon="7.5375"><ele>1558.2</ele><time>2025-08-09T10:06:03Z</time></trkpt>
<trkpt lat="46.2462" lon="7.5376"><ele>1558.8</ele><time>2025-08-09T10:06:11Z</time></trkpt>
<trkpt lat="46.24618" lon="7.53762"><ele>1558.8</ele><time>2025-08-09T10:06:12Z</time></trkpt>
<trkpt lat="46.24601" lon="7.53774"><ele>1559.8</ele><time>2025-08-09T10:06:20Z</time></trkpt>
<trkpt lat="46.24597" lon="7.53776"><ele>1560</ele><time>2025-08-09T10:06:22Z</time></trkpt>
<trkpt lat="46.2458" lon="7.53788"><ele>1561</ele><time>2025-08-09T10:06:30Z</time></trkpt>
<trkpt lat="46.24574" lon="7.53793"><ele>1561.4</ele><time>2025-08-09T10:06:33Z</time></trkpt>
<trkpt lat="46.24565" lon="7.53802"><ele>1562</ele><time>2025-08-09T10:06:38Z</time></trkpt>
<trkpt lat="46.24561" lon="7.53809"><ele>1562.4</ele><time>2025-08-09T10:06:41Z</time></trkpt>
<trkpt lat="46.2455" lon="7.53822"><ele>1563</ele><time>2025-08-09T10:06:47Z</time></trkpt>
<trkpt lat="46.24548" lon="7.53824"><ele>1563</ele><time>2025-08-09T10:06:48Z</time></trkpt>
<trkpt lat="46.24534" lon="7.53841"><ele>1563.8</ele><time>2025-08-09T10:06:56Z</time></trkpt>
<trkpt lat="46.24531" lon="7.53847"><ele>1564</ele><time>2025-08-09T10:06:58Z</time></trkpt>
<trkpt lat="46.2452" lon="7.53865"><ele>1564.8</ele><time>2025-08-09T10:07:05Z</time></trkpt>
<trkpt lat="46.24511" lon="7.53872"><ele>1565.2</ele><time>2025-08-09T10:07:09Z</time></trkpt>
<trkpt lat="46.24504" lon="7.53875"><ele>1565.6</ele><time>2025-08-09T10:07:12Z</time></trkpt>
<trkpt lat="46.24491" lon="7.53884"><ele>1566.2</ele><time>2025-08-09T10:07:18Z</time></trkpt>
<trkpt lat="46.24489" lon="7.53886"><ele>1566.2</ele><time>2025-08-09T10:07:19Z</time></trkpt>
<trkpt lat="46.2447" lon="7.53899"><ele>1566.8</ele><time>2025-08-09T10:07:27Z</time></trkpt>
<trkpt lat="46.2446" lon="7.53901"><ele>1567.2</ele><time>2025-08-09T10:07:31Z</time></trkpt>
<trkpt lat="46.24451" lon="7.53901"><ele>1567.6</ele><time>2025-08-09T10:07:35Z</time></trkpt>
<trkpt lat="46.24439" lon="7.53897"><ele>1568.4</ele><time>2025-08-09T10:07:41Z</time></trkpt>
<trkpt lat="46.24424" lon="7.53887"><ele>1568.8</ele><time>2025-08-09T10:07:47Z</time></trkpt>
<trkpt lat="46.24408" lon="7.53879"><ele>1569.2</ele><time>2025-08-09T10:07:53Z</time></trkpt>
<trkpt lat="46.24389" lon="7.5387"><ele>1569.6</ele><time>2025-08-09T10:08:00Z</time></trkpt>
<trkpt lat="46.24384" lon="7.53869"><ele>1569.8</ele><time>2025-08-09T10:08:02Z</time></trkpt>
<trkpt lat="46.24366" lon="7.5386"><ele>1570.2</ele><time>2025-08-09T10:08:09Z</time></trkpt>
<trkpt lat="46.24349" lon="7.53853"><ele>1570.6</ele><time>2025-08-09T10:08:15Z</time></trkpt>
<trkpt lat="46.24347" lon="7.53851"><ele>1570.6</ele><time>2025-08-09T10:08:16Z</time></trkpt>
<trkpt lat="46.24329" lon="7.53843"><ele>1570.8</ele><time>2025-08-09T10:08:22Z</time></trkpt>
<trkpt lat="46.24313" lon="7.53832"><ele>1571</ele><time>2025-08-09T10:08:28Z</time></trkpt>
<trkpt lat="46.24298" lon="7.53815"><ele>1570.8</ele><time>2025-08-09T10:08:33Z</time></trkpt>
<trkpt lat="46.24281" lon="7.53809"><ele>1571</ele><time>2025-08-09T10:08:38Z</time></trkpt>
<trkpt lat="46.24258" lon="7.53805"><ele>1571.2</ele><time>2025-08-09T10:08:45Z</time></trkpt>
<trkpt lat="46.24232" lon="7.53794"><ele>1571.4</ele><time>2025-08-09T10:08:53Z</time></trkpt>
<trkpt lat="46.24222" lon="7.53788"><ele>1571.6</ele><time>2025-08-09T10:08:56Z</time></trkpt>
<trkpt lat="46.24209" lon="7.53773"><ele>1572</ele><time>2025-08-09T10:09:01Z</time></trkpt>
<trkpt lat="46.24191" lon="7.53764"><ele>1572</ele><time>2025-08-09T10:09:07Z</time></trkpt>
<trkpt lat="46.2418" lon="7.53777"><ele>1572</ele><time>2025-08-09T10:09:11Z</time></trkpt>
<trkpt lat="46.24166" lon="7.53806"><ele>1572.4</ele><time>2025-08-09T10:09:18Z</time></trkpt>
<trkpt lat="46.24157" lon="7.53811"><ele>1572.6</ele><time>2025-08-09T10:09:21Z</time></trkpt>
<trkpt lat="46.2415" lon="7.53813"><ele>1572.8</ele><time>2025-08-09T10:09:23Z</time></trkpt>
<trkpt lat="46.24131" lon="7.5382"><ele>1572.8</ele><time>2025-08-09T10:09:29Z</time></trkpt>
<trkpt lat="46.24103" lon="7.5383"><ele>1573.2</ele><time>2025-08-09T10:09:37Z</time></trkpt>
<trkpt lat="46.24089" lon="7.53825"><ele>1573.2</ele><time>2025-08-09T10:09:41Z</time></trkpt>
<trkpt lat="46.24085" lon="7.53824"><ele>1573.4</ele><time>2025-08-09T10:09:42Z</time></trkpt>
<trkpt lat="46.24066" lon="7.53817"><ele>1573.2</ele><time>2025-08-09T10:09:47Z</time></trkpt>
<trkpt lat="46.24044" lon="7.53814"><ele>1573</ele><time>2025-08-09T10:09:53Z</time></trkpt>
<trkpt lat="46.24026" lon="7.53813"><ele>1572.8</ele><time>2025-08-09T10:09:58Z</time></trkpt>
<trkpt lat="46.24004" lon="7.53815"><ele>1573</ele><time>2025-08-09T10:10:04Z</time></trkpt>
<trkpt lat="46.23984" lon="7.53817"><ele>1573</ele><time>2025-08-09T10:10:09Z</time></trkpt>
<trkpt lat="46.23971" lon="7.53826"><ele>1573.2</ele><time>2025-08-09T10:10:13Z</time></trkpt>
<trkpt lat="46.23969" lon="7.5383"><ele>1573.2</ele><time>2025-08-09T10:10:14Z</time></trkpt>
<trkpt lat="46.23957" lon="7.53856"><ele>1573.4</ele><time>2025-08-09T10:10:20Z</time></trkpt>
<trkpt lat="46.23945" lon="7.53876"><ele>1573.8</ele><time>2025-08-09T10:10:25Z</time></trkpt>
<trkpt lat="46.23939" lon="7.53882"><ele>1574.2</ele><time>2025-08-09T10:10:27Z</time></trkpt>
<trkpt lat="46.23924" lon="7.53903"><ele>1574</ele><time>2025-08-09T10:10:33Z</time></trkpt>
<trkpt lat="46.23914" lon="7.53923"><ele>1574.8</ele><time>2025-08-09T10:10:38Z</time></trkpt>
<trkpt lat="46.23908" lon="7.53937"><ele>1575.2</ele><time>2025-08-09T10:10:41Z</time></trkpt>
<trkpt lat="46.23901" lon="7.53966"><ele>1575.8</ele><time>2025-08-09T10:10:47Z</time></trkpt>
<trkpt lat="46.23896" lon="7.53973"><ele>1575.8</ele><time>2025-08-09T10:10:49Z</time></trkpt>
<trkpt lat="46.23887" lon="7.53982"><ele>1576.2</ele><time>2025-08-09T10:10:52Z</time></trkpt>
<trkpt lat="46.23875" lon="7.53996"><ele>1576.8</ele><time>2025-08-09T10:10:57Z</time></trkpt>
<trkpt lat="46.23873" lon="7.53999"><ele>1577</ele><time>2025-08-09T10:10:58Z</time></trkpt>
<trkpt lat="46.23871" lon="7.54003"><ele>1577</ele><time>2025-08-09T10:10:59Z</time></trkpt>
<trkpt lat="46.23866" lon="7.5403"><ele>1577.4</ele><time>2025-08-09T10:11:05Z</time></trkpt>
<trkpt lat="46.23865" lon="7.54044"><ele>1578</ele><time>2025-08-09T10:11:08Z</time></trkpt>
<trkpt lat="46.23861" lon="7.54061"><ele>1578.4</ele><time>2025-08-09T10:11:12Z</time></trkpt>
<trkpt lat="46.23864" lon="7.54083"><ele>1578.8</ele><time>2025-08-09T10:11:17Z</time></trkpt>
<trkpt lat="46.23869" lon="7.54107"><ele>1579</ele><time>2025-08-09T10:11:22Z</time></trkpt>
<trkpt lat="46.2387" lon="7.54112"><ele>1579.2</ele><time>2025-08-09T10:11:23Z</time></trkpt>
<trkpt lat="46.23877" lon="7.54153"><ele>1579.6</ele><time>2025-08-09T10:11:31Z</time></trkpt>
<trkpt lat="46.2387" lon="7.54174"><ele>1580</ele><time>2025-08-09T10:11:36Z</time></trkpt>
<trkpt lat="46.23857" lon="7.54184"><ele>1580.6</ele><time>2025-08-09T10:11:41Z</time></trkpt>
<trkpt lat="46.2385" lon="7.54195"><ele>1581.2</ele><time>2025-08-09T10:11:45Z</time></trkpt>
<trkpt lat="46.23847" lon="7.54203"><ele>1581.8</ele><time>2025-08-09T10:11:48Z</time></trkpt>
<trkpt lat="46.23843" lon="7.54211"><ele>1582.2</ele><time>2025-08-09T10:11:51Z</time></trkpt>
<trkpt lat="46.23842" lon="7.54224"><ele>1582.6</ele><time>2025-08-09T10:11:55Z</time></trkpt>
<trkpt lat="46.23842" lon="7.54241"><ele>1583.2</ele><time>2025-08-09T10:12:00Z</time></trkpt>
<trkpt lat="46.23842" lon="7.54247"><ele>1583.6</ele><time>2025-08-09T10:12:02Z</time></trkpt>
<trkpt lat="46.23846" lon="7.54262"><ele>1584.4</ele><time>2025-08-09T10:12:07Z</time></trkpt>
<trkpt lat="46.23846" lon="7.54265"><ele>1584.4</ele><time>2025-08-09T10:12:08Z</time></trkpt>
<trkpt lat="46.23852" lon="7.54282"><ele>1585.2</ele><time>2025-08-09T10:12:14Z</time></trkpt>
<trkpt lat="46.23853" lon="7.54285"><ele>1585.4</ele><time>2025-08-09T10:12:15Z</time></trkpt>
<trkpt lat="46.23856" lon="7.54294"><ele>1585.6</ele><time>2025-08-09T10:12:18Z</time></trkpt>
<trkpt lat="46.23863" lon="7.54315"><ele>1586.6</ele><time>2025-08-09T10:12:25Z</time></trkpt>
<trkpt lat="46.23863" lon="7.54321"><ele>1586.8</ele><time>2025-08-09T10:12:27Z</time></trkpt>
<trkpt lat="46.23864" lon="7.54339"><ele>1587.6</ele><time>2025-08-09T10:12:33Z</time></trkpt>
<trkpt lat="46.23864" lon="7.54348"><ele>1588</ele><time>2025-08-09T10:12:36Z</time></trkpt>
<trkpt lat="46.23867" lon="7.54363"><ele>1588.8</ele><time>2025-08-09T10:12:41Z</time></trkpt>
<trkpt lat="46.23868" lon="7.54369"><ele>1589</ele><time>2025-08-09T10:12:43Z</time></trkpt>
<trkpt lat="46.2387" lon="7.54381"><ele>1589.8</ele><time>2025-08-09T10:12:47Z</time></trkpt>
<trkpt lat="46.23871" lon="7.54393"><ele>1590.4</ele><time>2025-08-09T10:12:51Z</time></trkpt>
<trkpt lat="46.23874" lon="7.54404"><ele>1590.8</ele><time>2025-08-09T10:12:55Z</time></trkpt>
<trkpt lat="46.23875" lon="7.54415"><ele>1591.4</ele><time>2025-08-09T10:12:59Z</time></trkpt>
<trkpt lat="46.23876" lon="7.54426"><ele>1592</ele><time>2025-08-09T10:13:03Z</time></trkpt>
<trkpt lat="46.23877" lon="7.54441"><ele>1592.6</ele><time>2025-08-09T10:13:08Z</time></trkpt>
<trkpt lat="46.23878" lon="7.54451"><ele>1593</ele><time>2025-08-09T10:13:11Z</time></trkpt>
<trkpt lat="46.2388" lon="7.54465"><ele>1593.8</ele><time>2025-08-09T10:13:16Z</time></trkpt>
<trkpt lat="46.2388" lon="7.54468"><ele>1594</ele><time>2025-08-09T10:13:17Z</time></trkpt>
<trkpt lat="46.23886" lon="7.54489"><ele>1595</ele><time>2025-08-09T10:13:24Z</time></trkpt>
<trkpt lat="46.23889" lon="7.54499"><ele>1595</ele><time>2025-08-09T10:13:27Z</time></trkpt>
<trkpt lat="46.23895" lon="7.54518"><ele>1596</ele><time>2025-08-09T10:13:34Z</time></trkpt>
<trkpt lat="46.23896" lon="7.54521"><ele>1596.2</ele><time>2025-08-09T10:13:35Z</time></trkpt>
<trkpt lat="46.23904" lon="7.54538"><ele>1596.6</ele><time>2025-08-09T10:13:41Z</time></trkpt>
<trkpt lat="46.23912" lon="7.54551"><ele>1597.2</ele><time>2025-08-09T10:13:46Z</time></trkpt>
<trkpt lat="46.23914" lon="7.54557"><ele>1597.4</ele><time>2025-08-09T10:13:48Z</time></trkpt>
<trkpt lat="46.23927" lon="7.54569"><ele>1598.2</ele><time>2025-08-09T10:13:55Z</time></trkpt>
<trkpt lat="46.23945" lon="7.54577"><ele>1599.2</ele><time>2025-08-09T10:14:03Z</time></trkpt>
<trkpt lat="46.23959" lon="7.54592"><ele>1600.4</ele><time>2025-08-09T10:14:12Z</time></trkpt>
<trkpt lat="46.23965" lon="7.54606"><ele>1601.2</ele><time>2025-08-09T10:14:18Z</time></trkpt>
<trkpt lat="46.23967" lon="7.5461"><ele>1601.4</ele><time>2025-08-09T10:14:20Z</time></trkpt>
<trkpt lat="46.23973" lon="7.54617"><ele>1601.8</ele><time>2025-08-09T10:14:24Z</time></trkpt>
<trkpt lat="46.23984" lon="7.5462"><ele>1602.2</ele><time>2025-08-09T10:14:29Z</time></trkpt>
<trkpt lat="46.23986" lon="7.54621"><ele>1602.4</ele><time>2025-08-09T10:14:30Z</time></trkpt>
<trkpt lat="46.24" lon="7.54625"><ele>1602.8</ele><time>2025-08-09T10:14:35Z</time></trkpt>
<trkpt lat="46.2402" lon="7.54631"><ele>1603.2</ele><time>2025-08-09T10:14:43Z</time></trkpt>
<trkpt lat="46.2403" lon="7.54633"><ele>1603.6</ele><time>2025-08-09T10:14:47Z</time></trkpt>
<trkpt lat="46.24033" lon="7.54634"><ele>1603.6</ele><time>2025-08-09T10:14:48Z</time></trkpt>
<trkpt lat="46.2405" lon="7.54636"><ele>1603.8</ele><time>2025-08-09T10:14:54Z</time></trkpt>
<trkpt lat="46.24062" lon="7.54633"><ele>1604.4</ele><time>2025-08-09T10:14:59Z</time></trkpt>
<trkpt lat="46.24065" lon="7.54632"><ele>1604.6</ele><time>2025-08-09T10:15:00Z</time></trkpt>
<trkpt lat="46.24076" lon="7.54629"><ele>1605.4</ele><time>2025-08-09T10:15:05Z</time></trkpt>
<trkpt lat="46.24085" lon="7.54625"><ele>1605.8</ele><time>2025-08-09T10:15:09Z</time></trkpt>
<trkpt lat="46.24087" lon="7.54624"><ele>1606</ele><time>2025-08-09T10:15:10Z</time></trkpt>
<trkpt lat="46.24099" lon="7.54627"><ele>1606.4</ele><time>2025-08-09T10:15:15Z</time></trkpt>
<trkpt lat="46.24107" lon="7.54636"><ele>1607</ele><time>2025-08-09T10:15:19Z</time></trkpt>
<trkpt lat="46.24109" lon="7.54638"><ele>1607</ele><time>2025-08-09T10:15:20Z</time></trkpt>
<trkpt lat="46.24119" lon="7.54653"><ele>1608</ele><time>2025-08-09T10:15:27Z</time></trkpt>
<trkpt lat="46.24121" lon="7.54655"><ele>1608.2</ele><time>2025-08-09T10:15:28Z</time></trkpt>
<trkpt lat="46.2413" lon="7.54668"><ele>1609.2</ele><time>2025-08-09T10:15:34Z</time></trkpt>
<trkpt lat="46.24132" lon="7.54673"><ele>1609.6</ele><time>2025-08-09T10:15:36Z</time></trkpt>
<trkpt lat="46.24136" lon="7.54688"><ele>1610.4</ele><time>2025-08-09T10:15:41Z</time></trkpt>
<trkpt lat="46.24137" lon="7.54697"><ele>1610.8</ele><time>2025-08-09T10:15:44Z</time></trkpt>
<trkpt lat="46.24139" lon="7.54711"><ele>1611.4</ele><time>2025-08-09T10:15:48Z</time></trkpt>
<trkpt lat="46.24141" lon="7.5472"><ele>1611.8</ele><time>2025-08-09T10:15:51Z</time></trkpt>
<trkpt lat="46.24146" lon="7.54741"><ele>1612.4</ele><time>2025-08-09T10:15:58Z</time></trkpt>
<trkpt lat="46.24146" lon="7.54744"><ele>1612.6</ele><time>2025-08-09T10:15:59Z</time></trkpt>
<trkpt lat="46.24151" lon="7.54764"><ele>1613.8</ele><time>2025-08-09T10:16:06Z</time></trkpt>
<trkpt lat="46.24158" lon="7.54789"><ele>1614.6</ele><time>2025-08-09T10:16:14Z</time></trkpt>
<trkpt lat="46.24159" lon="7.54791"><ele>1614.8</ele><time>2025-08-09T10:16:15Z</time></trkpt>
<trkpt lat="46.24166" lon="7.54813"><ele>1615.2</ele><time>2025-08-09T10:16:22Z</time></trkpt>
<trkpt lat="46.24169" lon="7.54822"><ele>1615.8</ele><time>2025-08-09T10:16:25Z</time></trkpt>
<trkpt lat="46.24174" lon="7.54836"><ele>1616.6</ele><time>2025-08-09T10:16:30Z</time></trkpt>
<trkpt lat="46.24177" lon="7.54845"><ele>1616.8</ele><time>2025-08-09T10:16:33Z</time></trkpt>
<trkpt lat="46.24178" lon="7.54861"><ele>1617.8</ele><time>2025-08-09T10:16:38Z</time></trkpt>
<trkpt lat="46.24178" lon="7.54868"><ele>1618</ele><time>2025-08-09T10:16:40Z</time></trkpt>
<trkpt lat="46.24177" lon="7.54882"><ele>1618.4</ele><time>2025-08-09T10:16:44Z</time></trkpt>
<trkpt lat="46.24177" lon="7.54894"><ele>1619</ele><time>2025-08-09T10:16:48Z</time></trkpt>
<trkpt lat="46.24177" lon="7.54904"><ele>1619.2</ele><time>2025-08-09T10:16:51Z</time></trkpt>
<trkpt lat="46.24175" lon="7.54925"><ele>1620</ele><time>2025-08-09T10:16:58Z</time></trkpt>
<trkpt lat="46.24173" lon="7.54946"><ele>1620.6</ele><time>2025-08-09T10:17:04Z</time></trkpt>
<trkpt lat="46.24176" lon="7.54952"><ele>1621</ele><time>2025-08-09T10:17:06Z</time></trkpt>
<trkpt lat="46.24181" lon="7.54962"><ele>1621.6</ele><time>2025-08-09T10:17:10Z</time></trkpt>
<trkpt lat="46.24185" lon="7.5497"><ele>1622</ele><time>2025-08-09T10:17:13Z</time></trkpt>
<trkpt lat="46.24189" lon="7.54976"><ele>1622.6</ele><time>2025-08-09T10:17:16Z</time></trkpt>
<trkpt lat="46.24193" lon="7.54981"><ele>1623.2</ele><time>2025-08-09T10:17:19Z</time></trkpt>
<trkpt lat="46.24198" lon="7.5499"><ele>1624</ele><time>2025-08-09T10:17:23Z</time></trkpt>
<trkpt lat="46.24203" lon="7.54996"><ele>1624.2</ele><time>2025-08-09T10:17:26Z</time></trkpt>
<trkpt lat="46.24209" lon="7.55004"><ele>1624.8</ele><time>2025-08-09T10:17:30Z</time></trkpt>
<trkpt lat="46.24216" lon="7.55009"><ele>1625.4</ele><time>2025-08-09T10:17:34Z</time></trkpt>
<trkpt lat="46.24221" lon="7.55013"><ele>1625.8</ele><time>2025-08-09T10:17:37Z</time></trkpt>
<trkpt lat="46.2423" lon="7.5502"><ele>1626.4</ele><time>2025-08-09T10:17:42Z</time></trkpt>
<trkpt lat="46.24236" lon="7.55028"><ele>1627.2</ele><time>2025-08-09T10:17:46Z</time></trkpt>
<trkpt lat="46.24239" lon="7.55032"><ele>1627.4</ele><time>2025-08-09T10:17:48Z</time></trkpt>
<trkpt lat="46.24246" lon="7.55044"><ele>1628.2</ele><time>2025-08-09T10:17:54Z</time></trkpt>
<trkpt lat="46.24249" lon="7.5505"><ele>1628.6</ele><time>2025-08-09T10:17:57Z</time></trkpt>
<trkpt lat="46.24251" lon="7.55058"><ele>1629</ele><time>2025-08-09T10:18:01Z</time></trkpt>
<trkpt lat="46.24253" lon="7.5506"><ele>1629</ele><time>2025-08-09T10:18:06Z</time></trkpt>
<trkpt lat="46.24255" lon="7.55062"><ele>1628.8</ele><time>2025-08-09T10:18:11Z</time></trkpt>
<trkpt lat="46.24257" lon="7.55061"><ele>1628.6</ele><time>2025-08-09T10:18:18Z</time></trkpt>
<trkpt lat="46.24257" lon="7.55061"><ele>1628.4</ele><time>2025-08-09T10:18:33Z</time></trkpt>
<trkpt lat="46.24257" lon="7.55061"><ele>1628.4</ele><time>2025-08-09T10:18:45Z</time></trkpt>
<trkpt lat="46.24257" lon="7.55061"><ele>1628.6</ele><time>2025-08-09T10:18:55Z</time></trkpt>
<trkpt lat="46.24257" lon="7.55061"><ele>1628.6</ele><time>2025-08-09T10:19:00Z</time></trkpt>
<trkpt lat="46.24257" lon="7.55061"><ele>1628.6</ele><time>2025-08-09T10:19:06Z</time></trkpt>
<trkpt lat="46.24255" lon="7.55059"><ele>1628.6</ele><time>2025-08-09T10:19:11Z</time></trkpt>
<trkpt lat="46.24255" lon="7.55059"><ele>1628.6</ele><time>2025-08-09T10:19:15Z</time></trkpt>
<trkpt lat="46.24254" lon="7.5506"><ele>1628.8</ele><time>2025-08-09T10:19:16Z</time></trkpt>
<trkpt lat="46.24255" lon="7.5506"><ele>1628.8</ele><time>2025-08-09T10:19:24Z</time></trkpt>
<trkpt lat="46.24255" lon="7.55061"><ele>1628.6</ele><time>2025-08-09T10:19:31Z</time></trkpt>
<trkpt lat="46.24255" lon="7.55064"><ele>1628.8</ele><time>2025-08-09T10:19:35Z</time></trkpt>
<trkpt lat="46.24254" lon="7.55073"><ele>1629.4</ele><time>2025-08-09T10:19:40Z</time></trkpt>
<trkpt lat="46.24254" lon="7.55082"><ele>1629.6</ele><time>2025-08-09T10:19:44Z</time></trkpt>
<trkpt lat="46.24253" lon="7.55091"><ele>1629.6</ele><time>2025-08-09T10:19:47Z</time></trkpt>
<trkpt lat="46.24252" lon="7.55096"><ele>1629.8</ele><time>2025-08-09T10:19:49Z</time></trkpt>
<trkpt lat="46.2425" lon="7.55108"><ele>1630.4</ele><time>2025-08-09T10:19:54Z</time></trkpt>
<trkpt lat="46.24249" lon="7.55112"><ele>1630.6</ele><time>2025-08-09T10:19:56Z</time></trkpt>
<trkpt lat="46.24247" lon="7.55122"><ele>1631</ele><time>2025-08-09T10:20:00Z</time></trkpt>
<trkpt lat="46.24245" lon="7.5513"><ele>1631.4</ele><time>2025-08-09T10:20:03Z</time></trkpt>
<trkpt lat="46.24244" lon="7.55135"><ele>1631.8</ele><time>2025-08-09T10:20:05Z</time></trkpt>
<trkpt lat="46.24243" lon="7.55138"><ele>1631.8</ele><time>2025-08-09T10:20:06Z</time></trkpt>
<trkpt lat="46.24239" lon="7.5515"><ele>1632.2</ele><time>2025-08-09T10:20:11Z</time></trkpt>
<trkpt lat="46.24237" lon="7.55163"><ele>1632.8</ele><time>2025-08-09T10:20:16Z</time></trkpt>
<trkpt lat="46.24237" lon="7.55165"><ele>1632.8</ele><time>2025-08-09T10:20:17Z</time></trkpt>
<trkpt lat="46.24235" lon="7.55173"><ele>1633.2</ele><time>2025-08-09T10:20:20Z</time></trkpt>
<trkpt lat="46.24233" lon="7.55181"><ele>1633.6</ele><time>2025-08-09T10:20:23Z</time></trkpt>
<trkpt lat="46.24232" lon="7.55187"><ele>1633.8</ele><time>2025-08-09T10:20:25Z</time></trkpt>
<trkpt lat="46.24228" lon="7.55204"><ele>1634.6</ele><time>2025-08-09T10:20:31Z</time></trkpt>
<trkpt lat="46.24228" lon="7.55207"><ele>1634.8</ele><time>2025-08-09T10:20:32Z</time></trkpt>
<trkpt lat="46.24227" lon="7.5522"><ele>1635</ele><time>2025-08-09T10:20:36Z</time></trkpt>
<trkpt lat="46.24229" lon="7.55235"><ele>1635.6</ele><time>2025-08-09T10:20:41Z</time></trkpt>
<trkpt lat="46.24231" lon="7.5524"><ele>1636</ele><time>2025-08-09T10:20:43Z</time></trkpt>
<trkpt lat="46.24234" lon="7.55251"><ele>1636.6</ele><time>2025-08-09T10:20:47Z</time></trkpt>
<trkpt lat="46.24237" lon="7.5526"><ele>1637</ele><time>2025-08-09T10:20:50Z</time></trkpt>
<trkpt lat="46.24238" lon="7.55275"><ele>1637.8</ele><time>2025-08-09T10:20:55Z</time></trkpt>
<trkpt lat="46.24236" lon="7.55282"><ele>1638</ele><time>2025-08-09T10:20:57Z</time></trkpt>
<trkpt lat="46.24231" lon="7.55288"><ele>1638.4</ele><time>2025-08-09T10:21:00Z</time></trkpt>
<trkpt lat="46.24217" lon="7.55293"><ele>1639.2</ele><time>2025-08-09T10:21:06Z</time></trkpt>
<trkpt lat="46.24201" lon="7.55293"><ele>1640</ele><time>2025-08-09T10:21:13Z</time></trkpt>
<trkpt lat="46.24196" lon="7.55293"><ele>1640.2</ele><time>2025-08-09T10:21:15Z</time></trkpt>
<trkpt lat="46.24186" lon="7.55294"><ele>1641</ele><time>2025-08-09T10:21:19Z</time></trkpt>
<trkpt lat="46.24174" lon="7.553"><ele>1641</ele><time>2025-08-09T10:21:24Z</time></trkpt>
<trkpt lat="46.24168" lon="7.55306"><ele>1641.2</ele><time>2025-08-09T10:21:27Z</time></trkpt>
<trkpt lat="46.24159" lon="7.55315"><ele>1641.8</ele><time>2025-08-09T10:21:32Z</time></trkpt>
<trkpt lat="46.24152" lon="7.55324"><ele>1642.2</ele><time>2025-08-09T10:21:37Z</time></trkpt>
<trkpt lat="46.24151" lon="7.55325"><ele>1642.4</ele><time>2025-08-09T10:21:38Z</time></trkpt>
<trkpt lat="46.24151" lon="7.55325"><ele>1642.4</ele><time>2025-08-09T10:21:39Z</time></trkpt>
<trkpt lat="46.24147" lon="7.55327"><ele>1642.6</ele><time>2025-08-09T10:21:43Z</time></trkpt>
<trkpt lat="46.24144" lon="7.5533"><ele>1642.6</ele><time>2025-08-09T10:21:45Z</time></trkpt>
<trkpt lat="46.24125" lon="7.55342"><ele>1643.2</ele><time>2025-08-09T10:21:53Z</time></trkpt>
<trkpt lat="46.24118" lon="7.55347"><ele>1643.4</ele><time>2025-08-09T10:21:56Z</time></trkpt>
<trkpt lat="46.24114" lon="7.5535"><ele>1643.4</ele><time>2025-08-09T10:21:58Z</time></trkpt>
<trkpt lat="46.24101" lon="7.55361"><ele>1644</ele><time>2025-08-09T10:22:06Z</time></trkpt>
<trkpt lat="46.24086" lon="7.55377"><ele>1644</ele><time>2025-08-09T10:22:13Z</time></trkpt>
<trkpt lat="46.24066" lon="7.55398"><ele>1644</ele><time>2025-08-09T10:22:19Z</time></trkpt>
<trkpt lat="46.24045" lon="7.55418"><ele>1644.4</ele><time>2025-08-09T10:22:26Z</time></trkpt>
<trkpt lat="46.24039" lon="7.55425"><ele>1644.6</ele><time>2025-08-09T10:22:28Z</time></trkpt>
<trkpt lat="46.2403" lon="7.55439"><ele>1644.4</ele><time>2025-08-09T10:22:31Z</time></trkpt>
<trkpt lat="46.24019" lon="7.5546"><ele>1644.8</ele><time>2025-08-09T10:22:36Z</time></trkpt>
<trkpt lat="46.24016" lon="7.55467"><ele>1645</ele><time>2025-08-09T10:22:38Z</time></trkpt>
<trkpt lat="46.24011" lon="7.55475"><ele>1645.4</ele><time>2025-08-09T10:22:41Z</time></trkpt>
<trkpt lat="46.24008" lon="7.5548"><ele>1645.8</ele><time>2025-08-09T10:22:43Z</time></trkpt>
<trkpt lat="46.23999" lon="7.5549"><ele>1646.6</ele><time>2025-08-09T10:22:47Z</time></trkpt>
<trkpt lat="46.23997" lon="7.55493"><ele>1646.8</ele><time>2025-08-09T10:22:48Z</time></trkpt>
<trkpt lat="46.23985" lon="7.55506"><ele>1647.6</ele><time>2025-08-09T10:22:54Z</time></trkpt>
<trkpt lat="46.23983" lon="7.55509"><ele>1647.8</ele><time>2025-08-09T10:22:55Z</time></trkpt>
<trkpt lat="46.23976" lon="7.55515"><ele>1648.4</ele><time>2025-08-09T10:22:59Z</time></trkpt>
<trkpt lat="46.2397" lon="7.5552"><ele>1648.8</ele><time>2025-08-09T10:23:02Z</time></trkpt>
<trkpt lat="46.23965" lon="7.55527"><ele>1649.2</ele><time>2025-08-09T10:23:05Z</time></trkpt>
<trkpt lat="46.23954" lon="7.55541"><ele>1649.8</ele><time>2025-08-09T10:23:11Z</time></trkpt>
<trkpt lat="46.23952" lon="7.55543"><ele>1650</ele><time>2025-08-09T10:23:12Z</time></trkpt>
<trkpt lat="46.23934" lon="7.55568"><ele>1650</ele><time>2025-08-09T10:23:20Z</time></trkpt>
<trkpt lat="46.23916" lon="7.5559"><ele>1650.4</ele><time>2025-08-09T10:23:28Z</time></trkpt>
<trkpt lat="46.23902" lon="7.556"><ele>1651</ele><time>2025-08-09T10:23:33Z</time></trkpt>
<trkpt lat="46.23897" lon="7.55604"><ele>1651.2</ele><time>2025-08-09T10:23:35Z</time></trkpt>
<trkpt lat="46.23883" lon="7.55614"><ele>1652</ele><time>2025-08-09T10:23:41Z</time></trkpt>
<trkpt lat="46.23878" lon="7.55617"><ele>1652.2</ele><time>2025-08-09T10:23:43Z</time></trkpt>
<trkpt lat="46.23859" lon="7.55624"><ele>1652</ele><time>2025-08-09T10:23:49Z</time></trkpt>
<trkpt lat="46.23842" lon="7.55629"><ele>1650.6</ele><time>2025-08-09T10:23:53Z</time></trkpt>
<trkpt lat="46.23832" lon="7.55633"><ele>1650</ele><time>2025-08-09T10:23:55Z</time></trkpt>
<trkpt lat="46.23826" lon="7.55633"><ele>1650</ele><time>2025-08-09T10:23:56Z</time></trkpt>
<trkpt lat="46.23814" lon="7.5563"><ele>1649.8</ele><time>2025-08-09T10:23:58Z</time></trkpt>
<trkpt lat="46.23795" lon="7.55621"><ele>1649.4</ele><time>2025-08-09T10:24:01Z</time></trkpt>
<trkpt lat="46.23788" lon="7.5562"><ele>1649.2</ele><time>2025-08-09T10:24:02Z</time></trkpt>
<trkpt lat="46.23782" lon="7.55622"><ele>1649.2</ele><time>2025-08-09T10:24:03Z</time></trkpt>
<trkpt lat="46.23766" lon="7.55627"><ele>1649.2</ele><time>2025-08-09T10:24:06Z</time></trkpt>
<trkpt lat="46.23761" lon="7.55628"><ele>1649.2</ele><time>2025-08-09T10:24:07Z</time></trkpt>
<trkpt lat="46.23747" lon="7.55629"><ele>1649.6</ele><time>2025-08-09T10:24:10Z</time></trkpt>
<trkpt lat="46.23738" lon="7.55633"><ele>1649.8</ele><time>2025-08-09T10:24:12Z</time></trkpt>
<trkpt lat="46.23716" lon="7.55641"><ele>1650.4</ele><time>2025-08-09T10:24:18Z</time></trkpt>
<trkpt lat="46.23701" lon="7.55656"><ele>1650.4</ele><time>2025-08-09T10:24:23Z</time></trkpt>
<trkpt lat="46.23685" lon="7.55665"><ele>1650.8</ele><time>2025-08-09T10:24:28Z</time></trkpt>
<trkpt lat="46.23667" lon="7.5567"><ele>1651.4</ele><time>2025-08-09T10:24:34Z</time></trkpt>
<trkpt lat="46.23663" lon="7.55671"><ele>1651.6</ele><time>2025-08-09T10:24:35Z</time></trkpt>
<trkpt lat="46.23642" lon="7.55677"><ele>1652</ele><time>2025-08-09T10:24:40Z</time></trkpt>
<trkpt lat="46.2363" lon="7.5568"><ele>1652</ele><time>2025-08-09T10:24:43Z</time></trkpt>
<trkpt lat="46.23621" lon="7.55676"><ele>1652</ele><time>2025-08-09T10:24:45Z</time></trkpt>
<trkpt lat="46.23603" lon="7.55659"><ele>1652.4</ele><time>2025-08-09T10:24:50Z</time></trkpt>
<trkpt lat="46.23596" lon="7.55655"><ele>1652.6</ele><time>2025-08-09T10:24:52Z</time></trkpt>
<trkpt lat="46.23577" lon="7.55643"><ele>1652.8</ele><time>2025-08-09T10:24:57Z</time></trkpt>
<trkpt lat="46.23554" lon="7.5562"><ele>1652.8</ele><time>2025-08-09T10:25:03Z</time></trkpt>
<trkpt lat="46.23546" lon="7.55612"><ele>1654</ele><time>2025-08-09T10:25:07Z</time></trkpt>
<trkpt lat="46.2354" lon="7.55605"><ele>1655.2</ele><time>2025-08-09T10:25:12Z</time></trkpt>
<trkpt lat="46.23539" lon="7.55605"><ele>1655.4</ele><time>2025-08-09T10:25:13Z</time></trkpt>
<trkpt lat="46.23534" lon="7.55601"><ele>1656.2</ele><time>2025-08-09T10:25:17Z</time></trkpt>
<trkpt lat="46.2353" lon="7.55598"><ele>1657</ele><time>2025-08-09T10:25:21Z</time></trkpt>
<trkpt lat="46.23527" lon="7.55598"><ele>1657.2</ele><time>2025-08-09T10:25:23Z</time></trkpt>
<trkpt lat="46.23523" lon="7.55594"><ele>1658</ele><time>2025-08-09T10:25:27Z</time></trkpt>
<trkpt lat="46.23521" lon="7.55594"><ele>1658.4</ele><time>2025-08-09T10:25:29Z</time></trkpt>
<trkpt lat="46.23519" lon="7.55592"><ele>1659</ele><time>2025-08-09T10:25:32Z</time></trkpt>
<trkpt lat="46.23516" lon="7.55589"><ele>1659.6</ele><time>2025-08-09T10:25:35Z</time></trkpt>
<trkpt lat="46.23514" lon="7.55588"><ele>1660</ele><time>2025-08-09T10:25:37Z</time></trkpt>
<trkpt lat="46.23513" lon="7.55587"><ele>1660.6</ele><time>2025-08-09T10:25:39Z</time></trkpt>
<trkpt lat="46.23512" lon="7.55586"><ele>1661.2</ele><time>2025-08-09T10:25:42Z</time></trkpt>
<trkpt lat="46.23509" lon="7.55585"><ele>1661.6</ele><time>2025-08-09T10:25:44Z</time></trkpt>
<trkpt lat="46.23506" lon="7.55584"><ele>1662.4</ele><time>2025-08-09T10:25:48Z</time></trkpt>
<trkpt lat="46.23504" lon="7.55583"><ele>1662.8</ele><time>2025-08-09T10:25:50Z</time></trkpt>
<trkpt lat="46.23501" lon="7.55582"><ele>1663.2</ele><time>2025-08-09T10:25:53Z</time></trkpt>
<trkpt lat="46.235" lon="7.55581"><ele>1663.4</ele><time>2025-08-09T10:25:54Z</time></trkpt>
<trkpt lat="46.23499" lon="7.5558"><ele>1663.8</ele><time>2025-08-09T10:25:56Z</time></trkpt>
<trkpt lat="46.23494" lon="7.55578"><ele>1664.4</ele><time>2025-08-09T10:26:00Z</time></trkpt>
<trkpt lat="46.23492" lon="7.55576"><ele>1664.8</ele><time>2025-08-09T10:26:02Z</time></trkpt>
<trkpt lat="46.23489" lon="7.55574"><ele>1665.4</ele><time>2025-08-09T10:26:06Z</time></trkpt>
<trkpt lat="46.23486" lon="7.55572"><ele>1665.8</ele><time>2025-08-09T10:26:09Z</time></trkpt>
<trkpt lat="46.23482" lon="7.55567"><ele>1666.6</ele><time>2025-08-09T10:26:14Z</time></trkpt>
<trkpt lat="46.23481" lon="7.55565"><ele>1666.8</ele><time>2025-08-09T10:26:16Z</time></trkpt>
<trkpt lat="46.23476" lon="7.55561"><ele>1667.6</ele><time>2025-08-09T10:26:21Z</time></trkpt>
<trkpt lat="46.23476" lon="7.5556"><ele>1667.8</ele><time>2025-08-09T10:26:22Z</time></trkpt>
<trkpt lat="46.23475" lon="7.55559"><ele>1668</ele><time>2025-08-09T10:26:23Z</time></trkpt>
<trkpt lat="46.23472" lon="7.55557"><ele>1668.2</ele><time>2025-08-09T10:26:26Z</time></trkpt>
<trkpt lat="46.23467" lon="7.55553"><ele>1669</ele><time>2025-08-09T10:26:31Z</time></trkpt>
<trkpt lat="46.23465" lon="7.55552"><ele>1669.2</ele><time>2025-08-09T10:26:32Z</time></trkpt>
<trkpt lat="46.23461" lon="7.5555"><ele>1670</ele><time>2025-08-09T10:26:37Z</time></trkpt>
<trkpt lat="46.23459" lon="7.55549"><ele>1670.2</ele><time>2025-08-09T10:26:38Z</time></trkpt>
<trkpt lat="46.23454" lon="7.55547"><ele>1671.4</ele><time>2025-08-09T10:26:44Z</time></trkpt>
<trkpt lat="46.23449" lon="7.55544"><ele>1672.4</ele><time>2025-08-09T10:26:49Z</time></trkpt>
<trkpt lat="46.23448" lon="7.55544"><ele>1672.6</ele><time>2025-08-09T10:26:50Z</time></trkpt>
<trkpt lat="46.23444" lon="7.55542"><ele>1673.6</ele><time>2025-08-09T10:26:55Z</time></trkpt>
<trkpt lat="46.2344" lon="7.5554"><ele>1674.6</ele><time>2025-08-09T10:27:00Z</time></trkpt>
<trkpt lat="46.23438" lon="7.55538"><ele>1675</ele><time>2025-08-09T10:27:02Z</time></trkpt>
<trkpt lat="46.23434" lon="7.55533"><ele>1675.6</ele><time>2025-08-09T10:27:06Z</time></trkpt>
<trkpt lat="46.2343" lon="7.5553"><ele>1676.2</ele><time>2025-08-09T10:27:10Z</time></trkpt>
<trkpt lat="46.23429" lon="7.55527"><ele>1676.6</ele><time>2025-08-09T10:27:12Z</time></trkpt>
<trkpt lat="46.23427" lon="7.55523"><ele>1677.2</ele><time>2025-08-09T10:27:15Z</time></trkpt>
<trkpt lat="46.23424" lon="7.55519"><ele>1677.8</ele><time>2025-08-09T10:27:20Z</time></trkpt>
<trkpt lat="46.23422" lon="7.55517"><ele>1678.2</ele><time>2025-08-09T10:27:22Z</time></trkpt>
<trkpt lat="46.23419" lon="7.55513"><ele>1678.8</ele><time>2025-08-09T10:27:26Z</time></trkpt>
<trkpt lat="46.23418" lon="7.55513"><ele>1679</ele><time>2025-08-09T10:27:27Z</time></trkpt>
<trkpt lat="46.23412" lon="7.55506"><ele>1680</ele><time>2025-08-09T10:27:33Z</time></trkpt>
<trkpt lat="46.23409" lon="7.55503"><ele>1680.2</ele><time>2025-08-09T10:27:35Z</time></trkpt>
<trkpt lat="46.23398" lon="7.55496"><ele>1681</ele><time>2025-08-09T10:27:43Z</time></trkpt>
<trkpt lat="46.23396" lon="7.55495"><ele>1681.2</ele><time>2025-08-09T10:27:44Z</time></trkpt>
<trkpt lat="46.2339" lon="7.55493"><ele>1682.2</ele><time>2025-08-09T10:27:50Z</time></trkpt>
<trkpt lat="46.23383" lon="7.55491"><ele>1683.4</ele><time>2025-08-09T10:27:56Z</time></trkpt>
<trkpt lat="46.23383" lon="7.55491"><ele>1683.6</ele><time>2025-08-09T10:27:57Z</time></trkpt>
<trkpt lat="46.23376" lon="7.5549"><ele>1684.6</ele><time>2025-08-09T10:28:03Z</time></trkpt>
<trkpt lat="46.23374" lon="7.55489"><ele>1685</ele><time>2025-08-09T10:28:05Z</time></trkpt>
<trkpt lat="46.23369" lon="7.55488"><ele>1685.6</ele><time>2025-08-09T10:28:09Z</time></trkpt>
<trkpt lat="46.23366" lon="7.55487"><ele>1686.2</ele><time>2025-08-09T10:28:12Z</time></trkpt>
<trkpt lat="46.23361" lon="7.55483"><ele>1686.8</ele><time>2025-08-09T10:28:16Z</time></trkpt>
<trkpt lat="46.23358" lon="7.5548"><ele>1687</ele><time>2025-08-09T10:28:18Z</time></trkpt>
<trkpt lat="46.2335" lon="7.55472"><ele>1687.8</ele><time>2025-08-09T10:28:25Z</time></trkpt>
<trkpt lat="46.23343" lon="7.55464"><ele>1688.6</ele><time>2025-08-09T10:28:31Z</time></trkpt>
<trkpt lat="46.23341" lon="7.55463"><ele>1688.8</ele><time>2025-08-09T10:28:32Z</time></trkpt>
<trkpt lat="46.23332" lon="7.55455"><ele>1689.8</ele><time>2025-08-09T10:28:39Z</time></trkpt>
<trkpt lat="46.23331" lon="7.55453"><ele>1689.8</ele><time>2025-08-09T10:28:40Z</time></trkpt>
<trkpt lat="46.23327" lon="7.55449"><ele>1690.4</ele><time>2025-08-09T10:28:44Z</time></trkpt>
<trkpt lat="46.23323" lon="7.55445"><ele>1691</ele><time>2025-08-09T10:28:47Z</time></trkpt>
<trkpt lat="46.23318" lon="7.55439"><ele>1691.8</ele><time>2025-08-09T10:28:51Z</time></trkpt>
<trkpt lat="46.23317" lon="7.55438"><ele>1692</ele><time>2025-08-09T10:28:52Z</time></trkpt>
<trkpt lat="46.23312" lon="7.55428"><ele>1693</ele><time>2025-08-09T10:28:57Z</time></trkpt>
<trkpt lat="46.23311" lon="7.55427"><ele>1693.2</ele><time>2025-08-09T10:28:58Z</time></trkpt>
<trkpt lat="46.23306" lon="7.55415"><ele>1694</ele><time>2025-08-09T10:29:04Z</time></trkpt>
<trkpt lat="46.23305" lon="7.55413"><ele>1694.2</ele><time>2025-08-09T10:29:05Z</time></trkpt>
<trkpt lat="46.23299" lon="7.55401"><ele>1695</ele><time>2025-08-09T10:29:11Z</time></trkpt>
<trkpt lat="46.23293" lon="7.55394"><ele>1695.2</ele><time>2025-08-09T10:29:14Z</time></trkpt>
<trkpt lat="46.23289" lon="7.55389"><ele>1695.6</ele><time>2025-08-09T10:29:17Z</time></trkpt>
<trkpt lat="46.23282" lon="7.55379"><ele>1696.4</ele><time>2025-08-09T10:29:21Z</time></trkpt>
<trkpt lat="46.2328" lon="7.55372"><ele>1696.6</ele><time>2025-08-09T10:29:23Z</time></trkpt>
<trkpt lat="46.23272" lon="7.55353"><ele>1697</ele><time>2025-08-09T10:29:29Z</time></trkpt>
<trkpt lat="46.23269" lon="7.55344"><ele>1697.4</ele><time>2025-08-09T10:29:32Z</time></trkpt>
<trkpt lat="46.23265" lon="7.55336"><ele>1697.8</ele><time>2025-08-09T10:29:35Z</time></trkpt>
<trkpt lat="46.23255" lon="7.55325"><ele>1698.6</ele><time>2025-08-09T10:29:40Z</time></trkpt>
<trkpt lat="46.23254" lon="7.55322"><ele>1698.8</ele><time>2025-08-09T10:29:41Z</time></trkpt>
<trkpt lat="46.23252" lon="7.55309"><ele>1698.4</ele><time>2025-08-09T10:29:44Z</time></trkpt>
<trkpt lat="46.23253" lon="7.55302"><ele>1698.2</ele><time>2025-08-09T10:29:45Z</time></trkpt>
<trkpt lat="46.23255" lon="7.55295"><ele>1697.6</ele><time>2025-08-09T10:29:46Z</time></trkpt>
<trkpt lat="46.23257" lon="7.55286"><ele>1697.2</ele><time>2025-08-09T10:29:47Z</time></trkpt>
<trkpt lat="46.23258" lon="7.55277"><ele>1696.6</ele><time>2025-08-09T10:29:48Z</time></trkpt>
<trkpt lat="46.23258" lon="7.55267"><ele>1696</ele><time>2025-08-09T10:29:49Z</time></trkpt>
<trkpt lat="46.23256" lon="7.55258"><ele>1695.6</ele><time>2025-08-09T10:29:50Z</time></trkpt>
<trkpt lat="46.23248" lon="7.55244"><ele>1695.2</ele><time>2025-08-09T10:29:52Z</time></trkpt>
<trkpt lat="46.23237" lon="7.55226"><ele>1696</ele><time>2025-08-09T10:29:55Z</time></trkpt>
<trkpt lat="46.23232" lon="7.55213"><ele>1696.4</ele><time>2025-08-09T10:29:57Z</time></trkpt>
<trkpt lat="46.23227" lon="7.55202"><ele>1696.4</ele><time>2025-08-09T10:29:59Z</time></trkpt>
<trkpt lat="46.2322" lon="7.55194"><ele>1696.6</ele><time>2025-08-09T10:30:01Z</time></trkpt>
<trkpt lat="46.23216" lon="7.55191"><ele>1696.8</ele><time>2025-08-09T10:30:02Z</time></trkpt>
<trkpt lat="46.23209" lon="7.55186"><ele>1697.4</ele><time>2025-08-09T10:30:04Z</time></trkpt>
<trkpt lat="46.23199" lon="7.55179"><ele>1698.4</ele><time>2025-08-09T10:30:07Z</time></trkpt>
<trkpt lat="46.23195" lon="7.55178"><ele>1698.8</ele><time>2025-08-09T10:30:08Z</time></trkpt>
<trkpt lat="46.23186" lon="7.55173"><ele>1699.6</ele><time>2025-08-09T10:30:11Z</time></trkpt>
<trkpt lat="46.23176" lon="7.55172"><ele>1700</ele><time>2025-08-09T10:30:14Z</time></trkpt>
<trkpt lat="46.23158" lon="7.55179"><ele>1700.4</ele><time>2025-08-09T10:30:19Z</time></trkpt>
<trkpt lat="46.23152" lon="7.55183"><ele>1700.8</ele><time>2025-08-09T10:30:21Z</time></trkpt>
<trkpt lat="46.23139" lon="7.55191"><ele>1701.8</ele><time>2025-08-09T10:30:26Z</time></trkpt>
<trkpt lat="46.23137" lon="7.55193"><ele>1702</ele><time>2025-08-09T10:30:27Z</time></trkpt>
<trkpt lat="46.23122" lon="7.55199"><ele>1702.6</ele><time>2025-08-09T10:30:33Z</time></trkpt>
<trkpt lat="46.23117" lon="7.55201"><ele>1703</ele><time>2025-08-09T10:30:35Z</time></trkpt>
<trkpt lat="46.231" lon="7.55209"><ele>1703.2</ele><time>2025-08-09T10:30:42Z</time></trkpt>
<trkpt lat="46.23084" lon="7.55223"><ele>1703.6</ele><time>2025-08-09T10:30:49Z</time></trkpt>
<trkpt lat="46.2307" lon="7.55223"><ele>1703.8</ele><time>2025-08-09T10:30:54Z</time></trkpt>
<trkpt lat="46.23053" lon="7.55212"><ele>1703.8</ele><time>2025-08-09T10:31:00Z</time></trkpt>
<trkpt lat="46.23048" lon="7.5521"><ele>1704</ele><time>2025-08-09T10:31:02Z</time></trkpt>
<trkpt lat="46.23036" lon="7.55201"><ele>1704.6</ele><time>2025-08-09T10:31:07Z</time></trkpt>
<trkpt lat="46.2302" lon="7.55186"><ele>1704.6</ele><time>2025-08-09T10:31:13Z</time></trkpt>
<trkpt lat="46.23007" lon="7.55174"><ele>1704.6</ele><time>2025-08-09T10:31:18Z</time></trkpt>
<trkpt lat="46.23001" lon="7.55171"><ele>1704.6</ele><time>2025-08-09T10:31:20Z</time></trkpt>
<trkpt lat="46.22988" lon="7.55174"><ele>1704.6</ele><time>2025-08-09T10:31:25Z</time></trkpt>
<trkpt lat="46.2298" lon="7.55182"><ele>1705</ele><time>2025-08-09T10:31:29Z</time></trkpt>
<trkpt lat="46.22975" lon="7.55193"><ele>1704.8</ele><time>2025-08-09T10:31:32Z</time></trkpt>
<trkpt lat="46.22958" lon="7.55217"><ele>1704</ele><time>2025-08-09T10:31:39Z</time></trkpt>
<trkpt lat="46.22944" lon="7.55223"><ele>1702.8</ele><time>2025-08-09T10:31:42Z</time></trkpt>
<trkpt lat="46.22938" lon="7.55224"><ele>1702.2</ele><time>2025-08-09T10:31:43Z</time></trkpt>
<trkpt lat="46.22931" lon="7.55225"><ele>1701.8</ele><time>2025-08-09T10:31:44Z</time></trkpt>
<trkpt lat="46.22919" lon="7.55223"><ele>1700.6</ele><time>2025-08-09T10:31:46Z</time></trkpt>
<trkpt lat="46.22909" lon="7.55219"><ele>1700</ele><time>2025-08-09T10:31:48Z</time></trkpt>
<trkpt lat="46.22904" lon="7.55215"><ele>1699.6</ele><time>2025-08-09T10:31:49Z</time></trkpt>
<trkpt lat="46.229" lon="7.55211"><ele>1699.2</ele><time>2025-08-09T10:31:50Z</time></trkpt>
<trkpt lat="46.22891" lon="7.55203"><ele>1698.8</ele><time>2025-08-09T10:31:52Z</time></trkpt>
<trkpt lat="46.22885" lon="7.55203"><ele>1698.2</ele><time>2025-08-09T10:31:53Z</time></trkpt>
<trkpt lat="46.22879" lon="7.55204"><ele>1698</ele><time>2025-08-09T10:31:54Z</time></trkpt>
<trkpt lat="46.22874" lon="7.55205"><ele>1697.6</ele><time>2025-08-09T10:31:55Z</time></trkpt>
<trkpt lat="46.22868" lon="7.55207"><ele>1697</ele><time>2025-08-09T10:31:56Z</time></trkpt>
<trkpt lat="46.22841" lon="7.55215"><ele>1696</ele><time>2025-08-09T10:32:00Z</time></trkpt>
<trkpt lat="46.22829" lon="7.55212"><ele>1696</ele><time>2025-08-09T10:32:02Z</time></trkpt>
<trkpt lat="46.22824" lon="7.55209"><ele>1696.2</ele><time>2025-08-09T10:32:03Z</time></trkpt>
<trkpt lat="46.22816" lon="7.55207"><ele>1697.2</ele><time>2025-08-09T10:32:06Z</time></trkpt>
<trkpt lat="46.22811" lon="7.55207"><ele>1698.4</ele><time>2025-08-09T10:32:09Z</time></trkpt>
<trkpt lat="46.22808" lon="7.55207"><ele>1699.2</ele><time>2025-08-09T10:32:12Z</time></trkpt>
<trkpt lat="46.22806" lon="7.55206"><ele>1699.6</ele><time>2025-08-09T10:32:15Z</time></trkpt>
<trkpt lat="46.22805" lon="7.55206"><ele>1699.8</ele><time>2025-08-09T10:32:17Z</time></trkpt>
<trkpt lat="46.22799" lon="7.55208"><ele>1700.6</ele><time>2025-08-09T10:32:22Z</time></trkpt>
<trkpt lat="46.22799" lon="7.55208"><ele>1700.6</ele><time>2025-08-09T10:32:23Z</time></trkpt>
<trkpt lat="46.22793" lon="7.55205"><ele>1701.2</ele><time>2025-08-09T10:32:28Z</time></trkpt>
<trkpt lat="46.22791" lon="7.55202"><ele>1701.4</ele><time>2025-08-09T10:32:31Z</time></trkpt>
<trkpt lat="46.2279" lon="7.552"><ele>1701.6</ele><time>2025-08-09T10:32:34Z</time></trkpt>
<trkpt lat="46.2279" lon="7.55198"><ele>1701.8</ele><time>2025-08-09T10:32:35Z</time></trkpt>
<trkpt lat="46.22789" lon="7.55195"><ele>1702</ele><time>2025-08-09T10:32:38Z</time></trkpt>
<trkpt lat="46.22787" lon="7.55189"><ele>1702.6</ele><time>2025-08-09T10:32:44Z</time></trkpt>
<trkpt lat="46.22786" lon="7.55185"><ele>1702.8</ele><time>2025-08-09T10:32:47Z</time></trkpt>
<trkpt lat="46.22784" lon="7.5518"><ele>1703</ele><time>2025-08-09T10:32:50Z</time></trkpt>
<trkpt lat="46.22778" lon="7.55171"><ele>1703.8</ele><time>2025-08-09T10:32:55Z</time></trkpt>
<trkpt lat="46.22777" lon="7.55171"><ele>1704</ele><time>2025-08-09T10:32:56Z</time></trkpt>
<trkpt lat="46.2277" lon="7.55167"><ele>1704.6</ele><time>2025-08-09T10:33:01Z</time></trkpt>
<trkpt lat="46.22764" lon="7.55164"><ele>1705</ele><time>2025-08-09T10:33:05Z</time></trkpt>
<trkpt lat="46.2276" lon="7.55163"><ele>1705.2</ele><time>2025-08-09T10:33:08Z</time></trkpt>
<trkpt lat="46.22752" lon="7.55161"><ele>1706</ele><time>2025-08-09T10:33:14Z</time></trkpt>
<trkpt lat="46.22744" lon="7.5516"><ele>1707</ele><time>2025-08-09T10:33:20Z</time></trkpt>
<trkpt lat="46.22736" lon="7.55157"><ele>1707.8</ele><time>2025-08-09T10:33:26Z</time></trkpt>
<trkpt lat="46.22731" lon="7.55153"><ele>1708.2</ele><time>2025-08-09T10:33:29Z</time></trkpt>
<trkpt lat="46.22726" lon="7.55151"><ele>1708.4</ele><time>2025-08-09T10:33:32Z</time></trkpt>
<trkpt lat="46.22717" lon="7.55146"><ele>1709</ele><time>2025-08-09T10:33:38Z</time></trkpt>
<trkpt lat="46.22715" lon="7.55144"><ele>1709.2</ele><time>2025-08-09T10:33:40Z</time></trkpt>
<trkpt lat="46.2271" lon="7.55143"><ele>1709.6</ele><time>2025-08-09T10:33:43Z</time></trkpt>
<trkpt lat="46.22702" lon="7.55141"><ele>1710</ele><time>2025-08-09T10:33:48Z</time></trkpt>
<trkpt lat="46.22698" lon="7.55143"><ele>1710.2</ele><time>2025-08-09T10:33:51Z</time></trkpt>
<trkpt lat="46.22694" lon="7.55147"><ele>1710.8</ele><time>2025-08-09T10:33:54Z</time></trkpt>
<trkpt lat="46.22683" lon="7.55166"><ele>1711.2</ele><time>2025-08-09T10:34:03Z</time></trkpt>
<trkpt lat="46.22679" lon="7.55186"><ele>1712</ele><time>2025-08-09T10:34:12Z</time></trkpt>
<trkpt lat="46.22675" lon="7.55203"><ele>1712.4</ele><time>2025-08-09T10:34:18Z</time></trkpt>
<trkpt lat="46.22674" lon="7.55209"><ele>1712.6</ele><time>2025-08-09T10:34:20Z</time></trkpt>
<trkpt lat="46.2267" lon="7.55234"><ele>1713.4</ele><time>2025-08-09T10:34:29Z</time></trkpt>
<trkpt lat="46.22667" lon="7.55251"><ele>1714.2</ele><time>2025-08-09T10:34:35Z</time></trkpt>
<trkpt lat="46.22665" lon="7.55258"><ele>1714.6</ele><time>2025-08-09T10:34:38Z</time></trkpt>
<trkpt lat="46.22662" lon="7.55267"><ele>1715</ele><time>2025-08-09T10:34:42Z</time></trkpt>
<trkpt lat="46.22655" lon="7.55277"><ele>1715.6</ele><time>2025-08-09T10:34:47Z</time></trkpt>
<trkpt lat="46.22649" lon="7.55286"><ele>1716</ele><time>2025-08-09T10:34:51Z</time></trkpt>
<trkpt lat="46.22639" lon="7.55303"><ele>1716.6</ele><time>2025-08-09T10:34:58Z</time></trkpt>
<trkpt lat="46.22632" lon="7.55314"><ele>1716.6</ele><time>2025-08-09T10:35:02Z</time></trkpt>
<trkpt lat="46.22629" lon="7.5532"><ele>1716.8</ele><time>2025-08-09T10:35:04Z</time></trkpt>
<trkpt lat="46.22618" lon="7.55344"><ele>1717</ele><time>2025-08-09T10:35:12Z</time></trkpt>
<trkpt lat="46.22615" lon="7.55372"><ele>1716.6</ele><time>2025-08-09T10:35:18Z</time></trkpt>
<trkpt lat="46.22609" lon="7.55396"><ele>1715.8</ele><time>2025-08-09T10:35:23Z</time></trkpt>
<trkpt lat="46.22608" lon="7.55405"><ele>1715.6</ele><time>2025-08-09T10:35:25Z</time></trkpt>
<trkpt lat="46.22607" lon="7.55414"><ele>1715.4</ele><time>2025-08-09T10:35:27Z</time></trkpt>
<trkpt lat="46.22608" lon="7.55425"><ele>1715.4</ele><time>2025-08-09T10:35:29Z</time></trkpt>
<trkpt lat="46.22607" lon="7.55431"><ele>1715.2</ele><time>2025-08-09T10:35:30Z</time></trkpt>
<trkpt lat="46.226" lon="7.55451"><ele>1714.4</ele><time>2025-08-09T10:35:33Z</time></trkpt>
<trkpt lat="46.22596" lon="7.55466"><ele>1713.2</ele><time>2025-08-09T10:35:35Z</time></trkpt>
<trkpt lat="46.22594" lon="7.55485"><ele>1712</ele><time>2025-08-09T10:35:37Z</time></trkpt>
<trkpt lat="46.22593" lon="7.55515"><ele>1710.6</ele><time>2025-08-09T10:35:40Z</time></trkpt>
<trkpt lat="46.22593" lon="7.55534"><ele>1709.8</ele><time>2025-08-09T10:35:42Z</time></trkpt>
<trkpt lat="46.22594" lon="7.55542"><ele>1709.6</ele><time>2025-08-09T10:35:43Z</time></trkpt>
<trkpt lat="46.22598" lon="7.55567"><ele>1708.8</ele><time>2025-08-09T10:35:46Z</time></trkpt>
<trkpt lat="46.226" lon="7.55577"><ele>1708.2</ele><time>2025-08-09T10:35:47Z</time></trkpt>
<trkpt lat="46.22603" lon="7.55601"><ele>1706.8</ele><time>2025-08-09T10:35:49Z</time></trkpt>
<trkpt lat="46.22605" lon="7.55613"><ele>1706.4</ele><time>2025-08-09T10:35:50Z</time></trkpt>
<trkpt lat="46.22607" lon="7.55637"><ele>1705.8</ele><time>2025-08-09T10:35:52Z</time></trkpt>
<trkpt lat="46.22607" lon="7.55649"><ele>1705.4</ele><time>2025-08-09T10:35:53Z</time></trkpt>
<trkpt lat="46.22607" lon="7.5566"><ele>1705.4</ele><time>2025-08-09T10:35:54Z</time></trkpt>
<trkpt lat="46.22606" lon="7.55684"><ele>1704.2</ele><time>2025-08-09T10:35:56Z</time></trkpt>
<trkpt lat="46.22606" lon="7.55721"><ele>1702.8</ele><time>2025-08-09T10:35:59Z</time></trkpt>
<trkpt lat="46.22604" lon="7.55743"><ele>1701.2</ele><time>2025-08-09T10:36:01Z</time></trkpt>
<trkpt lat="46.22601" lon="7.55762"><ele>1700.2</ele><time>2025-08-09T10:36:03Z</time></trkpt>
<trkpt lat="46.22598" lon="7.55769"><ele>1699.6</ele><time>2025-08-09T10:36:04Z</time></trkpt>
<trkpt lat="46.22593" lon="7.55774"><ele>1699.2</ele><time>2025-08-09T10:36:05Z</time></trkpt>
<trkpt lat="46.22587" lon="7.55778"><ele>1699</ele><time>2025-08-09T10:36:06Z</time></trkpt>
<trkpt lat="46.22582" lon="7.55781"><ele>1698.6</ele><time>2025-08-09T10:36:07Z</time></trkpt>
<trkpt lat="46.22571" lon="7.55786"><ele>1697.8</ele><time>2025-08-09T10:36:10Z</time></trkpt>
<trkpt lat="46.2256" lon="7.55792"><ele>1697.6</ele><time>2025-08-09T10:36:13Z</time></trkpt>
<trkpt lat="46.22553" lon="7.55796"><ele>1697.2</ele><time>2025-08-09T10:36:15Z</time></trkpt>
<trkpt lat="46.22539" lon="7.55805"><ele>1696.6</ele><time>2025-08-09T10:36:18Z</time></trkpt>
<trkpt lat="46.22534" lon="7.55806"><ele>1696.4</ele><time>2025-08-09T10:36:19Z</time></trkpt>
<trkpt lat="46.22529" lon="7.55804"><ele>1696</ele><time>2025-08-09T10:36:20Z</time></trkpt>
<trkpt lat="46.22519" lon="7.55799"><ele>1695.6</ele><time>2025-08-09T10:36:22Z</time></trkpt>
<trkpt lat="46.22514" lon="7.55799"><ele>1695.4</ele><time>2025-08-09T10:36:23Z</time></trkpt>
<trkpt lat="46.22509" lon="7.55798"><ele>1695.2</ele><time>2025-08-09T10:36:24Z</time></trkpt>
<trkpt lat="46.22505" lon="7.55797"><ele>1695</ele><time>2025-08-09T10:36:25Z</time></trkpt>
<trkpt lat="46.22496" lon="7.55797"><ele>1694.6</ele><time>2025-08-09T10:36:27Z</time></trkpt>
<trkpt lat="46.22492" lon="7.55798"><ele>1694.4</ele><time>2025-08-09T10:36:28Z</time></trkpt>
<trkpt lat="46.22482" lon="7.55803"><ele>1694</ele><time>2025-08-09T10:36:30Z</time></trkpt>
<trkpt lat="46.22478" lon="7.55807"><ele>1693.8</ele><time>2025-08-09T10:36:31Z</time></trkpt>
<trkpt lat="46.22474" lon="7.55812"><ele>1693.6</ele><time>2025-08-09T10:36:32Z</time></trkpt>
<trkpt lat="46.22469" lon="7.55824"><ele>1693.2</ele><time>2025-08-09T10:36:34Z</time></trkpt>
<trkpt lat="46.22467" lon="7.5583"><ele>1692.8</ele><time>2025-08-09T10:36:35Z</time></trkpt>
<trkpt lat="46.22465" lon="7.55845"><ele>1691.6</ele><time>2025-08-09T10:36:38Z</time></trkpt>
<trkpt lat="46.22465" lon="7.55851"><ele>1691.6</ele><time>2025-08-09T10:36:39Z</time></trkpt>
<trkpt lat="46.22465" lon="7.55869"><ele>1691.4</ele><time>2025-08-09T10:36:42Z</time></trkpt>
<trkpt lat="46.22463" lon="7.55875"><ele>1691.2</ele><time>2025-08-09T10:36:43Z</time></trkpt>
<trkpt lat="46.2246" lon="7.5588"><ele>1691</ele><time>2025-08-09T10:36:44Z</time></trkpt>
<trkpt lat="46.22455" lon="7.55884"><ele>1690.6</ele><time>2025-08-09T10:36:45Z</time></trkpt>
<trkpt lat="46.22448" lon="7.55891"><ele>1690.2</ele><time>2025-08-09T10:36:47Z</time></trkpt>
<trkpt lat="46.22445" lon="7.55897"><ele>1689.8</ele><time>2025-08-09T10:36:48Z</time></trkpt>
<trkpt lat="46.22444" lon="7.55903"><ele>1689.6</ele><time>2025-08-09T10:36:49Z</time></trkpt>
<trkpt lat="46.22443" lon="7.55909"><ele>1689.2</ele><time>2025-08-09T10:36:50Z</time></trkpt>
<trkpt lat="46.2244" lon="7.55922"><ele>1688.6</ele><time>2025-08-09T10:36:52Z</time></trkpt>
<trkpt lat="46.22437" lon="7.55927"><ele>1688.4</ele><time>2025-08-09T10:36:53Z</time></trkpt>
<trkpt lat="46.22434" lon="7.55932"><ele>1688</ele><time>2025-08-09T10:36:54Z</time></trkpt>
<trkpt lat="46.2243" lon="7.55937"><ele>1687.8</ele><time>2025-08-09T10:36:55Z</time></trkpt>
<trkpt lat="46.22423" lon="7.5595"><ele>1687</ele><time>2025-08-09T10:36:57Z</time></trkpt>
<trkpt lat="46.22416" lon="7.55964"><ele>1685.8</ele><time>2025-08-09T10:36:59Z</time></trkpt>
<trkpt lat="46.22413" lon="7.55972"><ele>1685.4</ele><time>2025-08-09T10:37:00Z</time></trkpt>
<trkpt lat="46.22404" lon="7.55986"><ele>1684.6</ele><time>2025-08-09T10:37:02Z</time></trkpt>
<trkpt lat="46.22393" lon="7.55994"><ele>1683.6</ele><time>2025-08-09T10:37:04Z</time></trkpt>
<trkpt lat="46.22386" lon="7.55995"><ele>1683.6</ele><time>2025-08-09T10:37:05Z</time></trkpt>
<trkpt lat="46.2238" lon="7.55998"><ele>1683.4</ele><time>2025-08-09T10:37:06Z</time></trkpt>
<trkpt lat="46.22371" lon="7.56007"><ele>1682.4</ele><time>2025-08-09T10:37:08Z</time></trkpt>
<trkpt lat="46.2236" lon="7.56008"><ele>1682</ele><time>2025-08-09T10:37:10Z</time></trkpt>
<trkpt lat="46.22354" lon="7.56007"><ele>1681.6</ele><time>2025-08-09T10:37:11Z</time></trkpt>
<trkpt lat="46.22348" lon="7.56006"><ele>1681.8</ele><time>2025-08-09T10:37:12Z</time></trkpt>
<trkpt lat="46.22337" lon="7.56003"><ele>1681.2</ele><time>2025-08-09T10:37:14Z</time></trkpt>
<trkpt lat="46.22329" lon="7.55996"><ele>1680.4</ele><time>2025-08-09T10:37:16Z</time></trkpt>
<trkpt lat="46.22324" lon="7.55995"><ele>1679.8</ele><time>2025-08-09T10:37:17Z</time></trkpt>
<trkpt lat="46.22314" lon="7.56001"><ele>1679</ele><time>2025-08-09T10:37:19Z</time></trkpt>
<trkpt lat="46.22311" lon="7.56007"><ele>1678.6</ele><time>2025-08-09T10:37:20Z</time></trkpt>
<trkpt lat="46.22307" lon="7.56013"><ele>1678.4</ele><time>2025-08-09T10:37:21Z</time></trkpt>
<trkpt lat="46.22297" lon="7.56022"><ele>1677.8</ele><time>2025-08-09T10:37:23Z</time></trkpt>
<trkpt lat="46.22291" lon="7.56027"><ele>1677.4</ele><time>2025-08-09T10:37:24Z</time></trkpt>
<trkpt lat="46.22273" lon="7.56046"><ele>1676.2</ele><time>2025-08-09T10:37:27Z</time></trkpt>
<trkpt lat="46.22268" lon="7.56054"><ele>1675.6</ele><time>2025-08-09T10:37:28Z</time></trkpt>
<trkpt lat="46.22264" lon="7.56063"><ele>1675</ele><time>2025-08-09T10:37:29Z</time></trkpt>
<trkpt lat="46.22256" lon="7.56074"><ele>1674.2</ele><time>2025-08-09T10:37:31Z</time></trkpt>
<trkpt lat="46.22244" lon="7.56077"><ele>1673.8</ele><time>2025-08-09T10:37:33Z</time></trkpt>
<trkpt lat="46.22238" lon="7.56077"><ele>1673.4</ele><time>2025-08-09T10:37:34Z</time></trkpt>
<trkpt lat="46.22218" lon="7.56078"><ele>1672.4</ele><time>2025-08-09T10:37:37Z</time></trkpt>
<trkpt lat="46.22203" lon="7.56076"><ele>1671.4</ele><time>2025-08-09T10:37:39Z</time></trkpt>
<trkpt lat="46.22197" lon="7.56072"><ele>1670.8</ele><time>2025-08-09T10:37:40Z</time></trkpt>
<trkpt lat="46.22185" lon="7.56068"><ele>1669.6</ele><time>2025-08-09T10:37:42Z</time></trkpt>
<trkpt lat="46.22176" lon="7.56071"><ele>1668.8</ele><time>2025-08-09T10:37:44Z</time></trkpt>
<trkpt lat="46.22173" lon="7.56072"><ele>1668.4</ele><time>2025-08-09T10:37:45Z</time></trkpt>
<trkpt lat="46.22155" lon="7.56077"><ele>1667.2</ele><time>2025-08-09T10:37:49Z</time></trkpt>
<trkpt lat="46.22149" lon="7.56081"><ele>1666.8</ele><time>2025-08-09T10:37:50Z</time></trkpt>
<trkpt lat="46.22141" lon="7.56089"><ele>1666.6</ele><time>2025-08-09T10:37:52Z</time></trkpt>
<trkpt lat="46.22129" lon="7.56095"><ele>1666</ele><time>2025-08-09T10:37:56Z</time></trkpt>
<trkpt lat="46.2213" lon="7.56096"><ele>1665.8</ele><time>2025-08-09T10:38:00Z</time></trkpt>
<trkpt lat="46.22129" lon="7.56097"><ele>1665.8</ele><time>2025-08-09T10:38:05Z</time></trkpt>
<trkpt lat="46.22129" lon="7.56097"><ele>1666</ele><time>2025-08-09T10:38:10Z</time></trkpt>
<trkpt lat="46.22129" lon="7.56097"><ele>1666</ele><time>2025-08-09T10:38:16Z</time></trkpt>
<trkpt lat="46.22129" lon="7.56097"><ele>1666</ele><time>2025-08-09T10:38:17Z</time></trkpt>
<trkpt lat="46.22126" lon="7.56095"><ele>1665.8</ele><time>2025-08-09T10:38:25Z</time></trkpt>
<trkpt lat="46.22123" lon="7.56094"><ele>1665.4</ele><time>2025-08-09T10:38:30Z</time></trkpt>
<trkpt lat="46.22123" lon="7.56094"><ele>1665.4</ele><time>2025-08-09T10:38:38Z</time></trkpt>
<trkpt lat="46.22123" lon="7.56094"><ele>1665.4</ele><time>2025-08-09T10:38:41Z</time></trkpt>
<trkpt lat="46.22123" lon="7.56094"><ele>1665.2</ele><time>2025-08-09T10:38:44Z</time></trkpt>
<trkpt lat="46.22123" lon="7.56094"><ele>1665</ele><time>2025-08-09T10:38:45Z</time></trkpt>
<trkpt lat="46.22123" lon="7.56094"><ele>1665</ele><time>2025-08-09T10:38:46Z</time></trkpt>
<trkpt lat="46.22123" lon="7.56094"><ele>1665</ele><time>2025-08-09T10:38:52Z</time></trkpt>
<trkpt lat="46.22123" lon="7.56094"><ele>1665.2</ele><time>2025-08-09T10:39:02Z</time></trkpt>
<trkpt lat="46.22123" lon="7.56094"><ele>1665.2</ele><time>2025-08-09T10:39:05Z</time></trkpt>
<trkpt lat="46.22123" lon="7.56094"><ele>1665.2</ele><time>2025-08-09T10:39:07Z</time></trkpt>
<trkpt lat="46.22123" lon="7.56094"><ele>1665.2</ele><time>2025-08-09T10:39:08Z</time></trkpt>
<trkpt lat="46.22123" lon="7.56094"><ele>1665.2</ele><time>2025-08-09T10:39:09Z</time></trkpt>
<trkpt lat="46.22121" lon="7.56095"><ele>1665</ele><time>2025-08-09T10:39:11Z</time></trkpt>
<trkpt lat="46.22118" lon="7.56095"><ele>1665</ele><time>2025-08-09T10:39:12Z</time></trkpt>
<trkpt lat="46.22104" lon="7.5609"><ele>1664</ele><time>2025-08-09T10:39:16Z</time></trkpt>
<trkpt lat="46.22102" lon="7.56087"><ele>1664</ele><time>2025-08-09T10:39:17Z</time></trkpt>
<trkpt lat="46.22099" lon="7.56076"><ele>1663.4</ele><time>2025-08-09T10:39:19Z</time></trkpt>
<trkpt lat="46.22097" lon="7.5607"><ele>1663</ele><time>2025-08-09T10:39:20Z</time></trkpt>
<trkpt lat="46.22094" lon="7.56064"><ele>1662.6</ele><time>2025-08-09T10:39:21Z</time></trkpt>
<trkpt lat="46.22086" lon="7.56054"><ele>1661.8</ele><time>2025-08-09T10:39:23Z</time></trkpt>
<trkpt lat="46.22081" lon="7.56049"><ele>1661.4</ele><time>2025-08-09T10:39:24Z</time></trkpt>
<trkpt lat="46.22076" lon="7.56046"><ele>1661.4</ele><time>2025-08-09T10:39:25Z</time></trkpt>
<trkpt lat="46.22061" lon="7.56034"><ele>1660.4</ele><time>2025-08-09T10:39:28Z</time></trkpt>
<trkpt lat="46.2205" lon="7.56026"><ele>1659.2</ele><time>2025-08-09T10:39:30Z</time></trkpt>
<trkpt lat="46.22032" lon="7.56012"><ele>1658</ele><time>2025-08-09T10:39:33Z</time></trkpt>
<trkpt lat="46.22015" lon="7.56007"><ele>1657.2</ele><time>2025-08-09T10:39:36Z</time></trkpt>
<trkpt lat="46.22009" lon="7.56009"><ele>1656.8</ele><time>2025-08-09T10:39:37Z</time></trkpt>
<trkpt lat="46.22004" lon="7.56012"><ele>1656.6</ele><time>2025-08-09T10:39:38Z</time></trkpt>
<trkpt lat="46.21995" lon="7.56018"><ele>1656</ele><time>2025-08-09T10:39:40Z</time></trkpt>
<trkpt lat="46.21992" lon="7.56019"><ele>1655.8</ele><time>2025-08-09T10:39:41Z</time></trkpt>
<trkpt lat="46.2199" lon="7.5602"><ele>1655.8</ele><time>2025-08-09T10:39:42Z</time></trkpt>
<trkpt lat="46.21987" lon="7.56018"><ele>1655.6</ele><time>2025-08-09T10:39:44Z</time></trkpt>
<trkpt lat="46.21985" lon="7.56017"><ele>1655.6</ele><time>2025-08-09T10:39:45Z</time></trkpt>
<trkpt lat="46.21972" lon="7.56009"><ele>1654.6</ele><time>2025-08-09T10:39:49Z</time></trkpt>
<trkpt lat="46.21963" lon="7.56"><ele>1653.6</ele><time>2025-08-09T10:39:51Z</time></trkpt>
<trkpt lat="46.21947" lon="7.55991"><ele>1652.2</ele><time>2025-08-09T10:39:54Z</time></trkpt>
<trkpt lat="46.2193" lon="7.55987"><ele>1651.6</ele><time>2025-08-09T10:39:57Z</time></trkpt>
<trkpt lat="46.21925" lon="7.55984"><ele>1651.2</ele><time>2025-08-09T10:39:58Z</time></trkpt>
<trkpt lat="46.21899" lon="7.5597"><ele>1649.8</ele><time>2025-08-09T10:40:02Z</time></trkpt>
<trkpt lat="46.21893" lon="7.55967"><ele>1649.6</ele><time>2025-08-09T10:40:03Z</time></trkpt>
<trkpt lat="46.21881" lon="7.55957"><ele>1648.8</ele><time>2025-08-09T10:40:05Z</time></trkpt>
<trkpt lat="46.21876" lon="7.5595"><ele>1648.4</ele><time>2025-08-09T10:40:06Z</time></trkpt>
<trkpt lat="46.21872" lon="7.5594"><ele>1648</ele><time>2025-08-09T10:40:07Z</time></trkpt>
<trkpt lat="46.21867" lon="7.55932"><ele>1647.8</ele><time>2025-08-09T10:40:08Z</time></trkpt>
<trkpt lat="46.21861" lon="7.55925"><ele>1647.6</ele><time>2025-08-09T10:40:09Z</time></trkpt>
<trkpt lat="46.21855" lon="7.5592"><ele>1647.6</ele><time>2025-08-09T10:40:10Z</time></trkpt>
<trkpt lat="46.21848" lon="7.5592"><ele>1647.8</ele><time>2025-08-09T10:40:11Z</time></trkpt>
<trkpt lat="46.21839" lon="7.55926"><ele>1648</ele><time>2025-08-09T10:40:13Z</time></trkpt>
<trkpt lat="46.21835" lon="7.55935"><ele>1648.4</ele><time>2025-08-09T10:40:15Z</time></trkpt>
<trkpt lat="46.21833" lon="7.55938"><ele>1648.6</ele><time>2025-08-09T10:40:16Z</time></trkpt>
<trkpt lat="46.21831" lon="7.55942"><ele>1648.8</ele><time>2025-08-09T10:40:17Z</time></trkpt>
<trkpt lat="46.21822" lon="7.55964"><ele>1648.8</ele><time>2025-08-09T10:40:22Z</time></trkpt>
<trkpt lat="46.21817" lon="7.55973"><ele>1649.2</ele><time>2025-08-09T10:40:24Z</time></trkpt>
<trkpt lat="46.21807" lon="7.55982"><ele>1649.8</ele><time>2025-08-09T10:40:27Z</time></trkpt>
<trkpt lat="46.21804" lon="7.55985"><ele>1650</ele><time>2025-08-09T10:40:28Z</time></trkpt>
<trkpt lat="46.21793" lon="7.55988"><ele>1650.8</ele><time>2025-08-09T10:40:32Z</time></trkpt>
<trkpt lat="46.21789" lon="7.55989"><ele>1651.2</ele><time>2025-08-09T10:40:34Z</time></trkpt>
<trkpt lat="46.21783" lon="7.55991"><ele>1651.4</ele><time>2025-08-09T10:40:37Z</time></trkpt>
<trkpt lat="46.21777" lon="7.55995"><ele>1651.8</ele><time>2025-08-09T10:40:41Z</time></trkpt>
<trkpt lat="46.21775" lon="7.55996"><ele>1652</ele><time>2025-08-09T10:40:42Z</time></trkpt>
<trkpt lat="46.21774" lon="7.55997"><ele>1652</ele><time>2025-08-09T10:40:43Z</time></trkpt>
<trkpt lat="46.2177" lon="7.55999"><ele>1652.2</ele><time>2025-08-09T10:40:45Z</time></trkpt>
<trkpt lat="46.21764" lon="7.56002"><ele>1652.4</ele><time>2025-08-09T10:40:49Z</time></trkpt>
<trkpt lat="46.21756" lon="7.5601"><ele>1653</ele><time>2025-08-09T10:40:55Z</time></trkpt>
<trkpt lat="46.21755" lon="7.56013"><ele>1653.2</ele><time>2025-08-09T10:40:57Z</time></trkpt>
<trkpt lat="46.21757" lon="7.56021"><ele>1653.6</ele><time>2025-08-09T10:41:01Z</time></trkpt>
<trkpt lat="46.21758" lon="7.56024"><ele>1653.8</ele><time>2025-08-09T10:41:03Z</time></trkpt>
<trkpt lat="46.2176" lon="7.56029"><ele>1654.2</ele><time>2025-08-09T10:41:05Z</time></trkpt>
<trkpt lat="46.21761" lon="7.56037"><ele>1654.6</ele><time>2025-08-09T10:41:08Z</time></trkpt>
<trkpt lat="46.21759" lon="7.56045"><ele>1655</ele><time>2025-08-09T10:41:11Z</time></trkpt>
<trkpt lat="46.21756" lon="7.56048"><ele>1655.2</ele><time>2025-08-09T10:41:13Z</time></trkpt>
<trkpt lat="46.21752" lon="7.56051"><ele>1655.6</ele><time>2025-08-09T10:41:16Z</time></trkpt>
<trkpt lat="46.21746" lon="7.56051"><ele>1656</ele><time>2025-08-09T10:41:19Z</time></trkpt>
<trkpt lat="46.21743" lon="7.56049"><ele>1656.2</ele><time>2025-08-09T10:41:21Z</time></trkpt>
<trkpt lat="46.21735" lon="7.56038"><ele>1656.8</ele><time>2025-08-09T10:41:27Z</time></trkpt>
<trkpt lat="46.2173" lon="7.56031"><ele>1657.2</ele><time>2025-08-09T10:41:31Z</time></trkpt>
<trkpt lat="46.21725" lon="7.56025"><ele>1657.6</ele><time>2025-08-09T10:41:35Z</time></trkpt>
<trkpt lat="46.21718" lon="7.56017"><ele>1658.4</ele><time>2025-08-09T10:41:41Z</time></trkpt>
<trkpt lat="46.2171" lon="7.56012"><ele>1658.8</ele><time>2025-08-09T10:41:46Z</time></trkpt>
<trkpt lat="46.21708" lon="7.56011"><ele>1659</ele><time>2025-08-09T10:41:47Z</time></trkpt>
<trkpt lat="46.21702" lon="7.56007"><ele>1659.6</ele><time>2025-08-09T10:41:51Z</time></trkpt>
<trkpt lat="46.21699" lon="7.56006"><ele>1659.8</ele><time>2025-08-09T10:41:53Z</time></trkpt>
<trkpt lat="46.21691" lon="7.56002"><ele>1660.2</ele><time>2025-08-09T10:41:58Z</time></trkpt>
<trkpt lat="46.21683" lon="7.55998"><ele>1660.6</ele><time>2025-08-09T10:42:03Z</time></trkpt>
<trkpt lat="46.21671" lon="7.55992"><ele>1661.4</ele><time>2025-08-09T10:42:09Z</time></trkpt>
<trkpt lat="46.21668" lon="7.5599"><ele>1661.6</ele><time>2025-08-09T10:42:11Z</time></trkpt>
<trkpt lat="46.2166" lon="7.55986"><ele>1662</ele><time>2025-08-09T10:42:16Z</time></trkpt>
<trkpt lat="46.21653" lon="7.55983"><ele>1662.6</ele><time>2025-08-09T10:42:21Z</time></trkpt>
<trkpt lat="46.21652" lon="7.55982"><ele>1662.8</ele><time>2025-08-09T10:42:22Z</time></trkpt>
<trkpt lat="46.21644" lon="7.55982"><ele>1663.6</ele><time>2025-08-09T10:42:28Z</time></trkpt>
<trkpt lat="46.21642" lon="7.55982"><ele>1663.8</ele><time>2025-08-09T10:42:29Z</time></trkpt>
<trkpt lat="46.21635" lon="7.55983"><ele>1664.4</ele><time>2025-08-09T10:42:34Z</time></trkpt>
<trkpt lat="46.2163" lon="7.55984"><ele>1664.8</ele><time>2025-08-09T10:42:37Z</time></trkpt>
<trkpt lat="46.21623" lon="7.55979"><ele>1665.4</ele><time>2025-08-09T10:42:41Z</time></trkpt>
<trkpt lat="46.21613" lon="7.55968"><ele>1665.8</ele><time>2025-08-09T10:42:48Z</time></trkpt>
<trkpt lat="46.2161" lon="7.55965"><ele>1666</ele><time>2025-08-09T10:42:50Z</time></trkpt>
<trkpt lat="46.21602" lon="7.55963"><ele>1666.8</ele><time>2025-08-09T10:42:55Z</time></trkpt>
<trkpt lat="46.21599" lon="7.55961"><ele>1667.2</ele><time>2025-08-09T10:42:57Z</time></trkpt>
<trkpt lat="46.2159" lon="7.55957"><ele>1667.6</ele><time>2025-08-09T10:43:02Z</time></trkpt>
<trkpt lat="46.21582" lon="7.55955"><ele>1668.2</ele><time>2025-08-09T10:43:06Z</time></trkpt>
<trkpt lat="46.21578" lon="7.55956"><ele>1668.4</ele><time>2025-08-09T10:43:09Z</time></trkpt>
<trkpt lat="46.21576" lon="7.55964"><ele>1668.4</ele><time>2025-08-09T10:43:14Z</time></trkpt>
<trkpt lat="46.21583" lon="7.55984"><ele>1667.4</ele><time>2025-08-09T10:43:18Z</time></trkpt>
<trkpt lat="46.21584" lon="7.55992"><ele>1667.2</ele><time>2025-08-09T10:43:19Z</time></trkpt>
<trkpt lat="46.21585" lon="7.56"><ele>1666.4</ele><time>2025-08-09T10:43:20Z</time></trkpt>
<trkpt lat="46.21585" lon="7.56009"><ele>1666</ele><time>2025-08-09T10:43:21Z</time></trkpt>
<trkpt lat="46.21585" lon="7.56019"><ele>1665.2</ele><time>2025-08-09T10:43:22Z</time></trkpt>
<trkpt lat="46.21584" lon="7.56028"><ele>1664.6</ele><time>2025-08-09T10:43:23Z</time></trkpt>
<trkpt lat="46.21582" lon="7.5605"><ele>1663.6</ele><time>2025-08-09T10:43:25Z</time></trkpt>
<trkpt lat="46.21579" lon="7.5606"><ele>1663.4</ele><time>2025-08-09T10:43:26Z</time></trkpt>
<trkpt lat="46.21577" lon="7.56071"><ele>1663.4</ele><time>2025-08-09T10:43:27Z</time></trkpt>
<trkpt lat="46.21572" lon="7.56104"><ele>1663</ele><time>2025-08-09T10:43:30Z</time></trkpt>
<trkpt lat="46.2157" lon="7.56114"><ele>1662.6</ele><time>2025-08-09T10:43:31Z</time></trkpt>
<trkpt lat="46.21568" lon="7.56135"><ele>1662</ele><time>2025-08-09T10:43:33Z</time></trkpt>
<trkpt lat="46.21568" lon="7.56145"><ele>1661.6</ele><time>2025-08-09T10:43:34Z</time></trkpt>
<trkpt lat="46.21568" lon="7.56169"><ele>1661.2</ele><time>2025-08-09T10:43:37Z</time></trkpt>
<trkpt lat="46.21563" lon="7.56184"><ele>1661</ele><time>2025-08-09T10:43:39Z</time></trkpt>
<trkpt lat="46.21559" lon="7.56191"><ele>1661</ele><time>2025-08-09T10:43:40Z</time></trkpt>
<trkpt lat="46.21551" lon="7.56205"><ele>1660</ele><time>2025-08-09T10:43:42Z</time></trkpt>
<trkpt lat="46.21545" lon="7.56222"><ele>1659.2</ele><time>2025-08-09T10:43:44Z</time></trkpt>
<trkpt lat="46.21543" lon="7.56231"><ele>1659</ele><time>2025-08-09T10:43:45Z</time></trkpt>
<trkpt lat="46.2154" lon="7.56247"><ele>1658.8</ele><time>2025-08-09T10:43:47Z</time></trkpt>
<trkpt lat="46.21538" lon="7.56254"><ele>1658.8</ele><time>2025-08-09T10:43:48Z</time></trkpt>
<trkpt lat="46.21537" lon="7.56261"><ele>1658.8</ele><time>2025-08-09T10:43:49Z</time></trkpt>
<trkpt lat="46.21535" lon="7.56267"><ele>1658.8</ele><time>2025-08-09T10:43:50Z</time></trkpt>
<trkpt lat="46.21529" lon="7.56275"><ele>1658.4</ele><time>2025-08-09T10:43:52Z</time></trkpt>
<trkpt lat="46.21524" lon="7.56279"><ele>1658.2</ele><time>2025-08-09T10:43:53Z</time></trkpt>
<trkpt lat="46.21516" lon="7.56287"><ele>1658</ele><time>2025-08-09T10:43:55Z</time></trkpt>
<trkpt lat="46.21509" lon="7.56299"><ele>1657.8</ele><time>2025-08-09T10:43:57Z</time></trkpt>
<trkpt lat="46.21502" lon="7.5631"><ele>1657.4</ele><time>2025-08-09T10:43:59Z</time></trkpt>
<trkpt lat="46.21494" lon="7.56322"><ele>1657</ele><time>2025-08-09T10:44:01Z</time></trkpt>
<trkpt lat="46.2149" lon="7.56326"><ele>1656.8</ele><time>2025-08-09T10:44:02Z</time></trkpt>
<trkpt lat="46.21482" lon="7.56337"><ele>1656.6</ele><time>2025-08-09T10:44:04Z</time></trkpt>
<trkpt lat="46.21478" lon="7.56343"><ele>1656.6</ele><time>2025-08-09T10:44:05Z</time></trkpt>
<trkpt lat="46.21473" lon="7.56356"><ele>1656.4</ele><time>2025-08-09T10:44:07Z</time></trkpt>
<trkpt lat="46.21473" lon="7.5637"><ele>1656.2</ele><time>2025-08-09T10:44:09Z</time></trkpt>
<trkpt lat="46.2147" lon="7.56391"><ele>1656.2</ele><time>2025-08-09T10:44:13Z</time></trkpt>
<trkpt lat="46.21464" lon="7.56396"><ele>1656</ele><time>2025-08-09T10:44:15Z</time></trkpt>
<trkpt lat="46.21455" lon="7.56401"><ele>1655.4</ele><time>2025-08-09T10:44:17Z</time></trkpt>
<trkpt lat="46.2145" lon="7.56401"><ele>1655</ele><time>2025-08-09T10:44:18Z</time></trkpt>
<trkpt lat="46.21445" lon="7.56403"><ele>1654.6</ele><time>2025-08-09T10:44:19Z</time></trkpt>
<trkpt lat="46.2144" lon="7.56407"><ele>1654</ele><time>2025-08-09T10:44:20Z</time></trkpt>
<trkpt lat="46.21436" lon="7.56413"><ele>1653.4</ele><time>2025-08-09T10:44:21Z</time></trkpt>
<trkpt lat="46.21434" lon="7.5642"><ele>1653</ele><time>2025-08-09T10:44:22Z</time></trkpt>
<trkpt lat="46.21431" lon="7.56427"><ele>1652.2</ele><time>2025-08-09T10:44:23Z</time></trkpt>
<trkpt lat="46.21427" lon="7.56443"><ele>1651.2</ele><time>2025-08-09T10:44:25Z</time></trkpt>
<trkpt lat="46.21422" lon="7.5646"><ele>1650.2</ele><time>2025-08-09T10:44:27Z</time></trkpt>
<trkpt lat="46.21419" lon="7.56469"><ele>1649.8</ele><time>2025-08-09T10:44:28Z</time></trkpt>
<trkpt lat="46.21411" lon="7.56487"><ele>1648.4</ele><time>2025-08-09T10:44:30Z</time></trkpt>
<trkpt lat="46.214" lon="7.56506"><ele>1646.6</ele><time>2025-08-09T10:44:32Z</time></trkpt>
<trkpt lat="46.21389" lon="7.56524"><ele>1644.8</ele><time>2025-08-09T10:44:34Z</time></trkpt>
<trkpt lat="46.21388" lon="7.56534"><ele>1644.2</ele><time>2025-08-09T10:44:35Z</time></trkpt>
<trkpt lat="46.21386" lon="7.56542"><ele>1643.8</ele><time>2025-08-09T10:44:36Z</time></trkpt>
<trkpt lat="46.21386" lon="7.56551"><ele>1645.8</ele><time>2025-08-09T10:44:38Z</time></trkpt>
<trkpt lat="46.21384" lon="7.56553"><ele>1647</ele><time>2025-08-09T10:44:39Z</time></trkpt>
<trkpt lat="46.21384" lon="7.56553"><ele>1648</ele><time>2025-08-09T10:44:40Z</time></trkpt>
<trkpt lat="46.21384" lon="7.56555"><ele>1648.2</ele><time>2025-08-09T10:44:41Z</time></trkpt>
<trkpt lat="46.21385" lon="7.56557"><ele>1648.2</ele><time>2025-08-09T10:44:42Z</time></trkpt>
<trkpt lat="46.21383" lon="7.56566"><ele>1649</ele><time>2025-08-09T10:44:47Z</time></trkpt>
<trkpt lat="46.21383" lon="7.56569"><ele>1649.2</ele><time>2025-08-09T10:44:48Z</time></trkpt>
<trkpt lat="46.21379" lon="7.5658"><ele>1650.2</ele><time>2025-08-09T10:44:53Z</time></trkpt>
<trkpt lat="46.21377" lon="7.56584"><ele>1650.4</ele><time>2025-08-09T10:44:55Z</time></trkpt>
<trkpt lat="46.21374" lon="7.56593"><ele>1651.4</ele><time>2025-08-09T10:44:59Z</time></trkpt>
<trkpt lat="46.2137" lon="7.56599"><ele>1651.8</ele><time>2025-08-09T10:45:02Z</time></trkpt>
<trkpt lat="46.21367" lon="7.56602"><ele>1652.4</ele><time>2025-08-09T10:45:04Z</time></trkpt>
<trkpt lat="46.21363" lon="7.56607"><ele>1652.8</ele><time>2025-08-09T10:45:07Z</time></trkpt>
<trkpt lat="46.21359" lon="7.5661"><ele>1653.2</ele><time>2025-08-09T10:45:09Z</time></trkpt>
<trkpt lat="46.21357" lon="7.56612"><ele>1653.2</ele><time>2025-08-09T10:45:10Z</time></trkpt>
<trkpt lat="46.21356" lon="7.56613"><ele>1653.4</ele><time>2025-08-09T10:45:11Z</time></trkpt>
<trkpt lat="46.21353" lon="7.56616"><ele>1653.8</ele><time>2025-08-09T10:45:13Z</time></trkpt>
<trkpt lat="46.21351" lon="7.56617"><ele>1654</ele><time>2025-08-09T10:45:14Z</time></trkpt>
<trkpt lat="46.21349" lon="7.5662"><ele>1654</ele><time>2025-08-09T10:45:15Z</time></trkpt>
<trkpt lat="46.21343" lon="7.56625"><ele>1654.6</ele><time>2025-08-09T10:45:18Z</time></trkpt>
<trkpt lat="46.21341" lon="7.56627"><ele>1654.8</ele><time>2025-08-09T10:45:19Z</time></trkpt>
<trkpt lat="46.21328" lon="7.5664"><ele>1655.4</ele><time>2025-08-09T10:45:24Z</time></trkpt>
<trkpt lat="46.21322" lon="7.56647"><ele>1655.4</ele><time>2025-08-09T10:45:26Z</time></trkpt>
<trkpt lat="46.21317" lon="7.56653"><ele>1655.6</ele><time>2025-08-09T10:45:28Z</time></trkpt>
<trkpt lat="46.21305" lon="7.56667"><ele>1655.6</ele><time>2025-08-09T10:45:33Z</time></trkpt>
<trkpt lat="46.21303" lon="7.56669"><ele>1655.8</ele><time>2025-08-09T10:45:34Z</time></trkpt>
<trkpt lat="46.2129" lon="7.56678"><ele>1656.4</ele><time>2025-08-09T10:45:40Z</time></trkpt>
<trkpt lat="46.21281" lon="7.56686"><ele>1656.8</ele><time>2025-08-09T10:45:44Z</time></trkpt>
<trkpt lat="46.21274" lon="7.5669"><ele>1657.2</ele><time>2025-08-09T10:45:47Z</time></trkpt>
<trkpt lat="46.21267" lon="7.56696"><ele>1657.8</ele><time>2025-08-09T10:45:51Z</time></trkpt>
<trkpt lat="46.21262" lon="7.56699"><ele>1658</ele><time>2025-08-09T10:45:53Z</time></trkpt>
<trkpt lat="46.21252" lon="7.56709"><ele>1658</ele><time>2025-08-09T10:45:58Z</time></trkpt>
<trkpt lat="46.21236" lon="7.56728"><ele>1658</ele><time>2025-08-09T10:46:05Z</time></trkpt>
<trkpt lat="46.21223" lon="7.56746"><ele>1659</ele><time>2025-08-09T10:46:12Z</time></trkpt>
<trkpt lat="46.2121" lon="7.56761"><ele>1659.8</ele><time>2025-08-09T10:46:19Z</time></trkpt>
<trkpt lat="46.21196" lon="7.56775"><ele>1659.6</ele><time>2025-08-09T10:46:25Z</time></trkpt>
<trkpt lat="46.21188" lon="7.56785"><ele>1660</ele><time>2025-08-09T10:46:29Z</time></trkpt>
<trkpt lat="46.21187" lon="7.56788"><ele>1660</ele><time>2025-08-09T10:46:30Z</time></trkpt>
<trkpt lat="46.21185" lon="7.56789"><ele>1660.2</ele><time>2025-08-09T10:46:31Z</time></trkpt>
<trkpt lat="46.21172" lon="7.56803"><ele>1661.2</ele><time>2025-08-09T10:46:38Z</time></trkpt>
<trkpt lat="46.21162" lon="7.5682"><ele>1661.8</ele><time>2025-08-09T10:46:45Z</time></trkpt>
<trkpt lat="46.21151" lon="7.56828"><ele>1662.2</ele><time>2025-08-09T10:46:50Z</time></trkpt>
<trkpt lat="46.21143" lon="7.56836"><ele>1662.8</ele><time>2025-08-09T10:46:54Z</time></trkpt>
<trkpt lat="46.21139" lon="7.56839"><ele>1663</ele><time>2025-08-09T10:46:56Z</time></trkpt>
<trkpt lat="46.21134" lon="7.56846"><ele>1663.2</ele><time>2025-08-09T10:46:59Z</time></trkpt>
<trkpt lat="46.21128" lon="7.56855"><ele>1663.8</ele><time>2025-08-09T10:47:03Z</time></trkpt>
<trkpt lat="46.21123" lon="7.56862"><ele>1664.4</ele><time>2025-08-09T10:47:06Z</time></trkpt>
<trkpt lat="46.21117" lon="7.5687"><ele>1664.8</ele><time>2025-08-09T10:47:10Z</time></trkpt>
<trkpt lat="46.21111" lon="7.56873"><ele>1665.4</ele><time>2025-08-09T10:47:13Z</time></trkpt>
<trkpt lat="46.21106" lon="7.56875"><ele>1665.8</ele><time>2025-08-09T10:47:16Z</time></trkpt>
<trkpt lat="46.21093" lon="7.56872"><ele>1666.4</ele><time>2025-08-09T10:47:22Z</time></trkpt>
<trkpt lat="46.21091" lon="7.56871"><ele>1666.6</ele><time>2025-08-09T10:47:23Z</time></trkpt>
<trkpt lat="46.21079" lon="7.56873"><ele>1667.2</ele><time>2025-08-09T10:47:29Z</time></trkpt>
<trkpt lat="46.21069" lon="7.5688"><ele>1667.6</ele><time>2025-08-09T10:47:34Z</time></trkpt>
<trkpt lat="46.21068" lon="7.56883"><ele>1667.6</ele><time>2025-08-09T10:47:35Z</time></trkpt>
<trkpt lat="46.21055" lon="7.56902"><ele>1668.6</ele><time>2025-08-09T10:47:43Z</time></trkpt>
<trkpt lat="46.21042" lon="7.56918"><ele>1669</ele><time>2025-08-09T10:47:50Z</time></trkpt>
<trkpt lat="46.21032" lon="7.56935"><ele>1669.6</ele><time>2025-08-09T10:47:57Z</time></trkpt>
<trkpt lat="46.2103" lon="7.56937"><ele>1669.6</ele><time>2025-08-09T10:47:58Z</time></trkpt>
<trkpt lat="46.21017" lon="7.56944"><ele>1669.8</ele><time>2025-08-09T10:48:04Z</time></trkpt>
<trkpt lat="46.21016" lon="7.56945"><ele>1669.8</ele><time>2025-08-09T10:48:05Z</time></trkpt>
<trkpt lat="46.21007" lon="7.56953"><ele>1669.6</ele><time>2025-08-09T10:48:09Z</time></trkpt>
<trkpt lat="46.21" lon="7.5696"><ele>1669.6</ele><time>2025-08-09T10:48:12Z</time></trkpt>
<trkpt lat="46.20989" lon="7.56968"><ele>1669.8</ele><time>2025-08-09T10:48:16Z</time></trkpt>
<trkpt lat="46.2097" lon="7.56976"><ele>1670.4</ele><time>2025-08-09T10:48:23Z</time></trkpt>
<trkpt lat="46.20961" lon="7.56982"><ele>1670.6</ele><time>2025-08-09T10:48:27Z</time></trkpt>
<trkpt lat="46.20953" lon="7.56987"><ele>1670.8</ele><time>2025-08-09T10:48:30Z</time></trkpt>
<trkpt lat="46.2094" lon="7.56988"><ele>1670.6</ele><time>2025-08-09T10:48:33Z</time></trkpt>
<trkpt lat="46.20936" lon="7.56991"><ele>1670.6</ele><time>2025-08-09T10:48:34Z</time></trkpt>
<trkpt lat="46.20932" lon="7.56995"><ele>1670.4</ele><time>2025-08-09T10:48:35Z</time></trkpt>
<trkpt lat="46.20921" lon="7.57009"><ele>1670.2</ele><time>2025-08-09T10:48:38Z</time></trkpt>
<trkpt lat="46.20917" lon="7.57012"><ele>1670.2</ele><time>2025-08-09T10:48:39Z</time></trkpt>
<trkpt lat="46.20909" lon="7.57015"><ele>1670.4</ele><time>2025-08-09T10:48:41Z</time></trkpt>
<trkpt lat="46.20904" lon="7.57015"><ele>1670.2</ele><time>2025-08-09T10:48:42Z</time></trkpt>
<trkpt lat="46.20899" lon="7.57013"><ele>1670.2</ele><time>2025-08-09T10:48:43Z</time></trkpt>
<trkpt lat="46.2089" lon="7.57015"><ele>1669.6</ele><time>2025-08-09T10:48:45Z</time></trkpt>
<trkpt lat="46.20886" lon="7.57019"><ele>1669.2</ele><time>2025-08-09T10:48:46Z</time></trkpt>
<trkpt lat="46.20883" lon="7.57025"><ele>1669</ele><time>2025-08-09T10:48:47Z</time></trkpt>
<trkpt lat="46.20878" lon="7.57037"><ele>1668.8</ele><time>2025-08-09T10:48:49Z</time></trkpt>
<trkpt lat="46.20874" lon="7.57049"><ele>1668.6</ele><time>2025-08-09T10:48:51Z</time></trkpt>
<trkpt lat="46.20871" lon="7.57055"><ele>1668.6</ele><time>2025-08-09T10:48:52Z</time></trkpt>
<trkpt lat="46.20864" lon="7.57062"><ele>1668.6</ele><time>2025-08-09T10:48:54Z</time></trkpt>
<trkpt lat="46.20853" lon="7.57063"><ele>1668.4</ele><time>2025-08-09T10:48:57Z</time></trkpt>
<trkpt lat="46.20849" lon="7.57062"><ele>1668.2</ele><time>2025-08-09T10:48:58Z</time></trkpt>
<trkpt lat="46.20842" lon="7.57056"><ele>1668.2</ele><time>2025-08-09T10:49:00Z</time></trkpt>
<trkpt lat="46.20838" lon="7.57052"><ele>1668</ele><time>2025-08-09T10:49:01Z</time></trkpt>
<trkpt lat="46.20812" lon="7.57019"><ele>1667.6</ele><time>2025-08-09T10:49:08Z</time></trkpt>
<trkpt lat="46.20807" lon="7.57016"><ele>1667.4</ele><time>2025-08-09T10:49:09Z</time></trkpt>
<trkpt lat="46.20798" lon="7.57012"><ele>1666.8</ele><time>2025-08-09T10:49:11Z</time></trkpt>
<trkpt lat="46.20793" lon="7.57009"><ele>1666.4</ele><time>2025-08-09T10:49:12Z</time></trkpt>
<trkpt lat="46.20789" lon="7.57005"><ele>1666.4</ele><time>2025-08-09T10:49:13Z</time></trkpt>
<trkpt lat="46.20782" lon="7.56992"><ele>1666.2</ele><time>2025-08-09T10:49:15Z</time></trkpt>
<trkpt lat="46.20773" lon="7.56983"><ele>1665.4</ele><time>2025-08-09T10:49:17Z</time></trkpt>
<trkpt lat="46.20767" lon="7.56983"><ele>1665.2</ele><time>2025-08-09T10:49:18Z</time></trkpt>
<trkpt lat="46.20761" lon="7.56984"><ele>1664.8</ele><time>2025-08-09T10:49:19Z</time></trkpt>
<trkpt lat="46.20753" lon="7.56986"><ele>1664.8</ele><time>2025-08-09T10:49:21Z</time></trkpt>
<trkpt lat="46.20748" lon="7.56985"><ele>1665</ele><time>2025-08-09T10:49:22Z</time></trkpt>
<trkpt lat="46.20735" lon="7.56982"><ele>1664.8</ele><time>2025-08-09T10:49:25Z</time></trkpt>
<trkpt lat="46.2073" lon="7.56979"><ele>1664.6</ele><time>2025-08-09T10:49:26Z</time></trkpt>
<trkpt lat="46.20723" lon="7.56969"><ele>1664</ele><time>2025-08-09T10:49:28Z</time></trkpt>
<trkpt lat="46.2072" lon="7.56962"><ele>1663.6</ele><time>2025-08-09T10:49:29Z</time></trkpt>
<trkpt lat="46.2071" lon="7.56951"><ele>1662.8</ele><time>2025-08-09T10:49:31Z</time></trkpt>
<trkpt lat="46.20705" lon="7.56949"><ele>1662.4</ele><time>2025-08-09T10:49:32Z</time></trkpt>
<trkpt lat="46.20699" lon="7.56949"><ele>1662</ele><time>2025-08-09T10:49:33Z</time></trkpt>
<trkpt lat="46.20694" lon="7.56949"><ele>1661.8</ele><time>2025-08-09T10:49:34Z</time></trkpt>
<trkpt lat="46.20688" lon="7.5695"><ele>1661.4</ele><time>2025-08-09T10:49:35Z</time></trkpt>
<trkpt lat="46.20683" lon="7.56954"><ele>1661.2</ele><time>2025-08-09T10:49:36Z</time></trkpt>
<trkpt lat="46.20681" lon="7.5696"><ele>1661</ele><time>2025-08-09T10:49:37Z</time></trkpt>
<trkpt lat="46.20677" lon="7.56974"><ele>1660.6</ele><time>2025-08-09T10:49:39Z</time></trkpt>
<trkpt lat="46.20677" lon="7.56981"><ele>1660</ele><time>2025-08-09T10:49:40Z</time></trkpt>
<trkpt lat="46.2068" lon="7.56997"><ele>1659.6</ele><time>2025-08-09T10:49:42Z</time></trkpt>
<trkpt lat="46.20679" lon="7.57005"><ele>1659.2</ele><time>2025-08-09T10:49:43Z</time></trkpt>
<trkpt lat="46.20674" lon="7.57018"><ele>1659</ele><time>2025-08-09T10:49:45Z</time></trkpt>
<trkpt lat="46.20669" lon="7.57032"><ele>1658.2</ele><time>2025-08-09T10:49:47Z</time></trkpt>
<trkpt lat="46.20668" lon="7.57056"><ele>1657.2</ele><time>2025-08-09T10:49:50Z</time></trkpt>
<trkpt lat="46.20668" lon="7.57064"><ele>1657</ele><time>2025-08-09T10:49:51Z</time></trkpt>
<trkpt lat="46.20667" lon="7.57081"><ele>1656.4</ele><time>2025-08-09T10:49:53Z</time></trkpt>
<trkpt lat="46.20666" lon="7.57089"><ele>1655.8</ele><time>2025-08-09T10:49:54Z</time></trkpt>
<trkpt lat="46.20665" lon="7.57107"><ele>1655</ele><time>2025-08-09T10:49:56Z</time></trkpt>
<trkpt lat="46.20662" lon="7.57124"><ele>1654.4</ele><time>2025-08-09T10:49:58Z</time></trkpt>
<trkpt lat="46.20659" lon="7.57132"><ele>1654.2</ele><time>2025-08-09T10:49:59Z</time></trkpt>
<trkpt lat="46.20656" lon="7.57139"><ele>1654.2</ele><time>2025-08-09T10:50:00Z</time></trkpt>
<trkpt lat="46.20651" lon="7.57155"><ele>1653.8</ele><time>2025-08-09T10:50:02Z</time></trkpt>
<trkpt lat="46.20649" lon="7.57164"><ele>1653.8</ele><time>2025-08-09T10:50:03Z</time></trkpt>
<trkpt lat="46.20648" lon="7.57173"><ele>1653.4</ele><time>2025-08-09T10:50:04Z</time></trkpt>
<trkpt lat="46.20643" lon="7.57189"><ele>1653</ele><time>2025-08-09T10:50:06Z</time></trkpt>
<trkpt lat="46.20634" lon="7.57202"><ele>1652.4</ele><time>2025-08-09T10:50:08Z</time></trkpt>
<trkpt lat="46.20628" lon="7.57207"><ele>1652.4</ele><time>2025-08-09T10:50:09Z</time></trkpt>
<trkpt lat="46.20623" lon="7.57212"><ele>1652.2</ele><time>2025-08-09T10:50:10Z</time></trkpt>
<trkpt lat="46.20619" lon="7.57218"><ele>1652</ele><time>2025-08-09T10:50:11Z</time></trkpt>
<trkpt lat="46.20616" lon="7.57227"><ele>1651.8</ele><time>2025-08-09T10:50:12Z</time></trkpt>
<trkpt lat="46.20607" lon="7.57251"><ele>1651.6</ele><time>2025-08-09T10:50:15Z</time></trkpt>
<trkpt lat="46.20599" lon="7.57262"><ele>1651.8</ele><time>2025-08-09T10:50:17Z</time></trkpt>
<trkpt lat="46.20588" lon="7.57276"><ele>1652.4</ele><time>2025-08-09T10:50:20Z</time></trkpt>
<trkpt lat="46.20581" lon="7.57283"><ele>1653</ele><time>2025-08-09T10:50:22Z</time></trkpt>
<trkpt lat="46.20574" lon="7.57286"><ele>1653.4</ele><time>2025-08-09T10:50:24Z</time></trkpt>
<trkpt lat="46.20562" lon="7.57289"><ele>1653.8</ele><time>2025-08-09T10:50:27Z</time></trkpt>
<trkpt lat="46.20546" lon="7.57302"><ele>1654.6</ele><time>2025-08-09T10:50:32Z</time></trkpt>
<trkpt lat="46.20531" lon="7.57317"><ele>1655.8</ele><time>2025-08-09T10:50:38Z</time></trkpt>
<trkpt lat="46.20513" lon="7.57328"><ele>1656.4</ele><time>2025-08-09T10:50:44Z</time></trkpt>
<trkpt lat="46.20499" lon="7.57339"><ele>1656.8</ele><time>2025-08-09T10:50:49Z</time></trkpt>
<trkpt lat="46.20496" lon="7.5734"><ele>1656.8</ele><time>2025-08-09T10:50:50Z</time></trkpt>
<trkpt lat="46.20484" lon="7.5734"><ele>1656.8</ele><time>2025-08-09T10:50:53Z</time></trkpt>
<trkpt lat="46.2048" lon="7.57339"><ele>1656.8</ele><time>2025-08-09T10:50:54Z</time></trkpt>
<trkpt lat="46.20476" lon="7.57338"><ele>1656.6</ele><time>2025-08-09T10:50:55Z</time></trkpt>
<trkpt lat="46.20455" lon="7.57327"><ele>1656.8</ele><time>2025-08-09T10:51:01Z</time></trkpt>
<trkpt lat="46.20424" lon="7.57301"><ele>1656.2</ele><time>2025-08-09T10:51:09Z</time></trkpt>
<trkpt lat="46.20415" lon="7.57294"><ele>1655.8</ele><time>2025-08-09T10:51:11Z</time></trkpt>
<trkpt lat="46.20411" lon="7.57289"><ele>1655.8</ele><time>2025-08-09T10:51:12Z</time></trkpt>
<trkpt lat="46.20403" lon="7.5728"><ele>1655.2</ele><time>2025-08-09T10:51:14Z</time></trkpt>
<trkpt lat="46.20394" lon="7.5727"><ele>1654.6</ele><time>2025-08-09T10:51:16Z</time></trkpt>
<trkpt lat="46.20379" lon="7.57256"><ele>1654</ele><time>2025-08-09T10:51:19Z</time></trkpt>
<trkpt lat="46.20367" lon="7.57252"><ele>1653.8</ele><time>2025-08-09T10:51:21Z</time></trkpt>
<trkpt lat="46.2036" lon="7.5725"><ele>1653.6</ele><time>2025-08-09T10:51:22Z</time></trkpt>
<trkpt lat="46.20354" lon="7.5725"><ele>1653.4</ele><time>2025-08-09T10:51:23Z</time></trkpt>
<trkpt lat="46.20343" lon="7.57252"><ele>1652.4</ele><time>2025-08-09T10:51:25Z</time></trkpt>
<trkpt lat="46.20334" lon="7.57259"><ele>1652</ele><time>2025-08-09T10:51:27Z</time></trkpt>
<trkpt lat="46.2032" lon="7.57272"><ele>1651.8</ele><time>2025-08-09T10:51:30Z</time></trkpt>
<trkpt lat="46.20313" lon="7.57284"><ele>1651.8</ele><time>2025-08-09T10:51:32Z</time></trkpt>
<trkpt lat="46.20306" lon="7.57298"><ele>1651.4</ele><time>2025-08-09T10:51:34Z</time></trkpt>
<trkpt lat="46.20292" lon="7.57326"><ele>1650.2</ele><time>2025-08-09T10:51:38Z</time></trkpt>
<trkpt lat="46.20287" lon="7.57331"><ele>1649.6</ele><time>2025-08-09T10:51:39Z</time></trkpt>
<trkpt lat="46.20282" lon="7.57336"><ele>1649.4</ele><time>2025-08-09T10:51:40Z</time></trkpt>
<trkpt lat="46.20271" lon="7.57345"><ele>1649.2</ele><time>2025-08-09T10:51:42Z</time></trkpt>
<trkpt lat="46.2025" lon="7.57367"><ele>1648</ele><time>2025-08-09T10:51:46Z</time></trkpt>
<trkpt lat="46.20245" lon="7.5737"><ele>1648</ele><time>2025-08-09T10:51:47Z</time></trkpt>
<trkpt lat="46.20239" lon="7.57373"><ele>1647.8</ele><time>2025-08-09T10:51:48Z</time></trkpt>
<trkpt lat="46.20216" lon="7.57381"><ele>1647.2</ele><time>2025-08-09T10:51:52Z</time></trkpt>
<trkpt lat="46.2021" lon="7.57382"><ele>1647</ele><time>2025-08-09T10:51:53Z</time></trkpt>
<trkpt lat="46.20187" lon="7.57391"><ele>1646.4</ele><time>2025-08-09T10:51:57Z</time></trkpt>
<trkpt lat="46.2017" lon="7.57405"><ele>1645.8</ele><time>2025-08-09T10:52:00Z</time></trkpt>
<trkpt lat="46.20152" lon="7.57417"><ele>1645.2</ele><time>2025-08-09T10:52:03Z</time></trkpt>
<trkpt lat="46.20145" lon="7.57419"><ele>1644.8</ele><time>2025-08-09T10:52:04Z</time></trkpt>
<trkpt lat="46.20126" lon="7.57425"><ele>1644</ele><time>2025-08-09T10:52:07Z</time></trkpt>
<trkpt lat="46.20114" lon="7.57421"><ele>1643.6</ele><time>2025-08-09T10:52:09Z</time></trkpt>
<trkpt lat="46.20108" lon="7.57418"><ele>1643.4</ele><time>2025-08-09T10:52:10Z</time></trkpt>
<trkpt lat="46.20095" lon="7.57411"><ele>1642.6</ele><time>2025-08-09T10:52:12Z</time></trkpt>
<trkpt lat="46.20089" lon="7.57408"><ele>1642.2</ele><time>2025-08-09T10:52:13Z</time></trkpt>
<trkpt lat="46.20074" lon="7.57406"><ele>1641.4</ele><time>2025-08-09T10:52:15Z</time></trkpt>
<trkpt lat="46.20067" lon="7.57409"><ele>1640.8</ele><time>2025-08-09T10:52:16Z</time></trkpt>
<trkpt lat="46.20061" lon="7.57415"><ele>1640.4</ele><time>2025-08-09T10:52:17Z</time></trkpt>
<trkpt lat="46.20058" lon="7.57423"><ele>1640.4</ele><time>2025-08-09T10:52:18Z</time></trkpt>
<trkpt lat="46.20055" lon="7.57432"><ele>1639.8</ele><time>2025-08-09T10:52:19Z</time></trkpt>
<trkpt lat="46.20054" lon="7.57442"><ele>1639.6</ele><time>2025-08-09T10:52:20Z</time></trkpt>
<trkpt lat="46.20052" lon="7.5745"><ele>1639.4</ele><time>2025-08-09T10:52:21Z</time></trkpt>
<trkpt lat="46.20048" lon="7.57455"><ele>1639.4</ele><time>2025-08-09T10:52:22Z</time></trkpt>
<trkpt lat="46.20044" lon="7.57456"><ele>1638.6</ele><time>2025-08-09T10:52:23Z</time></trkpt>
<trkpt lat="46.20039" lon="7.57456"><ele>1638.6</ele><time>2025-08-09T10:52:24Z</time></trkpt>
<trkpt lat="46.20029" lon="7.57449"><ele>1638.2</ele><time>2025-08-09T10:52:26Z</time></trkpt>
<trkpt lat="46.20017" lon="7.57444"><ele>1637.8</ele><time>2025-08-09T10:52:28Z</time></trkpt>
<trkpt lat="46.20005" lon="7.57448"><ele>1637.2</ele><time>2025-08-09T10:52:30Z</time></trkpt>
<trkpt lat="46.19993" lon="7.57454"><ele>1637</ele><time>2025-08-09T10:52:32Z</time></trkpt>
<trkpt lat="46.19983" lon="7.57465"><ele>1637</ele><time>2025-08-09T10:52:34Z</time></trkpt>
<trkpt lat="46.1998" lon="7.57471"><ele>1637</ele><time>2025-08-09T10:52:35Z</time></trkpt>
<trkpt lat="46.19977" lon="7.57478"><ele>1637</ele><time>2025-08-09T10:52:36Z</time></trkpt>
<trkpt lat="46.19971" lon="7.57495"><ele>1637.8</ele><time>2025-08-09T10:52:39Z</time></trkpt>
<trkpt lat="46.19968" lon="7.575"><ele>1638.2</ele><time>2025-08-09T10:52:40Z</time></trkpt>
<trkpt lat="46.1996" lon="7.57512"><ele>1638.6</ele><time>2025-08-09T10:52:43Z</time></trkpt>
<trkpt lat="46.19954" lon="7.57519"><ele>1638</ele><time>2025-08-09T10:52:45Z</time></trkpt>
<trkpt lat="46.19946" lon="7.57526"><ele>1637</ele><time>2025-08-09T10:52:47Z</time></trkpt>
<trkpt lat="46.19936" lon="7.57534"><ele>1635.8</ele><time>2025-08-09T10:52:49Z</time></trkpt>
<trkpt lat="46.1993" lon="7.57538"><ele>1635</ele><time>2025-08-09T10:52:50Z</time></trkpt>
<trkpt lat="46.19925" lon="7.57543"><ele>1634</ele><time>2025-08-09T10:52:51Z</time></trkpt>
<trkpt lat="46.19914" lon="7.5755"><ele>1632.8</ele><time>2025-08-09T10:52:53Z</time></trkpt>
<trkpt lat="46.19903" lon="7.5755"><ele>1631.8</ele><time>2025-08-09T10:52:55Z</time></trkpt>
<trkpt lat="46.19898" lon="7.57547"><ele>1631.4</ele><time>2025-08-09T10:52:56Z</time></trkpt>
<trkpt lat="46.19893" lon="7.57542"><ele>1630.8</ele><time>2025-08-09T10:52:57Z</time></trkpt>
<trkpt lat="46.19888" lon="7.57536"><ele>1630.4</ele><time>2025-08-09T10:52:58Z</time></trkpt>
<trkpt lat="46.19877" lon="7.57523"><ele>1629.4</ele><time>2025-08-09T10:53:00Z</time></trkpt>
<trkpt lat="46.19871" lon="7.57517"><ele>1628.8</ele><time>2025-08-09T10:53:01Z</time></trkpt>
<trkpt lat="46.19865" lon="7.57512"><ele>1628.4</ele><time>2025-08-09T10:53:02Z</time></trkpt>
<trkpt lat="46.1985" lon="7.57496"><ele>1627.4</ele><time>2025-08-09T10:53:05Z</time></trkpt>
<trkpt lat="46.19836" lon="7.57495"><ele>1626.8</ele><time>2025-08-09T10:53:07Z</time></trkpt>
<trkpt lat="46.1983" lon="7.57496"><ele>1626</ele><time>2025-08-09T10:53:08Z</time></trkpt>
<trkpt lat="46.19825" lon="7.57495"><ele>1625.8</ele><time>2025-08-09T10:53:09Z</time></trkpt>
<trkpt lat="46.19821" lon="7.5749"><ele>1625.4</ele><time>2025-08-09T10:53:10Z</time></trkpt>
<trkpt lat="46.19818" lon="7.57484"><ele>1625.2</ele><time>2025-08-09T10:53:11Z</time></trkpt>
<trkpt lat="46.19815" lon="7.57477"><ele>1625</ele><time>2025-08-09T10:53:12Z</time></trkpt>
<trkpt lat="46.19812" lon="7.57469"><ele>1624.6</ele><time>2025-08-09T10:53:13Z</time></trkpt>
<trkpt lat="46.19808" lon="7.57465"><ele>1624.2</ele><time>2025-08-09T10:53:14Z</time></trkpt>
<trkpt lat="46.19802" lon="7.57464"><ele>1623.8</ele><time>2025-08-09T10:53:15Z</time></trkpt>
<trkpt lat="46.19797" lon="7.57464"><ele>1623.2</ele><time>2025-08-09T10:53:16Z</time></trkpt>
<trkpt lat="46.19791" lon="7.57465"><ele>1622.6</ele><time>2025-08-09T10:53:17Z</time></trkpt>
<trkpt lat="46.1978" lon="7.57462"><ele>1621.4</ele><time>2025-08-09T10:53:19Z</time></trkpt>
<trkpt lat="46.19774" lon="7.57459"><ele>1621</ele><time>2025-08-09T10:53:20Z</time></trkpt>
<trkpt lat="46.19759" lon="7.57455"><ele>1620.4</ele><time>2025-08-09T10:53:22Z</time></trkpt>
<trkpt lat="46.19744" lon="7.57452"><ele>1618.6</ele><time>2025-08-09T10:53:24Z</time></trkpt>
<trkpt lat="46.19728" lon="7.57445"><ele>1617.2</ele><time>2025-08-09T10:53:26Z</time></trkpt>
<trkpt lat="46.19709" lon="7.57439"><ele>1616</ele><time>2025-08-09T10:53:28Z</time></trkpt>
<trkpt lat="46.1969" lon="7.57432"><ele>1614.8</ele><time>2025-08-09T10:53:30Z</time></trkpt>
<trkpt lat="46.19673" lon="7.57425"><ele>1613.2</ele><time>2025-08-09T10:53:32Z</time></trkpt>
<trkpt lat="46.19665" lon="7.57424"><ele>1612.4</ele><time>2025-08-09T10:53:33Z</time></trkpt>
<trkpt lat="46.19658" lon="7.57425"><ele>1612</ele><time>2025-08-09T10:53:34Z</time></trkpt>
<trkpt lat="46.19652" lon="7.57428"><ele>1611.4</ele><time>2025-08-09T10:53:35Z</time></trkpt>
<trkpt lat="46.19647" lon="7.57434"><ele>1611</ele><time>2025-08-09T10:53:36Z</time></trkpt>
<trkpt lat="46.19642" lon="7.57442"><ele>1610.6</ele><time>2025-08-09T10:53:37Z</time></trkpt>
<trkpt lat="46.19636" lon="7.57457"><ele>1609.8</ele><time>2025-08-09T10:53:39Z</time></trkpt>
<trkpt lat="46.19633" lon="7.57464"><ele>1609.4</ele><time>2025-08-09T10:53:40Z</time></trkpt>
<trkpt lat="46.19624" lon="7.57494"><ele>1608</ele><time>2025-08-09T10:53:44Z</time></trkpt>
<trkpt lat="46.1962" lon="7.57501"><ele>1607.6</ele><time>2025-08-09T10:53:45Z</time></trkpt>
<trkpt lat="46.19611" lon="7.57511"><ele>1606.8</ele><time>2025-08-09T10:53:47Z</time></trkpt>
<trkpt lat="46.19607" lon="7.57514"><ele>1606.2</ele><time>2025-08-09T10:53:48Z</time></trkpt>
<trkpt lat="46.19602" lon="7.57517"><ele>1606</ele><time>2025-08-09T10:53:49Z</time></trkpt>
<trkpt lat="46.19596" lon="7.57517"><ele>1605.8</ele><time>2025-08-09T10:53:50Z</time></trkpt>
<trkpt lat="46.19592" lon="7.57516"><ele>1605</ele><time>2025-08-09T10:53:51Z</time></trkpt>
<trkpt lat="46.19586" lon="7.57515"><ele>1604.6</ele><time>2025-08-09T10:53:52Z</time></trkpt>
<trkpt lat="46.19574" lon="7.57516"><ele>1604.2</ele><time>2025-08-09T10:53:54Z</time></trkpt>
<trkpt lat="46.19561" lon="7.57515"><ele>1603.4</ele><time>2025-08-09T10:53:56Z</time></trkpt>
<trkpt lat="46.19548" lon="7.57512"><ele>1601.4</ele><time>2025-08-09T10:53:58Z</time></trkpt>
<trkpt lat="46.19541" lon="7.57512"><ele>1601</ele><time>2025-08-09T10:53:59Z</time></trkpt>
<trkpt lat="46.19536" lon="7.57514"><ele>1600.6</ele><time>2025-08-09T10:54:00Z</time></trkpt>
<trkpt lat="46.1953" lon="7.57517"><ele>1600</ele><time>2025-08-09T10:54:01Z</time></trkpt>
<trkpt lat="46.1952" lon="7.57524"><ele>1599.4</ele><time>2025-08-09T10:54:03Z</time></trkpt>
<trkpt lat="46.19515" lon="7.57527"><ele>1599</ele><time>2025-08-09T10:54:04Z</time></trkpt>
<trkpt lat="46.19509" lon="7.57526"><ele>1598.8</ele><time>2025-08-09T10:54:05Z</time></trkpt>
<trkpt lat="46.19496" lon="7.57527"><ele>1598.2</ele><time>2025-08-09T10:54:07Z</time></trkpt>
<trkpt lat="46.1949" lon="7.5753"><ele>1597.8</ele><time>2025-08-09T10:54:08Z</time></trkpt>
<trkpt lat="46.19485" lon="7.57537"><ele>1596.8</ele><time>2025-08-09T10:54:09Z</time></trkpt>
<trkpt lat="46.19481" lon="7.57545"><ele>1596.2</ele><time>2025-08-09T10:54:10Z</time></trkpt>
<trkpt lat="46.19479" lon="7.57554"><ele>1595.8</ele><time>2025-08-09T10:54:11Z</time></trkpt>
<trkpt lat="46.19477" lon="7.57564"><ele>1595.2</ele><time>2025-08-09T10:54:12Z</time></trkpt>
<trkpt lat="46.19475" lon="7.57573"><ele>1595</ele><time>2025-08-09T10:54:13Z</time></trkpt>
<trkpt lat="46.19475" lon="7.57582"><ele>1595</ele><time>2025-08-09T10:54:14Z</time></trkpt>
<trkpt lat="46.19475" lon="7.57591"><ele>1594.6</ele><time>2025-08-09T10:54:15Z</time></trkpt>
<trkpt lat="46.19474" lon="7.5761"><ele>1594</ele><time>2025-08-09T10:54:17Z</time></trkpt>
<trkpt lat="46.19474" lon="7.57627"><ele>1593.4</ele><time>2025-08-09T10:54:19Z</time></trkpt>
<trkpt lat="46.19475" lon="7.57644"><ele>1592.8</ele><time>2025-08-09T10:54:21Z</time></trkpt>
<trkpt lat="46.19476" lon="7.57654"><ele>1592.6</ele><time>2025-08-09T10:54:22Z</time></trkpt>
<trkpt lat="46.19477" lon="7.57665"><ele>1592.4</ele><time>2025-08-09T10:54:23Z</time></trkpt>
<trkpt lat="46.19474" lon="7.57699"><ele>1591.2</ele><time>2025-08-09T10:54:26Z</time></trkpt>
<trkpt lat="46.19464" lon="7.57736"><ele>1590</ele><time>2025-08-09T10:54:29Z</time></trkpt>
<trkpt lat="46.19463" lon="7.57749"><ele>1589.6</ele><time>2025-08-09T10:54:30Z</time></trkpt>
<trkpt lat="46.19462" lon="7.57762"><ele>1589</ele><time>2025-08-09T10:54:31Z</time></trkpt>
<trkpt lat="46.19462" lon="7.57786"><ele>1587.8</ele><time>2025-08-09T10:54:33Z</time></trkpt>
<trkpt lat="46.19462" lon="7.57798"><ele>1587.4</ele><time>2025-08-09T10:54:34Z</time></trkpt>
<trkpt lat="46.19462" lon="7.57809"><ele>1586.8</ele><time>2025-08-09T10:54:35Z</time></trkpt>
<trkpt lat="46.19461" lon="7.57819"><ele>1586.2</ele><time>2025-08-09T10:54:36Z</time></trkpt>
<trkpt lat="46.19455" lon="7.57834"><ele>1585.4</ele><time>2025-08-09T10:54:38Z</time></trkpt>
<trkpt lat="46.19444" lon="7.57844"><ele>1584.6</ele><time>2025-08-09T10:54:40Z</time></trkpt>
<trkpt lat="46.19438" lon="7.5785"><ele>1584.6</ele><time>2025-08-09T10:54:41Z</time></trkpt>
<trkpt lat="46.19433" lon="7.57857"><ele>1584.2</ele><time>2025-08-09T10:54:42Z</time></trkpt>
<trkpt lat="46.19421" lon="7.57867"><ele>1583.6</ele><time>2025-08-09T10:54:44Z</time></trkpt>
<trkpt lat="46.19414" lon="7.57868"><ele>1583.6</ele><time>2025-08-09T10:54:45Z</time></trkpt>
<trkpt lat="46.19408" lon="7.57867"><ele>1583.8</ele><time>2025-08-09T10:54:46Z</time></trkpt>
<trkpt lat="46.19397" lon="7.57866"><ele>1584.2</ele><time>2025-08-09T10:54:48Z</time></trkpt>
<trkpt lat="46.1938" lon="7.57872"><ele>1584</ele><time>2025-08-09T10:54:51Z</time></trkpt>
<trkpt lat="46.19375" lon="7.57874"><ele>1584</ele><time>2025-08-09T10:54:52Z</time></trkpt>
<trkpt lat="46.1937" lon="7.57878"><ele>1584.2</ele><time>2025-08-09T10:54:53Z</time></trkpt>
<trkpt lat="46.19354" lon="7.57895"><ele>1584.2</ele><time>2025-08-09T10:54:57Z</time></trkpt>
<trkpt lat="46.19339" lon="7.57908"><ele>1584.2</ele><time>2025-08-09T10:55:01Z</time></trkpt>
<trkpt lat="46.19335" lon="7.5791"><ele>1584.2</ele><time>2025-08-09T10:55:02Z</time></trkpt>
<trkpt lat="46.19331" lon="7.57911"><ele>1584.4</ele><time>2025-08-09T10:55:03Z</time></trkpt>
<trkpt lat="46.19319" lon="7.57911"><ele>1585</ele><time>2025-08-09T10:55:06Z</time></trkpt>
<trkpt lat="46.19314" lon="7.5791"><ele>1585.2</ele><time>2025-08-09T10:55:07Z</time></trkpt>
<trkpt lat="46.19306" lon="7.57908"><ele>1585.4</ele><time>2025-08-09T10:55:09Z</time></trkpt>
<trkpt lat="46.19299" lon="7.57908"><ele>1585.6</ele><time>2025-08-09T10:55:11Z</time></trkpt>
<trkpt lat="46.19271" lon="7.57908"><ele>1585.8</ele><time>2025-08-09T10:55:17Z</time></trkpt>
<trkpt lat="46.19267" lon="7.57909"><ele>1585.8</ele><time>2025-08-09T10:55:18Z</time></trkpt>
<trkpt lat="46.19257" lon="7.57913"><ele>1585.6</ele><time>2025-08-09T10:55:20Z</time></trkpt>
<trkpt lat="46.19253" lon="7.57916"><ele>1585.6</ele><time>2025-08-09T10:55:21Z</time></trkpt>
<trkpt lat="46.19235" lon="7.57921"><ele>1586.4</ele><time>2025-08-09T10:55:25Z</time></trkpt>
<trkpt lat="46.19231" lon="7.57921"><ele>1586.6</ele><time>2025-08-09T10:55:26Z</time></trkpt>
<trkpt lat="46.19223" lon="7.5792"><ele>1586.6</ele><time>2025-08-09T10:55:28Z</time></trkpt>
<trkpt lat="46.19208" lon="7.57918"><ele>1586.8</ele><time>2025-08-09T10:55:32Z</time></trkpt>
<trkpt lat="46.192" lon="7.57919"><ele>1587</ele><time>2025-08-09T10:55:34Z</time></trkpt>
<trkpt lat="46.19192" lon="7.57921"><ele>1587.2</ele><time>2025-08-09T10:55:36Z</time></trkpt>
<trkpt lat="46.19189" lon="7.57923"><ele>1587.4</ele><time>2025-08-09T10:55:37Z</time></trkpt>
<trkpt lat="46.19183" lon="7.57926"><ele>1587.6</ele><time>2025-08-09T10:55:39Z</time></trkpt>
<trkpt lat="46.19173" lon="7.57926"><ele>1588</ele><time>2025-08-09T10:55:42Z</time></trkpt>
<trkpt lat="46.1916" lon="7.57924"><ele>1588.6</ele><time>2025-08-09T10:55:47Z</time></trkpt>
<trkpt lat="46.19155" lon="7.57924"><ele>1588.6</ele><time>2025-08-09T10:55:49Z</time></trkpt>
<trkpt lat="46.19141" lon="7.57917"><ele>1589.2</ele><time>2025-08-09T10:55:54Z</time></trkpt>
<trkpt lat="46.19137" lon="7.57916"><ele>1589.2</ele><time>2025-08-09T10:55:55Z</time></trkpt>
<trkpt lat="46.19125" lon="7.57916"><ele>1589.2</ele><time>2025-08-09T10:55:58Z</time></trkpt>
<trkpt lat="46.19112" lon="7.57916"><ele>1589.8</ele><time>2025-08-09T10:56:02Z</time></trkpt>
<trkpt lat="46.19109" lon="7.57916"><ele>1590</ele><time>2025-08-09T10:56:03Z</time></trkpt>
<trkpt lat="46.19088" lon="7.57918"><ele>1589.6</ele><time>2025-08-09T10:56:09Z</time></trkpt>
<trkpt lat="46.19068" lon="7.57922"><ele>1589.6</ele><time>2025-08-09T10:56:14Z</time></trkpt>
<trkpt lat="46.19044" lon="7.57927"><ele>1590</ele><time>2025-08-09T10:56:20Z</time></trkpt>
<trkpt lat="46.1901" lon="7.57937"><ele>1590.4</ele><time>2025-08-09T10:56:28Z</time></trkpt>
<trkpt lat="46.18979" lon="7.57947"><ele>1590.6</ele><time>2025-08-09T10:56:36Z</time></trkpt>
<trkpt lat="46.18971" lon="7.5795"><ele>1590.8</ele><time>2025-08-09T10:56:38Z</time></trkpt>
<trkpt lat="46.18953" lon="7.57958"><ele>1591.4</ele><time>2025-08-09T10:56:43Z</time></trkpt>
<trkpt lat="46.18916" lon="7.57969"><ele>1591.8</ele><time>2025-08-09T10:56:53Z</time></trkpt>
<trkpt lat="46.18913" lon="7.57969"><ele>1591.8</ele><time>2025-08-09T10:56:54Z</time></trkpt>
<trkpt lat="46.18889" lon="7.57968"><ele>1592.2</ele><time>2025-08-09T10:57:00Z</time></trkpt>
<trkpt lat="46.18863" lon="7.57967"><ele>1592.6</ele><time>2025-08-09T10:57:07Z</time></trkpt>
<trkpt lat="46.18842" lon="7.57966"><ele>1592.6</ele><time>2025-08-09T10:57:13Z</time></trkpt>
<trkpt lat="46.18829" lon="7.57964"><ele>1592.8</ele><time>2025-08-09T10:57:17Z</time></trkpt>
<trkpt lat="46.1882" lon="7.57965"><ele>1593</ele><time>2025-08-09T10:57:20Z</time></trkpt>
<trkpt lat="46.18807" lon="7.57967"><ele>1593</ele><time>2025-08-09T10:57:24Z</time></trkpt>
<trkpt lat="46.18794" lon="7.57968"><ele>1593.2</ele><time>2025-08-09T10:57:28Z</time></trkpt>
<trkpt lat="46.18772" lon="7.57973"><ele>1593.4</ele><time>2025-08-09T10:57:35Z</time></trkpt>
<trkpt lat="46.18748" lon="7.57975"><ele>1593.8</ele><time>2025-08-09T10:57:42Z</time></trkpt>
<trkpt lat="46.18741" lon="7.57974"><ele>1594</ele><time>2025-08-09T10:57:44Z</time></trkpt>
<trkpt lat="46.18727" lon="7.57975"><ele>1594</ele><time>2025-08-09T10:57:48Z</time></trkpt>
<trkpt lat="46.18719" lon="7.57975"><ele>1594</ele><time>2025-08-09T10:57:50Z</time></trkpt>
<trkpt lat="46.18696" lon="7.57968"><ele>1594.4</ele><time>2025-08-09T10:57:57Z</time></trkpt>
<trkpt lat="46.1867" lon="7.57967"><ele>1594.6</ele><time>2025-08-09T10:58:04Z</time></trkpt>
<trkpt lat="46.18657" lon="7.57984"><ele>1594.8</ele><time>2025-08-09T10:58:09Z</time></trkpt>
<trkpt lat="46.18647" lon="7.57991"><ele>1595</ele><time>2025-08-09T10:58:12Z</time></trkpt>
<trkpt lat="46.18639" lon="7.57992"><ele>1595</ele><time>2025-08-09T10:58:14Z</time></trkpt>
<trkpt lat="46.18609" lon="7.57992"><ele>1595.2</ele><time>2025-08-09T10:58:22Z</time></trkpt>
<trkpt lat="46.18588" lon="7.5798"><ele>1595.8</ele><time>2025-08-09T10:58:28Z</time></trkpt>
<trkpt lat="46.18565" lon="7.57956"><ele>1595.8</ele><time>2025-08-09T10:58:36Z</time></trkpt>
<trkpt lat="46.18564" lon="7.57956"><ele>1595.8</ele><time>2025-08-09T10:58:37Z</time></trkpt>
<trkpt lat="46.18562" lon="7.57954"><ele>1595.8</ele><time>2025-08-09T10:58:39Z</time></trkpt>
<trkpt lat="46.1856" lon="7.57958"><ele>1595.8</ele><time>2025-08-09T10:58:41Z</time></trkpt>
<trkpt lat="46.18563" lon="7.5796"><ele>1595.6</ele><time>2025-08-09T10:58:43Z</time></trkpt>
<trkpt lat="46.18565" lon="7.5796"><ele>1595.6</ele><time>2025-08-09T10:58:44Z</time></trkpt>
<trkpt lat="46.18568" lon="7.57958"><ele>1595.6</ele><time>2025-08-09T10:58:48Z</time></trkpt>
<trkpt lat="46.18567" lon="7.57957"><ele>1595.8</ele><time>2025-08-09T10:58:53Z</time></trkpt>
<trkpt lat="46.18566" lon="7.57955"><ele>1595.8</ele><time>2025-08-09T10:58:59Z</time></trkpt>
<trkpt lat="46.18566" lon="7.57955"><ele>1595.4</ele><time>2025-08-09T10:59:03Z</time></trkpt>
<trkpt lat="46.18563" lon="7.57954"><ele>1595.6</ele><time>2025-08-09T10:59:07Z</time></trkpt>
<trkpt lat="46.18563" lon="7.57955"><ele>1595.2</ele><time>2025-08-09T10:59:12Z</time></trkpt>
<trkpt lat="46.18563" lon="7.57955"><ele>1595.2</ele><time>2025-08-09T10:59:14Z</time></trkpt>
<trkpt lat="46.18563" lon="7.57955"><ele>1595.4</ele><time>2025-08-09T10:59:21Z</time></trkpt>
<trkpt lat="46.18563" lon="7.57955"><ele>1595.2</ele><time>2025-08-09T10:59:29Z</time></trkpt>
<trkpt lat="46.18562" lon="7.57956"><ele>1595.2</ele><time>2025-08-09T10:59:34Z</time></trkpt>
<trkpt lat="46.18562" lon="7.57956"><ele>1595.2</ele><time>2025-08-09T10:59:35Z</time></trkpt>
<trkpt lat="46.1856" lon="7.57956"><ele>1595.4</ele><time>2025-08-09T10:59:38Z</time></trkpt>
<trkpt lat="46.1856" lon="7.57956"><ele>1595</ele><time>2025-08-09T10:59:41Z</time></trkpt>
<trkpt lat="46.1856" lon="7.57956"><ele>1594.8</ele><time>2025-08-09T10:59:49Z</time></trkpt>
<trkpt lat="46.1856" lon="7.57956"><ele>1594.6</ele><time>2025-08-09T10:59:56Z</time></trkpt>
<trkpt lat="46.1856" lon="7.57954"><ele>1594.8</ele><time>2025-08-09T10:59:59Z</time></trkpt>
<trkpt lat="46.1856" lon="7.57956"><ele>1594.8</ele><time>2025-08-09T11:00:06Z</time></trkpt>
<trkpt lat="46.18562" lon="7.57952"><ele>1595</ele><time>2025-08-09T11:00:14Z</time></trkpt>
<trkpt lat="46.18565" lon="7.57953"><ele>1595.2</ele><time>2025-08-09T11:00:20Z</time></trkpt>
<trkpt lat="46.18565" lon="7.57954"><ele>1595</ele><time>2025-08-09T11:00:23Z</time></trkpt>
<trkpt lat="46.18565" lon="7.57954"><ele>1594.6</ele><time>2025-08-09T11:00:26Z</time></trkpt>
<trkpt lat="46.18565" lon="7.57954"><ele>1594.6</ele><time>2025-08-09T11:00:27Z</time></trkpt>
<trkpt lat="46.18565" lon="7.57954"><ele>1594.6</ele><time>2025-08-09T11:00:28Z</time></trkpt>
<trkpt lat="46.18565" lon="7.57954"><ele>1594.6</ele><time>2025-08-09T11:00:37Z</time></trkpt>
<trkpt lat="46.18565" lon="7.57954"><ele>1594.4</ele><time>2025-08-09T11:00:44Z</time></trkpt>
<trkpt lat="46.18565" lon="7.57954"><ele>1594.2</ele><time>2025-08-09T11:00:51Z</time></trkpt>
<trkpt lat="46.18565" lon="7.57954"><ele>1594.2</ele><time>2025-08-09T11:00:56Z</time></trkpt>
<trkpt lat="46.18565" lon="7.57954"><ele>1594.2</ele><time>2025-08-09T11:00:57Z</time></trkpt>
<trkpt lat="46.18566" lon="7.57953"><ele>1594.2</ele><time>2025-08-09T11:01:01Z</time></trkpt>
<trkpt lat="46.18566" lon="7.57954"><ele>1594.2</ele><time>2025-08-09T11:01:04Z</time></trkpt>
<trkpt lat="46.18567" lon="7.57953"><ele>1594.2</ele><time>2025-08-09T11:01:05Z</time></trkpt>
<trkpt lat="46.18566" lon="7.57954"><ele>1594.2</ele><time>2025-08-09T11:01:06Z</time></trkpt>
<trkpt lat="46.18566" lon="7.57953"><ele>1594.2</ele><time>2025-08-09T11:01:07Z</time></trkpt>
<trkpt lat="46.18567" lon="7.57953"><ele>1594.2</ele><time>2025-08-09T11:01:10Z</time></trkpt>
<trkpt lat="46.18566" lon="7.57955"><ele>1594.2</ele><time>2025-08-09T11:01:16Z</time></trkpt>
<trkpt lat="46.18565" lon="7.57954"><ele>1594.2</ele><time>2025-08-09T11:01:22Z</time></trkpt>
<trkpt lat="46.18565" lon="7.57954"><ele>1594.2</ele><time>2025-08-09T11:01:24Z</time></trkpt>
<trkpt lat="46.18565" lon="7.57954"><ele>1594.2</ele><time>2025-08-09T11:01:31Z</time></trkpt>
<trkpt lat="46.18565" lon="7.57955"><ele>1594.2</ele><time>2025-08-09T11:01:36Z</time></trkpt>
<trkpt lat="46.18565" lon="7.57954"><ele>1594.2</ele><time>2025-08-09T11:01:37Z</time></trkpt>
<trkpt lat="46.18565" lon="7.57954"><ele>1594.2</ele><time>2025-08-09T11:01:39Z</time></trkpt>
<trkpt lat="46.18565" lon="7.57954"><ele>1594.2</ele><time>2025-08-09T11:01:41Z</time></trkpt>
<trkpt lat="46.18565" lon="7.57954"><ele>1594.2</ele><time>2025-08-09T11:01:50Z</time></trkpt>
<trkpt lat="46.18565" lon="7.57954"><ele>1594.2</ele><time>2025-08-09T11:01:57Z</time></trkpt>
<trkpt lat="46.18567" lon="7.57955"><ele>1594.2</ele><time>2025-08-09T11:02:00Z</time></trkpt>
<trkpt lat="46.1857" lon="7.57957"><ele>1594.4</ele><time>2025-08-09T11:02:02Z</time></trkpt>
<trkpt lat="46.18571" lon="7.5796"><ele>1594.2</ele><time>2025-08-09T11:02:03Z</time></trkpt>
<trkpt lat="46.1857" lon="7.57964"><ele>1594</ele><time>2025-08-09T11:02:05Z</time></trkpt>
<trkpt lat="46.18568" lon="7.57963"><ele>1594</ele><time>2025-08-09T11:02:07Z</time></trkpt>
<trkpt lat="46.18566" lon="7.57961"><ele>1594</ele><time>2025-08-09T11:02:09Z</time></trkpt>
<trkpt lat="46.18556" lon="7.57954"><ele>1593.8</ele><time>2025-08-09T11:02:14Z</time></trkpt>
<trkpt lat="46.18539" lon="7.57942"><ele>1592.6</ele><time>2025-08-09T11:02:18Z</time></trkpt>
<trkpt lat="46.18534" lon="7.57939"><ele>1592.2</ele><time>2025-08-09T11:02:19Z</time></trkpt>
<trkpt lat="46.18528" lon="7.57937"><ele>1591.6</ele><time>2025-08-09T11:02:20Z</time></trkpt>
<trkpt lat="46.18522" lon="7.57936"><ele>1591.2</ele><time>2025-08-09T11:02:21Z</time></trkpt>
<trkpt lat="46.18509" lon="7.57931"><ele>1590.6</ele><time>2025-08-09T11:02:23Z</time></trkpt>
<trkpt lat="46.18489" lon="7.57916"><ele>1591.8</ele><time>2025-08-09T11:02:27Z</time></trkpt>
<trkpt lat="46.18482" lon="7.5791"><ele>1592.4</ele><time>2025-08-09T11:02:29Z</time></trkpt>
<trkpt lat="46.18474" lon="7.57901"><ele>1593.2</ele><time>2025-08-09T11:02:32Z</time></trkpt>
<trkpt lat="46.18471" lon="7.57897"><ele>1593.6</ele><time>2025-08-09T11:02:33Z</time></trkpt>
<trkpt lat="46.1846" lon="7.57879"><ele>1594.6</ele><time>2025-08-09T11:02:38Z</time></trkpt>
<trkpt lat="46.18449" lon="7.57856"><ele>1595.6</ele><time>2025-08-09T11:02:44Z</time></trkpt>
<trkpt lat="46.18444" lon="7.57849"><ele>1596</ele><time>2025-08-09T11:02:46Z</time></trkpt>
<trkpt lat="46.18428" lon="7.57837"><ele>1596.4</ele><time>2025-08-09T11:02:51Z</time></trkpt>
<trkpt lat="46.18402" lon="7.57824"><ele>1596.6</ele><time>2025-08-09T11:02:57Z</time></trkpt>
<trkpt lat="46.18398" lon="7.57822"><ele>1596.6</ele><time>2025-08-09T11:02:58Z</time></trkpt>
<trkpt lat="46.1838" lon="7.57808"><ele>1596.8</ele><time>2025-08-09T11:03:03Z</time></trkpt>
<trkpt lat="46.18374" lon="7.57801"><ele>1596.8</ele><time>2025-08-09T11:03:05Z</time></trkpt>
<trkpt lat="46.18351" lon="7.57779"><ele>1597.4</ele><time>2025-08-09T11:03:12Z</time></trkpt>
<trkpt lat="46.18339" lon="7.57766"><ele>1597.6</ele><time>2025-08-09T11:03:16Z</time></trkpt>
<trkpt lat="46.1833" lon="7.57757"><ele>1597.8</ele><time>2025-08-09T11:03:19Z</time></trkpt>
<trkpt lat="46.18325" lon="7.5775"><ele>1598</ele><time>2025-08-09T11:03:21Z</time></trkpt>
<trkpt lat="46.18322" lon="7.57747"><ele>1598</ele><time>2025-08-09T11:03:22Z</time></trkpt>
<trkpt lat="46.18319" lon="7.57743"><ele>1598.2</ele><time>2025-08-09T11:03:23Z</time></trkpt>
<trkpt lat="46.1831" lon="7.57733"><ele>1598.4</ele><time>2025-08-09T11:03:26Z</time></trkpt>
<trkpt lat="46.18307" lon="7.5773"><ele>1598.4</ele><time>2025-08-09T11:03:27Z</time></trkpt>
<trkpt lat="46.18295" lon="7.57718"><ele>1598.8</ele><time>2025-08-09T11:03:31Z</time></trkpt>
<trkpt lat="46.1828" lon="7.57702"><ele>1598.8</ele><time>2025-08-09T11:03:36Z</time></trkpt>
<trkpt lat="46.18263" lon="7.57684"><ele>1599</ele><time>2025-08-09T11:03:42Z</time></trkpt>
<trkpt lat="46.18257" lon="7.57678"><ele>1599.2</ele><time>2025-08-09T11:03:44Z</time></trkpt>
<trkpt lat="46.18236" lon="7.5765"><ele>1599.6</ele><time>2025-08-09T11:03:52Z</time></trkpt>
<trkpt lat="46.1823" lon="7.57644"><ele>1599.8</ele><time>2025-08-09T11:03:54Z</time></trkpt>
<trkpt lat="46.1821" lon="7.57624"><ele>1600</ele><time>2025-08-09T11:04:01Z</time></trkpt>
<trkpt lat="46.18187" lon="7.5761"><ele>1600.4</ele><time>2025-08-09T11:04:08Z</time></trkpt>
<trkpt lat="46.18167" lon="7.57588"><ele>1600.8</ele><time>2025-08-09T11:04:15Z</time></trkpt>
<trkpt lat="46.18161" lon="7.57581"><ele>1600.8</ele><time>2025-08-09T11:04:17Z</time></trkpt>
<trkpt lat="46.18153" lon="7.57571"><ele>1601</ele><time>2025-08-09T11:04:20Z</time></trkpt>
<trkpt lat="46.18151" lon="7.57569"><ele>1601</ele><time>2025-08-09T11:04:21Z</time></trkpt>
<trkpt lat="46.18147" lon="7.57567"><ele>1601</ele><time>2025-08-09T11:04:22Z</time></trkpt>
<trkpt lat="46.18141" lon="7.57564"><ele>1601</ele><time>2025-08-09T11:04:24Z</time></trkpt>
<trkpt lat="46.18123" lon="7.57561"><ele>1601.2</ele><time>2025-08-09T11:04:29Z</time></trkpt>
<trkpt lat="46.18094" lon="7.57551"><ele>1601.4</ele><time>2025-08-09T11:04:38Z</time></trkpt>
<trkpt lat="46.18091" lon="7.57549"><ele>1601.4</ele><time>2025-08-09T11:04:39Z</time></trkpt>
<trkpt lat="46.18088" lon="7.57547"><ele>1601.4</ele><time>2025-08-09T11:04:40Z</time></trkpt>
<trkpt lat="46.18082" lon="7.57542"><ele>1601.6</ele><time>2025-08-09T11:04:42Z</time></trkpt>
<trkpt lat="46.18071" lon="7.57531"><ele>1601.4</ele><time>2025-08-09T11:04:46Z</time></trkpt>
<trkpt lat="46.18047" lon="7.57509"><ele>1601.6</ele><time>2025-08-09T11:04:54Z</time></trkpt>
<trkpt lat="46.18034" lon="7.57497"><ele>1601.8</ele><time>2025-08-09T11:04:58Z</time></trkpt>
<trkpt lat="46.18025" lon="7.57491"><ele>1602</ele><time>2025-08-09T11:05:01Z</time></trkpt>
<trkpt lat="46.18019" lon="7.57488"><ele>1602.2</ele><time>2025-08-09T11:05:03Z</time></trkpt>
<trkpt lat="46.18006" lon="7.57485"><ele>1602.4</ele><time>2025-08-09T11:05:07Z</time></trkpt>
<trkpt lat="46.17992" lon="7.57483"><ele>1603</ele><time>2025-08-09T11:05:11Z</time></trkpt>
<trkpt lat="46.17979" lon="7.57483"><ele>1603.4</ele><time>2025-08-09T11:05:15Z</time></trkpt>
<trkpt lat="46.17966" lon="7.5748"><ele>1603.8</ele><time>2025-08-09T11:05:20Z</time></trkpt>
<trkpt lat="46.17964" lon="7.57475"><ele>1604</ele><time>2025-08-09T11:05:22Z</time></trkpt>
<trkpt lat="46.17964" lon="7.57473"><ele>1604.2</ele><time>2025-08-09T11:05:23Z</time></trkpt>
<trkpt lat="46.17966" lon="7.5747"><ele>1604.2</ele><time>2025-08-09T11:05:24Z</time></trkpt>
<trkpt lat="46.17977" lon="7.57466"><ele>1605</ele><time>2025-08-09T11:05:29Z</time></trkpt>
<trkpt lat="46.17979" lon="7.57465"><ele>1605.2</ele><time>2025-08-09T11:05:30Z</time></trkpt>
<trkpt lat="46.17986" lon="7.57464"><ele>1605.8</ele><time>2025-08-09T11:05:35Z</time></trkpt>
<trkpt lat="46.1799" lon="7.57463"><ele>1606.2</ele><time>2025-08-09T11:05:37Z</time></trkpt>
<trkpt lat="46.17997" lon="7.57461"><ele>1607.2</ele><time>2025-08-09T11:05:42Z</time></trkpt>
<trkpt lat="46.17998" lon="7.5746"><ele>1607.4</ele><time>2025-08-09T11:05:43Z</time></trkpt>
<trkpt lat="46.18006" lon="7.57458"><ele>1608</ele><time>2025-08-09T11:05:48Z</time></trkpt>
<trkpt lat="46.18009" lon="7.57458"><ele>1608.4</ele><time>2025-08-09T11:05:51Z</time></trkpt>
<trkpt lat="46.18011" lon="7.57457"><ele>1608.8</ele><time>2025-08-09T11:05:55Z</time></trkpt>
<trkpt lat="46.18018" lon="7.57457"><ele>1609.4</ele><time>2025-08-09T11:06:00Z</time></trkpt>
<trkpt lat="46.1802" lon="7.57457"><ele>1609.4</ele><time>2025-08-09T11:06:01Z</time></trkpt>
<trkpt lat="46.18032" lon="7.57459"><ele>1610.6</ele><time>2025-08-09T11:06:08Z</time></trkpt>
<trkpt lat="46.18034" lon="7.5746"><ele>1610.8</ele><time>2025-08-09T11:06:09Z</time></trkpt>
<trkpt lat="46.18041" lon="7.57466"><ele>1611.6</ele><time>2025-08-09T11:06:13Z</time></trkpt>
<trkpt lat="46.18042" lon="7.57468"><ele>1611.8</ele><time>2025-08-09T11:06:14Z</time></trkpt>
<trkpt lat="46.18043" lon="7.5747"><ele>1612</ele><time>2025-08-09T11:06:15Z</time></trkpt>
<trkpt lat="46.18048" lon="7.57476"><ele>1612.6</ele><time>2025-08-09T11:06:18Z</time></trkpt>
<trkpt lat="46.18052" lon="7.57478"><ele>1613</ele><time>2025-08-09T11:06:20Z</time></trkpt>
<trkpt lat="46.18054" lon="7.5748"><ele>1613.2</ele><time>2025-08-09T11:06:21Z</time></trkpt>
<trkpt lat="46.18062" lon="7.57486"><ele>1614</ele><time>2025-08-09T11:06:26Z</time></trkpt>
<trkpt lat="46.18066" lon="7.57488"><ele>1614.2</ele><time>2025-08-09T11:06:28Z</time></trkpt>
<trkpt lat="46.18074" lon="7.57492"><ele>1615.2</ele><time>2025-08-09T11:06:33Z</time></trkpt>
<trkpt lat="46.18079" lon="7.57495"><ele>1615.6</ele><time>2025-08-09T11:06:36Z</time></trkpt>
<trkpt lat="46.18086" lon="7.57499"><ele>1616.2</ele><time>2025-08-09T11:06:42Z</time></trkpt>
<trkpt lat="46.18088" lon="7.57498"><ele>1616.2</ele><time>2025-08-09T11:06:43Z</time></trkpt>
<trkpt lat="46.18096" lon="7.57495"><ele>1616.8</ele><time>2025-08-09T11:06:47Z</time></trkpt>
<trkpt lat="46.18104" lon="7.57492"><ele>1617.4</ele><time>2025-08-09T11:06:51Z</time></trkpt>
<trkpt lat="46.18108" lon="7.57492"><ele>1618</ele><time>2025-08-09T11:06:53Z</time></trkpt>
<trkpt lat="46.18111" lon="7.5749"><ele>1618.4</ele><time>2025-08-09T11:06:58Z</time></trkpt>
<trkpt lat="46.18111" lon="7.5749"><ele>1618.4</ele><time>2025-08-09T11:07:07Z</time></trkpt>
<trkpt lat="46.18111" lon="7.5749"><ele>1618.2</ele><time>2025-08-09T11:07:09Z</time></trkpt>
<trkpt lat="46.18113" lon="7.5749"><ele>1618.2</ele><time>2025-08-09T11:07:12Z</time></trkpt>
<trkpt lat="46.18116" lon="7.5749"><ele>1618.6</ele><time>2025-08-09T11:07:14Z</time></trkpt>
<trkpt lat="46.1812" lon="7.57489"><ele>1618.8</ele><time>2025-08-09T11:07:16Z</time></trkpt>
<trkpt lat="46.18127" lon="7.57488"><ele>1619.6</ele><time>2025-08-09T11:07:20Z</time></trkpt>
<trkpt lat="46.18134" lon="7.57487"><ele>1620.2</ele><time>2025-08-09T11:07:24Z</time></trkpt>
<trkpt lat="46.18138" lon="7.57487"><ele>1620.6</ele><time>2025-08-09T11:07:26Z</time></trkpt>
<trkpt lat="46.18148" lon="7.57489"><ele>1621.4</ele><time>2025-08-09T11:07:31Z</time></trkpt>
<trkpt lat="46.18151" lon="7.5749"><ele>1621.8</ele><time>2025-08-09T11:07:33Z</time></trkpt>
<trkpt lat="46.18162" lon="7.57493"><ele>1623</ele><time>2025-08-09T11:07:39Z</time></trkpt>
<trkpt lat="46.18169" lon="7.57497"><ele>1624</ele><time>2025-08-09T11:07:44Z</time></trkpt>
<trkpt lat="46.18174" lon="7.575"><ele>1624.6</ele><time>2025-08-09T11:07:47Z</time></trkpt>
<trkpt lat="46.18178" lon="7.57503"><ele>1625</ele><time>2025-08-09T11:07:50Z</time></trkpt>
<trkpt lat="46.18181" lon="7.57505"><ele>1625.4</ele><time>2025-08-09T11:07:52Z</time></trkpt>
<trkpt lat="46.18187" lon="7.57509"><ele>1626</ele><time>2025-08-09T11:07:56Z</time></trkpt>
<trkpt lat="46.18188" lon="7.5751"><ele>1626.2</ele><time>2025-08-09T11:07:57Z</time></trkpt>
<trkpt lat="46.18196" lon="7.57515"><ele>1627.2</ele><time>2025-08-09T11:08:02Z</time></trkpt>
<trkpt lat="46.18197" lon="7.57517"><ele>1627.4</ele><time>2025-08-09T11:08:03Z</time></trkpt>
<trkpt lat="46.18205" lon="7.57524"><ele>1628.2</ele><time>2025-08-09T11:08:09Z</time></trkpt>
<trkpt lat="46.18207" lon="7.57527"><ele>1628.4</ele><time>2025-08-09T11:08:11Z</time></trkpt>
<trkpt lat="46.18213" lon="7.5753"><ele>1629.2</ele><time>2025-08-09T11:08:15Z</time></trkpt>
<trkpt lat="46.18219" lon="7.57534"><ele>1629.8</ele><time>2025-08-09T11:08:19Z</time></trkpt>
<trkpt lat="46.18223" lon="7.57537"><ele>1630.2</ele><time>2025-08-09T11:08:22Z</time></trkpt>
<trkpt lat="46.18228" lon="7.5754"><ele>1630.8</ele><time>2025-08-09T11:08:25Z</time></trkpt>
<trkpt lat="46.18234" lon="7.57543"><ele>1631.4</ele><time>2025-08-09T11:08:29Z</time></trkpt>
<trkpt lat="46.18239" lon="7.57547"><ele>1632</ele><time>2025-08-09T11:08:33Z</time></trkpt>
<trkpt lat="46.18243" lon="7.5755"><ele>1632.4</ele><time>2025-08-09T11:08:36Z</time></trkpt>
<trkpt lat="46.18251" lon="7.57558"><ele>1633.4</ele><time>2025-08-09T11:08:42Z</time></trkpt>
<trkpt lat="46.1826" lon="7.57569"><ele>1634.6</ele><time>2025-08-09T11:08:49Z</time></trkpt>
<trkpt lat="46.18262" lon="7.57571"><ele>1635</ele><time>2025-08-09T11:08:51Z</time></trkpt>
<trkpt lat="46.18269" lon="7.57577"><ele>1635.8</ele><time>2025-08-09T11:08:56Z</time></trkpt>
<trkpt lat="46.18272" lon="7.57579"><ele>1636</ele><time>2025-08-09T11:08:58Z</time></trkpt>
<trkpt lat="46.18278" lon="7.57582"><ele>1636.8</ele><time>2025-08-09T11:09:02Z</time></trkpt>
<trkpt lat="46.18283" lon="7.57585"><ele>1637.4</ele><time>2025-08-09T11:09:06Z</time></trkpt>
<trkpt lat="46.18286" lon="7.57587"><ele>1637.8</ele><time>2025-08-09T11:09:08Z</time></trkpt>
<trkpt lat="46.18292" lon="7.57592"><ele>1638.6</ele><time>2025-08-09T11:09:13Z</time></trkpt>
<trkpt lat="46.18294" lon="7.57593"><ele>1639</ele><time>2025-08-09T11:09:15Z</time></trkpt>
<trkpt lat="46.18303" lon="7.57595"><ele>1639.8</ele><time>2025-08-09T11:09:20Z</time></trkpt>
<trkpt lat="46.18305" lon="7.57598"><ele>1640</ele><time>2025-08-09T11:09:22Z</time></trkpt>
<trkpt lat="46.18307" lon="7.57602"><ele>1640.6</ele><time>2025-08-09T11:09:25Z</time></trkpt>
<trkpt lat="46.18311" lon="7.57607"><ele>1641</ele><time>2025-08-09T11:09:29Z</time></trkpt>
<trkpt lat="46.18315" lon="7.57608"><ele>1641.6</ele><time>2025-08-09T11:09:32Z</time></trkpt>
<trkpt lat="46.18321" lon="7.57607"><ele>1642.2</ele><time>2025-08-09T11:09:36Z</time></trkpt>
<trkpt lat="46.18324" lon="7.57607"><ele>1642.4</ele><time>2025-08-09T11:09:38Z</time></trkpt>
<trkpt lat="46.18332" lon="7.57608"><ele>1643.4</ele><time>2025-08-09T11:09:44Z</time></trkpt>
<trkpt lat="46.18335" lon="7.57609"><ele>1643.6</ele><time>2025-08-09T11:09:46Z</time></trkpt>
<trkpt lat="46.18341" lon="7.57612"><ele>1644.4</ele><time>2025-08-09T11:09:51Z</time></trkpt>
<trkpt lat="46.18343" lon="7.57612"><ele>1644.6</ele><time>2025-08-09T11:09:52Z</time></trkpt>
<trkpt lat="46.1835" lon="7.57618"><ele>1645.6</ele><time>2025-08-09T11:09:58Z</time></trkpt>
<trkpt lat="46.18353" lon="7.57621"><ele>1645.8</ele><time>2025-08-09T11:10:00Z</time></trkpt>
<trkpt lat="46.18359" lon="7.57628"><ele>1646.6</ele><time>2025-08-09T11:10:05Z</time></trkpt>
<trkpt lat="46.18361" lon="7.57631"><ele>1646.8</ele><time>2025-08-09T11:10:07Z</time></trkpt>
<trkpt lat="46.18368" lon="7.57637"><ele>1647.6</ele><time>2025-08-09T11:10:12Z</time></trkpt>
<trkpt lat="46.18371" lon="7.57639"><ele>1648</ele><time>2025-08-09T11:10:14Z</time></trkpt>
<trkpt lat="46.18376" lon="7.57643"><ele>1648.6</ele><time>2025-08-09T11:10:19Z</time></trkpt>
<trkpt lat="46.18378" lon="7.57644"><ele>1648.8</ele><time>2025-08-09T11:10:21Z</time></trkpt>
<trkpt lat="46.18387" lon="7.57652"><ele>1649.6</ele><time>2025-08-09T11:10:27Z</time></trkpt>
<trkpt lat="46.18388" lon="7.57653"><ele>1649.8</ele><time>2025-08-09T11:10:28Z</time></trkpt>
<trkpt lat="46.18396" lon="7.57666"><ele>1651</ele><time>2025-08-09T11:10:35Z</time></trkpt>
<trkpt lat="46.18403" lon="7.57679"><ele>1652.2</ele><time>2025-08-09T11:10:42Z</time></trkpt>
<trkpt lat="46.18406" lon="7.57682"><ele>1652.6</ele><time>2025-08-09T11:10:45Z</time></trkpt>
<trkpt lat="46.18408" lon="7.57686"><ele>1653</ele><time>2025-08-09T11:10:47Z</time></trkpt>
<trkpt lat="46.18413" lon="7.57691"><ele>1653.2</ele><time>2025-08-09T11:10:50Z</time></trkpt>
<trkpt lat="46.18416" lon="7.57694"><ele>1653.6</ele><time>2025-08-09T11:10:52Z</time></trkpt>
<trkpt lat="46.1842" lon="7.57698"><ele>1654.2</ele><time>2025-08-09T11:10:55Z</time></trkpt>
<trkpt lat="46.18425" lon="7.57702"><ele>1655.2</ele><time>2025-08-09T11:10:59Z</time></trkpt>
<trkpt lat="46.18426" lon="7.57703"><ele>1655.4</ele><time>2025-08-09T11:11:00Z</time></trkpt>
<trkpt lat="46.18433" lon="7.57707"><ele>1656.2</ele><time>2025-08-09T11:11:05Z</time></trkpt>
<trkpt lat="46.18436" lon="7.57708"><ele>1656.6</ele><time>2025-08-09T11:11:07Z</time></trkpt>
<trkpt lat="46.18442" lon="7.57711"><ele>1657.2</ele><time>2025-08-09T11:11:11Z</time></trkpt>
<trkpt lat="46.18445" lon="7.57712"><ele>1657.6</ele><time>2025-08-09T11:11:13Z</time></trkpt>
<trkpt lat="46.1845" lon="7.57716"><ele>1658.2</ele><time>2025-08-09T11:11:17Z</time></trkpt>
<trkpt lat="46.18455" lon="7.57717"><ele>1658.8</ele><time>2025-08-09T11:11:20Z</time></trkpt>
<trkpt lat="46.18462" lon="7.57721"><ele>1659.4</ele><time>2025-08-09T11:11:24Z</time></trkpt>
<trkpt lat="46.18465" lon="7.57723"><ele>1659.8</ele><time>2025-08-09T11:11:26Z</time></trkpt>
<trkpt lat="46.18469" lon="7.57723"><ele>1660.4</ele><time>2025-08-09T11:11:29Z</time></trkpt>
<trkpt lat="46.18475" lon="7.57728"><ele>1661</ele><time>2025-08-09T11:11:33Z</time></trkpt>
<trkpt lat="46.18476" lon="7.57729"><ele>1661.2</ele><time>2025-08-09T11:11:34Z</time></trkpt>
<trkpt lat="46.18483" lon="7.5773"><ele>1662</ele><time>2025-08-09T11:11:38Z</time></trkpt>
<trkpt lat="46.18487" lon="7.57731"><ele>1662.4</ele><time>2025-08-09T11:11:40Z</time></trkpt>
<trkpt lat="46.18493" lon="7.57732"><ele>1663</ele><time>2025-08-09T11:11:43Z</time></trkpt>
<trkpt lat="46.18502" lon="7.57732"><ele>1664</ele><time>2025-08-09T11:11:48Z</time></trkpt>
<trkpt lat="46.18504" lon="7.57732"><ele>1664.2</ele><time>2025-08-09T11:11:49Z</time></trkpt>
<trkpt lat="46.18514" lon="7.57733"><ele>1665.2</ele><time>2025-08-09T11:11:55Z</time></trkpt>
<trkpt lat="46.18524" lon="7.57731"><ele>1666.4</ele><time>2025-08-09T11:12:00Z</time></trkpt>
<trkpt lat="46.18528" lon="7.57731"><ele>1666.8</ele><time>2025-08-09T11:12:02Z</time></trkpt>
<trkpt lat="46.18533" lon="7.57733"><ele>1667.4</ele><time>2025-08-09T11:12:05Z</time></trkpt>
<trkpt lat="46.1854" lon="7.57736"><ele>1668</ele><time>2025-08-09T11:12:09Z</time></trkpt>
<trkpt lat="46.18546" lon="7.57739"><ele>1668.6</ele><time>2025-08-09T11:12:12Z</time></trkpt>
<trkpt lat="46.18561" lon="7.57744"><ele>1669.8</ele><time>2025-08-09T11:12:19Z</time></trkpt>
<trkpt lat="46.18573" lon="7.57749"><ele>1670.6</ele><time>2025-08-09T11:12:25Z</time></trkpt>
<trkpt lat="46.18577" lon="7.57751"><ele>1670.8</ele><time>2025-08-09T11:12:27Z</time></trkpt>
<trkpt lat="46.18587" lon="7.57756"><ele>1671.4</ele><time>2025-08-09T11:12:32Z</time></trkpt>
<trkpt lat="46.18599" lon="7.57756"><ele>1671.8</ele><time>2025-08-09T11:12:39Z</time></trkpt>
<trkpt lat="46.186" lon="7.57755"><ele>1672</ele><time>2025-08-09T11:12:40Z</time></trkpt>
<trkpt lat="46.18601" lon="7.57753"><ele>1672</ele><time>2025-08-09T11:12:41Z</time></trkpt>
<trkpt lat="46.18601" lon="7.57748"><ele>1672.2</ele><time>2025-08-09T11:12:43Z</time></trkpt>
<trkpt lat="46.18599" lon="7.57747"><ele>1672.2</ele><time>2025-08-09T11:12:44Z</time></trkpt>
<trkpt lat="46.18592" lon="7.57747"><ele>1672.8</ele><time>2025-08-09T11:12:48Z</time></trkpt>
<trkpt lat="46.18588" lon="7.57746"><ele>1673</ele><time>2025-08-09T11:12:50Z</time></trkpt>
<trkpt lat="46.18572" lon="7.57742"><ele>1673.6</ele><time>2025-08-09T11:12:57Z</time></trkpt>
<trkpt lat="46.18558" lon="7.57734"><ele>1674</ele><time>2025-08-09T11:13:03Z</time></trkpt>
<trkpt lat="46.18549" lon="7.57727"><ele>1674.2</ele><time>2025-08-09T11:13:07Z</time></trkpt>
<trkpt lat="46.18533" lon="7.57714"><ele>1675</ele><time>2025-08-09T11:13:15Z</time></trkpt>
<trkpt lat="46.18531" lon="7.57713"><ele>1675</ele><time>2025-08-09T11:13:16Z</time></trkpt>
<trkpt lat="46.18516" lon="7.57707"><ele>1675.8</ele><time>2025-08-09T11:13:23Z</time></trkpt>
<trkpt lat="46.18513" lon="7.57706"><ele>1676.2</ele><time>2025-08-09T11:13:25Z</time></trkpt>
<trkpt lat="46.18503" lon="7.57703"><ele>1677</ele><time>2025-08-09T11:13:30Z</time></trkpt>
<trkpt lat="46.18501" lon="7.57703"><ele>1677.2</ele><time>2025-08-09T11:13:31Z</time></trkpt>
<trkpt lat="46.18491" lon="7.57699"><ele>1678</ele><time>2025-08-09T11:13:36Z</time></trkpt>
<trkpt lat="46.1849" lon="7.57697"><ele>1678.2</ele><time>2025-08-09T11:13:37Z</time></trkpt>
<trkpt lat="46.18482" lon="7.57687"><ele>1679</ele><time>2025-08-09T11:13:43Z</time></trkpt>
<trkpt lat="46.18481" lon="7.57684"><ele>1679.2</ele><time>2025-08-09T11:13:44Z</time></trkpt>
<trkpt lat="46.18474" lon="7.57672"><ele>1680</ele><time>2025-08-09T11:13:50Z</time></trkpt>
<trkpt lat="46.18473" lon="7.5767"><ele>1680.2</ele><time>2025-08-09T11:13:51Z</time></trkpt>
<trkpt lat="46.18465" lon="7.5766"><ele>1681.2</ele><time>2025-08-09T11:13:57Z</time></trkpt>
<trkpt lat="46.18463" lon="7.57659"><ele>1681.4</ele><time>2025-08-09T11:13:58Z</time></trkpt>
<trkpt lat="46.18456" lon="7.57651"><ele>1682.4</ele><time>2025-08-09T11:14:04Z</time></trkpt>
<trkpt lat="46.18447" lon="7.57643"><ele>1683.4</ele><time>2025-08-09T11:14:10Z</time></trkpt>
<trkpt lat="46.18444" lon="7.5764"><ele>1683.8</ele><time>2025-08-09T11:14:12Z</time></trkpt>
<trkpt lat="46.18437" lon="7.57628"><ele>1684.6</ele><time>2025-08-09T11:14:18Z</time></trkpt>
<trkpt lat="46.18436" lon="7.57626"><ele>1684.6</ele><time>2025-08-09T11:14:19Z</time></trkpt>
<trkpt lat="46.18431" lon="7.57609"><ele>1685.6</ele><time>2025-08-09T11:14:26Z</time></trkpt>
<trkpt lat="46.18431" lon="7.57607"><ele>1685.8</ele><time>2025-08-09T11:14:27Z</time></trkpt>
<trkpt lat="46.18423" lon="7.57596"><ele>1686.8</ele><time>2025-08-09T11:14:33Z</time></trkpt>
<trkpt lat="46.18422" lon="7.57593"><ele>1687</ele><time>2025-08-09T11:14:34Z</time></trkpt>
<trkpt lat="46.18417" lon="7.57587"><ele>1687.8</ele><time>2025-08-09T11:14:38Z</time></trkpt>
<trkpt lat="46.18414" lon="7.57583"><ele>1688</ele><time>2025-08-09T11:14:40Z</time></trkpt>
<trkpt lat="46.18407" lon="7.57574"><ele>1688.8</ele><time>2025-08-09T11:14:46Z</time></trkpt>
<trkpt lat="46.18405" lon="7.57573"><ele>1688.8</ele><time>2025-08-09T11:14:47Z</time></trkpt>
<trkpt lat="46.18398" lon="7.57558"><ele>1689.8</ele><time>2025-08-09T11:14:54Z</time></trkpt>
<trkpt lat="46.18396" lon="7.57554"><ele>1690</ele><time>2025-08-09T11:14:56Z</time></trkpt>
<trkpt lat="46.1839" lon="7.5754"><ele>1691</ele><time>2025-08-09T11:15:02Z</time></trkpt>
<trkpt lat="46.18389" lon="7.57539"><ele>1691</ele><time>2025-08-09T11:15:03Z</time></trkpt>
<trkpt lat="46.18381" lon="7.57531"><ele>1691.8</ele><time>2025-08-09T11:15:09Z</time></trkpt>
<trkpt lat="46.18378" lon="7.57528"><ele>1692.2</ele><time>2025-08-09T11:15:11Z</time></trkpt>
<trkpt lat="46.18368" lon="7.57521"><ele>1693</ele><time>2025-08-09T11:15:17Z</time></trkpt>
<trkpt lat="46.18366" lon="7.57519"><ele>1693.2</ele><time>2025-08-09T11:15:18Z</time></trkpt>
<trkpt lat="46.1836" lon="7.57511"><ele>1694</ele><time>2025-08-09T11:15:23Z</time></trkpt>
<trkpt lat="46.18358" lon="7.57507"><ele>1694.2</ele><time>2025-08-09T11:15:25Z</time></trkpt>
<trkpt lat="46.18351" lon="7.57493"><ele>1695</ele><time>2025-08-09T11:15:31Z</time></trkpt>
<trkpt lat="46.18349" lon="7.5749"><ele>1695.2</ele><time>2025-08-09T11:15:33Z</time></trkpt>
<trkpt lat="46.18344" lon="7.57475"><ele>1696.4</ele><time>2025-08-09T11:15:39Z</time></trkpt>
<trkpt lat="46.18343" lon="7.57473"><ele>1696.4</ele><time>2025-08-09T11:15:40Z</time></trkpt>
<trkpt lat="46.18341" lon="7.57452"><ele>1697.2</ele><time>2025-08-09T11:15:47Z</time></trkpt>
<trkpt lat="46.1834" lon="7.57447"><ele>1697.4</ele><time>2025-08-09T11:15:49Z</time></trkpt>
<trkpt lat="46.18337" lon="7.5743"><ele>1698.4</ele><time>2025-08-09T11:15:56Z</time></trkpt>
<trkpt lat="46.18336" lon="7.57428"><ele>1698.6</ele><time>2025-08-09T11:15:57Z</time></trkpt>
<trkpt lat="46.18328" lon="7.57421"><ele>1699.4</ele><time>2025-08-09T11:16:03Z</time></trkpt>
<trkpt lat="46.18327" lon="7.57421"><ele>1699.6</ele><time>2025-08-09T11:16:04Z</time></trkpt>
<trkpt lat="46.18316" lon="7.57415"><ele>1700.4</ele><time>2025-08-09T11:16:10Z</time></trkpt>
<trkpt lat="46.1831" lon="7.57414"><ele>1700.8</ele><time>2025-08-09T11:16:13Z</time></trkpt>
<trkpt lat="46.18305" lon="7.57414"><ele>1701.2</ele><time>2025-08-09T11:16:16Z</time></trkpt>
<trkpt lat="46.18296" lon="7.57409"><ele>1701.8</ele><time>2025-08-09T11:16:21Z</time></trkpt>
<trkpt lat="46.18294" lon="7.57408"><ele>1702</ele><time>2025-08-09T11:16:22Z</time></trkpt>
<trkpt lat="46.18288" lon="7.57397"><ele>1702.8</ele><time>2025-08-09T11:16:27Z</time></trkpt>
<trkpt lat="46.18287" lon="7.57395"><ele>1703</ele><time>2025-08-09T11:16:28Z</time></trkpt>
<trkpt lat="46.18279" lon="7.57382"><ele>1703.6</ele><time>2025-08-09T11:16:35Z</time></trkpt>
<trkpt lat="46.18274" lon="7.57377"><ele>1704</ele><time>2025-08-09T11:16:38Z</time></trkpt>
<trkpt lat="46.18268" lon="7.57369"><ele>1704.4</ele><time>2025-08-09T11:16:42Z</time></trkpt>
<trkpt lat="46.18262" lon="7.57365"><ele>1705.2</ele><time>2025-08-09T11:16:46Z</time></trkpt>
<trkpt lat="46.18256" lon="7.57362"><ele>1706</ele><time>2025-08-09T11:16:50Z</time></trkpt>
<trkpt lat="46.18251" lon="7.57359"><ele>1706.4</ele><time>2025-08-09T11:16:53Z</time></trkpt>
<trkpt lat="46.18244" lon="7.57351"><ele>1707</ele><time>2025-08-09T11:16:58Z</time></trkpt>
<trkpt lat="46.18238" lon="7.57343"><ele>1707.4</ele><time>2025-08-09T11:17:02Z</time></trkpt>
<trkpt lat="46.18234" lon="7.57337"><ele>1708</ele><time>2025-08-09T11:17:05Z</time></trkpt>
<trkpt lat="46.18231" lon="7.57331"><ele>1708.6</ele><time>2025-08-09T11:17:08Z</time></trkpt>
<trkpt lat="46.18227" lon="7.57322"><ele>1709.2</ele><time>2025-08-09T11:17:12Z</time></trkpt>
<trkpt lat="46.18225" lon="7.5731"><ele>1709.6</ele><time>2025-08-09T11:17:16Z</time></trkpt>
<trkpt lat="46.18225" lon="7.57305"><ele>1710</ele><time>2025-08-09T11:17:18Z</time></trkpt>
<trkpt lat="46.18223" lon="7.57288"><ele>1710.8</ele><time>2025-08-09T11:17:24Z</time></trkpt>
<trkpt lat="46.18223" lon="7.57285"><ele>1711</ele><time>2025-08-09T11:17:25Z</time></trkpt>
<trkpt lat="46.18222" lon="7.5727"><ele>1711.8</ele><time>2025-08-09T11:17:31Z</time></trkpt>
<trkpt lat="46.18221" lon="7.57261"><ele>1712.2</ele><time>2025-08-09T11:17:34Z</time></trkpt>
<trkpt lat="46.18221" lon="7.57247"><ele>1712.8</ele><time>2025-08-09T11:17:39Z</time></trkpt>
<trkpt lat="46.18221" lon="7.57242"><ele>1713</ele><time>2025-08-09T11:17:41Z</time></trkpt>
<trkpt lat="46.18215" lon="7.57231"><ele>1713.8</ele><time>2025-08-09T11:17:47Z</time></trkpt>
<trkpt lat="46.18213" lon="7.5723"><ele>1714</ele><time>2025-08-09T11:17:48Z</time></trkpt>
<trkpt lat="46.18203" lon="7.57223"><ele>1715</ele><time>2025-08-09T11:17:54Z</time></trkpt>
<trkpt lat="46.18201" lon="7.57222"><ele>1715.2</ele><time>2025-08-09T11:17:55Z</time></trkpt>
<trkpt lat="46.18191" lon="7.57222"><ele>1716</ele><time>2025-08-09T11:18:01Z</time></trkpt>
<trkpt lat="46.18189" lon="7.57222"><ele>1716.2</ele><time>2025-08-09T11:18:02Z</time></trkpt>
<trkpt lat="46.18174" lon="7.57223"><ele>1717.2</ele><time>2025-08-09T11:18:10Z</time></trkpt>
<trkpt lat="46.18172" lon="7.57223"><ele>1717.2</ele><time>2025-08-09T11:18:11Z</time></trkpt>
<trkpt lat="46.1816" lon="7.57217"><ele>1718.2</ele><time>2025-08-09T11:18:18Z</time></trkpt>
<trkpt lat="46.18146" lon="7.57206"><ele>1719.4</ele><time>2025-08-09T11:18:26Z</time></trkpt>
<trkpt lat="46.18133" lon="7.57198"><ele>1720.6</ele><time>2025-08-09T11:18:34Z</time></trkpt>
<trkpt lat="46.18121" lon="7.57192"><ele>1721.6</ele><time>2025-08-09T11:18:41Z</time></trkpt>
<trkpt lat="46.18119" lon="7.57191"><ele>1721.8</ele><time>2025-08-09T11:18:42Z</time></trkpt>
<trkpt lat="46.18105" lon="7.57181"><ele>1722.8</ele><time>2025-08-09T11:18:50Z</time></trkpt>
<trkpt lat="46.18103" lon="7.57179"><ele>1723</ele><time>2025-08-09T11:18:51Z</time></trkpt>
<trkpt lat="46.18093" lon="7.57171"><ele>1723.8</ele><time>2025-08-09T11:18:57Z</time></trkpt>
<trkpt lat="46.18089" lon="7.57165"><ele>1724.4</ele><time>2025-08-09T11:19:00Z</time></trkpt>
<trkpt lat="46.18082" lon="7.57155"><ele>1724.8</ele><time>2025-08-09T11:19:05Z</time></trkpt>
<trkpt lat="46.18077" lon="7.57141"><ele>1726</ele><time>2025-08-09T11:19:11Z</time></trkpt>
<trkpt lat="46.18076" lon="7.57136"><ele>1726.2</ele><time>2025-08-09T11:19:13Z</time></trkpt>
<trkpt lat="46.18071" lon="7.5712"><ele>1727</ele><time>2025-08-09T11:19:19Z</time></trkpt>
<trkpt lat="46.18066" lon="7.57111"><ele>1727.6</ele><time>2025-08-09T11:19:23Z</time></trkpt>
<trkpt lat="46.18059" lon="7.57105"><ele>1728.2</ele><time>2025-08-09T11:19:28Z</time></trkpt>
<trkpt lat="46.18057" lon="7.57104"><ele>1728.2</ele><time>2025-08-09T11:19:29Z</time></trkpt>
<trkpt lat="46.1805" lon="7.571"><ele>1729</ele><time>2025-08-09T11:19:33Z</time></trkpt>
<trkpt lat="46.18047" lon="7.57099"><ele>1729.4</ele><time>2025-08-09T11:19:35Z</time></trkpt>
<trkpt lat="46.18042" lon="7.57097"><ele>1729.8</ele><time>2025-08-09T11:19:38Z</time></trkpt>
<trkpt lat="46.18039" lon="7.57097"><ele>1730.4</ele><time>2025-08-09T11:19:40Z</time></trkpt>
<trkpt lat="46.18034" lon="7.57096"><ele>1731</ele><time>2025-08-09T11:19:43Z</time></trkpt>
<trkpt lat="46.18029" lon="7.57096"><ele>1731.4</ele><time>2025-08-09T11:19:46Z</time></trkpt>
<trkpt lat="46.18023" lon="7.57098"><ele>1731.8</ele><time>2025-08-09T11:19:49Z</time></trkpt>
<trkpt lat="46.18014" lon="7.571"><ele>1732.6</ele><time>2025-08-09T11:19:54Z</time></trkpt>
<trkpt lat="46.18009" lon="7.57101"><ele>1733</ele><time>2025-08-09T11:19:57Z</time></trkpt>
<trkpt lat="46.18003" lon="7.57104"><ele>1733.8</ele><time>2025-08-09T11:20:01Z</time></trkpt>
<trkpt lat="46.17997" lon="7.57107"><ele>1734.4</ele><time>2025-08-09T11:20:05Z</time></trkpt>
<trkpt lat="46.17994" lon="7.57108"><ele>1734.8</ele><time>2025-08-09T11:20:07Z</time></trkpt>
<trkpt lat="46.17987" lon="7.57103"><ele>1735.8</ele><time>2025-08-09T11:20:12Z</time></trkpt>
<trkpt lat="46.17986" lon="7.57101"><ele>1736</ele><time>2025-08-09T11:20:13Z</time></trkpt>
<trkpt lat="46.17976" lon="7.5709"><ele>1737.2</ele><time>2025-08-09T11:20:20Z</time></trkpt>
<trkpt lat="46.17975" lon="7.57088"><ele>1737.2</ele><time>2025-08-09T11:20:21Z</time></trkpt>
<trkpt lat="46.1797" lon="7.57079"><ele>1738.2</ele><time>2025-08-09T11:20:26Z</time></trkpt>
<trkpt lat="46.17969" lon="7.57075"><ele>1738.6</ele><time>2025-08-09T11:20:28Z</time></trkpt>
<trkpt lat="46.17965" lon="7.57067"><ele>1739.4</ele><time>2025-08-09T11:20:33Z</time></trkpt>
<trkpt lat="46.17963" lon="7.57062"><ele>1739.6</ele><time>2025-08-09T11:20:35Z</time></trkpt>
<trkpt lat="46.1796" lon="7.57048"><ele>1739.6</ele><time>2025-08-09T11:20:40Z</time></trkpt>
<trkpt lat="46.1796" lon="7.57037"><ele>1740.2</ele><time>2025-08-09T11:20:44Z</time></trkpt>
<trkpt lat="46.1796" lon="7.57035"><ele>1740.6</ele><time>2025-08-09T11:20:45Z</time></trkpt>
<trkpt lat="46.17963" lon="7.57026"><ele>1741.6</ele><time>2025-08-09T11:20:50Z</time></trkpt>
<trkpt lat="46.17967" lon="7.57018"><ele>1742.6</ele><time>2025-08-09T11:20:56Z</time></trkpt>
<trkpt lat="46.17969" lon="7.57008"><ele>1743.8</ele><time>2025-08-09T11:21:02Z</time></trkpt>
<trkpt lat="46.17971" lon="7.56994"><ele>1745</ele><time>2025-08-09T11:21:09Z</time></trkpt>
<trkpt lat="46.17975" lon="7.56983"><ele>1746</ele><time>2025-08-09T11:21:16Z</time></trkpt>
<trkpt lat="46.17975" lon="7.56982"><ele>1746.2</ele><time>2025-08-09T11:21:17Z</time></trkpt>
<trkpt lat="46.17978" lon="7.56975"><ele>1747.2</ele><time>2025-08-09T11:21:21Z</time></trkpt>
<trkpt lat="46.17979" lon="7.56972"><ele>1747.4</ele><time>2025-08-09T11:21:23Z</time></trkpt>
<trkpt lat="46.17979" lon="7.5697"><ele>1747.6</ele><time>2025-08-09T11:21:24Z</time></trkpt>
<trkpt lat="46.1798" lon="7.5696"><ele>1748.2</ele><time>2025-08-09T11:21:29Z</time></trkpt>
<trkpt lat="46.17981" lon="7.56957"><ele>1748.4</ele><time>2025-08-09T11:21:31Z</time></trkpt>
<trkpt lat="46.17982" lon="7.56955"><ele>1748.6</ele><time>2025-08-09T11:21:36Z</time></trkpt>
<trkpt lat="46.1798" lon="7.56956"><ele>1748.4</ele><time>2025-08-09T11:21:41Z</time></trkpt>
<trkpt lat="46.1798" lon="7.56956"><ele>1749</ele><time>2025-08-09T11:21:52Z</time></trkpt>
<trkpt lat="46.1798" lon="7.56956"><ele>1748.8</ele><time>2025-08-09T11:22:02Z</time></trkpt>
<trkpt lat="46.1798" lon="7.56959"><ele>1748.6</ele><time>2025-08-09T11:22:09Z</time></trkpt>
<trkpt lat="46.1798" lon="7.56959"><ele>1748.4</ele><time>2025-08-09T11:22:12Z</time></trkpt>
<trkpt lat="46.1798" lon="7.56959"><ele>1748.8</ele><time>2025-08-09T11:22:21Z</time></trkpt>
<trkpt lat="46.1798" lon="7.56959"><ele>1748.8</ele><time>2025-08-09T11:22:24Z</time></trkpt>
<trkpt lat="46.1798" lon="7.56959"><ele>1748.8</ele><time>2025-08-09T11:22:30Z</time></trkpt>
<trkpt lat="46.1798" lon="7.56959"><ele>1748.6</ele><time>2025-08-09T11:22:32Z</time></trkpt>
<trkpt lat="46.1798" lon="7.56959"><ele>1748.6</ele><time>2025-08-09T11:22:42Z</time></trkpt>
<trkpt lat="46.1798" lon="7.56959"><ele>1748.6</ele><time>2025-08-09T11:22:52Z</time></trkpt>
<trkpt lat="46.1798" lon="7.56959"><ele>1748.6</ele><time>2025-08-09T11:22:58Z</time></trkpt>
<trkpt lat="46.1798" lon="7.56959"><ele>1748.6</ele><time>2025-08-09T11:23:07Z</time></trkpt>
<trkpt lat="46.1798" lon="7.56959"><ele>1748.6</ele><time>2025-08-09T11:23:16Z</time></trkpt>
<trkpt lat="46.1798" lon="7.56959"><ele>1748.6</ele><time>2025-08-09T11:23:21Z</time></trkpt>
<trkpt lat="46.17982" lon="7.56957"><ele>1748.6</ele><time>2025-08-09T11:23:27Z</time></trkpt>
<trkpt lat="46.17982" lon="7.56957"><ele>1748.6</ele><time>2025-08-09T11:23:38Z</time></trkpt>
<trkpt lat="46.17982" lon="7.56957"><ele>1748.6</ele><time>2025-08-09T11:23:45Z</time></trkpt>
<trkpt lat="46.17982" lon="7.56957"><ele>1748.6</ele><time>2025-08-09T11:23:50Z</time></trkpt>
<trkpt lat="46.17983" lon="7.56955"><ele>1748.6</ele><time>2025-08-09T11:24:02Z</time></trkpt>
<trkpt lat="46.17984" lon="7.56951"><ele>1748.6</ele><time>2025-08-09T11:24:05Z</time></trkpt>
<trkpt lat="46.17985" lon="7.56948"><ele>1748.8</ele><time>2025-08-09T11:24:07Z</time></trkpt>
<trkpt lat="46.17985" lon="7.56943"><ele>1749.2</ele><time>2025-08-09T11:24:09Z</time></trkpt>
<trkpt lat="46.17988" lon="7.56934"><ele>1750.2</ele><time>2025-08-09T11:24:14Z</time></trkpt>
<trkpt lat="46.17988" lon="7.56932"><ele>1750.4</ele><time>2025-08-09T11:24:15Z</time></trkpt>
<trkpt lat="46.17989" lon="7.56919"><ele>1751.4</ele><time>2025-08-09T11:24:22Z</time></trkpt>
<trkpt lat="46.1799" lon="7.56912"><ele>1752.2</ele><time>2025-08-09T11:24:26Z</time></trkpt>
<trkpt lat="46.1799" lon="7.56907"><ele>1752.6</ele><time>2025-08-09T11:24:28Z</time></trkpt>
<trkpt lat="46.1799" lon="7.56895"><ele>1753.4</ele><time>2025-08-09T11:24:33Z</time></trkpt>
<trkpt lat="46.1799" lon="7.56893"><ele>1753.4</ele><time>2025-08-09T11:24:34Z</time></trkpt>
<trkpt lat="46.1799" lon="7.56891"><ele>1753.6</ele><time>2025-08-09T11:24:35Z</time></trkpt>
<trkpt lat="46.17989" lon="7.56887"><ele>1754</ele><time>2025-08-09T11:24:37Z</time></trkpt>
<trkpt lat="46.17988" lon="7.56882"><ele>1754.4</ele><time>2025-08-09T11:24:40Z</time></trkpt>
<trkpt lat="46.17988" lon="7.5688"><ele>1754.6</ele><time>2025-08-09T11:24:41Z</time></trkpt>
<trkpt lat="46.17985" lon="7.56872"><ele>1755.8</ele><time>2025-08-09T11:24:46Z</time></trkpt>
<trkpt lat="46.17978" lon="7.56861"><ele>1756.4</ele><time>2025-08-09T11:24:53Z</time></trkpt>
<trkpt lat="46.17973" lon="7.56854"><ele>1756.8</ele><time>2025-08-09T11:24:57Z</time></trkpt>
<trkpt lat="46.1797" lon="7.56853"><ele>1757.4</ele><time>2025-08-09T11:25:00Z</time></trkpt>
<trkpt lat="46.17967" lon="7.56854"><ele>1757.8</ele><time>2025-08-09T11:25:03Z</time></trkpt>
<trkpt lat="46.17962" lon="7.56853"><ele>1758.4</ele><time>2025-08-09T11:25:06Z</time></trkpt>
<trkpt lat="46.17959" lon="7.56854"><ele>1759</ele><time>2025-08-09T11:25:08Z</time></trkpt>
<trkpt lat="46.17953" lon="7.56853"><ele>1759.6</ele><time>2025-08-09T11:25:12Z</time></trkpt>
<trkpt lat="46.17947" lon="7.56853"><ele>1760</ele><time>2025-08-09T11:25:16Z</time></trkpt>
<trkpt lat="46.17943" lon="7.56853"><ele>1760.6</ele><time>2025-08-09T11:25:19Z</time></trkpt>
<trkpt lat="46.17938" lon="7.56852"><ele>1761</ele><time>2025-08-09T11:25:23Z</time></trkpt>
<trkpt lat="46.17934" lon="7.56852"><ele>1761.6</ele><time>2025-08-09T11:25:26Z</time></trkpt>
<trkpt lat="46.1793" lon="7.56852"><ele>1762.2</ele><time>2025-08-09T11:25:29Z</time></trkpt>
<trkpt lat="46.17925" lon="7.56853"><ele>1762.6</ele><time>2025-08-09T11:25:32Z</time></trkpt>
<trkpt lat="46.1792" lon="7.56854"><ele>1763.2</ele><time>2025-08-09T11:25:36Z</time></trkpt>
<trkpt lat="46.17916" lon="7.56853"><ele>1763.6</ele><time>2025-08-09T11:25:39Z</time></trkpt>
<trkpt lat="46.1791" lon="7.56853"><ele>1764.4</ele><time>2025-08-09T11:25:44Z</time></trkpt>
<trkpt lat="46.17906" lon="7.56854"><ele>1764.8</ele><time>2025-08-09T11:25:47Z</time></trkpt>
<trkpt lat="46.17899" lon="7.56853"><ele>1765.6</ele><time>2025-08-09T11:25:51Z</time></trkpt>
<trkpt lat="46.17896" lon="7.56852"><ele>1766</ele><time>2025-08-09T11:25:53Z</time></trkpt>
<trkpt lat="46.17892" lon="7.56851"><ele>1766.6</ele><time>2025-08-09T11:25:56Z</time></trkpt>
<trkpt lat="46.17887" lon="7.56848"><ele>1767.2</ele><time>2025-08-09T11:25:59Z</time></trkpt>
<trkpt lat="46.17883" lon="7.56842"><ele>1767.8</ele><time>2025-08-09T11:26:03Z</time></trkpt>
<trkpt lat="46.1788" lon="7.56836"><ele>1768.2</ele><time>2025-08-09T11:26:06Z</time></trkpt>
<trkpt lat="46.17877" lon="7.56825"><ele>1768.8</ele><time>2025-08-09T11:26:12Z</time></trkpt>
<trkpt lat="46.17876" lon="7.56821"><ele>1769.2</ele><time>2025-08-09T11:26:14Z</time></trkpt>
<trkpt lat="46.17872" lon="7.56813"><ele>1769.8</ele><time>2025-08-09T11:26:19Z</time></trkpt>
<trkpt lat="46.17871" lon="7.56811"><ele>1770</ele><time>2025-08-09T11:26:20Z</time></trkpt>
<trkpt lat="46.17867" lon="7.56801"><ele>1771</ele><time>2025-08-09T11:26:26Z</time></trkpt>
<trkpt lat="46.17862" lon="7.56791"><ele>1772</ele><time>2025-08-09T11:26:32Z</time></trkpt>
<trkpt lat="46.17861" lon="7.56787"><ele>1772.2</ele><time>2025-08-09T11:26:34Z</time></trkpt>
<trkpt lat="46.17857" lon="7.5678"><ele>1773</ele><time>2025-08-09T11:26:39Z</time></trkpt>
<trkpt lat="46.17855" lon="7.56777"><ele>1773.2</ele><time>2025-08-09T11:26:41Z</time></trkpt>
<trkpt lat="46.17851" lon="7.56768"><ele>1774.2</ele><time>2025-08-09T11:26:47Z</time></trkpt>
<trkpt lat="46.17849" lon="7.56765"><ele>1774.4</ele><time>2025-08-09T11:26:49Z</time></trkpt>
<trkpt lat="46.17846" lon="7.56756"><ele>1775.2</ele><time>2025-08-09T11:26:54Z</time></trkpt>
<trkpt lat="46.17843" lon="7.56751"><ele>1775.6</ele><time>2025-08-09T11:26:57Z</time></trkpt>
<trkpt lat="46.17842" lon="7.56747"><ele>1776.2</ele><time>2025-08-09T11:27:00Z</time></trkpt>
<trkpt lat="46.17839" lon="7.56737"><ele>1776.8</ele><time>2025-08-09T11:27:05Z</time></trkpt>
<trkpt lat="46.17838" lon="7.56729"><ele>1777.4</ele><time>2025-08-09T11:27:09Z</time></trkpt>
<trkpt lat="46.17838" lon="7.56719"><ele>1778</ele><time>2025-08-09T11:27:14Z</time></trkpt>
<trkpt lat="46.17837" lon="7.56716"><ele>1778.4</ele><time>2025-08-09T11:27:16Z</time></trkpt>
<trkpt lat="46.17837" lon="7.56701"><ele>1779.4</ele><time>2025-08-09T11:27:23Z</time></trkpt>
<trkpt lat="46.17835" lon="7.56688"><ele>1780.6</ele><time>2025-08-09T11:27:30Z</time></trkpt>
<trkpt lat="46.17835" lon="7.56682"><ele>1781</ele><time>2025-08-09T11:27:33Z</time></trkpt>
<trkpt lat="46.17836" lon="7.56676"><ele>1781.6</ele><time>2025-08-09T11:27:36Z</time></trkpt>
<trkpt lat="46.17836" lon="7.56663"><ele>1782.4</ele><time>2025-08-09T11:27:42Z</time></trkpt>
<trkpt lat="46.17836" lon="7.56659"><ele>1782.8</ele><time>2025-08-09T11:27:44Z</time></trkpt>
<trkpt lat="46.17835" lon="7.56648"><ele>1783.6</ele><time>2025-08-09T11:27:50Z</time></trkpt>
<trkpt lat="46.17835" lon="7.56646"><ele>1783.8</ele><time>2025-08-09T11:27:51Z</time></trkpt>
<trkpt lat="46.17834" lon="7.56637"><ele>1784.8</ele><time>2025-08-09T11:27:56Z</time></trkpt>
<trkpt lat="46.17835" lon="7.5663"><ele>1785.6</ele><time>2025-08-09T11:28:00Z</time></trkpt>
<trkpt lat="46.17834" lon="7.56627"><ele>1786</ele><time>2025-08-09T11:28:02Z</time></trkpt>
<trkpt lat="46.17831" lon="7.56619"><ele>1786.4</ele><time>2025-08-09T11:28:06Z</time></trkpt>
<trkpt lat="46.17827" lon="7.56613"><ele>1787.2</ele><time>2025-08-09T11:28:10Z</time></trkpt>
<trkpt lat="46.17823" lon="7.5661"><ele>1787.8</ele><time>2025-08-09T11:28:14Z</time></trkpt>
<trkpt lat="46.17819" lon="7.56607"><ele>1788.2</ele><time>2025-08-09T11:28:17Z</time></trkpt>
<trkpt lat="46.17815" lon="7.56602"><ele>1788.8</ele><time>2025-08-09T11:28:21Z</time></trkpt>
<trkpt lat="46.17807" lon="7.56596"><ele>1789.2</ele><time>2025-08-09T11:28:26Z</time></trkpt>
<trkpt lat="46.17803" lon="7.56594"><ele>1789.6</ele><time>2025-08-09T11:28:29Z</time></trkpt>
<trkpt lat="46.17796" lon="7.56592"><ele>1790.2</ele><time>2025-08-09T11:28:34Z</time></trkpt>
<trkpt lat="46.17793" lon="7.56592"><ele>1790.6</ele><time>2025-08-09T11:28:36Z</time></trkpt>
<trkpt lat="46.17785" lon="7.56592"><ele>1791.4</ele><time>2025-08-09T11:28:41Z</time></trkpt>
<trkpt lat="46.17784" lon="7.56592"><ele>1791.6</ele><time>2025-08-09T11:28:42Z</time></trkpt>
<trkpt lat="46.17777" lon="7.56593"><ele>1792.4</ele><time>2025-08-09T11:28:47Z</time></trkpt>
<trkpt lat="46.17773" lon="7.56595"><ele>1793</ele><time>2025-08-09T11:28:50Z</time></trkpt>
<trkpt lat="46.17768" lon="7.56598"><ele>1793.6</ele><time>2025-08-09T11:28:54Z</time></trkpt>
<trkpt lat="46.17762" lon="7.56601"><ele>1794.4</ele><time>2025-08-09T11:28:59Z</time></trkpt>
<trkpt lat="46.17761" lon="7.56602"><ele>1794.6</ele><time>2025-08-09T11:29:00Z</time></trkpt>
<trkpt lat="46.17753" lon="7.56607"><ele>1795.6</ele><time>2025-08-09T11:29:07Z</time></trkpt>
<trkpt lat="46.17745" lon="7.56612"><ele>1796.6</ele><time>2025-08-09T11:29:14Z</time></trkpt>
<trkpt lat="46.17744" lon="7.56612"><ele>1796.6</ele><time>2025-08-09T11:29:15Z</time></trkpt>
<trkpt lat="46.17736" lon="7.56616"><ele>1797.6</ele><time>2025-08-09T11:29:21Z</time></trkpt>
<trkpt lat="46.17735" lon="7.56616"><ele>1797.8</ele><time>2025-08-09T11:29:22Z</time></trkpt>
<trkpt lat="46.17728" lon="7.56618"><ele>1798.4</ele><time>2025-08-09T11:29:27Z</time></trkpt>
<trkpt lat="46.17723" lon="7.56618"><ele>1798.8</ele><time>2025-08-09T11:29:30Z</time></trkpt>
<trkpt lat="46.17718" lon="7.56619"><ele>1799.4</ele><time>2025-08-09T11:29:34Z</time></trkpt>
<trkpt lat="46.17714" lon="7.5662"><ele>1799.8</ele><time>2025-08-09T11:29:37Z</time></trkpt>
<trkpt lat="46.17709" lon="7.56624"><ele>1800.6</ele><time>2025-08-09T11:29:42Z</time></trkpt>
<trkpt lat="46.17707" lon="7.56626"><ele>1801</ele><time>2025-08-09T11:29:44Z</time></trkpt>
<trkpt lat="46.17701" lon="7.56633"><ele>1801.6</ele><time>2025-08-09T11:29:50Z</time></trkpt>
<trkpt lat="46.17697" lon="7.56636"><ele>1802</ele><time>2025-08-09T11:29:53Z</time></trkpt>
<trkpt lat="46.17694" lon="7.56639"><ele>1802.6</ele><time>2025-08-09T11:29:56Z</time></trkpt>
<trkpt lat="46.1769" lon="7.56644"><ele>1803.2</ele><time>2025-08-09T11:30:00Z</time></trkpt>
<trkpt lat="46.17687" lon="7.56646"><ele>1803.4</ele><time>2025-08-09T11:30:02Z</time></trkpt>
<trkpt lat="46.17681" lon="7.56651"><ele>1804.2</ele><time>2025-08-09T11:30:07Z</time></trkpt>
<trkpt lat="46.17678" lon="7.56653"><ele>1804.6</ele><time>2025-08-09T11:30:10Z</time></trkpt>
<trkpt lat="46.17675" lon="7.56655"><ele>1805.2</ele><time>2025-08-09T11:30:13Z</time></trkpt>
<trkpt lat="46.1767" lon="7.56657"><ele>1805.8</ele><time>2025-08-09T11:30:17Z</time></trkpt>
<trkpt lat="46.17667" lon="7.56656"><ele>1806.4</ele><time>2025-08-09T11:30:20Z</time></trkpt>
<trkpt lat="46.17663" lon="7.56653"><ele>1807</ele><time>2025-08-09T11:30:23Z</time></trkpt>
<trkpt lat="46.17662" lon="7.56652"><ele>1807</ele><time>2025-08-09T11:30:24Z</time></trkpt>
<trkpt lat="46.1766" lon="7.56648"><ele>1807.4</ele><time>2025-08-09T11:30:27Z</time></trkpt>
<trkpt lat="46.17658" lon="7.56641"><ele>1808.2</ele><time>2025-08-09T11:30:31Z</time></trkpt>
<trkpt lat="46.17658" lon="7.56637"><ele>1808.4</ele><time>2025-08-09T11:30:33Z</time></trkpt>
<trkpt lat="46.1766" lon="7.5663"><ele>1809.2</ele><time>2025-08-09T11:30:37Z</time></trkpt>
<trkpt lat="46.1766" lon="7.56629"><ele>1809.4</ele><time>2025-08-09T11:30:38Z</time></trkpt>
<trkpt lat="46.17663" lon="7.56627"><ele>1809.6</ele><time>2025-08-09T11:30:40Z</time></trkpt>
<trkpt lat="46.17669" lon="7.56625"><ele>1810</ele><time>2025-08-09T11:30:45Z</time></trkpt>
<trkpt lat="46.17674" lon="7.56625"><ele>1810.6</ele><time>2025-08-09T11:30:49Z</time></trkpt>
<trkpt lat="46.17677" lon="7.56624"><ele>1811</ele><time>2025-08-09T11:30:52Z</time></trkpt>
<trkpt lat="46.1768" lon="7.56621"><ele>1811.6</ele><time>2025-08-09T11:30:56Z</time></trkpt>
<trkpt lat="46.17685" lon="7.56615"><ele>1812.4</ele><time>2025-08-09T11:31:01Z</time></trkpt>
<trkpt lat="46.17688" lon="7.56612"><ele>1812.8</ele><time>2025-08-09T11:31:04Z</time></trkpt>
<trkpt lat="46.17691" lon="7.56605"><ele>1813.8</ele><time>2025-08-09T11:31:10Z</time></trkpt>
<trkpt lat="46.17692" lon="7.56604"><ele>1813.8</ele><time>2025-08-09T11:31:11Z</time></trkpt>
<trkpt lat="46.17696" lon="7.56597"><ele>1814.6</ele><time>2025-08-09T11:31:16Z</time></trkpt>
<trkpt lat="46.17698" lon="7.56595"><ele>1815</ele><time>2025-08-09T11:31:18Z</time></trkpt>
<trkpt lat="46.17703" lon="7.5659"><ele>1815.8</ele><time>2025-08-09T11:31:23Z</time></trkpt>
<trkpt lat="46.17705" lon="7.56588"><ele>1816</ele><time>2025-08-09T11:31:25Z</time></trkpt>
<trkpt lat="46.1771" lon="7.56584"><ele>1816.6</ele><time>2025-08-09T11:31:30Z</time></trkpt>
<trkpt lat="46.17711" lon="7.56583"><ele>1816.8</ele><time>2025-08-09T11:31:31Z</time></trkpt>
<trkpt lat="46.17713" lon="7.56583"><ele>1817</ele><time>2025-08-09T11:31:33Z</time></trkpt>
<trkpt lat="46.17715" lon="7.56583"><ele>1817.2</ele><time>2025-08-09T11:31:35Z</time></trkpt>
<trkpt lat="46.17722" lon="7.56579"><ele>1817.8</ele><time>2025-08-09T11:31:41Z</time></trkpt>
<trkpt lat="46.17726" lon="7.56576"><ele>1818</ele><time>2025-08-09T11:31:44Z</time></trkpt>
<trkpt lat="46.17729" lon="7.56573"><ele>1818.4</ele><time>2025-08-09T11:31:47Z</time></trkpt>
<trkpt lat="46.17735" lon="7.5657"><ele>1819.2</ele><time>2025-08-09T11:31:52Z</time></trkpt>
<trkpt lat="46.17738" lon="7.56569"><ele>1819.4</ele><time>2025-08-09T11:31:54Z</time></trkpt>
<trkpt lat="46.17743" lon="7.56563"><ele>1820.2</ele><time>2025-08-09T11:31:59Z</time></trkpt>
<trkpt lat="46.17744" lon="7.56562"><ele>1820.4</ele><time>2025-08-09T11:32:00Z</time></trkpt>
<trkpt lat="46.1775" lon="7.56555"><ele>1821.2</ele><time>2025-08-09T11:32:06Z</time></trkpt>
<trkpt lat="46.17751" lon="7.56554"><ele>1821.4</ele><time>2025-08-09T11:32:07Z</time></trkpt>
<trkpt lat="46.17756" lon="7.56546"><ele>1822.2</ele><time>2025-08-09T11:32:13Z</time></trkpt>
<trkpt lat="46.1776" lon="7.56545"><ele>1822.6</ele><time>2025-08-09T11:32:16Z</time></trkpt>
<trkpt lat="46.17765" lon="7.5654"><ele>1823.2</ele><time>2025-08-09T11:32:21Z</time></trkpt>
<trkpt lat="46.17766" lon="7.56539"><ele>1823.4</ele><time>2025-08-09T11:32:22Z</time></trkpt>
<trkpt lat="46.17773" lon="7.56532"><ele>1824.2</ele><time>2025-08-09T11:32:29Z</time></trkpt>
<trkpt lat="46.17775" lon="7.5653"><ele>1824.4</ele><time>2025-08-09T11:32:31Z</time></trkpt>
<trkpt lat="46.17778" lon="7.56526"><ele>1825</ele><time>2025-08-09T11:32:36Z</time></trkpt>
<trkpt lat="46.1778" lon="7.56524"><ele>1825.4</ele><time>2025-08-09T11:32:38Z</time></trkpt>
<trkpt lat="46.17785" lon="7.5652"><ele>1826.2</ele><time>2025-08-09T11:32:43Z</time></trkpt>
<trkpt lat="46.17787" lon="7.56518"><ele>1826.6</ele><time>2025-08-09T11:32:45Z</time></trkpt>
<trkpt lat="46.17794" lon="7.56512"><ele>1827.2</ele><time>2025-08-09T11:32:50Z</time></trkpt>
<trkpt lat="46.17797" lon="7.5651"><ele>1827.6</ele><time>2025-08-09T11:32:53Z</time></trkpt>
<trkpt lat="46.17799" lon="7.5651"><ele>1827.8</ele><time>2025-08-09T11:32:54Z</time></trkpt>
<trkpt lat="46.17807" lon="7.56507"><ele>1828.6</ele><time>2025-08-09T11:33:00Z</time></trkpt>
<trkpt lat="46.17808" lon="7.56507"><ele>1828.8</ele><time>2025-08-09T11:33:01Z</time></trkpt>
<trkpt lat="46.1781" lon="7.56505"><ele>1829</ele><time>2025-08-09T11:33:03Z</time></trkpt>
<trkpt lat="46.17813" lon="7.56501"><ele>1829.4</ele><time>2025-08-09T11:33:06Z</time></trkpt>
<trkpt lat="46.17815" lon="7.56497"><ele>1829.8</ele><time>2025-08-09T11:33:08Z</time></trkpt>
<trkpt lat="46.17819" lon="7.5649"><ele>1830.4</ele><time>2025-08-09T11:33:12Z</time></trkpt>
<trkpt lat="46.17821" lon="7.56488"><ele>1830.8</ele><time>2025-08-09T11:33:14Z</time></trkpt>
<trkpt lat="46.17826" lon="7.56483"><ele>1831.4</ele><time>2025-08-09T11:33:18Z</time></trkpt>
<trkpt lat="46.17829" lon="7.56479"><ele>1831.8</ele><time>2025-08-09T11:33:21Z</time></trkpt>
<trkpt lat="46.17833" lon="7.56472"><ele>1832.4</ele><time>2025-08-09T11:33:25Z</time></trkpt>
<trkpt lat="46.17841" lon="7.5647"><ele>1832.8</ele><time>2025-08-09T11:33:30Z</time></trkpt>
<trkpt lat="46.17844" lon="7.56469"><ele>1833.2</ele><time>2025-08-09T11:33:32Z</time></trkpt>
<trkpt lat="46.17853" lon="7.56467"><ele>1834</ele><time>2025-08-09T11:33:38Z</time></trkpt>
<trkpt lat="46.17858" lon="7.56467"><ele>1834.4</ele><time>2025-08-09T11:33:41Z</time></trkpt>
<trkpt lat="46.17863" lon="7.56468"><ele>1835</ele><time>2025-08-09T11:33:44Z</time></trkpt>
<trkpt lat="46.17865" lon="7.5647"><ele>1835.4</ele><time>2025-08-09T11:33:46Z</time></trkpt>
<trkpt lat="46.17874" lon="7.56472"><ele>1836</ele><time>2025-08-09T11:33:52Z</time></trkpt>
<trkpt lat="46.17882" lon="7.56477"><ele>1836.6</ele><time>2025-08-09T11:33:56Z</time></trkpt>
<trkpt lat="46.17888" lon="7.56485"><ele>1837.2</ele><time>2025-08-09T11:34:00Z</time></trkpt>
<trkpt lat="46.17891" lon="7.56491"><ele>1837.8</ele><time>2025-08-09T11:34:03Z</time></trkpt>
<trkpt lat="46.17893" lon="7.56497"><ele>1838.2</ele><time>2025-08-09T11:34:06Z</time></trkpt>
<trkpt lat="46.17896" lon="7.56507"><ele>1839</ele><time>2025-08-09T11:34:11Z</time></trkpt>
<trkpt lat="46.17901" lon="7.56514"><ele>1839.4</ele><time>2025-08-09T11:34:15Z</time></trkpt>
<trkpt lat="46.17907" lon="7.56526"><ele>1840</ele><time>2025-08-09T11:34:21Z</time></trkpt>
<trkpt lat="46.1791" lon="7.56533"><ele>1840.4</ele><time>2025-08-09T11:34:24Z</time></trkpt>
<trkpt lat="46.17913" lon="7.56545"><ele>1841</ele><time>2025-08-09T11:34:29Z</time></trkpt>
<trkpt lat="46.17914" lon="7.56553"><ele>1841.6</ele><time>2025-08-09T11:34:32Z</time></trkpt>
<trkpt lat="46.17917" lon="7.56561"><ele>1842.4</ele><time>2025-08-09T11:34:36Z</time></trkpt>
<trkpt lat="46.17918" lon="7.56565"><ele>1842.6</ele><time>2025-08-09T11:34:38Z</time></trkpt>
<trkpt lat="46.17922" lon="7.56572"><ele>1843</ele><time>2025-08-09T11:34:42Z</time></trkpt>
<trkpt lat="46.17927" lon="7.56591"><ele>1843.6</ele><time>2025-08-09T11:34:49Z</time></trkpt>
<trkpt lat="46.17928" lon="7.56593"><ele>1843.8</ele><time>2025-08-09T11:34:50Z</time></trkpt>
<trkpt lat="46.17929" lon="7.56602"><ele>1844.8</ele><time>2025-08-09T11:34:55Z</time></trkpt>
<trkpt lat="46.17929" lon="7.56604"><ele>1844.8</ele><time>2025-08-09T11:34:56Z</time></trkpt>
<trkpt lat="46.17931" lon="7.56621"><ele>1845.4</ele><time>2025-08-09T11:35:03Z</time></trkpt>
<trkpt lat="46.17931" lon="7.56628"><ele>1845.8</ele><time>2025-08-09T11:35:06Z</time></trkpt>
<trkpt lat="46.17931" lon="7.56636"><ele>1846.8</ele><time>2025-08-09T11:35:10Z</time></trkpt>
<trkpt lat="46.17931" lon="7.56638"><ele>1847</ele><time>2025-08-09T11:35:11Z</time></trkpt>
<trkpt lat="46.17931" lon="7.56646"><ele>1847.4</ele><time>2025-08-09T11:35:16Z</time></trkpt>
<trkpt lat="46.17933" lon="7.56654"><ele>1848</ele><time>2025-08-09T11:35:20Z</time></trkpt>
<trkpt lat="46.17936" lon="7.56659"><ele>1848.6</ele><time>2025-08-09T11:35:23Z</time></trkpt>
<trkpt lat="46.17944" lon="7.56662"><ele>1849</ele><time>2025-08-09T11:35:29Z</time></trkpt>
<trkpt lat="46.17946" lon="7.5666"><ele>1849.2</ele><time>2025-08-09T11:35:31Z</time></trkpt>
<trkpt lat="46.17954" lon="7.56655"><ele>1849.6</ele><time>2025-08-09T11:35:36Z</time></trkpt>
<trkpt lat="46.17958" lon="7.56652"><ele>1850.2</ele><time>2025-08-09T11:35:39Z</time></trkpt>
<trkpt lat="46.17964" lon="7.5665"><ele>1850.6</ele><time>2025-08-09T11:35:43Z</time></trkpt>
<trkpt lat="46.17968" lon="7.56649"><ele>1851.2</ele><time>2025-08-09T11:35:46Z</time></trkpt>
<trkpt lat="46.17972" lon="7.56645"><ele>1852</ele><time>2025-08-09T11:35:50Z</time></trkpt>
<trkpt lat="46.17975" lon="7.56643"><ele>1852.2</ele><time>2025-08-09T11:35:52Z</time></trkpt>
<trkpt lat="46.17981" lon="7.56634"><ele>1852.6</ele><time>2025-08-09T11:35:56Z</time></trkpt>
<trkpt lat="46.17988" lon="7.56624"><ele>1853.2</ele><time>2025-08-09T11:36:01Z</time></trkpt>
<trkpt lat="46.1799" lon="7.5662"><ele>1853.4</ele><time>2025-08-09T11:36:03Z</time></trkpt>
<trkpt lat="46.17997" lon="7.56613"><ele>1853.8</ele><time>2025-08-09T11:36:07Z</time></trkpt>
<trkpt lat="46.18004" lon="7.56605"><ele>1854.4</ele><time>2025-08-09T11:36:12Z</time></trkpt>
<trkpt lat="46.18006" lon="7.56603"><ele>1854.6</ele><time>2025-08-09T11:36:13Z</time></trkpt>
<trkpt lat="46.18015" lon="7.56592"><ele>1855.6</ele><time>2025-08-09T11:36:19Z</time></trkpt>
<trkpt lat="46.18018" lon="7.56589"><ele>1855.8</ele><time>2025-08-09T11:36:21Z</time></trkpt>
<trkpt lat="46.18026" lon="7.56581"><ele>1856.6</ele><time>2025-08-09T11:36:26Z</time></trkpt>
<trkpt lat="46.18033" lon="7.56577"><ele>1857.2</ele><time>2025-08-09T11:36:30Z</time></trkpt>
<trkpt lat="46.18049" lon="7.56569"><ele>1857.6</ele><time>2025-08-09T11:36:38Z</time></trkpt>
<trkpt lat="46.18066" lon="7.56568"><ele>1857.6</ele><time>2025-08-09T11:36:44Z</time></trkpt>
<trkpt lat="46.18079" lon="7.56577"><ele>1857</ele><time>2025-08-09T11:36:48Z</time></trkpt>
<trkpt lat="46.18082" lon="7.56581"><ele>1857.2</ele><time>2025-08-09T11:36:49Z</time></trkpt>
<trkpt lat="46.18089" lon="7.56601"><ele>1857.8</ele><time>2025-08-09T11:36:53Z</time></trkpt>
<trkpt lat="46.18094" lon="7.56632"><ele>1858.2</ele><time>2025-08-09T11:36:59Z</time></trkpt>
<trkpt lat="46.18095" lon="7.56645"><ele>1858.8</ele><time>2025-08-09T11:37:02Z</time></trkpt>
<trkpt lat="46.18095" lon="7.56655"><ele>1859.6</ele><time>2025-08-09T11:37:05Z</time></trkpt>
<trkpt lat="46.18094" lon="7.56659"><ele>1860</ele><time>2025-08-09T11:37:06Z</time></trkpt>
<trkpt lat="46.18095" lon="7.56679"><ele>1861</ele><time>2025-08-09T11:37:12Z</time></trkpt>
<trkpt lat="46.181" lon="7.56697"><ele>1862</ele><time>2025-08-09T11:37:19Z</time></trkpt>
<trkpt lat="46.18106" lon="7.56709"><ele>1863</ele><time>2025-08-09T11:37:26Z</time></trkpt>
<trkpt lat="46.18114" lon="7.56718"><ele>1863.8</ele><time>2025-08-09T11:37:33Z</time></trkpt>
<trkpt lat="46.18115" lon="7.5672"><ele>1864</ele><time>2025-08-09T11:37:34Z</time></trkpt>
<trkpt lat="46.18118" lon="7.56728"><ele>1865.2</ele><time>2025-08-09T11:37:39Z</time></trkpt>
<trkpt lat="46.18119" lon="7.56729"><ele>1865.4</ele><time>2025-08-09T11:37:40Z</time></trkpt>
<trkpt lat="46.18121" lon="7.56737"><ele>1866</ele><time>2025-08-09T11:37:45Z</time></trkpt>
<trkpt lat="46.18121" lon="7.56739"><ele>1866.2</ele><time>2025-08-09T11:37:46Z</time></trkpt>
<trkpt lat="46.18123" lon="7.56745"><ele>1866.8</ele><time>2025-08-09T11:37:50Z</time></trkpt>
<trkpt lat="46.18123" lon="7.56748"><ele>1867.4</ele><time>2025-08-09T11:37:54Z</time></trkpt>
<trkpt lat="46.18124" lon="7.56749"><ele>1867.6</ele><time>2025-08-09T11:37:55Z</time></trkpt>
<trkpt lat="46.18126" lon="7.56755"><ele>1868</ele><time>2025-08-09T11:37:58Z</time></trkpt>
<trkpt lat="46.18127" lon="7.56758"><ele>1868.4</ele><time>2025-08-09T11:38:00Z</time></trkpt>
<trkpt lat="46.18128" lon="7.5676"><ele>1868.4</ele><time>2025-08-09T11:38:01Z</time></trkpt>
<trkpt lat="46.18131" lon="7.56768"><ele>1869.4</ele><time>2025-08-09T11:38:06Z</time></trkpt>
<trkpt lat="46.18132" lon="7.56769"><ele>1869.4</ele><time>2025-08-09T11:38:07Z</time></trkpt>
<trkpt lat="46.18136" lon="7.56777"><ele>1870.2</ele><time>2025-08-09T11:38:12Z</time></trkpt>
<trkpt lat="46.18138" lon="7.5678"><ele>1870.6</ele><time>2025-08-09T11:38:15Z</time></trkpt>
<trkpt lat="46.18142" lon="7.56786"><ele>1871.2</ele><time>2025-08-09T11:38:20Z</time></trkpt>
<trkpt lat="46.18144" lon="7.56789"><ele>1871.6</ele><time>2025-08-09T11:38:23Z</time></trkpt>
<trkpt lat="46.18147" lon="7.56793"><ele>1872.2</ele><time>2025-08-09T11:38:26Z</time></trkpt>
<trkpt lat="46.1815" lon="7.56797"><ele>1872.8</ele><time>2025-08-09T11:38:30Z</time></trkpt>
<trkpt lat="46.18153" lon="7.568"><ele>1873.2</ele><time>2025-08-09T11:38:33Z</time></trkpt>
<trkpt lat="46.18158" lon="7.56806"><ele>1874</ele><time>2025-08-09T11:38:38Z</time></trkpt>
<trkpt lat="46.18162" lon="7.56809"><ele>1874.4</ele><time>2025-08-09T11:38:42Z</time></trkpt>
<trkpt lat="46.18166" lon="7.56811"><ele>1875</ele><time>2025-08-09T11:38:47Z</time></trkpt>
<trkpt lat="46.18168" lon="7.56812"><ele>1875.2</ele><time>2025-08-09T11:38:48Z</time></trkpt>
<trkpt lat="46.18171" lon="7.56813"><ele>1875.6</ele><time>2025-08-09T11:38:52Z</time></trkpt>
<trkpt lat="46.18173" lon="7.56813"><ele>1875.8</ele><time>2025-08-09T11:38:54Z</time></trkpt>
<trkpt lat="46.18175" lon="7.56815"><ele>1876</ele><time>2025-08-09T11:38:56Z</time></trkpt>
<trkpt lat="46.18178" lon="7.56817"><ele>1876.4</ele><time>2025-08-09T11:38:59Z</time></trkpt>
<trkpt lat="46.18181" lon="7.56819"><ele>1876.8</ele><time>2025-08-09T11:39:03Z</time></trkpt>
<trkpt lat="46.18182" lon="7.5682"><ele>1877</ele><time>2025-08-09T11:39:05Z</time></trkpt>
<trkpt lat="46.18183" lon="7.56821"><ele>1877.2</ele><time>2025-08-09T11:39:06Z</time></trkpt>
<trkpt lat="46.18186" lon="7.56822"><ele>1877.4</ele><time>2025-08-09T11:39:08Z</time></trkpt>
<trkpt lat="46.1819" lon="7.56826"><ele>1878</ele><time>2025-08-09T11:39:13Z</time></trkpt>
<trkpt lat="46.18192" lon="7.56827"><ele>1878.2</ele><time>2025-08-09T11:39:14Z</time></trkpt>
<trkpt lat="46.18199" lon="7.5683"><ele>1879</ele><time>2025-08-09T11:39:19Z</time></trkpt>
<trkpt lat="46.18201" lon="7.56832"><ele>1879.4</ele><time>2025-08-09T11:39:21Z</time></trkpt>
<trkpt lat="46.18206" lon="7.56836"><ele>1880</ele><time>2025-08-09T11:39:26Z</time></trkpt>
<trkpt lat="46.18209" lon="7.56836"><ele>1880.4</ele><time>2025-08-09T11:39:30Z</time></trkpt>
<trkpt lat="46.18211" lon="7.56837"><ele>1880.6</ele><time>2025-08-09T11:39:32Z</time></trkpt>
<trkpt lat="46.18219" lon="7.56837"><ele>1881.4</ele><time>2025-08-09T11:39:38Z</time></trkpt>
<trkpt lat="46.18225" lon="7.56835"><ele>1882.2</ele><time>2025-08-09T11:39:44Z</time></trkpt>
<trkpt lat="46.18228" lon="7.56834"><ele>1882.6</ele><time>2025-08-09T11:39:46Z</time></trkpt>
<trkpt lat="46.18233" lon="7.56834"><ele>1883.2</ele><time>2025-08-09T11:39:50Z</time></trkpt>
<trkpt lat="46.18238" lon="7.56832"><ele>1883.6</ele><time>2025-08-09T11:39:53Z</time></trkpt>
<trkpt lat="46.18241" lon="7.56832"><ele>1884</ele><time>2025-08-09T11:39:55Z</time></trkpt>
<trkpt lat="46.18247" lon="7.56832"><ele>1884.6</ele><time>2025-08-09T11:39:59Z</time></trkpt>
<trkpt lat="46.18249" lon="7.56833"><ele>1884.8</ele><time>2025-08-09T11:40:01Z</time></trkpt>
<trkpt lat="46.18257" lon="7.56835"><ele>1885.8</ele><time>2025-08-09T11:40:07Z</time></trkpt>
<trkpt lat="46.18261" lon="7.56837"><ele>1886</ele><time>2025-08-09T11:40:10Z</time></trkpt>
<trkpt lat="46.18266" lon="7.56839"><ele>1886.8</ele><time>2025-08-09T11:40:15Z</time></trkpt>
<trkpt lat="46.18269" lon="7.56839"><ele>1887.2</ele><time>2025-08-09T11:40:17Z</time></trkpt>
<trkpt lat="46.18273" lon="7.5684"><ele>1888</ele><time>2025-08-09T11:40:21Z</time></trkpt>
<trkpt lat="46.18277" lon="7.56842"><ele>1888.4</ele><time>2025-08-09T11:40:24Z</time></trkpt>
<trkpt lat="46.18281" lon="7.56843"><ele>1889</ele><time>2025-08-09T11:40:28Z</time></trkpt>
<trkpt lat="46.18286" lon="7.56845"><ele>1889.6</ele><time>2025-08-09T11:40:32Z</time></trkpt>
<trkpt lat="46.18291" lon="7.56848"><ele>1890.2</ele><time>2025-08-09T11:40:36Z</time></trkpt>
<trkpt lat="46.18294" lon="7.56849"><ele>1890.6</ele><time>2025-08-09T11:40:39Z</time></trkpt>
<trkpt lat="46.18299" lon="7.56852"><ele>1891.4</ele><time>2025-08-09T11:40:43Z</time></trkpt>
<trkpt lat="46.18302" lon="7.56852"><ele>1891.6</ele><time>2025-08-09T11:40:45Z</time></trkpt>
<trkpt lat="46.18305" lon="7.56854"><ele>1892.4</ele><time>2025-08-09T11:40:49Z</time></trkpt>
<trkpt lat="46.18309" lon="7.56854"><ele>1893</ele><time>2025-08-09T11:40:53Z</time></trkpt>
<trkpt lat="46.18312" lon="7.56854"><ele>1893.4</ele><time>2025-08-09T11:40:56Z</time></trkpt>
<trkpt lat="46.18315" lon="7.56853"><ele>1894</ele><time>2025-08-09T11:40:59Z</time></trkpt>
<trkpt lat="46.1832" lon="7.56852"><ele>1894.6</ele><time>2025-08-09T11:41:03Z</time></trkpt>
<trkpt lat="46.18325" lon="7.5685"><ele>1895.2</ele><time>2025-08-09T11:41:07Z</time></trkpt>
<trkpt lat="46.1833" lon="7.56849"><ele>1895.6</ele><time>2025-08-09T11:41:11Z</time></trkpt>
<trkpt lat="46.18333" lon="7.56849"><ele>1896</ele><time>2025-08-09T11:41:13Z</time></trkpt>
<trkpt lat="46.18338" lon="7.56849"><ele>1896.8</ele><time>2025-08-09T11:41:18Z</time></trkpt>
<trkpt lat="46.1834" lon="7.5685"><ele>1896.8</ele><time>2025-08-09T11:41:19Z</time></trkpt>
<trkpt lat="46.18348" lon="7.56853"><ele>1897.8</ele><time>2025-08-09T11:41:26Z</time></trkpt>
<trkpt lat="46.18349" lon="7.56854"><ele>1898</ele><time>2025-08-09T11:41:27Z</time></trkpt>
<trkpt lat="46.18355" lon="7.56857"><ele>1898.8</ele><time>2025-08-09T11:41:31Z</time></trkpt>
<trkpt lat="46.18357" lon="7.56859"><ele>1899.2</ele><time>2025-08-09T11:41:33Z</time></trkpt>
<trkpt lat="46.18363" lon="7.56863"><ele>1899.8</ele><time>2025-08-09T11:41:38Z</time></trkpt>
<trkpt lat="46.18366" lon="7.56866"><ele>1900.4</ele><time>2025-08-09T11:41:41Z</time></trkpt>
<trkpt lat="46.18371" lon="7.56869"><ele>1901</ele><time>2025-08-09T11:41:45Z</time></trkpt>
<trkpt lat="46.18374" lon="7.5687"><ele>1901.6</ele><time>2025-08-09T11:41:48Z</time></trkpt>
<trkpt lat="46.18376" lon="7.56872"><ele>1902</ele><time>2025-08-09T11:41:50Z</time></trkpt>
<trkpt lat="46.18381" lon="7.56877"><ele>1902.6</ele><time>2025-08-09T11:41:54Z</time></trkpt>
<trkpt lat="46.18385" lon="7.56879"><ele>1903</ele><time>2025-08-09T11:41:57Z</time></trkpt>
<trkpt lat="46.1839" lon="7.56884"><ele>1903.8</ele><time>2025-08-09T11:42:03Z</time></trkpt>
<trkpt lat="46.18394" lon="7.56886"><ele>1904.2</ele><time>2025-08-09T11:42:06Z</time></trkpt>
<trkpt lat="46.18396" lon="7.56888"><ele>1904.4</ele><time>2025-08-09T11:42:08Z</time></trkpt>
<trkpt lat="46.18398" lon="7.5689"><ele>1904.8</ele><time>2025-08-09T11:42:10Z</time></trkpt>
<trkpt lat="46.184" lon="7.56892"><ele>1905</ele><time>2025-08-09T11:42:12Z</time></trkpt>
<trkpt lat="46.18402" lon="7.56895"><ele>1905.2</ele><time>2025-08-09T11:42:14Z</time></trkpt>
<trkpt lat="46.18406" lon="7.569"><ele>1905.6</ele><time>2025-08-09T11:42:18Z</time></trkpt>
<trkpt lat="46.1841" lon="7.56904"><ele>1906.2</ele><time>2025-08-09T11:42:22Z</time></trkpt>
<trkpt lat="46.18413" lon="7.56908"><ele>1906.6</ele><time>2025-08-09T11:42:25Z</time></trkpt>
<trkpt lat="46.18416" lon="7.56914"><ele>1907.2</ele><time>2025-08-09T11:42:29Z</time></trkpt>
<trkpt lat="46.18421" lon="7.56924"><ele>1908</ele><time>2025-08-09T11:42:36Z</time></trkpt>
<trkpt lat="46.18423" lon="7.56927"><ele>1908.4</ele><time>2025-08-09T11:42:39Z</time></trkpt>
<trkpt lat="46.18424" lon="7.56932"><ele>1908.8</ele><time>2025-08-09T11:42:42Z</time></trkpt>
<trkpt lat="46.18429" lon="7.56938"><ele>1909.4</ele><time>2025-08-09T11:42:47Z</time></trkpt>
<trkpt lat="46.18434" lon="7.56947"><ele>1910.2</ele><time>2025-08-09T11:42:53Z</time></trkpt>
<trkpt lat="46.18436" lon="7.5695"><ele>1910.4</ele><time>2025-08-09T11:42:55Z</time></trkpt>
<trkpt lat="46.18441" lon="7.56958"><ele>1911.6</ele><time>2025-08-09T11:43:02Z</time></trkpt>
<trkpt lat="46.18442" lon="7.56959"><ele>1911.8</ele><time>2025-08-09T11:43:03Z</time></trkpt>
<trkpt lat="46.18446" lon="7.56966"><ele>1912.6</ele><time>2025-08-09T11:43:08Z</time></trkpt>
<trkpt lat="46.18448" lon="7.56969"><ele>1913</ele><time>2025-08-09T11:43:11Z</time></trkpt>
<trkpt lat="46.18452" lon="7.56975"><ele>1913.8</ele><time>2025-08-09T11:43:15Z</time></trkpt>
<trkpt lat="46.18454" lon="7.56977"><ele>1914</ele><time>2025-08-09T11:43:17Z</time></trkpt>
<trkpt lat="46.18455" lon="7.56978"><ele>1914.2</ele><time>2025-08-09T11:43:18Z</time></trkpt>
<trkpt lat="46.18459" lon="7.56982"><ele>1914.8</ele><time>2025-08-09T11:43:22Z</time></trkpt>
<trkpt lat="46.1846" lon="7.56983"><ele>1915</ele><time>2025-08-09T11:43:23Z</time></trkpt>
<trkpt lat="46.18467" lon="7.56983"><ele>1915.8</ele><time>2025-08-09T11:43:29Z</time></trkpt>
<trkpt lat="46.18468" lon="7.56983"><ele>1915.8</ele><time>2025-08-09T11:43:30Z</time></trkpt>
<trkpt lat="46.18477" lon="7.5698"><ele>1916.8</ele><time>2025-08-09T11:43:37Z</time></trkpt>
<trkpt lat="46.18478" lon="7.56979"><ele>1917</ele><time>2025-08-09T11:43:38Z</time></trkpt>
<trkpt lat="46.18486" lon="7.56978"><ele>1918</ele><time>2025-08-09T11:43:45Z</time></trkpt>
<trkpt lat="46.18489" lon="7.56978"><ele>1918.4</ele><time>2025-08-09T11:43:47Z</time></trkpt>
<trkpt lat="46.18494" lon="7.56977"><ele>1919</ele><time>2025-08-09T11:43:52Z</time></trkpt>
<trkpt lat="46.18498" lon="7.56978"><ele>1919.4</ele><time>2025-08-09T11:43:55Z</time></trkpt>
<trkpt lat="46.18503" lon="7.56978"><ele>1919.8</ele><time>2025-08-09T11:43:59Z</time></trkpt>
<trkpt lat="46.18506" lon="7.56979"><ele>1920</ele><time>2025-08-09T11:44:02Z</time></trkpt>
<trkpt lat="46.18507" lon="7.5698"><ele>1920</ele><time>2025-08-09T11:44:03Z</time></trkpt>
<trkpt lat="46.18515" lon="7.56981"><ele>1920.4</ele><time>2025-08-09T11:44:08Z</time></trkpt>
<trkpt lat="46.18522" lon="7.56982"><ele>1921.2</ele><time>2025-08-09T11:44:14Z</time></trkpt>
<trkpt lat="46.18524" lon="7.56983"><ele>1921.4</ele><time>2025-08-09T11:44:15Z</time></trkpt>
<trkpt lat="46.18531" lon="7.56984"><ele>1922.2</ele><time>2025-08-09T11:44:22Z</time></trkpt>
<trkpt lat="46.18532" lon="7.56984"><ele>1922.4</ele><time>2025-08-09T11:44:23Z</time></trkpt>
<trkpt lat="46.18538" lon="7.56984"><ele>1923.4</ele><time>2025-08-09T11:44:28Z</time></trkpt>
<trkpt lat="46.1854" lon="7.56984"><ele>1923.8</ele><time>2025-08-09T11:44:30Z</time></trkpt>
<trkpt lat="46.18545" lon="7.56981"><ele>1924.4</ele><time>2025-08-09T11:44:35Z</time></trkpt>
<trkpt lat="46.18548" lon="7.5698"><ele>1925</ele><time>2025-08-09T11:44:38Z</time></trkpt>
<trkpt lat="46.18551" lon="7.56978"><ele>1925.6</ele><time>2025-08-09T11:44:42Z</time></trkpt>
<trkpt lat="46.18558" lon="7.56974"><ele>1926.2</ele><time>2025-08-09T11:44:47Z</time></trkpt>
<trkpt lat="46.18564" lon="7.56973"><ele>1926.6</ele><time>2025-08-09T11:44:52Z</time></trkpt>
<trkpt lat="46.18566" lon="7.56972"><ele>1926.8</ele><time>2025-08-09T11:44:54Z</time></trkpt>
<trkpt lat="46.18573" lon="7.56975"><ele>1927.6</ele><time>2025-08-09T11:45:00Z</time></trkpt>
<trkpt lat="46.18583" lon="7.5698"><ele>1928.8</ele><time>2025-08-09T11:45:08Z</time></trkpt>
<trkpt lat="46.18584" lon="7.5698"><ele>1929</ele><time>2025-08-09T11:45:09Z</time></trkpt>
<trkpt lat="46.18585" lon="7.56982"><ele>1929</ele><time>2025-08-09T11:45:10Z</time></trkpt>
<trkpt lat="46.1859" lon="7.56985"><ele>1929.6</ele><time>2025-08-09T11:45:14Z</time></trkpt>
<trkpt lat="46.18592" lon="7.56985"><ele>1930</ele><time>2025-08-09T11:45:17Z</time></trkpt>
<trkpt lat="46.18596" lon="7.56984"><ele>1930.6</ele><time>2025-08-09T11:45:20Z</time></trkpt>
<trkpt lat="46.186" lon="7.56982"><ele>1931</ele><time>2025-08-09T11:45:24Z</time></trkpt>
<trkpt lat="46.18605" lon="7.56977"><ele>1931.8</ele><time>2025-08-09T11:45:29Z</time></trkpt>
<trkpt lat="46.18607" lon="7.56975"><ele>1932.2</ele><time>2025-08-09T11:45:31Z</time></trkpt>
<trkpt lat="46.18618" lon="7.56971"><ele>1933.4</ele><time>2025-08-09T11:45:39Z</time></trkpt>
<trkpt lat="46.18625" lon="7.56973"><ele>1934.4</ele><time>2025-08-09T11:45:45Z</time></trkpt>
<trkpt lat="46.18627" lon="7.56974"><ele>1934.6</ele><time>2025-08-09T11:45:47Z</time></trkpt>
<trkpt lat="46.18634" lon="7.56974"><ele>1935.4</ele><time>2025-08-09T11:45:53Z</time></trkpt>
<trkpt lat="46.18637" lon="7.56974"><ele>1935.6</ele><time>2025-08-09T11:45:55Z</time></trkpt>
<trkpt lat="46.18643" lon="7.56972"><ele>1936.4</ele><time>2025-08-09T11:46:00Z</time></trkpt>
<trkpt lat="46.18648" lon="7.5697"><ele>1937</ele><time>2025-08-09T11:46:04Z</time></trkpt>
<trkpt lat="46.18654" lon="7.56968"><ele>1937.6</ele><time>2025-08-09T11:46:08Z</time></trkpt>
<trkpt lat="46.1866" lon="7.56965"><ele>1938.4</ele><time>2025-08-09T11:46:13Z</time></trkpt>
<trkpt lat="46.18662" lon="7.56964"><ele>1938.6</ele><time>2025-08-09T11:46:15Z</time></trkpt>
<trkpt lat="46.18669" lon="7.5696"><ele>1939.8</ele><time>2025-08-09T11:46:22Z</time></trkpt>
<trkpt lat="46.18678" lon="7.56953"><ele>1940.8</ele><time>2025-08-09T11:46:30Z</time></trkpt>
<trkpt lat="46.1868" lon="7.56952"><ele>1941</ele><time>2025-08-09T11:46:32Z</time></trkpt>
<trkpt lat="46.18687" lon="7.56946"><ele>1941.8</ele><time>2025-08-09T11:46:38Z</time></trkpt>
<trkpt lat="46.1869" lon="7.56944"><ele>1942.2</ele><time>2025-08-09T11:46:41Z</time></trkpt>
<trkpt lat="46.18696" lon="7.56941"><ele>1943</ele><time>2025-08-09T11:46:46Z</time></trkpt>
<trkpt lat="46.187" lon="7.56941"><ele>1943.2</ele><time>2025-08-09T11:46:49Z</time></trkpt>
<trkpt lat="46.18702" lon="7.56941"><ele>1943.4</ele><time>2025-08-09T11:46:51Z</time></trkpt>
<trkpt lat="46.18705" lon="7.56943"><ele>1944</ele><time>2025-08-09T11:46:54Z</time></trkpt>
<trkpt lat="46.18712" lon="7.56944"><ele>1944.8</ele><time>2025-08-09T11:47:01Z</time></trkpt>
<trkpt lat="46.18715" lon="7.56941"><ele>1945</ele><time>2025-08-09T11:47:04Z</time></trkpt>
<trkpt lat="46.18716" lon="7.56935"><ele>1945.6</ele><time>2025-08-09T11:47:08Z</time></trkpt>
<trkpt lat="46.18715" lon="7.56933"><ele>1945.6</ele><time>2025-08-09T11:47:09Z</time></trkpt>
<trkpt lat="46.18713" lon="7.56929"><ele>1946.2</ele><time>2025-08-09T11:47:13Z</time></trkpt>
<trkpt lat="46.18712" lon="7.56928"><ele>1946.4</ele><time>2025-08-09T11:47:14Z</time></trkpt>
<trkpt lat="46.18706" lon="7.56925"><ele>1947</ele><time>2025-08-09T11:47:21Z</time></trkpt>
<trkpt lat="46.18704" lon="7.56924"><ele>1947.2</ele><time>2025-08-09T11:47:23Z</time></trkpt>
<trkpt lat="46.18701" lon="7.56921"><ele>1947.8</ele><time>2025-08-09T11:47:27Z</time></trkpt>
<trkpt lat="46.18696" lon="7.56918"><ele>1948.4</ele><time>2025-08-09T11:47:32Z</time></trkpt>
<trkpt lat="46.18695" lon="7.56917"><ele>1948.4</ele><time>2025-08-09T11:47:33Z</time></trkpt>
<trkpt lat="46.18689" lon="7.56912"><ele>1949.4</ele><time>2025-08-09T11:47:39Z</time></trkpt>
<trkpt lat="46.18687" lon="7.5691"><ele>1949.6</ele><time>2025-08-09T11:47:41Z</time></trkpt>
<trkpt lat="46.18682" lon="7.56907"><ele>1950.4</ele><time>2025-08-09T11:47:46Z</time></trkpt>
<trkpt lat="46.1868" lon="7.56905"><ele>1950.8</ele><time>2025-08-09T11:47:49Z</time></trkpt>
<trkpt lat="46.18676" lon="7.56902"><ele>1951.4</ele><time>2025-08-09T11:47:53Z</time></trkpt>
<trkpt lat="46.18671" lon="7.569"><ele>1952</ele><time>2025-08-09T11:47:57Z</time></trkpt>
<trkpt lat="46.18665" lon="7.56898"><ele>1952.4</ele><time>2025-08-09T11:48:02Z</time></trkpt>
<trkpt lat="46.18663" lon="7.56897"><ele>1952.8</ele><time>2025-08-09T11:48:04Z</time></trkpt>
<trkpt lat="46.18656" lon="7.56892"><ele>1953.6</ele><time>2025-08-09T11:48:10Z</time></trkpt>
<trkpt lat="46.18655" lon="7.56891"><ele>1953.6</ele><time>2025-08-09T11:48:11Z</time></trkpt>
<trkpt lat="46.18648" lon="7.56887"><ele>1954.6</ele><time>2025-08-09T11:48:18Z</time></trkpt>
<trkpt lat="46.18647" lon="7.56886"><ele>1954.8</ele><time>2025-08-09T11:48:19Z</time></trkpt>
<trkpt lat="46.18638" lon="7.56882"><ele>1955.8</ele><time>2025-08-09T11:48:27Z</time></trkpt>
<trkpt lat="46.18631" lon="7.56882"><ele>1956.8</ele><time>2025-08-09T11:48:33Z</time></trkpt>
<trkpt lat="46.1863" lon="7.56881"><ele>1957</ele><time>2025-08-09T11:48:34Z</time></trkpt>
<trkpt lat="46.18623" lon="7.5688"><ele>1957.8</ele><time>2025-08-09T11:48:40Z</time></trkpt>
<trkpt lat="46.1862" lon="7.56879"><ele>1958</ele><time>2025-08-09T11:48:42Z</time></trkpt>
<trkpt lat="46.18615" lon="7.5688"><ele>1958.8</ele><time>2025-08-09T11:48:47Z</time></trkpt>
<trkpt lat="46.18613" lon="7.56881"><ele>1959.2</ele><time>2025-08-09T11:48:49Z</time></trkpt>
<trkpt lat="46.18607" lon="7.56881"><ele>1960</ele><time>2025-08-09T11:48:54Z</time></trkpt>
<trkpt lat="46.18606" lon="7.56881"><ele>1960.2</ele><time>2025-08-09T11:48:55Z</time></trkpt>
<trkpt lat="46.18602" lon="7.56881"><ele>1960.6</ele><time>2025-08-09T11:48:59Z</time></trkpt>
<trkpt lat="46.18597" lon="7.5688"><ele>1961.2</ele><time>2025-08-09T11:49:03Z</time></trkpt>
<trkpt lat="46.18594" lon="7.56881"><ele>1961.6</ele><time>2025-08-09T11:49:06Z</time></trkpt>
<trkpt lat="46.18588" lon="7.5688"><ele>1962.2</ele><time>2025-08-09T11:49:11Z</time></trkpt>
<trkpt lat="46.18584" lon="7.56878"><ele>1962.6</ele><time>2025-08-09T11:49:14Z</time></trkpt>
<trkpt lat="46.1858" lon="7.56876"><ele>1963.4</ele><time>2025-08-09T11:49:19Z</time></trkpt>
<trkpt lat="46.18576" lon="7.56874"><ele>1963.8</ele><time>2025-08-09T11:49:22Z</time></trkpt>
<trkpt lat="46.18572" lon="7.56871"><ele>1964.4</ele><time>2025-08-09T11:49:26Z</time></trkpt>
<trkpt lat="46.18568" lon="7.56869"><ele>1965</ele><time>2025-08-09T11:49:30Z</time></trkpt>
<trkpt lat="46.18564" lon="7.56863"><ele>1965.6</ele><time>2025-08-09T11:49:35Z</time></trkpt>
<trkpt lat="46.18562" lon="7.56861"><ele>1965.8</ele><time>2025-08-09T11:49:37Z</time></trkpt>
<trkpt lat="46.18558" lon="7.56855"><ele>1966.6</ele><time>2025-08-09T11:49:42Z</time></trkpt>
<trkpt lat="46.18557" lon="7.56854"><ele>1966.8</ele><time>2025-08-09T11:49:43Z</time></trkpt>
<trkpt lat="46.18552" lon="7.56844"><ele>1967.8</ele><time>2025-08-09T11:49:51Z</time></trkpt>
<trkpt lat="46.18546" lon="7.56835"><ele>1968.8</ele><time>2025-08-09T11:49:59Z</time></trkpt>
<trkpt lat="46.18543" lon="7.56827"><ele>1969.6</ele><time>2025-08-09T11:50:05Z</time></trkpt>
<trkpt lat="46.18542" lon="7.56825"><ele>1969.8</ele><time>2025-08-09T11:50:07Z</time></trkpt>
<trkpt lat="46.18541" lon="7.56817"><ele>1970.4</ele><time>2025-08-09T11:50:12Z</time></trkpt>
<trkpt lat="46.1854" lon="7.56811"><ele>1970.8</ele><time>2025-08-09T11:50:16Z</time></trkpt>
<trkpt lat="46.18539" lon="7.56805"><ele>1971.2</ele><time>2025-08-09T11:50:20Z</time></trkpt>
<trkpt lat="46.18536" lon="7.56797"><ele>1972</ele><time>2025-08-09T11:50:26Z</time></trkpt>
<trkpt lat="46.18536" lon="7.56792"><ele>1972.4</ele><time>2025-08-09T11:50:29Z</time></trkpt>
<trkpt lat="46.18535" lon="7.56785"><ele>1973</ele><time>2025-08-09T11:50:34Z</time></trkpt>
<trkpt lat="46.18534" lon="7.56782"><ele>1973.2</ele><time>2025-08-09T11:50:36Z</time></trkpt>
<trkpt lat="46.18533" lon="7.56775"><ele>1974</ele><time>2025-08-09T11:50:41Z</time></trkpt>
<trkpt lat="46.18533" lon="7.56771"><ele>1974.6</ele><time>2025-08-09T11:50:44Z</time></trkpt>
<trkpt lat="46.18532" lon="7.56764"><ele>1975.2</ele><time>2025-08-09T11:50:49Z</time></trkpt>
<trkpt lat="46.18532" lon="7.56763"><ele>1975.4</ele><time>2025-08-09T11:50:50Z</time></trkpt>
<trkpt lat="46.1853" lon="7.56753"><ele>1976.2</ele><time>2025-08-09T11:50:56Z</time></trkpt>
<trkpt lat="46.18529" lon="7.56744"><ele>1976.8</ele><time>2025-08-09T11:51:02Z</time></trkpt>
<trkpt lat="46.18529" lon="7.56738"><ele>1977.2</ele><time>2025-08-09T11:51:06Z</time></trkpt>
<trkpt lat="46.1853" lon="7.56733"><ele>1977.6</ele><time>2025-08-09T11:51:09Z</time></trkpt>
<trkpt lat="46.18531" lon="7.56725"><ele>1978.4</ele><time>2025-08-09T11:51:15Z</time></trkpt>
<trkpt lat="46.18531" lon="7.56724"><ele>1978.4</ele><time>2025-08-09T11:51:16Z</time></trkpt>
<trkpt lat="46.18535" lon="7.56715"><ele>1979.2</ele><time>2025-08-09T11:51:23Z</time></trkpt>
<trkpt lat="46.18535" lon="7.56712"><ele>1979.4</ele><time>2025-08-09T11:51:25Z</time></trkpt>
<trkpt lat="46.18534" lon="7.56705"><ele>1980</ele><time>2025-08-09T11:51:29Z</time></trkpt>
<trkpt lat="46.18534" lon="7.56693"><ele>1980.6</ele><time>2025-08-09T11:51:36Z</time></trkpt>
<trkpt lat="46.18534" lon="7.56691"><ele>1980.8</ele><time>2025-08-09T11:51:38Z</time></trkpt>
<trkpt lat="46.18535" lon="7.56681"><ele>1981.4</ele><time>2025-08-09T11:51:44Z</time></trkpt>
<trkpt lat="46.18535" lon="7.56679"><ele>1981.6</ele><time>2025-08-09T11:51:45Z</time></trkpt>
<trkpt lat="46.18535" lon="7.56671"><ele>1982.2</ele><time>2025-08-09T11:51:51Z</time></trkpt>
<trkpt lat="46.18532" lon="7.56666"><ele>1982.6</ele><time>2025-08-09T11:51:55Z</time></trkpt>
<trkpt lat="46.18531" lon="7.56663"><ele>1982.8</ele><time>2025-08-09T11:51:57Z</time></trkpt>
<trkpt lat="46.18531" lon="7.5666"><ele>1983</ele><time>2025-08-09T11:51:59Z</time></trkpt>
<trkpt lat="46.18529" lon="7.56657"><ele>1983.4</ele><time>2025-08-09T11:52:02Z</time></trkpt>
<trkpt lat="46.18527" lon="7.56654"><ele>1983.6</ele><time>2025-08-09T11:52:04Z</time></trkpt>
<trkpt lat="46.18522" lon="7.56647"><ele>1984.4</ele><time>2025-08-09T11:52:10Z</time></trkpt>
<trkpt lat="46.18521" lon="7.56645"><ele>1984.6</ele><time>2025-08-09T11:52:12Z</time></trkpt>
<trkpt lat="46.18516" lon="7.56639"><ele>1985.4</ele><time>2025-08-09T11:52:18Z</time></trkpt>
<trkpt lat="46.18513" lon="7.56635"><ele>1985.8</ele><time>2025-08-09T11:52:22Z</time></trkpt>
<trkpt lat="46.18511" lon="7.56632"><ele>1986.2</ele><time>2025-08-09T11:52:25Z</time></trkpt>
<trkpt lat="46.18507" lon="7.56626"><ele>1986.8</ele><time>2025-08-09T11:52:30Z</time></trkpt>
<trkpt lat="46.18505" lon="7.56622"><ele>1987.2</ele><time>2025-08-09T11:52:33Z</time></trkpt>
<trkpt lat="46.18502" lon="7.56621"><ele>1987.4</ele><time>2025-08-09T11:52:36Z</time></trkpt>
<trkpt lat="46.185" lon="7.5662"><ele>1987.6</ele><time>2025-08-09T11:52:38Z</time></trkpt>
<trkpt lat="46.185" lon="7.56619"><ele>1987.8</ele><time>2025-08-09T11:52:39Z</time></trkpt>
<trkpt lat="46.18499" lon="7.56618"><ele>1988</ele><time>2025-08-09T11:52:40Z</time></trkpt>
<trkpt lat="46.18498" lon="7.56613"><ele>1988.4</ele><time>2025-08-09T11:52:44Z</time></trkpt>
<trkpt lat="46.18493" lon="7.56609"><ele>1988.8</ele><time>2025-08-09T11:52:48Z</time></trkpt>
<trkpt lat="46.1849" lon="7.56607"><ele>1989.4</ele><time>2025-08-09T11:52:52Z</time></trkpt>
<trkpt lat="46.18486" lon="7.56602"><ele>1990</ele><time>2025-08-09T11:52:57Z</time></trkpt>
<trkpt lat="46.18483" lon="7.56601"><ele>1990.4</ele><time>2025-08-09T11:53:00Z</time></trkpt>
<trkpt lat="46.18482" lon="7.56599"><ele>1990.8</ele><time>2025-08-09T11:53:02Z</time></trkpt>
<trkpt lat="46.18481" lon="7.56598"><ele>1991</ele><time>2025-08-09T11:53:03Z</time></trkpt>
<trkpt lat="46.18479" lon="7.56596"><ele>1991.4</ele><time>2025-08-09T11:53:05Z</time></trkpt>
<trkpt lat="46.18476" lon="7.56593"><ele>1992.2</ele><time>2025-08-09T11:53:09Z</time></trkpt>
<trkpt lat="46.18473" lon="7.5659"><ele>1992.6</ele><time>2025-08-09T11:53:12Z</time></trkpt>
<trkpt lat="46.1847" lon="7.56585"><ele>1993.2</ele><time>2025-08-09T11:53:17Z</time></trkpt>
<trkpt lat="46.18468" lon="7.56582"><ele>1993.6</ele><time>2025-08-09T11:53:20Z</time></trkpt>
<trkpt lat="46.18464" lon="7.56578"><ele>1994.4</ele><time>2025-08-09T11:53:25Z</time></trkpt>
<trkpt lat="46.18463" lon="7.56575"><ele>1994.6</ele><time>2025-08-09T11:53:27Z</time></trkpt>
<trkpt lat="46.18457" lon="7.56569"><ele>1995.4</ele><time>2025-08-09T11:53:34Z</time></trkpt>
<trkpt lat="46.18455" lon="7.56567"><ele>1995.8</ele><time>2025-08-09T11:53:36Z</time></trkpt>
<trkpt lat="46.18449" lon="7.56562"><ele>1996.4</ele><time>2025-08-09T11:53:42Z</time></trkpt>
<trkpt lat="46.18449" lon="7.56561"><ele>1996.6</ele><time>2025-08-09T11:53:43Z</time></trkpt>
<trkpt lat="46.18442" lon="7.56555"><ele>1997.6</ele><time>2025-08-09T11:53:50Z</time></trkpt>
<trkpt lat="46.18435" lon="7.56549"><ele>1998.6</ele><time>2025-08-09T11:53:57Z</time></trkpt>
<trkpt lat="46.18434" lon="7.56549"><ele>1998.6</ele><time>2025-08-09T11:53:58Z</time></trkpt>
<trkpt lat="46.18427" lon="7.56546"><ele>1999.2</ele><time>2025-08-09T11:54:03Z</time></trkpt>
<trkpt lat="46.18415" lon="7.56546"><ele>1999.8</ele><time>2025-08-09T11:54:11Z</time></trkpt>
<trkpt lat="46.18402" lon="7.56545"><ele>2000.8</ele><time>2025-08-09T11:54:20Z</time></trkpt>
<trkpt lat="46.18391" lon="7.56543"><ele>2001.6</ele><time>2025-08-09T11:54:28Z</time></trkpt>
<trkpt lat="46.18386" lon="7.56544"><ele>2002</ele><time>2025-08-09T11:54:31Z</time></trkpt>
<trkpt lat="46.18382" lon="7.56543"><ele>2002.4</ele><time>2025-08-09T11:54:34Z</time></trkpt>
<trkpt lat="46.18377" lon="7.56542"><ele>2003</ele><time>2025-08-09T11:54:38Z</time></trkpt>
<trkpt lat="46.18375" lon="7.56542"><ele>2003.4</ele><time>2025-08-09T11:54:40Z</time></trkpt>
<trkpt lat="46.1837" lon="7.5654"><ele>2004</ele><time>2025-08-09T11:54:46Z</time></trkpt>
<trkpt lat="46.18369" lon="7.5654"><ele>2004.2</ele><time>2025-08-09T11:54:47Z</time></trkpt>
<trkpt lat="46.18369" lon="7.56538"><ele>2004.2</ele><time>2025-08-09T11:54:52Z</time></trkpt>
<trkpt lat="46.18369" lon="7.56538"><ele>2004.4</ele><time>2025-08-09T11:54:59Z</time></trkpt>
<trkpt lat="46.18369" lon="7.56538"><ele>2004.2</ele><time>2025-08-09T11:55:12Z</time></trkpt>
<trkpt lat="46.18369" lon="7.56538"><ele>2004.2</ele><time>2025-08-09T11:55:31Z</time></trkpt>
<trkpt lat="46.18369" lon="7.56538"><ele>2004.4</ele><time>2025-08-09T11:55:42Z</time></trkpt>
<trkpt lat="46.18369" lon="7.56538"><ele>2004.6</ele><time>2025-08-09T11:55:46Z</time></trkpt>
<trkpt lat="46.18369" lon="7.56538"><ele>2004.4</ele><time>2025-08-09T11:55:53Z</time></trkpt>
<trkpt lat="46.18369" lon="7.56538"><ele>2004.6</ele><time>2025-08-09T11:56:03Z</time></trkpt>
<trkpt lat="46.18369" lon="7.56538"><ele>2004.6</ele><time>2025-08-09T11:56:12Z</time></trkpt>
<trkpt lat="46.18369" lon="7.56538"><ele>2004.6</ele><time>2025-08-09T11:56:18Z</time></trkpt>
<trkpt lat="46.18369" lon="7.56538"><ele>2004.8</ele><time>2025-08-09T11:56:36Z</time></trkpt>
<trkpt lat="46.18369" lon="7.56538"><ele>2005</ele><time>2025-08-09T11:56:51Z</time></trkpt>
<trkpt lat="46.18369" lon="7.56538"><ele>2005</ele><time>2025-08-09T11:57:09Z</time></trkpt>
<trkpt lat="46.18369" lon="7.56538"><ele>2005</ele><time>2025-08-09T11:57:22Z</time></trkpt>
<trkpt lat="46.18369" lon="7.56538"><ele>2005</ele><time>2025-08-09T11:57:26Z</time></trkpt>
<trkpt lat="46.18369" lon="7.56538"><ele>2005</ele><time>2025-08-09T11:57:34Z</time></trkpt>
<trkpt lat="46.18369" lon="7.56538"><ele>2005</ele><time>2025-08-09T11:57:43Z</time></trkpt>
<trkpt lat="46.18369" lon="7.56538"><ele>2005</ele><time>2025-08-09T11:57:52Z</time></trkpt>
<trkpt lat="46.18369" lon="7.56538"><ele>2005</ele><time>2025-08-09T11:57:59Z</time></trkpt>
<trkpt lat="46.18369" lon="7.56538"><ele>2005</ele><time>2025-08-09T11:58:06Z</time></trkpt>
<trkpt lat="46.18369" lon="7.56538"><ele>2005</ele><time>2025-08-09T11:58:12Z</time></trkpt>
<trkpt lat="46.18369" lon="7.56538"><ele>2005</ele><time>2025-08-09T11:58:22Z</time></trkpt>
<trkpt lat="46.18369" lon="7.56538"><ele>2005</ele><time>2025-08-09T11:58:28Z</time></trkpt>
<trkpt lat="46.18369" lon="7.56538"><ele>2005</ele><time>2025-08-09T11:58:36Z</time></trkpt>
<trkpt lat="46.18369" lon="7.56539"><ele>2005</ele><time>2025-08-09T11:58:43Z</time></trkpt>
<trkpt lat="46.18369" lon="7.56539"><ele>2005</ele><time>2025-08-09T11:58:50Z</time></trkpt>
<trkpt lat="46.18369" lon="7.56538"><ele>2005</ele><time>2025-08-09T11:58:58Z</time></trkpt>
<trkpt lat="46.18369" lon="7.56538"><ele>2005</ele><time>2025-08-09T11:59:05Z</time></trkpt>
<trkpt lat="46.18369" lon="7.56538"><ele>2005</ele><time>2025-08-09T11:59:06Z</time></trkpt>
<trkpt lat="46.18369" lon="7.56538"><ele>2005</ele><time>2025-08-09T11:59:15Z</time></trkpt>
<trkpt lat="46.18369" lon="7.56539"><ele>2005</ele><time>2025-08-09T11:59:24Z</time></trkpt>
<trkpt lat="46.18369" lon="7.56539"><ele>2005</ele><time>2025-08-09T11:59:30Z</time></trkpt>
<trkpt lat="46.18369" lon="7.56538"><ele>2005</ele><time>2025-08-09T11:59:38Z</time></trkpt>
<trkpt lat="46.18369" lon="7.56538"><ele>2005</ele><time>2025-08-09T11:59:44Z</time></trkpt>
<trkpt lat="46.18372" lon="7.56535"><ele>2004.8</ele><time>2025-08-09T11:59:51Z</time></trkpt>
<trkpt lat="46.18378" lon="7.56531"><ele>2005.2</ele><time>2025-08-09T11:59:55Z</time></trkpt>
<trkpt lat="46.18382" lon="7.56531"><ele>2005.4</ele><time>2025-08-09T11:59:58Z</time></trkpt>
<trkpt lat="46.18391" lon="7.56531"><ele>2006</ele><time>2025-08-09T12:00:04Z</time></trkpt>
<trkpt lat="46.18392" lon="7.56531"><ele>2006.2</ele><time>2025-08-09T12:00:05Z</time></trkpt>
<trkpt lat="46.18393" lon="7.56532"><ele>2006.2</ele><time>2025-08-09T12:00:06Z</time></trkpt>
<trkpt lat="46.18396" lon="7.56532"><ele>2006.2</ele><time>2025-08-09T12:00:08Z</time></trkpt>
<trkpt lat="46.18397" lon="7.56531"><ele>2006.2</ele><time>2025-08-09T12:00:09Z</time></trkpt>
<trkpt lat="46.18401" lon="7.56531"><ele>2006.8</ele><time>2025-08-09T12:00:12Z</time></trkpt>
<trkpt lat="46.18407" lon="7.56531"><ele>2007.2</ele><time>2025-08-09T12:00:16Z</time></trkpt>
<trkpt lat="46.1841" lon="7.5653"><ele>2007.4</ele><time>2025-08-09T12:00:18Z</time></trkpt>
<trkpt lat="46.18418" lon="7.56528"><ele>2008</ele><time>2025-08-09T12:00:24Z</time></trkpt>
<trkpt lat="46.18422" lon="7.56527"><ele>2008.2</ele><time>2025-08-09T12:00:27Z</time></trkpt>
<trkpt lat="46.18429" lon="7.56527"><ele>2008.4</ele><time>2025-08-09T12:00:31Z</time></trkpt>
<trkpt lat="46.18439" lon="7.56528"><ele>2008.8</ele><time>2025-08-09T12:00:37Z</time></trkpt>
<trkpt lat="46.18449" lon="7.56532"><ele>2009.2</ele><time>2025-08-09T12:00:43Z</time></trkpt>
<trkpt lat="46.18451" lon="7.56533"><ele>2009.4</ele><time>2025-08-09T12:00:44Z</time></trkpt>
<trkpt lat="46.18459" lon="7.56538"><ele>2010.2</ele><time>2025-08-09T12:00:50Z</time></trkpt>
<trkpt lat="46.1846" lon="7.56539"><ele>2010.4</ele><time>2025-08-09T12:00:51Z</time></trkpt>
<trkpt lat="46.18466" lon="7.56543"><ele>2011</ele><time>2025-08-09T12:00:56Z</time></trkpt>
<trkpt lat="46.18469" lon="7.56544"><ele>2011.4</ele><time>2025-08-09T12:00:59Z</time></trkpt>
<trkpt lat="46.18472" lon="7.56546"><ele>2011.8</ele><time>2025-08-09T12:01:02Z</time></trkpt>
<trkpt lat="46.18474" lon="7.56547"><ele>2012</ele><time>2025-08-09T12:01:04Z</time></trkpt>
<trkpt lat="46.18478" lon="7.56549"><ele>2012.4</ele><time>2025-08-09T12:01:07Z</time></trkpt>
<trkpt lat="46.18479" lon="7.56549"><ele>2012.6</ele><time>2025-08-09T12:01:08Z</time></trkpt>
<trkpt lat="46.18481" lon="7.56548"><ele>2013</ele><time>2025-08-09T12:01:10Z</time></trkpt>
<trkpt lat="46.18485" lon="7.56549"><ele>2013.4</ele><time>2025-08-09T12:01:13Z</time></trkpt>
<trkpt lat="46.18487" lon="7.56549"><ele>2013.6</ele><time>2025-08-09T12:01:15Z</time></trkpt>
<trkpt lat="46.18488" lon="7.56549"><ele>2013.6</ele><time>2025-08-09T12:01:16Z</time></trkpt>
<trkpt lat="46.1849" lon="7.56549"><ele>2014</ele><time>2025-08-09T12:01:18Z</time></trkpt>
<trkpt lat="46.18491" lon="7.56549"><ele>2014.2</ele><time>2025-08-09T12:01:19Z</time></trkpt>
<trkpt lat="46.18496" lon="7.56548"><ele>2014.6</ele><time>2025-08-09T12:01:23Z</time></trkpt>
<trkpt lat="46.18498" lon="7.56549"><ele>2015</ele><time>2025-08-09T12:01:25Z</time></trkpt>
<trkpt lat="46.18501" lon="7.5655"><ele>2015.4</ele><time>2025-08-09T12:01:28Z</time></trkpt>
<trkpt lat="46.18504" lon="7.56552"><ele>2015.6</ele><time>2025-08-09T12:01:31Z</time></trkpt>
<trkpt lat="46.18507" lon="7.56553"><ele>2016.2</ele><time>2025-08-09T12:01:34Z</time></trkpt>
<trkpt lat="46.18507" lon="7.56554"><ele>2016.4</ele><time>2025-08-09T12:01:35Z</time></trkpt>
<trkpt lat="46.18509" lon="7.56556"><ele>2016.8</ele><time>2025-08-09T12:01:37Z</time></trkpt>
<trkpt lat="46.18511" lon="7.56558"><ele>2017.2</ele><time>2025-08-09T12:01:40Z</time></trkpt>
<trkpt lat="46.18513" lon="7.56559"><ele>2017.4</ele><time>2025-08-09T12:01:42Z</time></trkpt>
<trkpt lat="46.18516" lon="7.56561"><ele>2017.8</ele><time>2025-08-09T12:01:45Z</time></trkpt>
<trkpt lat="46.18518" lon="7.56562"><ele>2018.4</ele><time>2025-08-09T12:01:48Z</time></trkpt>
<trkpt lat="46.18522" lon="7.56563"><ele>2019</ele><time>2025-08-09T12:01:52Z</time></trkpt>
<trkpt lat="46.18523" lon="7.56563"><ele>2019</ele><time>2025-08-09T12:01:53Z</time></trkpt>
<trkpt lat="46.18529" lon="7.56565"><ele>2019.8</ele><time>2025-08-09T12:02:00Z</time></trkpt>
<trkpt lat="46.1853" lon="7.56566"><ele>2020</ele><time>2025-08-09T12:02:02Z</time></trkpt>
<trkpt lat="46.18534" lon="7.56565"><ele>2020.8</ele><time>2025-08-09T12:02:07Z</time></trkpt>
<trkpt lat="46.18536" lon="7.56564"><ele>2021.2</ele><time>2025-08-09T12:02:10Z</time></trkpt>
<trkpt lat="46.18539" lon="7.56565"><ele>2021.6</ele><time>2025-08-09T12:02:13Z</time></trkpt>
<trkpt lat="46.18543" lon="7.56564"><ele>2022</ele><time>2025-08-09T12:02:17Z</time></trkpt>
<trkpt lat="46.18543" lon="7.56565"><ele>2022.2</ele><time>2025-08-09T12:02:18Z</time></trkpt>
<trkpt lat="46.18544" lon="7.56564"><ele>2022.4</ele><time>2025-08-09T12:02:19Z</time></trkpt>
<trkpt lat="46.18547" lon="7.56565"><ele>2022.8</ele><time>2025-08-09T12:02:22Z</time></trkpt>
<trkpt lat="46.18548" lon="7.56565"><ele>2023.2</ele><time>2025-08-09T12:02:24Z</time></trkpt>
<trkpt lat="46.1855" lon="7.56566"><ele>2023.4</ele><time>2025-08-09T12:02:26Z</time></trkpt>
<trkpt lat="46.18551" lon="7.56567"><ele>2023.6</ele><time>2025-08-09T12:02:27Z</time></trkpt>
<trkpt lat="46.18556" lon="7.56567"><ele>2024.2</ele><time>2025-08-09T12:02:32Z</time></trkpt>
<trkpt lat="46.18557" lon="7.56566"><ele>2024.4</ele><time>2025-08-09T12:02:33Z</time></trkpt>
<trkpt lat="46.18558" lon="7.56566"><ele>2024.6</ele><time>2025-08-09T12:02:34Z</time></trkpt>
<trkpt lat="46.18562" lon="7.56565"><ele>2025</ele><time>2025-08-09T12:02:38Z</time></trkpt>
<trkpt lat="46.18567" lon="7.56564"><ele>2025.6</ele><time>2025-08-09T12:02:43Z</time></trkpt>
<trkpt lat="46.1857" lon="7.56564"><ele>2026</ele><time>2025-08-09T12:02:46Z</time></trkpt>
<trkpt lat="46.18575" lon="7.56567"><ele>2026.6</ele><time>2025-08-09T12:02:51Z</time></trkpt>
<trkpt lat="46.18576" lon="7.56568"><ele>2026.8</ele><time>2025-08-09T12:02:52Z</time></trkpt>
<trkpt lat="46.18577" lon="7.56569"><ele>2026.8</ele><time>2025-08-09T12:02:53Z</time></trkpt>
<trkpt lat="46.18581" lon="7.56568"><ele>2027.2</ele><time>2025-08-09T12:02:57Z</time></trkpt>
<trkpt lat="46.18585" lon="7.5657"><ele>2027.6</ele><time>2025-08-09T12:03:01Z</time></trkpt>
<trkpt lat="46.18587" lon="7.56571"><ele>2028</ele><time>2025-08-09T12:03:03Z</time></trkpt>
<trkpt lat="46.18592" lon="7.56573"><ele>2028.8</ele><time>2025-08-09T12:03:09Z</time></trkpt>
<trkpt lat="46.18593" lon="7.56573"><ele>2029</ele><time>2025-08-09T12:03:10Z</time></trkpt>
<trkpt lat="46.18601" lon="7.56578"><ele>2029.8</ele><time>2025-08-09T12:03:18Z</time></trkpt>
<trkpt lat="46.18606" lon="7.56584"><ele>2030.6</ele><time>2025-08-09T12:03:24Z</time></trkpt>
<trkpt lat="46.18608" lon="7.56586"><ele>2030.8</ele><time>2025-08-09T12:03:26Z</time></trkpt>
<trkpt lat="46.18613" lon="7.5659"><ele>2031.8</ele><time>2025-08-09T12:03:32Z</time></trkpt>
<trkpt lat="46.18614" lon="7.56593"><ele>2032</ele><time>2025-08-09T12:03:34Z</time></trkpt>
<trkpt lat="46.18616" lon="7.56598"><ele>2032.4</ele><time>2025-08-09T12:03:38Z</time></trkpt>
<trkpt lat="46.18616" lon="7.56599"><ele>2032.6</ele><time>2025-08-09T12:03:39Z</time></trkpt>
<trkpt lat="46.1862" lon="7.56601"><ele>2033.2</ele><time>2025-08-09T12:03:43Z</time></trkpt>
<trkpt lat="46.18622" lon="7.56603"><ele>2033.4</ele><time>2025-08-09T12:03:45Z</time></trkpt>
<trkpt lat="46.18626" lon="7.56607"><ele>2034.2</ele><time>2025-08-09T12:03:51Z</time></trkpt>
<trkpt lat="46.18627" lon="7.56608"><ele>2034.4</ele><time>2025-08-09T12:03:52Z</time></trkpt>
<trkpt lat="46.18633" lon="7.56613"><ele>2035.4</ele><time>2025-08-09T12:03:59Z</time></trkpt>
<trkpt lat="46.18637" lon="7.56615"><ele>2036.4</ele><time>2025-08-09T12:04:04Z</time></trkpt>
<trkpt lat="46.18639" lon="7.56617"><ele>2036.8</ele><time>2025-08-09T12:04:06Z</time></trkpt>
<trkpt lat="46.18642" lon="7.56618"><ele>2037.4</ele><time>2025-08-09T12:04:10Z</time></trkpt>
<trkpt lat="46.18646" lon="7.5662"><ele>2038</ele><time>2025-08-09T12:04:14Z</time></trkpt>
<trkpt lat="46.18649" lon="7.56622"><ele>2038.6</ele><time>2025-08-09T12:04:18Z</time></trkpt>
<trkpt lat="46.18655" lon="7.56625"><ele>2039</ele><time>2025-08-09T12:04:23Z</time></trkpt>
<trkpt lat="46.18658" lon="7.56629"><ele>2039.6</ele><time>2025-08-09T12:04:27Z</time></trkpt>
<trkpt lat="46.18663" lon="7.56633"><ele>2040.4</ele><time>2025-08-09T12:04:32Z</time></trkpt>
<trkpt lat="46.18665" lon="7.56635"><ele>2040.8</ele><time>2025-08-09T12:04:35Z</time></trkpt>
<trkpt lat="46.18669" lon="7.56638"><ele>2041.4</ele><time>2025-08-09T12:04:39Z</time></trkpt>
<trkpt lat="46.18671" lon="7.56639"><ele>2041.8</ele><time>2025-08-09T12:04:41Z</time></trkpt>
<trkpt lat="46.18675" lon="7.5664"><ele>2042.2</ele><time>2025-08-09T12:04:45Z</time></trkpt>
<trkpt lat="46.18676" lon="7.5664"><ele>2042.4</ele><time>2025-08-09T12:04:46Z</time></trkpt>
<trkpt lat="46.1868" lon="7.5664"><ele>2042.8</ele><time>2025-08-09T12:04:50Z</time></trkpt>
<trkpt lat="46.18682" lon="7.5664"><ele>2043.2</ele><time>2025-08-09T12:04:52Z</time></trkpt>
<trkpt lat="46.18687" lon="7.56639"><ele>2044</ele><time>2025-08-09T12:04:57Z</time></trkpt>
<trkpt lat="46.18688" lon="7.5664"><ele>2044.2</ele><time>2025-08-09T12:04:58Z</time></trkpt>
<trkpt lat="46.18693" lon="7.56642"><ele>2044.8</ele><time>2025-08-09T12:05:03Z</time></trkpt>
<trkpt lat="46.18695" lon="7.56643"><ele>2045</ele><time>2025-08-09T12:05:05Z</time></trkpt>
<trkpt lat="46.18701" lon="7.56643"><ele>2045.8</ele><time>2025-08-09T12:05:11Z</time></trkpt>
<trkpt lat="46.18702" lon="7.56643"><ele>2046</ele><time>2025-08-09T12:05:13Z</time></trkpt>
<trkpt lat="46.18709" lon="7.56643"><ele>2047</ele><time>2025-08-09T12:05:19Z</time></trkpt>
<trkpt lat="46.1871" lon="7.56643"><ele>2047.2</ele><time>2025-08-09T12:05:20Z</time></trkpt>
<trkpt lat="46.18716" lon="7.56644"><ele>2047.8</ele><time>2025-08-09T12:05:26Z</time></trkpt>
<trkpt lat="46.18719" lon="7.56644"><ele>2048.2</ele><time>2025-08-09T12:05:29Z</time></trkpt>
<trkpt lat="46.18722" lon="7.56644"><ele>2048.6</ele><time>2025-08-09T12:05:32Z</time></trkpt>
<trkpt lat="46.18728" lon="7.56641"><ele>2049.2</ele><time>2025-08-09T12:05:38Z</time></trkpt>
<trkpt lat="46.1873" lon="7.56637"><ele>2049.8</ele><time>2025-08-09T12:05:42Z</time></trkpt>
<trkpt lat="46.1873" lon="7.56636"><ele>2049.8</ele><time>2025-08-09T12:05:43Z</time></trkpt>
<trkpt lat="46.18729" lon="7.56633"><ele>2050.4</ele><time>2025-08-09T12:05:46Z</time></trkpt>
<trkpt lat="46.18728" lon="7.56631"><ele>2050.6</ele><time>2025-08-09T12:05:47Z</time></trkpt>
<trkpt lat="46.18727" lon="7.5663"><ele>2050.8</ele><time>2025-08-09T12:05:49Z</time></trkpt>
<trkpt lat="46.18723" lon="7.56627"><ele>2051.4</ele><time>2025-08-09T12:05:53Z</time></trkpt>
<trkpt lat="46.18722" lon="7.56625"><ele>2051.8</ele><time>2025-08-09T12:05:55Z</time></trkpt>
<trkpt lat="46.18717" lon="7.5662"><ele>2052.6</ele><time>2025-08-09T12:06:00Z</time></trkpt>
<trkpt lat="46.18717" lon="7.56619"><ele>2052.8</ele><time>2025-08-09T12:06:01Z</time></trkpt>
<trkpt lat="46.18712" lon="7.56614"><ele>2053.4</ele><time>2025-08-09T12:06:07Z</time></trkpt>
<trkpt lat="46.18711" lon="7.56613"><ele>2053.6</ele><time>2025-08-09T12:06:08Z</time></trkpt>
<trkpt lat="46.18706" lon="7.56607"><ele>2054.6</ele><time>2025-08-09T12:06:14Z</time></trkpt>
<trkpt lat="46.18705" lon="7.56605"><ele>2054.6</ele><time>2025-08-09T12:06:15Z</time></trkpt>
<trkpt lat="46.18703" lon="7.56596"><ele>2055.4</ele><time>2025-08-09T12:06:21Z</time></trkpt>
<trkpt lat="46.18702" lon="7.56591"><ele>2055.8</ele><time>2025-08-09T12:06:24Z</time></trkpt>
<trkpt lat="46.18697" lon="7.56584"><ele>2056.2</ele><time>2025-08-09T12:06:29Z</time></trkpt>
<trkpt lat="46.18693" lon="7.5658"><ele>2056.8</ele><time>2025-08-09T12:06:33Z</time></trkpt>
<trkpt lat="46.18691" lon="7.56578"><ele>2057.2</ele><time>2025-08-09T12:06:35Z</time></trkpt>
<trkpt lat="46.18687" lon="7.56572"><ele>2057.8</ele><time>2025-08-09T12:06:40Z</time></trkpt>
<trkpt lat="46.18685" lon="7.56569"><ele>2058.4</ele><time>2025-08-09T12:06:43Z</time></trkpt>
<trkpt lat="46.1868" lon="7.56566"><ele>2059</ele><time>2025-08-09T12:06:47Z</time></trkpt>
<trkpt lat="46.18676" lon="7.56564"><ele>2059.6</ele><time>2025-08-09T12:06:51Z</time></trkpt>
<trkpt lat="46.18673" lon="7.5656"><ele>2060.2</ele><time>2025-08-09T12:06:55Z</time></trkpt>
<trkpt lat="46.1867" lon="7.56557"><ele>2060.6</ele><time>2025-08-09T12:06:58Z</time></trkpt>
<trkpt lat="46.18668" lon="7.56553"><ele>2061.2</ele><time>2025-08-09T12:07:01Z</time></trkpt>
<trkpt lat="46.18665" lon="7.56549"><ele>2061.8</ele><time>2025-08-09T12:07:05Z</time></trkpt>
<trkpt lat="46.18663" lon="7.56546"><ele>2062.2</ele><time>2025-08-09T12:07:08Z</time></trkpt>
<trkpt lat="46.18661" lon="7.5654"><ele>2063</ele><time>2025-08-09T12:07:12Z</time></trkpt>
<trkpt lat="46.18661" lon="7.56538"><ele>2063.2</ele><time>2025-08-09T12:07:13Z</time></trkpt>
<trkpt lat="46.1866" lon="7.56537"><ele>2063.2</ele><time>2025-08-09T12:07:14Z</time></trkpt>
<trkpt lat="46.18655" lon="7.5653"><ele>2064</ele><time>2025-08-09T12:07:20Z</time></trkpt>
<trkpt lat="46.18654" lon="7.56529"><ele>2064</ele><time>2025-08-09T12:07:21Z</time></trkpt>
<trkpt lat="46.18652" lon="7.56525"><ele>2064.4</ele><time>2025-08-09T12:07:24Z</time></trkpt>
<trkpt lat="46.18649" lon="7.56521"><ele>2065</ele><time>2025-08-09T12:07:28Z</time></trkpt>
<trkpt lat="46.18646" lon="7.56518"><ele>2065.6</ele><time>2025-08-09T12:07:32Z</time></trkpt>
<trkpt lat="46.18645" lon="7.56517"><ele>2065.6</ele><time>2025-08-09T12:07:33Z</time></trkpt>
<trkpt lat="46.18641" lon="7.56514"><ele>2066.2</ele><time>2025-08-09T12:07:36Z</time></trkpt>
<trkpt lat="46.18636" lon="7.56506"><ele>2066.6</ele><time>2025-08-09T12:07:42Z</time></trkpt>
<trkpt lat="46.18635" lon="7.56503"><ele>2066.8</ele><time>2025-08-09T12:07:44Z</time></trkpt>
<trkpt lat="46.18629" lon="7.56493"><ele>2067.6</ele><time>2025-08-09T12:07:51Z</time></trkpt>
<trkpt lat="46.18628" lon="7.56492"><ele>2067.8</ele><time>2025-08-09T12:07:52Z</time></trkpt>
<trkpt lat="46.18621" lon="7.56483"><ele>2068.8</ele><time>2025-08-09T12:07:59Z</time></trkpt>
<trkpt lat="46.18612" lon="7.56473"><ele>2069.6</ele><time>2025-08-09T12:08:07Z</time></trkpt>
<trkpt lat="46.18611" lon="7.56472"><ele>2069.8</ele><time>2025-08-09T12:08:08Z</time></trkpt>
<trkpt lat="46.18603" lon="7.56465"><ele>2070.8</ele><time>2025-08-09T12:08:16Z</time></trkpt>
<trkpt lat="46.18602" lon="7.56464"><ele>2070.8</ele><time>2025-08-09T12:08:17Z</time></trkpt>
<trkpt lat="46.18598" lon="7.56461"><ele>2071.4</ele><time>2025-08-09T12:08:21Z</time></trkpt>
<trkpt lat="46.18594" lon="7.56459"><ele>2071.8</ele><time>2025-08-09T12:08:25Z</time></trkpt>
<trkpt lat="46.18592" lon="7.56458"><ele>2072</ele><time>2025-08-09T12:08:27Z</time></trkpt>
<trkpt lat="46.18587" lon="7.56453"><ele>2072.4</ele><time>2025-08-09T12:08:32Z</time></trkpt>
<trkpt lat="46.18583" lon="7.56447"><ele>2072.8</ele><time>2025-08-09T12:08:38Z</time></trkpt>
<trkpt lat="46.18581" lon="7.56443"><ele>2073</ele><time>2025-08-09T12:08:41Z</time></trkpt>
<trkpt lat="46.18577" lon="7.56435"><ele>2073.6</ele><time>2025-08-09T12:08:47Z</time></trkpt>
<trkpt lat="46.18572" lon="7.56429"><ele>2074</ele><time>2025-08-09T12:08:52Z</time></trkpt>
<trkpt lat="46.18571" lon="7.56426"><ele>2074.2</ele><time>2025-08-09T12:08:54Z</time></trkpt>
<trkpt lat="46.18565" lon="7.56421"><ele>2075</ele><time>2025-08-09T12:09:01Z</time></trkpt>
<trkpt lat="46.18564" lon="7.56419"><ele>2075.2</ele><time>2025-08-09T12:09:02Z</time></trkpt>
<trkpt lat="46.18557" lon="7.56411"><ele>2076</ele><time>2025-08-09T12:09:10Z</time></trkpt>
<trkpt lat="46.18556" lon="7.56411"><ele>2076</ele><time>2025-08-09T12:09:11Z</time></trkpt>
<trkpt lat="46.18553" lon="7.56406"><ele>2076.8</ele><time>2025-08-09T12:09:16Z</time></trkpt>
<trkpt lat="46.18551" lon="7.56403"><ele>2077</ele><time>2025-08-09T12:09:20Z</time></trkpt>
<trkpt lat="46.18549" lon="7.56401"><ele>2077.4</ele><time>2025-08-09T12:09:23Z</time></trkpt>
<trkpt lat="46.18548" lon="7.56399"><ele>2077.6</ele><time>2025-08-09T12:09:24Z</time></trkpt>
<trkpt lat="46.18546" lon="7.56395"><ele>2078</ele><time>2025-08-09T12:09:28Z</time></trkpt>
<trkpt lat="46.18544" lon="7.56394"><ele>2078.2</ele><time>2025-08-09T12:09:30Z</time></trkpt>
<trkpt lat="46.18543" lon="7.56393"><ele>2078.4</ele><time>2025-08-09T12:09:32Z</time></trkpt>
<trkpt lat="46.18543" lon="7.56392"><ele>2078.6</ele><time>2025-08-09T12:09:33Z</time></trkpt>
<trkpt lat="46.1854" lon="7.5639"><ele>2079.2</ele><time>2025-08-09T12:09:38Z</time></trkpt>
<trkpt lat="46.1854" lon="7.56389"><ele>2079.2</ele><time>2025-08-09T12:09:39Z</time></trkpt>
<trkpt lat="46.18536" lon="7.56389"><ele>2079.8</ele><time>2025-08-09T12:09:43Z</time></trkpt>
<trkpt lat="46.18533" lon="7.56387"><ele>2080.4</ele><time>2025-08-09T12:09:46Z</time></trkpt>
<trkpt lat="46.18532" lon="7.56386"><ele>2080.6</ele><time>2025-08-09T12:09:48Z</time></trkpt>
<trkpt lat="46.18528" lon="7.56385"><ele>2081.4</ele><time>2025-08-09T12:09:53Z</time></trkpt>
<trkpt lat="46.18527" lon="7.56384"><ele>2081.6</ele><time>2025-08-09T12:09:54Z</time></trkpt>
<trkpt lat="46.18526" lon="7.56383"><ele>2081.8</ele><time>2025-08-09T12:09:55Z</time></trkpt>
<trkpt lat="46.18523" lon="7.56378"><ele>2082.6</ele><time>2025-08-09T12:09:59Z</time></trkpt>
<trkpt lat="46.18522" lon="7.56377"><ele>2082.8</ele><time>2025-08-09T12:10:00Z</time></trkpt>
<trkpt lat="46.18517" lon="7.56371"><ele>2083.6</ele><time>2025-08-09T12:10:07Z</time></trkpt>
<trkpt lat="46.18517" lon="7.56371"><ele>2083.6</ele><time>2025-08-09T12:10:08Z</time></trkpt>
<trkpt lat="46.18511" lon="7.56367"><ele>2084.6</ele><time>2025-08-09T12:10:15Z</time></trkpt>
<trkpt lat="46.18507" lon="7.56364"><ele>2085.6</ele><time>2025-08-09T12:10:20Z</time></trkpt>
<trkpt lat="46.18507" lon="7.56363"><ele>2085.6</ele><time>2025-08-09T12:10:21Z</time></trkpt>
<trkpt lat="46.18503" lon="7.5636"><ele>2086.2</ele><time>2025-08-09T12:10:26Z</time></trkpt>
<trkpt lat="46.18501" lon="7.56357"><ele>2086.8</ele><time>2025-08-09T12:10:29Z</time></trkpt>
<trkpt lat="46.18496" lon="7.56356"><ele>2087.4</ele><time>2025-08-09T12:10:34Z</time></trkpt>
<trkpt lat="46.18494" lon="7.56355"><ele>2087.8</ele><time>2025-08-09T12:10:37Z</time></trkpt>
<trkpt lat="46.18492" lon="7.56353"><ele>2088.2</ele><time>2025-08-09T12:10:40Z</time></trkpt>
<trkpt lat="46.18492" lon="7.56353"><ele>2088.4</ele><time>2025-08-09T12:10:41Z</time></trkpt>
<trkpt lat="46.18488" lon="7.5635"><ele>2089</ele><time>2025-08-09T12:10:46Z</time></trkpt>
<trkpt lat="46.18488" lon="7.56349"><ele>2089</ele><time>2025-08-09T12:10:47Z</time></trkpt>
<trkpt lat="46.18487" lon="7.56347"><ele>2089.4</ele><time>2025-08-09T12:10:49Z</time></trkpt>
<trkpt lat="46.18485" lon="7.56345"><ele>2089.8</ele><time>2025-08-09T12:10:52Z</time></trkpt>
<trkpt lat="46.18483" lon="7.56344"><ele>2090</ele><time>2025-08-09T12:10:54Z</time></trkpt>
<trkpt lat="46.18481" lon="7.56342"><ele>2090.6</ele><time>2025-08-09T12:10:58Z</time></trkpt>
<trkpt lat="46.18478" lon="7.5634"><ele>2091</ele><time>2025-08-09T12:11:01Z</time></trkpt>
<trkpt lat="46.18475" lon="7.56338"><ele>2091.6</ele><time>2025-08-09T12:11:05Z</time></trkpt>
<trkpt lat="46.18471" lon="7.56332"><ele>2092.2</ele><time>2025-08-09T12:11:10Z</time></trkpt>
<trkpt lat="46.1847" lon="7.56331"><ele>2092.2</ele><time>2025-08-09T12:11:11Z</time></trkpt>
<trkpt lat="46.18464" lon="7.56322"><ele>2093.2</ele><time>2025-08-09T12:11:19Z</time></trkpt>
<trkpt lat="46.18463" lon="7.5632"><ele>2093.4</ele><time>2025-08-09T12:11:21Z</time></trkpt>
<trkpt lat="46.18458" lon="7.56312"><ele>2094.4</ele><time>2025-08-09T12:11:28Z</time></trkpt>
<trkpt lat="46.18455" lon="7.56305"><ele>2095.2</ele><time>2025-08-09T12:11:35Z</time></trkpt>
<trkpt lat="46.18456" lon="7.56304"><ele>2095.4</ele><time>2025-08-09T12:11:36Z</time></trkpt>
<trkpt lat="46.18454" lon="7.56301"><ele>2095.6</ele><time>2025-08-09T12:11:39Z</time></trkpt>
<trkpt lat="46.18453" lon="7.563"><ele>2095.8</ele><time>2025-08-09T12:11:40Z</time></trkpt>
<trkpt lat="46.18453" lon="7.56296"><ele>2096.4</ele><time>2025-08-09T12:11:43Z</time></trkpt>
<trkpt lat="46.18453" lon="7.56295"><ele>2096.6</ele><time>2025-08-09T12:11:44Z</time></trkpt>
<trkpt lat="46.18452" lon="7.56293"><ele>2096.8</ele><time>2025-08-09T12:11:46Z</time></trkpt>
<trkpt lat="46.1845" lon="7.5629"><ele>2097.2</ele><time>2025-08-09T12:11:49Z</time></trkpt>
<trkpt lat="46.18449" lon="7.56289"><ele>2097.4</ele><time>2025-08-09T12:11:51Z</time></trkpt>
<trkpt lat="46.18447" lon="7.56287"><ele>2097.8</ele><time>2025-08-09T12:11:53Z</time></trkpt>
<trkpt lat="46.18445" lon="7.5628"><ele>2098.6</ele><time>2025-08-09T12:11:59Z</time></trkpt>
<trkpt lat="46.18444" lon="7.56275"><ele>2099.4</ele><time>2025-08-09T12:12:04Z</time></trkpt>
<trkpt lat="46.18443" lon="7.56271"><ele>2099.8</ele><time>2025-08-09T12:12:06Z</time></trkpt>
<trkpt lat="46.18443" lon="7.5627"><ele>2100</ele><time>2025-08-09T12:12:07Z</time></trkpt>
<trkpt lat="46.18441" lon="7.56262"><ele>2100.8</ele><time>2025-08-09T12:12:12Z</time></trkpt>
<trkpt lat="46.1844" lon="7.56259"><ele>2101.2</ele><time>2025-08-09T12:12:14Z</time></trkpt>
<trkpt lat="46.18439" lon="7.56253"><ele>2102</ele><time>2025-08-09T12:12:18Z</time></trkpt>
<trkpt lat="46.18438" lon="7.56252"><ele>2102.2</ele><time>2025-08-09T12:12:19Z</time></trkpt>
<trkpt lat="46.18438" lon="7.56243"><ele>2103</ele><time>2025-08-09T12:12:24Z</time></trkpt>
<trkpt lat="46.18438" lon="7.56242"><ele>2103.2</ele><time>2025-08-09T12:12:25Z</time></trkpt>
<trkpt lat="46.18436" lon="7.56234"><ele>2104.2</ele><time>2025-08-09T12:12:31Z</time></trkpt>
<trkpt lat="46.18434" lon="7.56226"><ele>2105.4</ele><time>2025-08-09T12:12:37Z</time></trkpt>
<trkpt lat="46.18433" lon="7.56224"><ele>2105.4</ele><time>2025-08-09T12:12:38Z</time></trkpt>
<trkpt lat="46.1843" lon="7.56216"><ele>2106.2</ele><time>2025-08-09T12:12:44Z</time></trkpt>
<trkpt lat="46.1843" lon="7.56214"><ele>2106.4</ele><time>2025-08-09T12:12:45Z</time></trkpt>
<trkpt lat="46.18426" lon="7.56205"><ele>2107</ele><time>2025-08-09T12:12:51Z</time></trkpt>
<trkpt lat="46.18425" lon="7.56201"><ele>2107.4</ele><time>2025-08-09T12:12:54Z</time></trkpt>
<trkpt lat="46.18424" lon="7.56195"><ele>2108.2</ele><time>2025-08-09T12:12:58Z</time></trkpt>
<trkpt lat="46.18423" lon="7.5619"><ele>2108.6</ele><time>2025-08-09T12:13:01Z</time></trkpt>
<trkpt lat="46.18422" lon="7.56184"><ele>2108.8</ele><time>2025-08-09T12:13:04Z</time></trkpt>
<trkpt lat="46.18419" lon="7.56172"><ele>2109.4</ele><time>2025-08-09T12:13:10Z</time></trkpt>
<trkpt lat="46.18419" lon="7.5617"><ele>2109.6</ele><time>2025-08-09T12:13:11Z</time></trkpt>
<trkpt lat="46.18415" lon="7.56156"><ele>2110.6</ele><time>2025-08-09T12:13:19Z</time></trkpt>
<trkpt lat="46.18415" lon="7.56152"><ele>2110.8</ele><time>2025-08-09T12:13:21Z</time></trkpt>
<trkpt lat="46.18413" lon="7.56139"><ele>2111.4</ele><time>2025-08-09T12:13:27Z</time></trkpt>
<trkpt lat="46.1841" lon="7.56121"><ele>2111.4</ele><time>2025-08-09T12:13:34Z</time></trkpt>
<trkpt lat="46.18403" lon="7.56105"><ele>2111.8</ele><time>2025-08-09T12:13:40Z</time></trkpt>
<trkpt lat="46.18401" lon="7.56103"><ele>2112</ele><time>2025-08-09T12:13:41Z</time></trkpt>
<trkpt lat="46.18393" lon="7.56092"><ele>2113</ele><time>2025-08-09T12:13:48Z</time></trkpt>
<trkpt lat="46.18392" lon="7.5609"><ele>2113</ele><time>2025-08-09T12:13:49Z</time></trkpt>
<trkpt lat="46.18387" lon="7.56083"><ele>2114</ele><time>2025-08-09T12:13:54Z</time></trkpt>
<trkpt lat="46.18383" lon="7.56076"><ele>2114.4</ele><time>2025-08-09T12:13:58Z</time></trkpt>
<trkpt lat="46.18375" lon="7.56062"><ele>2115</ele><time>2025-08-09T12:14:05Z</time></trkpt>
<trkpt lat="46.18366" lon="7.5604"><ele>2116.2</ele><time>2025-08-09T12:14:15Z</time></trkpt>
<trkpt lat="46.18362" lon="7.56028"><ele>2117.2</ele><time>2025-08-09T12:14:21Z</time></trkpt>
<trkpt lat="46.1836" lon="7.5602"><ele>2117.6</ele><time>2025-08-09T12:14:25Z</time></trkpt>
<trkpt lat="46.18357" lon="7.56007"><ele>2118.2</ele><time>2025-08-09T12:14:31Z</time></trkpt>
<trkpt lat="46.18357" lon="7.56005"><ele>2118.2</ele><time>2025-08-09T12:14:32Z</time></trkpt>
<trkpt lat="46.18355" lon="7.55993"><ele>2118.8</ele><time>2025-08-09T12:14:38Z</time></trkpt>
<trkpt lat="46.18354" lon="7.55977"><ele>2119.4</ele><time>2025-08-09T12:14:45Z</time></trkpt>
<trkpt lat="46.18354" lon="7.55974"><ele>2119.6</ele><time>2025-08-09T12:14:47Z</time></trkpt>
<trkpt lat="46.18352" lon="7.55963"><ele>2120.4</ele><time>2025-08-09T12:14:52Z</time></trkpt>
<trkpt lat="46.18352" lon="7.55961"><ele>2120.6</ele><time>2025-08-09T12:14:53Z</time></trkpt>
<trkpt lat="46.18353" lon="7.55951"><ele>2121.4</ele><time>2025-08-09T12:14:59Z</time></trkpt>
<trkpt lat="46.18353" lon="7.55949"><ele>2121.4</ele><time>2025-08-09T12:15:00Z</time></trkpt>
<trkpt lat="46.18351" lon="7.55941"><ele>2121.8</ele><time>2025-08-09T12:15:04Z</time></trkpt>
<trkpt lat="46.1835" lon="7.55933"><ele>2122.6</ele><time>2025-08-09T12:15:08Z</time></trkpt>
<trkpt lat="46.18348" lon="7.55925"><ele>2123.2</ele><time>2025-08-09T12:15:12Z</time></trkpt>
<trkpt lat="46.18347" lon="7.55917"><ele>2123.6</ele><time>2025-08-09T12:15:16Z</time></trkpt>
<trkpt lat="46.18346" lon="7.55906"><ele>2124.2</ele><time>2025-08-09T12:15:21Z</time></trkpt>
<trkpt lat="46.18344" lon="7.559"><ele>2124.8</ele><time>2025-08-09T12:15:24Z</time></trkpt>
<trkpt lat="46.18343" lon="7.55894"><ele>2125.2</ele><time>2025-08-09T12:15:27Z</time></trkpt>
<trkpt lat="46.18343" lon="7.55885"><ele>2125.8</ele><time>2025-08-09T12:15:31Z</time></trkpt>
<trkpt lat="46.18342" lon="7.55879"><ele>2126.2</ele><time>2025-08-09T12:15:34Z</time></trkpt>
<trkpt lat="46.18339" lon="7.55865"><ele>2126.8</ele><time>2025-08-09T12:15:40Z</time></trkpt>
<trkpt lat="46.18338" lon="7.55863"><ele>2126.8</ele><time>2025-08-09T12:15:41Z</time></trkpt>
<trkpt lat="46.18336" lon="7.55842"><ele>2127.6</ele><time>2025-08-09T12:15:49Z</time></trkpt>
<trkpt lat="46.18335" lon="7.55836"><ele>2127.8</ele><time>2025-08-09T12:15:51Z</time></trkpt>
<trkpt lat="46.18331" lon="7.55813"><ele>2128.6</ele><time>2025-08-09T12:15:59Z</time></trkpt>
<trkpt lat="46.18331" lon="7.55807"><ele>2128.8</ele><time>2025-08-09T12:16:01Z</time></trkpt>
<trkpt lat="46.18328" lon="7.55788"><ele>2129.4</ele><time>2025-08-09T12:16:07Z</time></trkpt>
<trkpt lat="46.18327" lon="7.55768"><ele>2130</ele><time>2025-08-09T12:16:13Z</time></trkpt>
<trkpt lat="46.18326" lon="7.55766"><ele>2130</ele><time>2025-08-09T12:16:14Z</time></trkpt>
<trkpt lat="46.18326" lon="7.55761"><ele>2130.4</ele><time>2025-08-09T12:16:19Z</time></trkpt>
<trkpt lat="46.18326" lon="7.55762"><ele>2130.2</ele><time>2025-08-09T12:16:26Z</time></trkpt>
<trkpt lat="46.18323" lon="7.55745"><ele>2129.6</ele><time>2025-08-09T12:16:30Z</time></trkpt>
<trkpt lat="46.18317" lon="7.55718"><ele>2128.8</ele><time>2025-08-09T12:16:34Z</time></trkpt>
<trkpt lat="46.18312" lon="7.55703"><ele>2128.6</ele><time>2025-08-09T12:16:36Z</time></trkpt>
<trkpt lat="46.18304" lon="7.55689"><ele>2127.8</ele><time>2025-08-09T12:16:38Z</time></trkpt>
<trkpt lat="46.18291" lon="7.55671"><ele>2127.2</ele><time>2025-08-09T12:16:41Z</time></trkpt>
<trkpt lat="46.18279" lon="7.55652"><ele>2126.6</ele><time>2025-08-09T12:16:44Z</time></trkpt>
<trkpt lat="46.18271" lon="7.55635"><ele>2125.6</ele><time>2025-08-09T12:16:46Z</time></trkpt>
<trkpt lat="46.18266" lon="7.55626"><ele>2125.2</ele><time>2025-08-09T12:16:47Z</time></trkpt>
<trkpt lat="46.18262" lon="7.55616"><ele>2124</ele><time>2025-08-09T12:16:48Z</time></trkpt>
<trkpt lat="46.18255" lon="7.55596"><ele>2122.4</ele><time>2025-08-09T12:16:50Z</time></trkpt>
<trkpt lat="46.18251" lon="7.55586"><ele>2122.2</ele><time>2025-08-09T12:16:51Z</time></trkpt>
<trkpt lat="46.18245" lon="7.55577"><ele>2122</ele><time>2025-08-09T12:16:52Z</time></trkpt>
<trkpt lat="46.18232" lon="7.5557"><ele>2121.6</ele><time>2025-08-09T12:16:54Z</time></trkpt>
<trkpt lat="46.1822" lon="7.55573"><ele>2121.8</ele><time>2025-08-09T12:16:56Z</time></trkpt>
<trkpt lat="46.18215" lon="7.55577"><ele>2121.8</ele><time>2025-08-09T12:16:57Z</time></trkpt>
<trkpt lat="46.18211" lon="7.55583"><ele>2121.4</ele><time>2025-08-09T12:16:58Z</time></trkpt>
<trkpt lat="46.18206" lon="7.55595"><ele>2121.2</ele><time>2025-08-09T12:17:00Z</time></trkpt>
<trkpt lat="46.18205" lon="7.55601"><ele>2121</ele><time>2025-08-09T12:17:01Z</time></trkpt>
<trkpt lat="46.18199" lon="7.55632"><ele>2121</ele><time>2025-08-09T12:17:07Z</time></trkpt>
<trkpt lat="46.18193" lon="7.55659"><ele>2121.6</ele><time>2025-08-09T12:17:13Z</time></trkpt>
<trkpt lat="46.18186" lon="7.55692"><ele>2122.2</ele><time>2025-08-09T12:17:19Z</time></trkpt>
<trkpt lat="46.18186" lon="7.55698"><ele>2122.2</ele><time>2025-08-09T12:17:20Z</time></trkpt>
<trkpt lat="46.18188" lon="7.55732"><ele>2121.4</ele><time>2025-08-09T12:17:25Z</time></trkpt>
<trkpt lat="46.18186" lon="7.5574"><ele>2121.2</ele><time>2025-08-09T12:17:26Z</time></trkpt>
<trkpt lat="46.18183" lon="7.55745"><ele>2121.2</ele><time>2025-08-09T12:17:27Z</time></trkpt>
<trkpt lat="46.18179" lon="7.55748"><ele>2121.2</ele><time>2025-08-09T12:17:28Z</time></trkpt>
<trkpt lat="46.18169" lon="7.55751"><ele>2121.8</ele><time>2025-08-09T12:17:31Z</time></trkpt>
<trkpt lat="46.18164" lon="7.5575"><ele>2122.4</ele><time>2025-08-09T12:17:33Z</time></trkpt>
<trkpt lat="46.18158" lon="7.55746"><ele>2123</ele><time>2025-08-09T12:17:36Z</time></trkpt>
<trkpt lat="46.18154" lon="7.55743"><ele>2123.4</ele><time>2025-08-09T12:17:39Z</time></trkpt>
<trkpt lat="46.18149" lon="7.5574"><ele>2124</ele><time>2025-08-09T12:17:42Z</time></trkpt>
<trkpt lat="46.18144" lon="7.55736"><ele>2124.6</ele><time>2025-08-09T12:17:45Z</time></trkpt>
<trkpt lat="46.18138" lon="7.55732"><ele>2125</ele><time>2025-08-09T12:17:48Z</time></trkpt>
<trkpt lat="46.18121" lon="7.55728"><ele>2125</ele><time>2025-08-09T12:17:55Z</time></trkpt>
<trkpt lat="46.18107" lon="7.55732"><ele>2124.8</ele><time>2025-08-09T12:18:00Z</time></trkpt>
<trkpt lat="46.18092" lon="7.5574"><ele>2125.6</ele><time>2025-08-09T12:18:06Z</time></trkpt>
<trkpt lat="46.1809" lon="7.55743"><ele>2125.8</ele><time>2025-08-09T12:18:07Z</time></trkpt>
<trkpt lat="46.18082" lon="7.55757"><ele>2126.2</ele><time>2025-08-09T12:18:12Z</time></trkpt>
<trkpt lat="46.18066" lon="7.55775"><ele>2126.6</ele><time>2025-08-09T12:18:19Z</time></trkpt>
<trkpt lat="46.18058" lon="7.55781"><ele>2126.8</ele><time>2025-08-09T12:18:22Z</time></trkpt>
<trkpt lat="46.18052" lon="7.55783"><ele>2127</ele><time>2025-08-09T12:18:24Z</time></trkpt>
<trkpt lat="46.18047" lon="7.55782"><ele>2127.8</ele><time>2025-08-09T12:18:28Z</time></trkpt>
<trkpt lat="46.18044" lon="7.55782"><ele>2128</ele><time>2025-08-09T12:18:31Z</time></trkpt>
<trkpt lat="46.18042" lon="7.55784"><ele>2128</ele><time>2025-08-09T12:18:33Z</time></trkpt>
<trkpt lat="46.18041" lon="7.55786"><ele>2128.2</ele><time>2025-08-09T12:18:34Z</time></trkpt>
<trkpt lat="46.18037" lon="7.55799"><ele>2128.8</ele><time>2025-08-09T12:18:40Z</time></trkpt>
<trkpt lat="46.18035" lon="7.55811"><ele>2128.6</ele><time>2025-08-09T12:18:46Z</time></trkpt>
<trkpt lat="46.18035" lon="7.55811"><ele>2128.6</ele><time>2025-08-09T12:18:47Z</time></trkpt>
<trkpt lat="46.18034" lon="7.55811"><ele>2128.4</ele><time>2025-08-09T12:18:52Z</time></trkpt>
<trkpt lat="46.18031" lon="7.55813"><ele>2128.8</ele><time>2025-08-09T12:18:56Z</time></trkpt>
<trkpt lat="46.18029" lon="7.55814"><ele>2129</ele><time>2025-08-09T12:18:58Z</time></trkpt>
<trkpt lat="46.18023" lon="7.55819"><ele>2129.2</ele><time>2025-08-09T12:19:06Z</time></trkpt>
<trkpt lat="46.18022" lon="7.5582"><ele>2129.2</ele><time>2025-08-09T12:19:13Z</time></trkpt>
<trkpt lat="46.1802" lon="7.5582"><ele>2129.2</ele><time>2025-08-09T12:19:15Z</time></trkpt>
<trkpt lat="46.1802" lon="7.55823"><ele>2129.2</ele><time>2025-08-09T12:19:17Z</time></trkpt>
<trkpt lat="46.1802" lon="7.55824"><ele>2128.8</ele><time>2025-08-09T12:19:22Z</time></trkpt>
<trkpt lat="46.1802" lon="7.55824"><ele>2128.4</ele><time>2025-08-09T12:19:25Z</time></trkpt>
<trkpt lat="46.18021" lon="7.55823"><ele>2128.6</ele><time>2025-08-09T12:19:28Z</time></trkpt>
<trkpt lat="46.18022" lon="7.55823"><ele>2128.8</ele><time>2025-08-09T12:19:33Z</time></trkpt>
<trkpt lat="46.18019" lon="7.55826"><ele>2128.8</ele><time>2025-08-09T12:19:39Z</time></trkpt>
<trkpt lat="46.18019" lon="7.55824"><ele>2129</ele><time>2025-08-09T12:19:44Z</time></trkpt>
<trkpt lat="46.18019" lon="7.55826"><ele>2129.2</ele><time>2025-08-09T12:19:52Z</time></trkpt>
<trkpt lat="46.18019" lon="7.55822"><ele>2129.2</ele><time>2025-08-09T12:19:55Z</time></trkpt>
<trkpt lat="46.18019" lon="7.55821"><ele>2129.2</ele><time>2025-08-09T12:19:56Z</time></trkpt>
<trkpt lat="46.1802" lon="7.5582"><ele>2129</ele><time>2025-08-09T12:20:02Z</time></trkpt>
<trkpt lat="46.18018" lon="7.55821"><ele>2129.2</ele><time>2025-08-09T12:20:06Z</time></trkpt>
<trkpt lat="46.18017" lon="7.55821"><ele>2129</ele><time>2025-08-09T12:20:09Z</time></trkpt>
<trkpt lat="46.18014" lon="7.5582"><ele>2129.4</ele><time>2025-08-09T12:20:13Z</time></trkpt>
<trkpt lat="46.18011" lon="7.55818"><ele>2129.4</ele><time>2025-08-09T12:20:19Z</time></trkpt>
<trkpt lat="46.18011" lon="7.55819"><ele>2129.4</ele><time>2025-08-09T12:20:21Z</time></trkpt>
<trkpt lat="46.1801" lon="7.55821"><ele>2129.4</ele><time>2025-08-09T12:20:23Z</time></trkpt>
<trkpt lat="46.18009" lon="7.5582"><ele>2129.2</ele><time>2025-08-09T12:20:28Z</time></trkpt>
<trkpt lat="46.18009" lon="7.5582"><ele>2129.4</ele><time>2025-08-09T12:20:33Z</time></trkpt>
<trkpt lat="46.18009" lon="7.5582"><ele>2129.4</ele><time>2025-08-09T12:20:35Z</time></trkpt>
<trkpt lat="46.1801" lon="7.55819"><ele>2129</ele><time>2025-08-09T12:20:41Z</time></trkpt>
<trkpt lat="46.18013" lon="7.55819"><ele>2129.2</ele><time>2025-08-09T12:20:44Z</time></trkpt>
<trkpt lat="46.18014" lon="7.55818"><ele>2129.2</ele><time>2025-08-09T12:20:46Z</time></trkpt>
<trkpt lat="46.18017" lon="7.55819"><ele>2129.2</ele><time>2025-08-09T12:20:50Z</time></trkpt>
<trkpt lat="46.18019" lon="7.55819"><ele>2129</ele><time>2025-08-09T12:20:52Z</time></trkpt>
<trkpt lat="46.1802" lon="7.55824"><ele>2129</ele><time>2025-08-09T12:20:57Z</time></trkpt>
<trkpt lat="46.1802" lon="7.55824"><ele>2129</ele><time>2025-08-09T12:21:03Z</time></trkpt>
<trkpt lat="46.1802" lon="7.55824"><ele>2129</ele><time>2025-08-09T12:21:04Z</time></trkpt>
<trkpt lat="46.18021" lon="7.55821"><ele>2129</ele><time>2025-08-09T12:21:10Z</time></trkpt>
<trkpt lat="46.1802" lon="7.5582"><ele>2129</ele><time>2025-08-09T12:21:12Z</time></trkpt>
<trkpt lat="46.18017" lon="7.55818"><ele>2129.2</ele><time>2025-08-09T12:21:16Z</time></trkpt>
<trkpt lat="46.18011" lon="7.55817"><ele>2129.2</ele><time>2025-08-09T12:21:23Z</time></trkpt>
<trkpt lat="46.1801" lon="7.55817"><ele>2130</ele><time>2025-08-09T12:21:28Z</time></trkpt>
<trkpt lat="46.18011" lon="7.55817"><ele>2130</ele><time>2025-08-09T12:21:29Z</time></trkpt>
<trkpt lat="46.1801" lon="7.5582"><ele>2129.6</ele><time>2025-08-09T12:21:34Z</time></trkpt>
<trkpt lat="46.1801" lon="7.5582"><ele>2129.8</ele><time>2025-08-09T12:21:40Z</time></trkpt>
<trkpt lat="46.1801" lon="7.5582"><ele>2130</ele><time>2025-08-09T12:21:47Z</time></trkpt>
<trkpt lat="46.1801" lon="7.5582"><ele>2129.8</ele><time>2025-08-09T12:21:53Z</time></trkpt>
<trkpt lat="46.1801" lon="7.5582"><ele>2129.6</ele><time>2025-08-09T12:21:59Z</time></trkpt>
<trkpt lat="46.18009" lon="7.55815"><ele>2129.6</ele><time>2025-08-09T12:22:04Z</time></trkpt>
<trkpt lat="46.18011" lon="7.55808"><ele>2129.8</ele><time>2025-08-09T12:22:09Z</time></trkpt>
<trkpt lat="46.1801" lon="7.55805"><ele>2129.8</ele><time>2025-08-09T12:22:14Z</time></trkpt>
<trkpt lat="46.1801" lon="7.55804"><ele>2129.8</ele><time>2025-08-09T12:22:15Z</time></trkpt>
<trkpt lat="46.18013" lon="7.55803"><ele>2130.2</ele><time>2025-08-09T12:22:23Z</time></trkpt>
<trkpt lat="46.18015" lon="7.55806"><ele>2129.8</ele><time>2025-08-09T12:22:31Z</time></trkpt>
<trkpt lat="46.18017" lon="7.55809"><ele>2129.8</ele><time>2025-08-09T12:22:42Z</time></trkpt>
<trkpt lat="46.18016" lon="7.55808"><ele>2129.8</ele><time>2025-08-09T12:22:48Z</time></trkpt>
<trkpt lat="46.18016" lon="7.55808"><ele>2129.8</ele><time>2025-08-09T12:22:51Z</time></trkpt>
<trkpt lat="46.18016" lon="7.55808"><ele>2129.8</ele><time>2025-08-09T12:22:52Z</time></trkpt>
<trkpt lat="46.18016" lon="7.55807"><ele>2129.8</ele><time>2025-08-09T12:22:55Z</time></trkpt>
<trkpt lat="46.18018" lon="7.55806"><ele>2129.8</ele><time>2025-08-09T12:23:00Z</time></trkpt>
<trkpt lat="46.18018" lon="7.55805"><ele>2129.8</ele><time>2025-08-09T12:23:03Z</time></trkpt>
<trkpt lat="46.18017" lon="7.55804"><ele>2129.8</ele><time>2025-08-09T12:23:16Z</time></trkpt>
<trkpt lat="46.18017" lon="7.55798"><ele>2129.8</ele><time>2025-08-09T12:23:32Z</time></trkpt>
<trkpt lat="46.18017" lon="7.55795"><ele>2129.8</ele><time>2025-08-09T12:23:35Z</time></trkpt>
<trkpt lat="46.18019" lon="7.55792"><ele>2129.8</ele><time>2025-08-09T12:23:49Z</time></trkpt>
<trkpt lat="46.18016" lon="7.5579"><ele>2129.8</ele><time>2025-08-09T12:23:52Z</time></trkpt>
<trkpt lat="46.18011" lon="7.55783"><ele>2129.8</ele><time>2025-08-09T12:24:02Z</time></trkpt>
<trkpt lat="46.18008" lon="7.55776"><ele>2129.8</ele><time>2025-08-09T12:24:12Z</time></trkpt>
<trkpt lat="46.18011" lon="7.55775"><ele>2129.8</ele><time>2025-08-09T12:24:24Z</time></trkpt>
<trkpt lat="46.18013" lon="7.55777"><ele>2129.8</ele><time>2025-08-09T12:24:33Z</time></trkpt>
<trkpt lat="46.18014" lon="7.5578"><ele>2129.8</ele><time>2025-08-09T12:24:35Z</time></trkpt>
<trkpt lat="46.1802" lon="7.55792"><ele>2129.8</ele><time>2025-08-09T12:24:44Z</time></trkpt>
<trkpt lat="46.18023" lon="7.558"><ele>2129.6</ele><time>2025-08-09T12:24:53Z</time></trkpt>
<trkpt lat="46.18022" lon="7.55803"><ele>2129.8</ele><time>2025-08-09T12:25:01Z</time></trkpt>
<trkpt lat="46.18021" lon="7.55803"><ele>2129.8</ele><time>2025-08-09T12:25:03Z</time></trkpt>
<trkpt lat="46.18018" lon="7.55799"><ele>2129.8</ele><time>2025-08-09T12:25:08Z</time></trkpt>
<trkpt lat="46.18017" lon="7.55793"><ele>2129.8</ele><time>2025-08-09T12:25:11Z</time></trkpt>
<trkpt lat="46.18011" lon="7.55792"><ele>2130</ele><time>2025-08-09T12:25:21Z</time></trkpt>
<trkpt lat="46.1801" lon="7.55795"><ele>2130.2</ele><time>2025-08-09T12:25:24Z</time></trkpt>
<trkpt lat="46.18006" lon="7.55796"><ele>2130</ele><time>2025-08-09T12:25:31Z</time></trkpt>
<trkpt lat="46.18005" lon="7.55798"><ele>2130</ele><time>2025-08-09T12:25:33Z</time></trkpt>
<trkpt lat="46.18007" lon="7.55801"><ele>2129.8</ele><time>2025-08-09T12:25:38Z</time></trkpt>
<trkpt lat="46.18009" lon="7.55804"><ele>2129.8</ele><time>2025-08-09T12:25:41Z</time></trkpt>
<trkpt lat="46.18011" lon="7.55803"><ele>2129.8</ele><time>2025-08-09T12:25:50Z</time></trkpt>
<trkpt lat="46.18016" lon="7.558"><ele>2129.4</ele><time>2025-08-09T12:26:00Z</time></trkpt>
<trkpt lat="46.18016" lon="7.55798"><ele>2129.6</ele><time>2025-08-09T12:26:03Z</time></trkpt>
<trkpt lat="46.18018" lon="7.55796"><ele>2129.8</ele><time>2025-08-09T12:26:08Z</time></trkpt>
<trkpt lat="46.18017" lon="7.55796"><ele>2129.8</ele><time>2025-08-09T12:26:16Z</time></trkpt>
<trkpt lat="46.18017" lon="7.55796"><ele>2129.8</ele><time>2025-08-09T12:26:16Z</time></trkpt>
<trkpt lat="46.18017" lon="7.55796"><ele>2129.8</ele><time>2025-08-09T12:26:16Z</time></trkpt>
<trkpt lat="46.17993" lon="7.55763"><ele>2129.8</ele><time>2025-08-09T12:26:39Z</time></trkpt>
<trkpt lat="46.18013" lon="7.55799"><ele>2129.8</ele><time>2025-08-09T12:26:41Z</time></trkpt>
<trkpt lat="46.18013" lon="7.55801"><ele>2129.8</ele><time>2025-08-09T12:26:44Z</time></trkpt>
<trkpt lat="46.18013" lon="7.55804"><ele>2129.8</ele><time>2025-08-09T12:26:48Z</time></trkpt>
<trkpt lat="46.18011" lon="7.55809"><ele>2129.8</ele><time>2025-08-09T12:26:55Z</time></trkpt>
<trkpt lat="46.18011" lon="7.55812"><ele>2129.8</ele><time>2025-08-09T12:26:58Z</time></trkpt>
<trkpt lat="46.18012" lon="7.55815"><ele>2129.8</ele><time>2025-08-09T12:27:00Z</time></trkpt>
<trkpt lat="46.18012" lon="7.55818"><ele>2129.8</ele><time>2025-08-09T12:27:02Z</time></trkpt>
<trkpt lat="46.18011" lon="7.5582"><ele>2129.8</ele><time>2025-08-09T12:27:04Z</time></trkpt>
<trkpt lat="46.1801" lon="7.5582"><ele>2129.8</ele><time>2025-08-09T12:27:07Z</time></trkpt>
<trkpt lat="46.1801" lon="7.5582"><ele>2129.8</ele><time>2025-08-09T12:27:12Z</time></trkpt>
<trkpt lat="46.1801" lon="7.5582"><ele>2129.8</ele><time>2025-08-09T12:27:19Z</time></trkpt>
<trkpt lat="46.1801" lon="7.5582"><ele>2129.8</ele><time>2025-08-09T12:27:28Z</time></trkpt>
<trkpt lat="46.1801" lon="7.5582"><ele>2129.8</ele><time>2025-08-09T12:27:35Z</time></trkpt>
<trkpt lat="46.1801" lon="7.5582"><ele>2129.8</ele><time>2025-08-09T12:27:44Z</time></trkpt>
<trkpt lat="46.1801" lon="7.5582"><ele>2129.8</ele><time>2025-08-09T12:27:47Z</time></trkpt>
<trkpt lat="46.18009" lon="7.55819"><ele>2129.8</ele><time>2025-08-09T12:27:49Z</time></trkpt>
<trkpt lat="46.18009" lon="7.55819"><ele>2129.8</ele><time>2025-08-09T12:27:51Z</time></trkpt>
<trkpt lat="46.1801" lon="7.5582"><ele>2129.8</ele><time>2025-08-09T12:27:58Z</time></trkpt>
<trkpt lat="46.1801" lon="7.5582"><ele>2129.8</ele><time>2025-08-09T12:28:06Z</time></trkpt>
<trkpt lat="46.1801" lon="7.5582"><ele>2129.8</ele><time>2025-08-09T12:28:14Z</time></trkpt>
<trkpt lat="46.1801" lon="7.5582"><ele>2129.8</ele><time>2025-08-09T12:28:16Z</time></trkpt>
<trkpt lat="46.18009" lon="7.55821"><ele>2129.8</ele><time>2025-08-09T12:28:22Z</time></trkpt>
<trkpt lat="46.18009" lon="7.55821"><ele>2129.8</ele><time>2025-08-09T12:28:26Z</time></trkpt>
<trkpt lat="46.18009" lon="7.55821"><ele>2129.8</ele><time>2025-08-09T12:28:34Z</time></trkpt>
<trkpt lat="46.18009" lon="7.55821"><ele>2129.8</ele><time>2025-08-09T12:28:39Z</time></trkpt>
<trkpt lat="46.18009" lon="7.55818"><ele>2129.8</ele><time>2025-08-09T12:28:45Z</time></trkpt>
<trkpt lat="46.18009" lon="7.55818"><ele>2129.8</ele><time>2025-08-09T12:28:47Z</time></trkpt>
<trkpt lat="46.18009" lon="7.55818"><ele>2129.8</ele><time>2025-08-09T12:28:51Z</time></trkpt>
<trkpt lat="46.18009" lon="7.55818"><ele>2129.8</ele><time>2025-08-09T12:28:53Z</time></trkpt>
<trkpt lat="46.18009" lon="7.55818"><ele>2129.8</ele><time>2025-08-09T12:28:59Z</time></trkpt>
<trkpt lat="46.18009" lon="7.55818"><ele>2129.8</ele><time>2025-08-09T12:29:00Z</time></trkpt>
<trkpt lat="46.18009" lon="7.55818"><ele>2129.8</ele><time>2025-08-09T12:29:01Z</time></trkpt>
<trkpt lat="46.18009" lon="7.55818"><ele>2129.8</ele><time>2025-08-09T12:29:05Z</time></trkpt>
<trkpt lat="46.18009" lon="7.55818"><ele>2129.8</ele><time>2025-08-09T12:29:13Z</time></trkpt>
<trkpt lat="46.18009" lon="7.55818"><ele>2129.8</ele><time>2025-08-09T12:29:24Z</time></trkpt>
<trkpt lat="46.18009" lon="7.55818"><ele>2129.8</ele><time>2025-08-09T12:29:26Z</time></trkpt>
<trkpt lat="46.18009" lon="7.55818"><ele>2129.8</ele><time>2025-08-09T12:29:35Z</time></trkpt>
<trkpt lat="46.18009" lon="7.55818"><ele>2129.8</ele><time>2025-08-09T12:29:37Z</time></trkpt>
<trkpt lat="46.1801" lon="7.5582"><ele>2129.8</ele><time>2025-08-09T12:29:45Z</time></trkpt>
<trkpt lat="46.1801" lon="7.5582"><ele>2129.8</ele><time>2025-08-09T12:29:53Z</time></trkpt>
<trkpt lat="46.1801" lon="7.5582"><ele>2129.8</ele><time>2025-08-09T12:30:05Z</time></trkpt>
<trkpt lat="46.1801" lon="7.5582"><ele>2129.8</ele><time>2025-08-09T12:30:08Z</time></trkpt>
<trkpt lat="46.1801" lon="7.55819"><ele>2129.8</ele><time>2025-08-09T12:30:12Z</time></trkpt>
<trkpt lat="46.1801" lon="7.5582"><ele>2129.8</ele><time>2025-08-09T12:30:18Z</time></trkpt>
<trkpt lat="46.1801" lon="7.5582"><ele>2129.8</ele><time>2025-08-09T12:30:25Z</time></trkpt>
<trkpt lat="46.1801" lon="7.5582"><ele>2129.8</ele><time>2025-08-09T12:30:29Z</time></trkpt>
<trkpt lat="46.1801" lon="7.5582"><ele>2129.8</ele><time>2025-08-09T12:30:34Z</time></trkpt>
<trkpt lat="46.1801" lon="7.5582"><ele>2129.8</ele><time>2025-08-09T12:30:45Z</time></trkpt>
<trkpt lat="46.1801" lon="7.5582"><ele>2129.8</ele><time>2025-08-09T12:30:48Z</time></trkpt>
<trkpt lat="46.1801" lon="7.5582"><ele>2129.8</ele><time>2025-08-09T12:30:55Z</time></trkpt>
<trkpt lat="46.1801" lon="7.5582"><ele>2129.8</ele><time>2025-08-09T12:31:03Z</time></trkpt>
<trkpt lat="46.1801" lon="7.5582"><ele>2129.8</ele><time>2025-08-09T12:31:06Z</time></trkpt>
<trkpt lat="46.1801" lon="7.5582"><ele>2129.8</ele><time>2025-08-09T12:31:10Z</time></trkpt>
<trkpt lat="46.1801" lon="7.5582"><ele>2129.8</ele><time>2025-08-09T12:31:21Z</time></trkpt>
<trkpt lat="46.1801" lon="7.5582"><ele>2129.8</ele><time>2025-08-09T12:31:30Z</time></trkpt>
<trkpt lat="46.1801" lon="7.5582"><ele>2129.8</ele><time>2025-08-09T12:31:35Z</time></trkpt>
<trkpt lat="46.1801" lon="7.5582"><ele>2129.8</ele><time>2025-08-09T12:31:36Z</time></trkpt>
<trkpt lat="46.1801" lon="7.5582"><ele>2129.8</ele><time>2025-08-09T12:31:39Z</time></trkpt>
<trkpt lat="46.1801" lon="7.5582"><ele>2129.8</ele><time>2025-08-09T12:31:41Z</time></trkpt>
<trkpt lat="46.1801" lon="7.5582"><ele>2129.8</ele><time>2025-08-09T12:31:46Z</time></trkpt>
<trkpt lat="46.1801" lon="7.5582"><ele>2129.8</ele><time>2025-08-09T12:31:56Z</time></trkpt>
<trkpt lat="46.1801" lon="7.5582"><ele>2129.8</ele><time>2025-08-09T12:32:01Z</time></trkpt>
<trkpt lat="46.1801" lon="7.5582"><ele>2129.8</ele><time>2025-08-09T12:32:02Z</time></trkpt>
<trkpt lat="46.1801" lon="7.5582"><ele>2129.8</ele><time>2025-08-09T12:32:12Z</time></trkpt>
<trkpt lat="46.1801" lon="7.5582"><ele>2129.8</ele><time>2025-08-09T12:32:16Z</time></trkpt>
<trkpt lat="46.1801" lon="7.5582"><ele>2129.8</ele><time>2025-08-09T12:32:22Z</time></trkpt>
<trkpt lat="46.1801" lon="7.5582"><ele>2129.8</ele><time>2025-08-09T12:32:24Z</time></trkpt>
<trkpt lat="46.1801" lon="7.55819"><ele>2129.8</ele><time>2025-08-09T12:32:26Z</time></trkpt>
<trkpt lat="46.1801" lon="7.55818"><ele>2129.8</ele><time>2025-08-09T12:32:31Z</time></trkpt>
<trkpt lat="46.18009" lon="7.55819"><ele>2129.8</ele><time>2025-08-09T12:32:35Z</time></trkpt>
<trkpt lat="46.18009" lon="7.55819"><ele>2129.8</ele><time>2025-08-09T12:32:43Z</time></trkpt>
<trkpt lat="46.18009" lon="7.55819"><ele>2129.8</ele><time>2025-08-09T12:32:50Z</time></trkpt>
<trkpt lat="46.18009" lon="7.55819"><ele>2129.8</ele><time>2025-08-09T12:33:10Z</time></trkpt>
<trkpt lat="46.18009" lon="7.55819"><ele>2129.8</ele><time>2025-08-09T12:33:15Z</time></trkpt>
<trkpt lat="46.18009" lon="7.55818"><ele>2129.8</ele><time>2025-08-09T12:33:20Z</time></trkpt>
<trkpt lat="46.18009" lon="7.55819"><ele>2129.8</ele><time>2025-08-09T12:33:22Z</time></trkpt>
<trkpt lat="46.18009" lon="7.55819"><ele>2129.8</ele><time>2025-08-09T12:33:38Z</time></trkpt>
<trkpt lat="46.18009" lon="7.55819"><ele>2129.8</ele><time>2025-08-09T12:33:44Z</time></trkpt>
<trkpt lat="46.18009" lon="7.55819"><ele>2129.8</ele><time>2025-08-09T12:33:48Z</time></trkpt>
<trkpt lat="46.18009" lon="7.55819"><ele>2129.8</ele><time>2025-08-09T12:34:00Z</time></trkpt>
<trkpt lat="46.18009" lon="7.55819"><ele>2129.8</ele><time>2025-08-09T12:34:15Z</time></trkpt>
<trkpt lat="46.18009" lon="7.55819"><ele>2129.8</ele><time>2025-08-09T12:34:23Z</time></trkpt>
<trkpt lat="46.18009" lon="7.55819"><ele>2129.8</ele><time>2025-08-09T12:34:31Z</time></trkpt>
<trkpt lat="46.18009" lon="7.55818"><ele>2129.8</ele><time>2025-08-09T12:34:33Z</time></trkpt>
<trkpt lat="46.18009" lon="7.55819"><ele>2129.8</ele><time>2025-08-09T12:34:36Z</time></trkpt>
<trkpt lat="46.18009" lon="7.55819"><ele>2129.8</ele><time>2025-08-09T12:34:43Z</time></trkpt>
<trkpt lat="46.18009" lon="7.55819"><ele>2129.8</ele><time>2025-08-09T12:34:45Z</time></trkpt>
<trkpt lat="46.18009" lon="7.55819"><ele>2129.8</ele><time>2025-08-09T12:34:50Z</time></trkpt>
<trkpt lat="46.18009" lon="7.55819"><ele>2129.8</ele><time>2025-08-09T12:34:52Z</time></trkpt>
<trkpt lat="46.18009" lon="7.55819"><ele>2129.8</ele><time>2025-08-09T12:34:53Z</time></trkpt>
<trkpt lat="46.18009" lon="7.55819"><ele>2129.8</ele><time>2025-08-09T12:35:10Z</time></trkpt>
<trkpt lat="46.18009" lon="7.55819"><ele>2129.8</ele><time>2025-08-09T12:35:15Z</time></trkpt>
<trkpt lat="46.18009" lon="7.55819"><ele>2129.8</ele><time>2025-08-09T12:35:19Z</time></trkpt>
<trkpt lat="46.18009" lon="7.55819"><ele>2129.8</ele><time>2025-08-09T12:35:30Z</time></trkpt>
<trkpt lat="46.18009" lon="7.55819"><ele>2129.8</ele><time>2025-08-09T12:35:46Z</time></trkpt>
<trkpt lat="46.18009" lon="7.55819"><ele>2129.8</ele><time>2025-08-09T12:35:54Z</time></trkpt>
<trkpt lat="46.1801" lon="7.55817"><ele>2129.8</ele><time>2025-08-09T12:36:02Z</time></trkpt>
<trkpt lat="46.18007" lon="7.55818"><ele>2129.8</ele><time>2025-08-09T12:36:06Z</time></trkpt>
<trkpt lat="46.18009" lon="7.55819"><ele>2129.8</ele><time>2025-08-09T12:36:08Z</time></trkpt>
<trkpt lat="46.18009" lon="7.55819"><ele>2129.8</ele><time>2025-08-09T12:36:13Z</time></trkpt>
<trkpt lat="46.18009" lon="7.55819"><ele>2129.8</ele><time>2025-08-09T12:36:19Z</time></trkpt>
<trkpt lat="46.18009" lon="7.55819"><ele>2129.8</ele><time>2025-08-09T12:36:28Z</time></trkpt>
<trkpt lat="46.18009" lon="7.55819"><ele>2129.8</ele><time>2025-08-09T12:36:48Z</time></trkpt>
<trkpt lat="46.18009" lon="7.55819"><ele>2129.8</ele><time>2025-08-09T12:37:00Z</time></trkpt>
<trkpt lat="46.18009" lon="7.55819"><ele>2129.8</ele><time>2025-08-09T12:37:13Z</time></trkpt>
<trkpt lat="46.18009" lon="7.55819"><ele>2129.8</ele><time>2025-08-09T12:37:27Z</time></trkpt>
<trkpt lat="46.18009" lon="7.55819"><ele>2129.8</ele><time>2025-08-09T12:37:31Z</time></trkpt>
<trkpt lat="46.18009" lon="7.55819"><ele>2129.8</ele><time>2025-08-09T12:37:37Z</time></trkpt>
<trkpt lat="46.18009" lon="7.55819"><ele>2129.8</ele><time>2025-08-09T12:37:43Z</time></trkpt>
<trkpt lat="46.18009" lon="7.55819"><ele>2129.8</ele><time>2025-08-09T12:37:44Z</time></trkpt>
<trkpt lat="46.18009" lon="7.55819"><ele>2129.8</ele><time>2025-08-09T12:37:48Z</time></trkpt>
<trkpt lat="46.18009" lon="7.55819"><ele>2129.8</ele><time>2025-08-09T12:37:53Z</time></trkpt>
<trkpt lat="46.18009" lon="7.55819"><ele>2129.8</ele><time>2025-08-09T12:38:03Z</time></trkpt>
<trkpt lat="46.18009" lon="7.55819"><ele>2129.8</ele><time>2025-08-09T12:38:14Z</time></trkpt>
<trkpt lat="46.18009" lon="7.55819"><ele>2129.8</ele><time>2025-08-09T12:38:18Z</time></trkpt>
<trkpt lat="46.18009" lon="7.55819"><ele>2129.8</ele><time>2025-08-09T12:38:22Z</time></trkpt>
<trkpt lat="46.18009" lon="7.55819"><ele>2129.8</ele><time>2025-08-09T12:38:32Z</time></trkpt>
<trkpt lat="46.18009" lon="7.55819"><ele>2129.8</ele><time>2025-08-09T12:38:37Z</time></trkpt>
<trkpt lat="46.18009" lon="7.55819"><ele>2129.8</ele><time>2025-08-09T12:38:40Z</time></trkpt>
<trkpt lat="46.18009" lon="7.55819"><ele>2129.8</ele><time>2025-08-09T12:38:51Z</time></trkpt>
<trkpt lat="46.18009" lon="7.55819"><ele>2129.8</ele><time>2025-08-09T12:38:57Z</time></trkpt>
<trkpt lat="46.18009" lon="7.55819"><ele>2129.8</ele><time>2025-08-09T12:39:02Z</time></trkpt>
<trkpt lat="46.18009" lon="7.55819"><ele>2129.8</ele><time>2025-08-09T12:39:08Z</time></trkpt>
<trkpt lat="46.18009" lon="7.55819"><ele>2129.8</ele><time>2025-08-09T12:39:10Z</time></trkpt>
<trkpt lat="46.18009" lon="7.55819"><ele>2129.8</ele><time>2025-08-09T12:39:19Z</time></trkpt>
<trkpt lat="46.18009" lon="7.55819"><ele>2129.8</ele><time>2025-08-09T12:39:22Z</time></trkpt>
<trkpt lat="46.18009" lon="7.55819"><ele>2129.8</ele><time>2025-08-09T12:39:31Z</time></trkpt>
<trkpt lat="46.18009" lon="7.55819"><ele>2129.8</ele><time>2025-08-09T12:39:37Z</time></trkpt>
<trkpt lat="46.18009" lon="7.55819"><ele>2129.8</ele><time>2025-08-09T12:39:39Z</time></trkpt>
<trkpt lat="46.18009" lon="7.55819"><ele>2129.8</ele><time>2025-08-09T12:39:45Z</time></trkpt>
<trkpt lat="46.18009" lon="7.55819"><ele>2129.8</ele><time>2025-08-09T12:39:57Z</time></trkpt>
<trkpt lat="46.18009" lon="7.55819"><ele>2129.8</ele><time>2025-08-09T12:39:58Z</time></trkpt>
<trkpt lat="46.18009" lon="7.55819"><ele>2129.8</ele><time>2025-08-09T12:40:05Z</time></trkpt>
<trkpt lat="46.18009" lon="7.55819"><ele>2129.8</ele><time>2025-08-09T12:40:16Z</time></trkpt>
<trkpt lat="46.18009" lon="7.55819"><ele>2129.8</ele><time>2025-08-09T12:40:32Z</time></trkpt>
<trkpt lat="46.18009" lon="7.55819"><ele>2129.8</ele><time>2025-08-09T12:40:33Z</time></trkpt>
<trkpt lat="46.1801" lon="7.55819"><ele>2129.8</ele><time>2025-08-09T12:40:39Z</time></trkpt>
<trkpt lat="46.1801" lon="7.55819"><ele>2129.8</ele><time>2025-08-09T12:40:42Z</time></trkpt>
<trkpt lat="46.1801" lon="7.55819"><ele>2129.8</ele><time>2025-08-09T12:40:46Z</time></trkpt>
<trkpt lat="46.1801" lon="7.55819"><ele>2129.8</ele><time>2025-08-09T12:40:48Z</time></trkpt>
<trkpt lat="46.18009" lon="7.55819"><ele>2129.8</ele><time>2025-08-09T12:40:56Z</time></trkpt>
<trkpt lat="46.18009" lon="7.55819"><ele>2129.8</ele><time>2025-08-09T12:40:58Z</time></trkpt>
<trkpt lat="46.18009" lon="7.55819"><ele>2129.8</ele><time>2025-08-09T12:41:07Z</time></trkpt>
<trkpt lat="46.18009" lon="7.55819"><ele>2129.8</ele><time>2025-08-09T12:41:20Z</time></trkpt>
<trkpt lat="46.18009" lon="7.55819"><ele>2129.8</ele><time>2025-08-09T12:41:24Z</time></trkpt>
<trkpt lat="46.18009" lon="7.55819"><ele>2129.8</ele><time>2025-08-09T12:41:34Z</time></trkpt>
<trkpt lat="46.18009" lon="7.55819"><ele>2129.8</ele><time>2025-08-09T12:41:35Z</time></trkpt>
<trkpt lat="46.18009" lon="7.55819"><ele>2129.8</ele><time>2025-08-09T12:41:38Z</time></trkpt>
<trkpt lat="46.18009" lon="7.55819"><ele>2129.8</ele><time>2025-08-09T12:41:40Z</time></trkpt>
<trkpt lat="46.18009" lon="7.55819"><ele>2129.8</ele><time>2025-08-09T12:41:48Z</time></trkpt>
<trkpt lat="46.18009" lon="7.55819"><ele>2129.8</ele><time>2025-08-09T12:41:49Z</time></trkpt>
<trkpt lat="46.18009" lon="7.55819"><ele>2129.8</ele><time>2025-08-09T12:41:50Z</time></trkpt>
<trkpt lat="46.18009" lon="7.55819"><ele>2129.8</ele><time>2025-08-09T12:41:57Z</time></trkpt>
<trkpt lat="46.18011" lon="7.55818"><ele>2129.8</ele><time>2025-08-09T12:42:01Z</time></trkpt>
<trkpt lat="46.1801" lon="7.55818"><ele>2129.8</ele><time>2025-08-09T12:42:06Z</time></trkpt>
<trkpt lat="46.1801" lon="7.55818"><ele>2129.8</ele><time>2025-08-09T12:42:14Z</time></trkpt>
<trkpt lat="46.1801" lon="7.55818"><ele>2129.8</ele><time>2025-08-09T12:42:16Z</time></trkpt>
<trkpt lat="46.18011" lon="7.55818"><ele>2129.8</ele><time>2025-08-09T12:42:24Z</time></trkpt>
<trkpt lat="46.18011" lon="7.55819"><ele>2129.8</ele><time>2025-08-09T12:42:26Z</time></trkpt>
<trkpt lat="46.1801" lon="7.55819"><ele>2129.8</ele><time>2025-08-09T12:42:31Z</time></trkpt>
<trkpt lat="46.1801" lon="7.55818"><ele>2129.8</ele><time>2025-08-09T12:42:35Z</time></trkpt>
<trkpt lat="46.1801" lon="7.55818"><ele>2129.8</ele><time>2025-08-09T12:42:39Z</time></trkpt>
<trkpt lat="46.18009" lon="7.55818"><ele>2129.8</ele><time>2025-08-09T12:42:48Z</time></trkpt>
<trkpt lat="46.18009" lon="7.55817"><ele>2129.8</ele><time>2025-08-09T12:42:54Z</time></trkpt>
<trkpt lat="46.18009" lon="7.55817"><ele>2129.8</ele><time>2025-08-09T12:42:55Z</time></trkpt>
<trkpt lat="46.18009" lon="7.55817"><ele>2129.8</ele><time>2025-08-09T12:42:56Z</time></trkpt>
<trkpt lat="46.18009" lon="7.55817"><ele>2129.8</ele><time>2025-08-09T12:42:57Z</time></trkpt>
<trkpt lat="46.18009" lon="7.55819"><ele>2129.8</ele><time>2025-08-09T12:43:04Z</time></trkpt>
<trkpt lat="46.18009" lon="7.55819"><ele>2129.8</ele><time>2025-08-09T12:43:08Z</time></trkpt>
<trkpt lat="46.18009" lon="7.55819"><ele>2129.8</ele><time>2025-08-09T12:43:09Z</time></trkpt>
<trkpt lat="46.18009" lon="7.55819"><ele>2129.8</ele><time>2025-08-09T12:43:10Z</time></trkpt>
<trkpt lat="46.18009" lon="7.55819"><ele>2129.8</ele><time>2025-08-09T12:43:12Z</time></trkpt>
<trkpt lat="46.18009" lon="7.55819"><ele>2129.8</ele><time>2025-08-09T12:43:18Z</time></trkpt>
<trkpt lat="46.18009" lon="7.55819"><ele>2129.8</ele><time>2025-08-09T12:43:21Z</time></trkpt>
<trkpt lat="46.18009" lon="7.55819"><ele>2129.8</ele><time>2025-08-09T12:43:30Z</time></trkpt>
<trkpt lat="46.18009" lon="7.55819"><ele>2129.8</ele><time>2025-08-09T12:43:32Z</time></trkpt>
<trkpt lat="46.18009" lon="7.55819"><ele>2129.8</ele><time>2025-08-09T12:43:37Z</time></trkpt>
<trkpt lat="46.18009" lon="7.55819"><ele>2129.8</ele><time>2025-08-09T12:43:42Z</time></trkpt>
<trkpt lat="46.18009" lon="7.55819"><ele>2129.8</ele><time>2025-08-09T12:43:49Z</time></trkpt>
<trkpt lat="46.18009" lon="7.55819"><ele>2129.8</ele><time>2025-08-09T12:43:55Z</time></trkpt>
<trkpt lat="46.18009" lon="7.55819"><ele>2129.8</ele><time>2025-08-09T12:44:06Z</time></trkpt>
<trkpt lat="46.18009" lon="7.55819"><ele>2129.8</ele><time>2025-08-09T12:44:20Z</time></trkpt>
<trkpt lat="46.1801" lon="7.55821"><ele>2129.8</ele><time>2025-08-09T12:44:28Z</time></trkpt>
<trkpt lat="46.18011" lon="7.55821"><ele>2129.8</ele><time>2025-08-09T12:44:32Z</time></trkpt>
<trkpt lat="46.18011" lon="7.55821"><ele>2129.8</ele><time>2025-08-09T12:44:35Z</time></trkpt>
<trkpt lat="46.18011" lon="7.55821"><ele>2129.8</ele><time>2025-08-09T12:44:37Z</time></trkpt>
<trkpt lat="46.1801" lon="7.55822"><ele>2129.8</ele><time>2025-08-09T12:44:39Z</time></trkpt>
<trkpt lat="46.1801" lon="7.55821"><ele>2129.8</ele><time>2025-08-09T12:44:42Z</time></trkpt>
<trkpt lat="46.1801" lon="7.55821"><ele>2129.8</ele><time>2025-08-09T12:44:46Z</time></trkpt>
<trkpt lat="46.1801" lon="7.55821"><ele>2129.8</ele><time>2025-08-09T12:44:48Z</time></trkpt>
<trkpt lat="46.1801" lon="7.55821"><ele>2129.8</ele><time>2025-08-09T12:44:51Z</time></trkpt>
<trkpt lat="46.1801" lon="7.55821"><ele>2129.8</ele><time>2025-08-09T12:45:06Z</time></trkpt>
<trkpt lat="46.1801" lon="7.55821"><ele>2129.8</ele><time>2025-08-09T12:45:19Z</time></trkpt>
<trkpt lat="46.1801" lon="7.55821"><ele>2129.8</ele><time>2025-08-09T12:45:38Z</time></trkpt>
<trkpt lat="46.1801" lon="7.5582"><ele>2129.8</ele><time>2025-08-09T12:45:45Z</time></trkpt>
<trkpt lat="46.1801" lon="7.55819"><ele>2129.8</ele><time>2025-08-09T12:45:52Z</time></trkpt>
<trkpt lat="46.1801" lon="7.55819"><ele>2129.8</ele><time>2025-08-09T12:45:58Z</time></trkpt>
<trkpt lat="46.1801" lon="7.55819"><ele>2129.8</ele><time>2025-08-09T12:46:08Z</time></trkpt>
<trkpt lat="46.1801" lon="7.55819"><ele>2129.8</ele><time>2025-08-09T12:46:09Z</time></trkpt>
<trkpt lat="46.1801" lon="7.55819"><ele>2129.8</ele><time>2025-08-09T12:46:11Z</time></trkpt>
<trkpt lat="46.1801" lon="7.55819"><ele>2129.8</ele><time>2025-08-09T12:46:14Z</time></trkpt>
<trkpt lat="46.1801" lon="7.55819"><ele>2129.8</ele><time>2025-08-09T12:46:17Z</time></trkpt>
<trkpt lat="46.1801" lon="7.55819"><ele>2129.8</ele><time>2025-08-09T12:46:24Z</time></trkpt>
<trkpt lat="46.1801" lon="7.55819"><ele>2129.8</ele><time>2025-08-09T12:46:42Z</time></trkpt>
<trkpt lat="46.1801" lon="7.55819"><ele>2129.8</ele><time>2025-08-09T12:46:54Z</time></trkpt>
<trkpt lat="46.1801" lon="7.55819"><ele>2129.8</ele><time>2025-08-09T12:47:00Z</time></trkpt>
<trkpt lat="46.1801" lon="7.55819"><ele>2129.8</ele><time>2025-08-09T12:47:11Z</time></trkpt>
<trkpt lat="46.1801" lon="7.55819"><ele>2129.8</ele><time>2025-08-09T12:47:19Z</time></trkpt>
<trkpt lat="46.1801" lon="7.55819"><ele>2129.8</ele><time>2025-08-09T12:47:25Z</time></trkpt>
<trkpt lat="46.1801" lon="7.55819"><ele>2129.8</ele><time>2025-08-09T12:47:30Z</time></trkpt>
<trkpt lat="46.1801" lon="7.55819"><ele>2129.8</ele><time>2025-08-09T12:47:45Z</time></trkpt>
<trkpt lat="46.1801" lon="7.55819"><ele>2129.8</ele><time>2025-08-09T12:47:53Z</time></trkpt>
<trkpt lat="46.1801" lon="7.55819"><ele>2129.8</ele><time>2025-08-09T12:47:56Z</time></trkpt>
<trkpt lat="46.1801" lon="7.55819"><ele>2129.8</ele><time>2025-08-09T12:48:03Z</time></trkpt>
<trkpt lat="46.1801" lon="7.55819"><ele>2129.8</ele><time>2025-08-09T12:48:05Z</time></trkpt>
<trkpt lat="46.1801" lon="7.55819"><ele>2129.8</ele><time>2025-08-09T12:48:07Z</time></trkpt>
<trkpt lat="46.1801" lon="7.55819"><ele>2129.8</ele><time>2025-08-09T12:48:13Z</time></trkpt>
<trkpt lat="46.1801" lon="7.55819"><ele>2129.8</ele><time>2025-08-09T12:48:17Z</time></trkpt>
<trkpt lat="46.1801" lon="7.55819"><ele>2129.8</ele><time>2025-08-09T12:48:19Z</time></trkpt>
<trkpt lat="46.1801" lon="7.55819"><ele>2129.8</ele><time>2025-08-09T12:48:23Z</time></trkpt>
<trkpt lat="46.1801" lon="7.55819"><ele>2129.8</ele><time>2025-08-09T12:48:28Z</time></trkpt>
<trkpt lat="46.1801" lon="7.55819"><ele>2129.8</ele><time>2025-08-09T12:48:30Z</time></trkpt>
<trkpt lat="46.1801" lon="7.55819"><ele>2129.8</ele><time>2025-08-09T12:48:34Z</time></trkpt>
<trkpt lat="46.1801" lon="7.55819"><ele>2129.8</ele><time>2025-08-09T12:48:45Z</time></trkpt>
<trkpt lat="46.1801" lon="7.55819"><ele>2129.8</ele><time>2025-08-09T12:48:48Z</time></trkpt>
<trkpt lat="46.1801" lon="7.55819"><ele>2129.8</ele><time>2025-08-09T12:48:57Z</time></trkpt>
<trkpt lat="46.1801" lon="7.55819"><ele>2129.8</ele><time>2025-08-09T12:49:04Z</time></trkpt>
<trkpt lat="46.1801" lon="7.55819"><ele>2129.8</ele><time>2025-08-09T12:49:05Z</time></trkpt>
<trkpt lat="46.1801" lon="7.55819"><ele>2129.8</ele><time>2025-08-09T12:49:06Z</time></trkpt>
<trkpt lat="46.1801" lon="7.55819"><ele>2129.8</ele><time>2025-08-09T12:49:08Z</time></trkpt>
<trkpt lat="46.1801" lon="7.55819"><ele>2129.8</ele><time>2025-08-09T12:49:14Z</time></trkpt>
<trkpt lat="46.1801" lon="7.55819"><ele>2129.8</ele><time>2025-08-09T12:49:20Z</time></trkpt>
<trkpt lat="46.1801" lon="7.55819"><ele>2129.8</ele><time>2025-08-09T12:49:34Z</time></trkpt>
<trkpt lat="46.1801" lon="7.55819"><ele>2129.8</ele><time>2025-08-09T12:49:41Z</time></trkpt>
<trkpt lat="46.1801" lon="7.55819"><ele>2129.8</ele><time>2025-08-09T12:49:49Z</time></trkpt>
<trkpt lat="46.1801" lon="7.55819"><ele>2129.8</ele><time>2025-08-09T12:49:51Z</time></trkpt>
<trkpt lat="46.1801" lon="7.55819"><ele>2129.8</ele><time>2025-08-09T12:49:55Z</time></trkpt>
<trkpt lat="46.1801" lon="7.55819"><ele>2129.8</ele><time>2025-08-09T12:50:04Z</time></trkpt>
<trkpt lat="46.1801" lon="7.55819"><ele>2129.8</ele><time>2025-08-09T12:50:06Z</time></trkpt>
<trkpt lat="46.1801" lon="7.55819"><ele>2129.8</ele><time>2025-08-09T12:50:12Z</time></trkpt>
<trkpt lat="46.1801" lon="7.55819"><ele>2129.8</ele><time>2025-08-09T12:50:22Z</time></trkpt>
<trkpt lat="46.1801" lon="7.55819"><ele>2129.8</ele><time>2025-08-09T12:50:29Z</time></trkpt>
<trkpt lat="46.1801" lon="7.55819"><ele>2129.8</ele><time>2025-08-09T12:50:38Z</time></trkpt>
<trkpt lat="46.1801" lon="7.55818"><ele>2129.8</ele><time>2025-08-09T12:50:44Z</time></trkpt>
<trkpt lat="46.1801" lon="7.55819"><ele>2129.8</ele><time>2025-08-09T12:50:55Z</time></trkpt>
<trkpt lat="46.1801" lon="7.55819"><ele>2129.8</ele><time>2025-08-09T12:50:58Z</time></trkpt>
<trkpt lat="46.1801" lon="7.55819"><ele>2129.8</ele><time>2025-08-09T12:51:06Z</time></trkpt>
<trkpt lat="46.1801" lon="7.55819"><ele>2129.8</ele><time>2025-08-09T12:51:09Z</time></trkpt>
<trkpt lat="46.1801" lon="7.55819"><ele>2129.8</ele><time>2025-08-09T12:51:16Z</time></trkpt>
<trkpt lat="46.1801" lon="7.55819"><ele>2129.8</ele><time>2025-08-09T12:51:24Z</time></trkpt>
<trkpt lat="46.1801" lon="7.55819"><ele>2129.8</ele><time>2025-08-09T12:51:33Z</time></trkpt>
<trkpt lat="46.1801" lon="7.55819"><ele>2129.8</ele><time>2025-08-09T12:51:42Z</time></trkpt>
<trkpt lat="46.1801" lon="7.55819"><ele>2129.8</ele><time>2025-08-09T12:51:50Z</time></trkpt>
<trkpt lat="46.1801" lon="7.55819"><ele>2129.8</ele><time>2025-08-09T12:51:56Z</time></trkpt>
<trkpt lat="46.1801" lon="7.55819"><ele>2129.8</ele><time>2025-08-09T12:52:04Z</time></trkpt>
<trkpt lat="46.1801" lon="7.55819"><ele>2129.8</ele><time>2025-08-09T12:52:14Z</time></trkpt>
<trkpt lat="46.18009" lon="7.55819"><ele>2129.8</ele><time>2025-08-09T12:52:24Z</time></trkpt>
<trkpt lat="46.18008" lon="7.55819"><ele>2129.8</ele><time>2025-08-09T12:52:34Z</time></trkpt>
<trkpt lat="46.18008" lon="7.55818"><ele>2129.8</ele><time>2025-08-09T12:52:40Z</time></trkpt>
<trkpt lat="46.18008" lon="7.55818"><ele>2129.8</ele><time>2025-08-09T12:52:42Z</time></trkpt>
<trkpt lat="46.18008" lon="7.55818"><ele>2129.8</ele><time>2025-08-09T12:52:49Z</time></trkpt>
<trkpt lat="46.18009" lon="7.55817"><ele>2129.8</ele><time>2025-08-09T12:52:57Z</time></trkpt>
<trkpt lat="46.18009" lon="7.55817"><ele>2129.8</ele><time>2025-08-09T12:52:58Z</time></trkpt>
<trkpt lat="46.18009" lon="7.55818"><ele>2129.8</ele><time>2025-08-09T12:53:03Z</time></trkpt>
<trkpt lat="46.18008" lon="7.55818"><ele>2129.8</ele><time>2025-08-09T12:53:10Z</time></trkpt>
<trkpt lat="46.18008" lon="7.55817"><ele>2129.8</ele><time>2025-08-09T12:53:17Z</time></trkpt>
<trkpt lat="46.18009" lon="7.55817"><ele>2129.8</ele><time>2025-08-09T12:53:21Z</time></trkpt>
<trkpt lat="46.18009" lon="7.55818"><ele>2129.8</ele><time>2025-08-09T12:53:23Z</time></trkpt>
<trkpt lat="46.18009" lon="7.55818"><ele>2129.8</ele><time>2025-08-09T12:53:25Z</time></trkpt>
<trkpt lat="46.18009" lon="7.55818"><ele>2129.8</ele><time>2025-08-09T12:53:32Z</time></trkpt>
<trkpt lat="46.18009" lon="7.55819"><ele>2129.8</ele><time>2025-08-09T12:53:35Z</time></trkpt>
<trkpt lat="46.18009" lon="7.55819"><ele>2129.8</ele><time>2025-08-09T12:53:36Z</time></trkpt>
<trkpt lat="46.1801" lon="7.55819"><ele>2129.8</ele><time>2025-08-09T12:53:44Z</time></trkpt>
<trkpt lat="46.1801" lon="7.55819"><ele>2129.8</ele><time>2025-08-09T12:53:50Z</time></trkpt>
<trkpt lat="46.18009" lon="7.5582"><ele>2129.8</ele><time>2025-08-09T12:53:57Z</time></trkpt>
<trkpt lat="46.1801" lon="7.5582"><ele>2129.8</ele><time>2025-08-09T12:54:07Z</time></trkpt>
<trkpt lat="46.1801" lon="7.55821"><ele>2129.8</ele><time>2025-08-09T12:54:15Z</time></trkpt>
<trkpt lat="46.1801" lon="7.55822"><ele>2129.8</ele><time>2025-08-09T12:54:20Z</time></trkpt>
<trkpt lat="46.18011" lon="7.55821"><ele>2129.8</ele><time>2025-08-09T12:54:29Z</time></trkpt>
<trkpt lat="46.1801" lon="7.55819"><ele>2129.8</ele><time>2025-08-09T12:54:37Z</time></trkpt>
<trkpt lat="46.18009" lon="7.5582"><ele>2129.8</ele><time>2025-08-09T12:54:39Z</time></trkpt>
<trkpt lat="46.1801" lon="7.55819"><ele>2129.8</ele><time>2025-08-09T12:54:43Z</time></trkpt>
<trkpt lat="46.1801" lon="7.55819"><ele>2129.8</ele><time>2025-08-09T12:54:49Z</time></trkpt>
<trkpt lat="46.1801" lon="7.55819"><ele>2129.8</ele><time>2025-08-09T12:54:56Z</time></trkpt>
<trkpt lat="46.1801" lon="7.55819"><ele>2129.8</ele><time>2025-08-09T12:55:05Z</time></trkpt>
<trkpt lat="46.1801" lon="7.55819"><ele>2129.8</ele><time>2025-08-09T12:55:17Z</time></trkpt>
<trkpt lat="46.1801" lon="7.55819"><ele>2129.8</ele><time>2025-08-09T12:55:23Z</time></trkpt>
<trkpt lat="46.1801" lon="7.55819"><ele>2129.8</ele><time>2025-08-09T12:55:37Z</time></trkpt>
<trkpt lat="46.1801" lon="7.55819"><ele>2129.8</ele><time>2025-08-09T12:55:45Z</time></trkpt>
<trkpt lat="46.1801" lon="7.55819"><ele>2129.8</ele><time>2025-08-09T12:55:47Z</time></trkpt>
<trkpt lat="46.1801" lon="7.55819"><ele>2129.8</ele><time>2025-08-09T12:55:51Z</time></trkpt>
<trkpt lat="46.1801" lon="7.55819"><ele>2129.8</ele><time>2025-08-09T12:56:01Z</time></trkpt>
<trkpt lat="46.1801" lon="7.55819"><ele>2129.8</ele><time>2025-08-09T12:56:06Z</time></trkpt>
<trkpt lat="46.1801" lon="7.55819"><ele>2129.8</ele><time>2025-08-09T12:56:10Z</time></trkpt>
<trkpt lat="46.1801" lon="7.55819"><ele>2129.8</ele><time>2025-08-09T12:56:18Z</time></trkpt>
<trkpt lat="46.1801" lon="7.55819"><ele>2129.8</ele><time>2025-08-09T12:56:34Z</time></trkpt>
<trkpt lat="46.1801" lon="7.55819"><ele>2129.8</ele><time>2025-08-09T12:56:44Z</time></trkpt>
<trkpt lat="46.1801" lon="7.55819"><ele>2129.8</ele><time>2025-08-09T12:56:57Z</time></trkpt>
<trkpt lat="46.1801" lon="7.55819"><ele>2129.8</ele><time>2025-08-09T12:57:03Z</time></trkpt>
<trkpt lat="46.1801" lon="7.55819"><ele>2129.8</ele><time>2025-08-09T12:57:05Z</time></trkpt>
<trkpt lat="46.1801" lon="7.55819"><ele>2129.8</ele><time>2025-08-09T12:57:11Z</time></trkpt>
<trkpt lat="46.1801" lon="7.55819"><ele>2129.8</ele><time>2025-08-09T12:57:16Z</time></trkpt>
<trkpt lat="46.1801" lon="7.55819"><ele>2129.8</ele><time>2025-08-09T12:57:34Z</time></trkpt>
<trkpt lat="46.1801" lon="7.55819"><ele>2129.8</ele><time>2025-08-09T12:57:39Z</time></trkpt>
<trkpt lat="46.1801" lon="7.55819"><ele>2129.8</ele><time>2025-08-09T12:57:51Z</time></trkpt>
<trkpt lat="46.1801" lon="7.55819"><ele>2129.8</ele><time>2025-08-09T12:57:53Z</time></trkpt>
<trkpt lat="46.1801" lon="7.55819"><ele>2129.8</ele><time>2025-08-09T12:57:58Z</time></trkpt>
<trkpt lat="46.1801" lon="7.55819"><ele>2129.8</ele><time>2025-08-09T12:58:10Z</time></trkpt>
<trkpt lat="46.1801" lon="7.55819"><ele>2129.8</ele><time>2025-08-09T12:58:17Z</time></trkpt>
<trkpt lat="46.1801" lon="7.55819"><ele>2129.8</ele><time>2025-08-09T12:58:19Z</time></trkpt>
<trkpt lat="46.1801" lon="7.55819"><ele>2129.8</ele><time>2025-08-09T12:58:28Z</time></trkpt>
<trkpt lat="46.1801" lon="7.55819"><ele>2129.8</ele><time>2025-08-09T12:58:32Z</time></trkpt>
<trkpt lat="46.1801" lon="7.55819"><ele>2129.8</ele><time>2025-08-09T12:58:34Z</time></trkpt>
<trkpt lat="46.1801" lon="7.55819"><ele>2129.8</ele><time>2025-08-09T12:58:36Z</time></trkpt>
<trkpt lat="46.1801" lon="7.55819"><ele>2129.8</ele><time>2025-08-09T12:58:40Z</time></trkpt>
<trkpt lat="46.1801" lon="7.55819"><ele>2129.8</ele><time>2025-08-09T12:58:48Z</time></trkpt>
<trkpt lat="46.1801" lon="7.5582"><ele>2129.8</ele><time>2025-08-09T12:58:56Z</time></trkpt>
<trkpt lat="46.18011" lon="7.5582"><ele>2129.8</ele><time>2025-08-09T12:59:01Z</time></trkpt>
<trkpt lat="46.18011" lon="7.5582"><ele>2129.8</ele><time>2025-08-09T12:59:02Z</time></trkpt>
<trkpt lat="46.18011" lon="7.5582"><ele>2129.8</ele><time>2025-08-09T12:59:04Z</time></trkpt>
<trkpt lat="46.18011" lon="7.55819"><ele>2129.8</ele><time>2025-08-09T12:59:09Z</time></trkpt>
<trkpt lat="46.1801" lon="7.55819"><ele>2129.8</ele><time>2025-08-09T12:59:12Z</time></trkpt>
<trkpt lat="46.18011" lon="7.55818"><ele>2129.8</ele><time>2025-08-09T12:59:14Z</time></trkpt>
<trkpt lat="46.18011" lon="7.55818"><ele>2129.8</ele><time>2025-08-09T12:59:23Z</time></trkpt>
<trkpt lat="46.1801" lon="7.55819"><ele>2129.8</ele><time>2025-08-09T12:59:26Z</time></trkpt>
<trkpt lat="46.18011" lon="7.55819"><ele>2129.8</ele><time>2025-08-09T12:59:32Z</time></trkpt>
<trkpt lat="46.18011" lon="7.5582"><ele>2129.8</ele><time>2025-08-09T12:59:41Z</time></trkpt>
<trkpt lat="46.1801" lon="7.55819"><ele>2129.8</ele><time>2025-08-09T12:59:50Z</time></trkpt>
<trkpt lat="46.18011" lon="7.55819"><ele>2129.8</ele><time>2025-08-09T12:59:59Z</time></trkpt>
<trkpt lat="46.1801" lon="7.55819"><ele>2129.8</ele><time>2025-08-09T13:00:09Z</time></trkpt>
<trkpt lat="46.1801" lon="7.55819"><ele>2129.8</ele><time>2025-08-09T13:00:14Z</time></trkpt>
<trkpt lat="46.1801" lon="7.55819"><ele>2129.8</ele><time>2025-08-09T13:00:17Z</time></trkpt>
<trkpt lat="46.1801" lon="7.55819"><ele>2129.8</ele><time>2025-08-09T13:00:18Z</time></trkpt>
<trkpt lat="46.1801" lon="7.5582"><ele>2129.8</ele><time>2025-08-09T13:00:22Z</time></trkpt>
<trkpt lat="46.1801" lon="7.55819"><ele>2129.8</ele><time>2025-08-09T13:00:28Z</time></trkpt>
<trkpt lat="46.18011" lon="7.5582"><ele>2129.8</ele><time>2025-08-09T13:00:38Z</time></trkpt>
<trkpt lat="46.18011" lon="7.5582"><ele>2129.8</ele><time>2025-08-09T13:00:39Z</time></trkpt>
<trkpt lat="46.18012" lon="7.55821"><ele>2129.8</ele><time>2025-08-09T13:00:42Z</time></trkpt>
<trkpt lat="46.18013" lon="7.55823"><ele>2129.8</ele><time>2025-08-09T13:00:49Z</time></trkpt>
<trkpt lat="46.18013" lon="7.55823"><ele>2129.8</ele><time>2025-08-09T13:00:57Z</time></trkpt>
<trkpt lat="46.18012" lon="7.55823"><ele>2129.8</ele><time>2025-08-09T13:01:06Z</time></trkpt>
<trkpt lat="46.18012" lon="7.55821"><ele>2129.8</ele><time>2025-08-09T13:01:12Z</time></trkpt>
<trkpt lat="46.18012" lon="7.55821"><ele>2129.8</ele><time>2025-08-09T13:01:18Z</time></trkpt>
<trkpt lat="46.18012" lon="7.55822"><ele>2129.8</ele><time>2025-08-09T13:01:28Z</time></trkpt>
<trkpt lat="46.18011" lon="7.55823"><ele>2129.8</ele><time>2025-08-09T13:01:37Z</time></trkpt>
<trkpt lat="46.1801" lon="7.55821"><ele>2129.8</ele><time>2025-08-09T13:01:46Z</time></trkpt>
<trkpt lat="46.18009" lon="7.55819"><ele>2129.8</ele><time>2025-08-09T13:01:55Z</time></trkpt>
<trkpt lat="46.18009" lon="7.55818"><ele>2129.8</ele><time>2025-08-09T13:02:04Z</time></trkpt>
<trkpt lat="46.18009" lon="7.55818"><ele>2129.8</ele><time>2025-08-09T13:02:05Z</time></trkpt>
<trkpt lat="46.18009" lon="7.55818"><ele>2129.8</ele><time>2025-08-09T13:02:11Z</time></trkpt>
<trkpt lat="46.1801" lon="7.55818"><ele>2129.8</ele><time>2025-08-09T13:02:15Z</time></trkpt>
<trkpt lat="46.18011" lon="7.55819"><ele>2129.8</ele><time>2025-08-09T13:02:23Z</time></trkpt>
<trkpt lat="46.1801" lon="7.55818"><ele>2129.8</ele><time>2025-08-09T13:02:26Z</time></trkpt>
<trkpt lat="46.18009" lon="7.55817"><ele>2129.8</ele><time>2025-08-09T13:02:28Z</time></trkpt>
<trkpt lat="46.18009" lon="7.55817"><ele>2129.8</ele><time>2025-08-09T13:02:32Z</time></trkpt>
<trkpt lat="46.18009" lon="7.55816"><ele>2129.8</ele><time>2025-08-09T13:02:37Z</time></trkpt>
<trkpt lat="46.18008" lon="7.55815"><ele>2129.8</ele><time>2025-08-09T13:02:43Z</time></trkpt>
<trkpt lat="46.18008" lon="7.55815"><ele>2129.8</ele><time>2025-08-09T13:02:45Z</time></trkpt>
<trkpt lat="46.18008" lon="7.55815"><ele>2129.8</ele><time>2025-08-09T13:02:46Z</time></trkpt>
<trkpt lat="46.18008" lon="7.55816"><ele>2129.8</ele><time>2025-08-09T13:02:54Z</time></trkpt>
<trkpt lat="46.18009" lon="7.55817"><ele>2129.8</ele><time>2025-08-09T13:03:04Z</time></trkpt>
<trkpt lat="46.1801" lon="7.55819"><ele>2129.8</ele><time>2025-08-09T13:03:11Z</time></trkpt>
<trkpt lat="46.1801" lon="7.55819"><ele>2129.8</ele><time>2025-08-09T13:03:16Z</time></trkpt>
<trkpt lat="46.1801" lon="7.55819"><ele>2129.8</ele><time>2025-08-09T13:03:17Z</time></trkpt>
<trkpt lat="46.18009" lon="7.55818"><ele>2129.8</ele><time>2025-08-09T13:03:25Z</time></trkpt>
<trkpt lat="46.18009" lon="7.55819"><ele>2129.8</ele><time>2025-08-09T13:03:26Z</time></trkpt>
<trkpt lat="46.18011" lon="7.55819"><ele>2129.8</ele><time>2025-08-09T13:03:35Z</time></trkpt>
<trkpt lat="46.1801" lon="7.55819"><ele>2129.8</ele><time>2025-08-09T13:03:41Z</time></trkpt>
<trkpt lat="46.1801" lon="7.55819"><ele>2129.8</ele><time>2025-08-09T13:03:45Z</time></trkpt>
<trkpt lat="46.1801" lon="7.55819"><ele>2129.8</ele><time>2025-08-09T13:03:48Z</time></trkpt>
<trkpt lat="46.1801" lon="7.55819"><ele>2129.8</ele><time>2025-08-09T13:03:50Z</time></trkpt>
<trkpt lat="46.18011" lon="7.55819"><ele>2129.8</ele><time>2025-08-09T13:04:02Z</time></trkpt>
<trkpt lat="46.1801" lon="7.55819"><ele>2129.8</ele><time>2025-08-09T13:04:04Z</time></trkpt>
<trkpt lat="46.1801" lon="7.55819"><ele>2129.8</ele><time>2025-08-09T13:04:13Z</time></trkpt>
<trkpt lat="46.1801" lon="7.55819"><ele>2129.8</ele><time>2025-08-09T13:04:21Z</time></trkpt>
<trkpt lat="46.1801" lon="7.55819"><ele>2129.8</ele><time>2025-08-09T13:04:26Z</time></trkpt>
<trkpt lat="46.1801" lon="7.55819"><ele>2129.8</ele><time>2025-08-09T13:04:30Z</time></trkpt>
<trkpt lat="46.1801" lon="7.55819"><ele>2129.8</ele><time>2025-08-09T13:04:37Z</time></trkpt>
<trkpt lat="46.1801" lon="7.55819"><ele>2129.8</ele><time>2025-08-09T13:04:42Z</time></trkpt>
<trkpt lat="46.1801" lon="7.55819"><ele>2129.8</ele><time>2025-08-09T13:04:45Z</time></trkpt>
<trkpt lat="46.1801" lon="7.55819"><ele>2129.8</ele><time>2025-08-09T13:04:46Z</time></trkpt>
<trkpt lat="46.1801" lon="7.55819"><ele>2129.8</ele><time>2025-08-09T13:04:52Z</time></trkpt>
<trkpt lat="46.1801" lon="7.55819"><ele>2129.8</ele><time>2025-08-09T13:05:00Z</time></trkpt>
<trkpt lat="46.1801" lon="7.55819"><ele>2129.8</ele><time>2025-08-09T13:05:09Z</time></trkpt>
<trkpt lat="46.1801" lon="7.55819"><ele>2129.8</ele><time>2025-08-09T13:05:28Z</time></trkpt>
<trkpt lat="46.1801" lon="7.55819"><ele>2129.8</ele><time>2025-08-09T13:05:41Z</time></trkpt>
<trkpt lat="46.1801" lon="7.55819"><ele>2129.8</ele><time>2025-08-09T13:05:44Z</time></trkpt>
<trkpt lat="46.1801" lon="7.55819"><ele>2129.8</ele><time>2025-08-09T13:05:47Z</time></trkpt>
<trkpt lat="46.18011" lon="7.55819"><ele>2129.8</ele><time>2025-08-09T13:05:54Z</time></trkpt>
<trkpt lat="46.1801" lon="7.55819"><ele>2129.8</ele><time>2025-08-09T13:06:01Z</time></trkpt>
<trkpt lat="46.1801" lon="7.55819"><ele>2129.8</ele><time>2025-08-09T13:06:10Z</time></trkpt>
<trkpt lat="46.1801" lon="7.55819"><ele>2129.8</ele><time>2025-08-09T13:06:11Z</time></trkpt>
<trkpt lat="46.1801" lon="7.55819"><ele>2129.8</ele><time>2025-08-09T13:06:12Z</time></trkpt>
<trkpt lat="46.1801" lon="7.55819"><ele>2129.8</ele><time>2025-08-09T13:06:21Z</time></trkpt>
<trkpt lat="46.1801" lon="7.55819"><ele>2129.8</ele><time>2025-08-09T13:06:24Z</time></trkpt>
<trkpt lat="46.1801" lon="7.55819"><ele>2129.8</ele><time>2025-08-09T13:06:37Z</time></trkpt>
<trkpt lat="46.1801" lon="7.55819"><ele>2129.8</ele><time>2025-08-09T13:06:47Z</time></trkpt>
<trkpt lat="46.1801" lon="7.55819"><ele>2129.8</ele><time>2025-08-09T13:06:50Z</time></trkpt>
<trkpt lat="46.1801" lon="7.55819"><ele>2129.8</ele><time>2025-08-09T13:06:59Z</time></trkpt>
<trkpt lat="46.1801" lon="7.55819"><ele>2129.8</ele><time>2025-08-09T13:07:00Z</time></trkpt>
<trkpt lat="46.1801" lon="7.55819"><ele>2129.8</ele><time>2025-08-09T13:07:02Z</time></trkpt>
<trkpt lat="46.1801" lon="7.55819"><ele>2129.8</ele><time>2025-08-09T13:07:06Z</time></trkpt>
<trkpt lat="46.1801" lon="7.55819"><ele>2129.8</ele><time>2025-08-09T13:07:09Z</time></trkpt>
<trkpt lat="46.1801" lon="7.55819"><ele>2129.8</ele><time>2025-08-09T13:07:14Z</time></trkpt>
<trkpt lat="46.1801" lon="7.55819"><ele>2129.8</ele><time>2025-08-09T13:07:22Z</time></trkpt>
<trkpt lat="46.1801" lon="7.55819"><ele>2129.8</ele><time>2025-08-09T13:07:36Z</time></trkpt>
<trkpt lat="46.1801" lon="7.55819"><ele>2129.8</ele><time>2025-08-09T13:07:46Z</time></trkpt>
<trkpt lat="46.1801" lon="7.55819"><ele>2129.8</ele><time>2025-08-09T13:07:49Z</time></trkpt>
<trkpt lat="46.1801" lon="7.55819"><ele>2129.8</ele><time>2025-08-09T13:08:04Z</time></trkpt>
<trkpt lat="46.1801" lon="7.55819"><ele>2129.8</ele><time>2025-08-09T13:08:12Z</time></trkpt>
<trkpt lat="46.1801" lon="7.55819"><ele>2129.8</ele><time>2025-08-09T13:08:22Z</time></trkpt>
<trkpt lat="46.1801" lon="7.55819"><ele>2129.8</ele><time>2025-08-09T13:08:30Z</time></trkpt>
<trkpt lat="46.1801" lon="7.55819"><ele>2129.8</ele><time>2025-08-09T13:08:37Z</time></trkpt>
<trkpt lat="46.1801" lon="7.55819"><ele>2129.8</ele><time>2025-08-09T13:08:41Z</time></trkpt>
<trkpt lat="46.1801" lon="7.55819"><ele>2129.8</ele><time>2025-08-09T13:08:56Z</time></trkpt>
<trkpt lat="46.1801" lon="7.55819"><ele>2129.8</ele><time>2025-08-09T13:08:57Z</time></trkpt>
<trkpt lat="46.1801" lon="7.55819"><ele>2129.8</ele><time>2025-08-09T13:09:04Z</time></trkpt>
<trkpt lat="46.1801" lon="7.55819"><ele>2129.8</ele><time>2025-08-09T13:09:13Z</time></trkpt>
<trkpt lat="46.1801" lon="7.55819"><ele>2129.8</ele><time>2025-08-09T13:09:23Z</time></trkpt>
<trkpt lat="46.1801" lon="7.55819"><ele>2129.8</ele><time>2025-08-09T13:09:30Z</time></trkpt>
<trkpt lat="46.1801" lon="7.55819"><ele>2129.8</ele><time>2025-08-09T13:09:34Z</time></trkpt>
<trkpt lat="46.1801" lon="7.55819"><ele>2129.8</ele><time>2025-08-09T13:09:44Z</time></trkpt>
<trkpt lat="46.1801" lon="7.55819"><ele>2129.8</ele><time>2025-08-09T13:09:45Z</time></trkpt>
<trkpt lat="46.1801" lon="7.55819"><ele>2129.8</ele><time>2025-08-09T13:09:50Z</time></trkpt>
<trkpt lat="46.1801" lon="7.55819"><ele>2129.8</ele><time>2025-08-09T13:09:59Z</time></trkpt>
<trkpt lat="46.1801" lon="7.55819"><ele>2129.8</ele><time>2025-08-09T13:10:04Z</time></trkpt>
<trkpt lat="46.1801" lon="7.55819"><ele>2129.8</ele><time>2025-08-09T13:10:06Z</time></trkpt>
<trkpt lat="46.1801" lon="7.55819"><ele>2129.8</ele><time>2025-08-09T13:10:10Z</time></trkpt>
<trkpt lat="46.1801" lon="7.55819"><ele>2129.8</ele><time>2025-08-09T13:10:12Z</time></trkpt>
<trkpt lat="46.1801" lon="7.55819"><ele>2129.8</ele><time>2025-08-09T13:10:27Z</time></trkpt>
<trkpt lat="46.1801" lon="7.55819"><ele>2129.8</ele><time>2025-08-09T13:10:35Z</time></trkpt>
<trkpt lat="46.1801" lon="7.55819"><ele>2129.8</ele><time>2025-08-09T13:10:40Z</time></trkpt>
<trkpt lat="46.1801" lon="7.55819"><ele>2129.8</ele><time>2025-08-09T13:10:48Z</time></trkpt>
<trkpt lat="46.1801" lon="7.55819"><ele>2129.8</ele><time>2025-08-09T13:10:49Z</time></trkpt>
<trkpt lat="46.1801" lon="7.55819"><ele>2129.8</ele><time>2025-08-09T13:11:01Z</time></trkpt>
<trkpt lat="46.1801" lon="7.55819"><ele>2129.8</ele><time>2025-08-09T13:11:12Z</time></trkpt>
<trkpt lat="46.1801" lon="7.55819"><ele>2129.8</ele><time>2025-08-09T13:11:15Z</time></trkpt>
<trkpt lat="46.1801" lon="7.55819"><ele>2129.8</ele><time>2025-08-09T13:11:17Z</time></trkpt>
<trkpt lat="46.1801" lon="7.55819"><ele>2129.8</ele><time>2025-08-09T13:11:21Z</time></trkpt>
<trkpt lat="46.1801" lon="7.55819"><ele>2129.8</ele><time>2025-08-09T13:11:24Z</time></trkpt>
<trkpt lat="46.1801" lon="7.55819"><ele>2129.8</ele><time>2025-08-09T13:11:28Z</time></trkpt>
<trkpt lat="46.1801" lon="7.55819"><ele>2129.8</ele><time>2025-08-09T13:11:32Z</time></trkpt>
<trkpt lat="46.1801" lon="7.55819"><ele>2129.8</ele><time>2025-08-09T13:11:38Z</time></trkpt>
<trkpt lat="46.1801" lon="7.55821"><ele>2129.8</ele><time>2025-08-09T13:11:45Z</time></trkpt>
<trkpt lat="46.1801" lon="7.55821"><ele>2129.8</ele><time>2025-08-09T13:11:50Z</time></trkpt>
<trkpt lat="46.18009" lon="7.55822"><ele>2129.8</ele><time>2025-08-09T13:12:00Z</time></trkpt>
<trkpt lat="46.1801" lon="7.55822"><ele>2129.8</ele><time>2025-08-09T13:12:10Z</time></trkpt>
<trkpt lat="46.18011" lon="7.55821"><ele>2129.8</ele><time>2025-08-09T13:12:17Z</time></trkpt>
<trkpt lat="46.18011" lon="7.55818"><ele>2129.8</ele><time>2025-08-09T13:12:24Z</time></trkpt>
<trkpt lat="46.18011" lon="7.55818"><ele>2129.8</ele><time>2025-08-09T13:12:28Z</time></trkpt>
<trkpt lat="46.18011" lon="7.55818"><ele>2129.8</ele><time>2025-08-09T13:12:33Z</time></trkpt>
<trkpt lat="46.18011" lon="7.55818"><ele>2129.8</ele><time>2025-08-09T13:12:37Z</time></trkpt>
<trkpt lat="46.18011" lon="7.55818"><ele>2129.8</ele><time>2025-08-09T13:12:40Z</time></trkpt>
<trkpt lat="46.18011" lon="7.55818"><ele>2129.8</ele><time>2025-08-09T13:12:47Z</time></trkpt>
<trkpt lat="46.18011" lon="7.55818"><ele>2129.8</ele><time>2025-08-09T13:12:49Z</time></trkpt>
<trkpt lat="46.18011" lon="7.55818"><ele>2129.8</ele><time>2025-08-09T13:12:54Z</time></trkpt>
<trkpt lat="46.18011" lon="7.55818"><ele>2129.8</ele><time>2025-08-09T13:12:56Z</time></trkpt>
<trkpt lat="46.18011" lon="7.55818"><ele>2129.8</ele><time>2025-08-09T13:13:12Z</time></trkpt>
<trkpt lat="46.18011" lon="7.55818"><ele>2129.8</ele><time>2025-08-09T13:13:22Z</time></trkpt>
<trkpt lat="46.18011" lon="7.55818"><ele>2129.8</ele><time>2025-08-09T13:13:29Z</time></trkpt>
<trkpt lat="46.18011" lon="7.55818"><ele>2129.8</ele><time>2025-08-09T13:13:37Z</time></trkpt>
<trkpt lat="46.18011" lon="7.55818"><ele>2129.8</ele><time>2025-08-09T13:13:46Z</time></trkpt>
<trkpt lat="46.18011" lon="7.55818"><ele>2129.8</ele><time>2025-08-09T13:14:06Z</time></trkpt>
<trkpt lat="46.18011" lon="7.55818"><ele>2129.8</ele><time>2025-08-09T13:14:08Z</time></trkpt>
<trkpt lat="46.18011" lon="7.55818"><ele>2129.8</ele><time>2025-08-09T13:14:23Z</time></trkpt>
<trkpt lat="46.18011" lon="7.55818"><ele>2129.8</ele><time>2025-08-09T13:14:24Z</time></trkpt>
<trkpt lat="46.18011" lon="7.55818"><ele>2129.8</ele><time>2025-08-09T13:14:26Z</time></trkpt>
<trkpt lat="46.18011" lon="7.55818"><ele>2129.8</ele><time>2025-08-09T13:14:27Z</time></trkpt>
<trkpt lat="46.18011" lon="7.55818"><ele>2129.8</ele><time>2025-08-09T13:14:28Z</time></trkpt>
<trkpt lat="46.18011" lon="7.55818"><ele>2129.8</ele><time>2025-08-09T13:14:34Z</time></trkpt>
<trkpt lat="46.18011" lon="7.55818"><ele>2129.8</ele><time>2025-08-09T13:14:38Z</time></trkpt>
<trkpt lat="46.18011" lon="7.55818"><ele>2129.8</ele><time>2025-08-09T13:14:41Z</time></trkpt>
<trkpt lat="46.18011" lon="7.55818"><ele>2129.8</ele><time>2025-08-09T13:14:42Z</time></trkpt>
<trkpt lat="46.18011" lon="7.5582"><ele>2129.8</ele><time>2025-08-09T13:14:46Z</time></trkpt>
<trkpt lat="46.18011" lon="7.5582"><ele>2129.8</ele><time>2025-08-09T13:14:48Z</time></trkpt>
<trkpt lat="46.18011" lon="7.5582"><ele>2129.8</ele><time>2025-08-09T13:14:49Z</time></trkpt>
<trkpt lat="46.18011" lon="7.5582"><ele>2129.8</ele><time>2025-08-09T13:14:53Z</time></trkpt>
<trkpt lat="46.18012" lon="7.5582"><ele>2129.8</ele><time>2025-08-09T13:14:54Z</time></trkpt>
<trkpt lat="46.18012" lon="7.5582"><ele>2129.8</ele><time>2025-08-09T13:14:55Z</time></trkpt>
<trkpt lat="46.18012" lon="7.5582"><ele>2129.8</ele><time>2025-08-09T13:14:57Z</time></trkpt>
<trkpt lat="46.18012" lon="7.5582"><ele>2129.8</ele><time>2025-08-09T13:15:03Z</time></trkpt>
<trkpt lat="46.18012" lon="7.5582"><ele>2129.8</ele><time>2025-08-09T13:15:05Z</time></trkpt>
<trkpt lat="46.18012" lon="7.5582"><ele>2129.8</ele><time>2025-08-09T13:15:12Z</time></trkpt>
<trkpt lat="46.18012" lon="7.5582"><ele>2129.8</ele><time>2025-08-09T13:15:14Z</time></trkpt>
<trkpt lat="46.18012" lon="7.5582"><ele>2129.8</ele><time>2025-08-09T13:15:16Z</time></trkpt>
<trkpt lat="46.18012" lon="7.5582"><ele>2129.8</ele><time>2025-08-09T13:15:17Z</time></trkpt>
<trkpt lat="46.18012" lon="7.5582"><ele>2129.8</ele><time>2025-08-09T13:15:33Z</time></trkpt>
<trkpt lat="46.18012" lon="7.5582"><ele>2129.8</ele><time>2025-08-09T13:15:39Z</time></trkpt>
<trkpt lat="46.18012" lon="7.5582"><ele>2129.8</ele><time>2025-08-09T13:15:45Z</time></trkpt>
<trkpt lat="46.18012" lon="7.5582"><ele>2129.8</ele><time>2025-08-09T13:15:48Z</time></trkpt>
<trkpt lat="46.18012" lon="7.5582"><ele>2129.8</ele><time>2025-08-09T13:16:04Z</time></trkpt>
<trkpt lat="46.18012" lon="7.5582"><ele>2129.8</ele><time>2025-08-09T13:16:08Z</time></trkpt>
<trkpt lat="46.18012" lon="7.5582"><ele>2129.8</ele><time>2025-08-09T13:16:13Z</time></trkpt>
<trkpt lat="46.18012" lon="7.5582"><ele>2129.8</ele><time>2025-08-09T13:16:16Z</time></trkpt>
<trkpt lat="46.18012" lon="7.5582"><ele>2129.8</ele><time>2025-08-09T13:16:19Z</time></trkpt>
<trkpt lat="46.18012" lon="7.5582"><ele>2129.8</ele><time>2025-08-09T13:16:24Z</time></trkpt>
<trkpt lat="46.18012" lon="7.5582"><ele>2129.8</ele><time>2025-08-09T13:16:25Z</time></trkpt>
<trkpt lat="46.18012" lon="7.5582"><ele>2129.8</ele><time>2025-08-09T13:16:26Z</time></trkpt>
<trkpt lat="46.18012" lon="7.5582"><ele>2129.8</ele><time>2025-08-09T13:16:27Z</time></trkpt>
<trkpt lat="46.18012" lon="7.5582"><ele>2129.8</ele><time>2025-08-09T13:16:39Z</time></trkpt>
<trkpt lat="46.18012" lon="7.5582"><ele>2129.8</ele><time>2025-08-09T13:16:43Z</time></trkpt>
<trkpt lat="46.18012" lon="7.5582"><ele>2129.8</ele><time>2025-08-09T13:16:53Z</time></trkpt>
<trkpt lat="46.18012" lon="7.5582"><ele>2129.8</ele><time>2025-08-09T13:16:54Z</time></trkpt>
<trkpt lat="46.18012" lon="7.5582"><ele>2129.8</ele><time>2025-08-09T13:16:59Z</time></trkpt>
<trkpt lat="46.18012" lon="7.5582"><ele>2129.8</ele><time>2025-08-09T13:17:09Z</time></trkpt>
<trkpt lat="46.18012" lon="7.5582"><ele>2129.8</ele><time>2025-08-09T13:17:13Z</time></trkpt>
<trkpt lat="46.18012" lon="7.5582"><ele>2129.8</ele><time>2025-08-09T13:17:36Z</time></trkpt>
<trkpt lat="46.18012" lon="7.5582"><ele>2129.8</ele><time>2025-08-09T13:17:46Z</time></trkpt>
<trkpt lat="46.18012" lon="7.5582"><ele>2129.8</ele><time>2025-08-09T13:17:54Z</time></trkpt>
<trkpt lat="46.18012" lon="7.5582"><ele>2129.8</ele><time>2025-08-09T13:17:55Z</time></trkpt>
<trkpt lat="46.18012" lon="7.5582"><ele>2129.8</ele><time>2025-08-09T13:18:09Z</time></trkpt>
<trkpt lat="46.18012" lon="7.5582"><ele>2129.8</ele><time>2025-08-09T13:18:18Z</time></trkpt>
<trkpt lat="46.18012" lon="7.5582"><ele>2129.8</ele><time>2025-08-09T13:18:19Z</time></trkpt>
<trkpt lat="46.18012" lon="7.5582"><ele>2129.8</ele><time>2025-08-09T13:18:21Z</time></trkpt>
<trkpt lat="46.18012" lon="7.5582"><ele>2129.8</ele><time>2025-08-09T13:18:24Z</time></trkpt>
<trkpt lat="46.18011" lon="7.55819"><ele>2129.8</ele><time>2025-08-09T13:18:27Z</time></trkpt>
<trkpt lat="46.18012" lon="7.5582"><ele>2129.8</ele><time>2025-08-09T13:18:34Z</time></trkpt>
<trkpt lat="46.18012" lon="7.5582"><ele>2129.8</ele><time>2025-08-09T13:18:45Z</time></trkpt>
<trkpt lat="46.1801" lon="7.55819"><ele>2129.8</ele><time>2025-08-09T13:18:50Z</time></trkpt>
<trkpt lat="46.1801" lon="7.55819"><ele>2129.8</ele><time>2025-08-09T13:18:55Z</time></trkpt>
<trkpt lat="46.1801" lon="7.55819"><ele>2129.8</ele><time>2025-08-09T13:18:58Z</time></trkpt>
<trkpt lat="46.1801" lon="7.55819"><ele>2129.8</ele><time>2025-08-09T13:19:03Z</time></trkpt>
<trkpt lat="46.1801" lon="7.55819"><ele>2129.8</ele><time>2025-08-09T13:19:04Z</time></trkpt>
<trkpt lat="46.1801" lon="7.55819"><ele>2129.8</ele><time>2025-08-09T13:19:11Z</time></trkpt>
<trkpt lat="46.1801" lon="7.55819"><ele>2129.8</ele><time>2025-08-09T13:19:17Z</time></trkpt>
<trkpt lat="46.1801" lon="7.55819"><ele>2129.8</ele><time>2025-08-09T13:19:21Z</time></trkpt>
<trkpt lat="46.1801" lon="7.55819"><ele>2129.8</ele><time>2025-08-09T13:19:28Z</time></trkpt>
<trkpt lat="46.1801" lon="7.55819"><ele>2129.8</ele><time>2025-08-09T13:19:30Z</time></trkpt>
<trkpt lat="46.1801" lon="7.55819"><ele>2129.8</ele><time>2025-08-09T13:19:34Z</time></trkpt>
<trkpt lat="46.1801" lon="7.55819"><ele>2129.8</ele><time>2025-08-09T13:19:36Z</time></trkpt>
<trkpt lat="46.1801" lon="7.55819"><ele>2129.8</ele><time>2025-08-09T13:19:46Z</time></trkpt>
<trkpt lat="46.1801" lon="7.55819"><ele>2129.8</ele><time>2025-08-09T13:20:01Z</time></trkpt>
<trkpt lat="46.1801" lon="7.55819"><ele>2129.8</ele><time>2025-08-09T13:20:10Z</time></trkpt>
<trkpt lat="46.1801" lon="7.55819"><ele>2129.8</ele><time>2025-08-09T13:20:14Z</time></trkpt>
<trkpt lat="46.18011" lon="7.55819"><ele>2129.8</ele><time>2025-08-09T13:20:18Z</time></trkpt>
<trkpt lat="46.1801" lon="7.55819"><ele>2129.8</ele><time>2025-08-09T13:20:27Z</time></trkpt>
<trkpt lat="46.1801" lon="7.55819"><ele>2129.8</ele><time>2025-08-09T13:20:31Z</time></trkpt>
<trkpt lat="46.18011" lon="7.55819"><ele>2129.8</ele><time>2025-08-09T13:20:34Z</time></trkpt>
<trkpt lat="46.18011" lon="7.55813"><ele>2129.8</ele><time>2025-08-09T13:20:38Z</time></trkpt>
<trkpt lat="46.18012" lon="7.5581"><ele>2129.8</ele><time>2025-08-09T13:20:43Z</time></trkpt>
<trkpt lat="46.18012" lon="7.55813"><ele>2129.8</ele><time>2025-08-09T13:20:49Z</time></trkpt>
<trkpt lat="46.18013" lon="7.55817"><ele>2129.8</ele><time>2025-08-09T13:20:53Z</time></trkpt>
<trkpt lat="46.18013" lon="7.55817"><ele>2129.8</ele><time>2025-08-09T13:20:54Z</time></trkpt>
<trkpt lat="46.18012" lon="7.55818"><ele>2129.8</ele><time>2025-08-09T13:20:56Z</time></trkpt>
<trkpt lat="46.18012" lon="7.55819"><ele>2129.8</ele><time>2025-08-09T13:20:59Z</time></trkpt>
<trkpt lat="46.1801" lon="7.55819"><ele>2129.8</ele><time>2025-08-09T13:21:05Z</time></trkpt>
<trkpt lat="46.18011" lon="7.55821"><ele>2129.8</ele><time>2025-08-09T13:21:09Z</time></trkpt>
<trkpt lat="46.18011" lon="7.5582"><ele>2129.8</ele><time>2025-08-09T13:21:14Z</time></trkpt>
<trkpt lat="46.18011" lon="7.55819"><ele>2129.8</ele><time>2025-08-09T13:21:21Z</time></trkpt>
<trkpt lat="46.18011" lon="7.55819"><ele>2129.8</ele><time>2025-08-09T13:21:27Z</time></trkpt>
<trkpt lat="46.18012" lon="7.55818"><ele>2129.8</ele><time>2025-08-09T13:21:33Z</time></trkpt>
<trkpt lat="46.18018" lon="7.55819"><ele>2129.8</ele><time>2025-08-09T13:21:40Z</time></trkpt>
<trkpt lat="46.18021" lon="7.55823"><ele>2130</ele><time>2025-08-09T13:21:45Z</time></trkpt>
<trkpt lat="46.18021" lon="7.55824"><ele>2130.2</ele><time>2025-08-09T13:21:51Z</time></trkpt>
<trkpt lat="46.18021" lon="7.55824"><ele>2130</ele><time>2025-08-09T13:21:56Z</time></trkpt>
<trkpt lat="46.18021" lon="7.55824"><ele>2130</ele><time>2025-08-09T13:22:01Z</time></trkpt>
<trkpt lat="46.18021" lon="7.55824"><ele>2129.8</ele><time>2025-08-09T13:22:08Z</time></trkpt>
<trkpt lat="46.18021" lon="7.55824"><ele>2130.2</ele><time>2025-08-09T13:22:14Z</time></trkpt>
<trkpt lat="46.18021" lon="7.55824"><ele>2130.4</ele><time>2025-08-09T13:22:16Z</time></trkpt>
<trkpt lat="46.18021" lon="7.55824"><ele>2130.2</ele><time>2025-08-09T13:22:25Z</time></trkpt>
<trkpt lat="46.18021" lon="7.55825"><ele>2129.8</ele><time>2025-08-09T13:22:29Z</time></trkpt>
<trkpt lat="46.18021" lon="7.55824"><ele>2129.8</ele><time>2025-08-09T13:22:30Z</time></trkpt>
<trkpt lat="46.18021" lon="7.55824"><ele>2130</ele><time>2025-08-09T13:22:31Z</time></trkpt>
<trkpt lat="46.18021" lon="7.55824"><ele>2130</ele><time>2025-08-09T13:22:33Z</time></trkpt>
<trkpt lat="46.18023" lon="7.55821"><ele>2130.2</ele><time>2025-08-09T13:22:40Z</time></trkpt>
<trkpt lat="46.18025" lon="7.55815"><ele>2129.8</ele><time>2025-08-09T13:22:45Z</time></trkpt>
<trkpt lat="46.18026" lon="7.55814"><ele>2129.8</ele><time>2025-08-09T13:22:46Z</time></trkpt>
<trkpt lat="46.1803" lon="7.55808"><ele>2130</ele><time>2025-08-09T13:22:51Z</time></trkpt>
<trkpt lat="46.18035" lon="7.55801"><ele>2129.4</ele><time>2025-08-09T13:22:56Z</time></trkpt>
<trkpt lat="46.18036" lon="7.55796"><ele>2129.6</ele><time>2025-08-09T13:22:59Z</time></trkpt>
<trkpt lat="46.18037" lon="7.55794"><ele>2129.6</ele><time>2025-08-09T13:23:00Z</time></trkpt>
<trkpt lat="46.18042" lon="7.55784"><ele>2129.8</ele><time>2025-08-09T13:23:05Z</time></trkpt>
<trkpt lat="46.18049" lon="7.55784"><ele>2129.6</ele><time>2025-08-09T13:23:07Z</time></trkpt>
<trkpt lat="46.18054" lon="7.55783"><ele>2129.2</ele><time>2025-08-09T13:23:08Z</time></trkpt>
<trkpt lat="46.18059" lon="7.55781"><ele>2128.8</ele><time>2025-08-09T13:23:09Z</time></trkpt>
<trkpt lat="46.18069" lon="7.55771"><ele>2128.2</ele><time>2025-08-09T13:23:11Z</time></trkpt>
<trkpt lat="46.18078" lon="7.55761"><ele>2127.8</ele><time>2025-08-09T13:23:13Z</time></trkpt>
<trkpt lat="46.18084" lon="7.55753"><ele>2127.2</ele><time>2025-08-09T13:23:15Z</time></trkpt>
<trkpt lat="46.18093" lon="7.55739"><ele>2127.2</ele><time>2025-08-09T13:23:19Z</time></trkpt>
<trkpt lat="46.18097" lon="7.55737"><ele>2127.2</ele><time>2025-08-09T13:23:20Z</time></trkpt>
<trkpt lat="46.18105" lon="7.55733"><ele>2126.8</ele><time>2025-08-09T13:23:22Z</time></trkpt>
<trkpt lat="46.18115" lon="7.55728"><ele>2126.2</ele><time>2025-08-09T13:23:25Z</time></trkpt>
<trkpt lat="46.1813" lon="7.55727"><ele>2126.6</ele><time>2025-08-09T13:23:29Z</time></trkpt>
<trkpt lat="46.18147" lon="7.55737"><ele>2126.4</ele><time>2025-08-09T13:23:34Z</time></trkpt>
<trkpt lat="46.18159" lon="7.55745"><ele>2125.2</ele><time>2025-08-09T13:23:37Z</time></trkpt>
<trkpt lat="46.18168" lon="7.55749"><ele>2124.2</ele><time>2025-08-09T13:23:39Z</time></trkpt>
<trkpt lat="46.18179" lon="7.55748"><ele>2123.6</ele><time>2025-08-09T13:23:41Z</time></trkpt>
<trkpt lat="46.18184" lon="7.55744"><ele>2123.4</ele><time>2025-08-09T13:23:42Z</time></trkpt>
<trkpt lat="46.18186" lon="7.55738"><ele>2123.2</ele><time>2025-08-09T13:23:43Z</time></trkpt>
<trkpt lat="46.18186" lon="7.55727"><ele>2123</ele><time>2025-08-09T13:23:45Z</time></trkpt>
<trkpt lat="46.18187" lon="7.55695"><ele>2124.2</ele><time>2025-08-09T13:23:51Z</time></trkpt>
<trkpt lat="46.18188" lon="7.55685"><ele>2124.4</ele><time>2025-08-09T13:23:53Z</time></trkpt>
<trkpt lat="46.18195" lon="7.55647"><ele>2124.4</ele><time>2025-08-09T13:24:00Z</time></trkpt>
<trkpt lat="46.18202" lon="7.55619"><ele>2123.6</ele><time>2025-08-09T13:24:04Z</time></trkpt>
<trkpt lat="46.18203" lon="7.55612"><ele>2123.4</ele><time>2025-08-09T13:24:05Z</time></trkpt>
<trkpt lat="46.18213" lon="7.55576"><ele>2123.4</ele><time>2025-08-09T13:24:10Z</time></trkpt>
<trkpt lat="46.18217" lon="7.55572"><ele>2123.6</ele><time>2025-08-09T13:24:11Z</time></trkpt>
<trkpt lat="46.18222" lon="7.5557"><ele>2123.8</ele><time>2025-08-09T13:24:12Z</time></trkpt>
<trkpt lat="46.1823" lon="7.5557"><ele>2124.2</ele><time>2025-08-09T13:24:14Z</time></trkpt>
<trkpt lat="46.18246" lon="7.55581"><ele>2125</ele><time>2025-08-09T13:24:19Z</time></trkpt>
<trkpt lat="46.18248" lon="7.55584"><ele>2125.4</ele><time>2025-08-09T13:24:20Z</time></trkpt>
<trkpt lat="46.18256" lon="7.556"><ele>2125.2</ele><time>2025-08-09T13:24:24Z</time></trkpt>
<trkpt lat="46.18263" lon="7.55617"><ele>2126.4</ele><time>2025-08-09T13:24:29Z</time></trkpt>
<trkpt lat="46.18266" lon="7.55623"><ele>2126.6</ele><time>2025-08-09T13:24:31Z</time></trkpt>
<trkpt lat="46.18271" lon="7.55633"><ele>2127.4</ele><time>2025-08-09T13:24:35Z</time></trkpt>
<trkpt lat="46.18272" lon="7.55635"><ele>2127.6</ele><time>2025-08-09T13:24:36Z</time></trkpt>
<trkpt lat="46.18277" lon="7.55645"><ele>2128.2</ele><time>2025-08-09T13:24:40Z</time></trkpt>
<trkpt lat="46.18278" lon="7.55648"><ele>2128.6</ele><time>2025-08-09T13:24:41Z</time></trkpt>
<trkpt lat="46.18283" lon="7.55657"><ele>2129.8</ele><time>2025-08-09T13:24:45Z</time></trkpt>
<trkpt lat="46.18285" lon="7.55661"><ele>2130</ele><time>2025-08-09T13:24:47Z</time></trkpt>
<trkpt lat="46.18298" lon="7.55677"><ele>2130.8</ele><time>2025-08-09T13:24:54Z</time></trkpt>
<trkpt lat="46.18305" lon="7.55686"><ele>2131</ele><time>2025-08-09T13:24:57Z</time></trkpt>
<trkpt lat="46.18311" lon="7.55697"><ele>2131.2</ele><time>2025-08-09T13:25:00Z</time></trkpt>
<trkpt lat="46.18318" lon="7.55719"><ele>2131.8</ele><time>2025-08-09T13:25:06Z</time></trkpt>
<trkpt lat="46.1832" lon="7.55722"><ele>2132</ele><time>2025-08-09T13:25:07Z</time></trkpt>
<trkpt lat="46.18324" lon="7.55741"><ele>2132.8</ele><time>2025-08-09T13:25:12Z</time></trkpt>
<trkpt lat="46.18325" lon="7.55745"><ele>2132.8</ele><time>2025-08-09T13:25:13Z</time></trkpt>
<trkpt lat="46.18326" lon="7.55757"><ele>2134</ele><time>2025-08-09T13:25:18Z</time></trkpt>
<trkpt lat="46.18328" lon="7.55762"><ele>2134.6</ele><time>2025-08-09T13:25:22Z</time></trkpt>
<trkpt lat="46.18328" lon="7.55763"><ele>2134.6</ele><time>2025-08-09T13:25:23Z</time></trkpt>
<trkpt lat="46.18329" lon="7.55765"><ele>2135</ele><time>2025-08-09T13:25:26Z</time></trkpt>
<trkpt lat="46.18329" lon="7.55765"><ele>2135.6</ele><time>2025-08-09T13:25:29Z</time></trkpt>
<trkpt lat="46.18329" lon="7.55765"><ele>2135</ele><time>2025-08-09T13:25:32Z</time></trkpt>
<trkpt lat="46.18329" lon="7.55772"><ele>2134</ele><time>2025-08-09T13:25:35Z</time></trkpt>
<trkpt lat="46.18332" lon="7.55801"><ele>2133.8</ele><time>2025-08-09T13:25:41Z</time></trkpt>
<trkpt lat="46.18335" lon="7.5582"><ele>2133.2</ele><time>2025-08-09T13:25:44Z</time></trkpt>
<trkpt lat="46.18336" lon="7.55828"><ele>2133</ele><time>2025-08-09T13:25:45Z</time></trkpt>
<trkpt lat="46.18337" lon="7.55835"><ele>2132.8</ele><time>2025-08-09T13:25:46Z</time></trkpt>
<trkpt lat="46.18342" lon="7.55861"><ele>2131.8</ele><time>2025-08-09T13:25:49Z</time></trkpt>
<trkpt lat="46.18346" lon="7.55889"><ele>2130.8</ele><time>2025-08-09T13:25:52Z</time></trkpt>
<trkpt lat="46.18347" lon="7.55899"><ele>2130.2</ele><time>2025-08-09T13:25:53Z</time></trkpt>
<trkpt lat="46.1835" lon="7.5592"><ele>2129</ele><time>2025-08-09T13:25:55Z</time></trkpt>
<trkpt lat="46.18353" lon="7.55943"><ele>2127.6</ele><time>2025-08-09T13:25:57Z</time></trkpt>
<trkpt lat="46.18354" lon="7.55956"><ele>2126.8</ele><time>2025-08-09T13:25:58Z</time></trkpt>
<trkpt lat="46.18354" lon="7.55969"><ele>2126</ele><time>2025-08-09T13:25:59Z</time></trkpt>
<trkpt lat="46.18356" lon="7.55995"><ele>2124.2</ele><time>2025-08-09T13:26:01Z</time></trkpt>
<trkpt lat="46.18359" lon="7.56018"><ele>2123</ele><time>2025-08-09T13:26:03Z</time></trkpt>
<trkpt lat="46.18371" lon="7.5605"><ele>2121.8</ele><time>2025-08-09T13:26:06Z</time></trkpt>
<trkpt lat="46.18376" lon="7.56061"><ele>2121.2</ele><time>2025-08-09T13:26:07Z</time></trkpt>
<trkpt lat="46.18381" lon="7.5607"><ele>2120.6</ele><time>2025-08-09T13:26:08Z</time></trkpt>
<trkpt lat="46.18392" lon="7.56087"><ele>2119.6</ele><time>2025-08-09T13:26:10Z</time></trkpt>
<trkpt lat="46.18402" lon="7.56102"><ele>2118.4</ele><time>2025-08-09T13:26:12Z</time></trkpt>
<trkpt lat="46.18407" lon="7.5611"><ele>2117.8</ele><time>2025-08-09T13:26:13Z</time></trkpt>
<trkpt lat="46.18411" lon="7.56119"><ele>2117.2</ele><time>2025-08-09T13:26:14Z</time></trkpt>
<trkpt lat="46.18414" lon="7.56128"><ele>2116.8</ele><time>2025-08-09T13:26:15Z</time></trkpt>
<trkpt lat="46.18422" lon="7.56165"><ele>2116</ele><time>2025-08-09T13:26:19Z</time></trkpt>
<trkpt lat="46.18423" lon="7.56173"><ele>2115.8</ele><time>2025-08-09T13:26:20Z</time></trkpt>
<trkpt lat="46.18424" lon="7.56181"><ele>2115.2</ele><time>2025-08-09T13:26:21Z</time></trkpt>
<trkpt lat="46.18425" lon="7.56188"><ele>2114.8</ele><time>2025-08-09T13:26:22Z</time></trkpt>
<trkpt lat="46.18426" lon="7.562"><ele>2114</ele><time>2025-08-09T13:26:24Z</time></trkpt>
<trkpt lat="46.18428" lon="7.56206"><ele>2113.8</ele><time>2025-08-09T13:26:25Z</time></trkpt>
<trkpt lat="46.18431" lon="7.56212"><ele>2113.4</ele><time>2025-08-09T13:26:26Z</time></trkpt>
<trkpt lat="46.18436" lon="7.56224"><ele>2112.6</ele><time>2025-08-09T13:26:28Z</time></trkpt>
<trkpt lat="46.1844" lon="7.5624"><ele>2111</ele><time>2025-08-09T13:26:30Z</time></trkpt>
<trkpt lat="46.18442" lon="7.56259"><ele>2109.2</ele><time>2025-08-09T13:26:32Z</time></trkpt>
<trkpt lat="46.18444" lon="7.5627"><ele>2108</ele><time>2025-08-09T13:26:33Z</time></trkpt>
<trkpt lat="46.1845" lon="7.56294"><ele>2106</ele><time>2025-08-09T13:26:35Z</time></trkpt>
<trkpt lat="46.18455" lon="7.56305"><ele>2104.6</ele><time>2025-08-09T13:26:36Z</time></trkpt>
<trkpt lat="46.1846" lon="7.56316"><ele>2103.4</ele><time>2025-08-09T13:26:37Z</time></trkpt>
<trkpt lat="46.18466" lon="7.56325"><ele>2102.4</ele><time>2025-08-09T13:26:38Z</time></trkpt>
<trkpt lat="46.18473" lon="7.56333"><ele>2100.8</ele><time>2025-08-09T13:26:39Z</time></trkpt>
<trkpt lat="46.1848" lon="7.56339"><ele>2099.8</ele><time>2025-08-09T13:26:40Z</time></trkpt>
<trkpt lat="46.18493" lon="7.5635"><ele>2097.8</ele><time>2025-08-09T13:26:42Z</time></trkpt>
<trkpt lat="46.18499" lon="7.56354"><ele>2096.6</ele><time>2025-08-09T13:26:43Z</time></trkpt>
<trkpt lat="46.18512" lon="7.56363"><ele>2094.8</ele><time>2025-08-09T13:26:45Z</time></trkpt>
<trkpt lat="46.18518" lon="7.56369"><ele>2093.4</ele><time>2025-08-09T13:26:46Z</time></trkpt>
<trkpt lat="46.18524" lon="7.56375"><ele>2092</ele><time>2025-08-09T13:26:47Z</time></trkpt>
<trkpt lat="46.18531" lon="7.56382"><ele>2090.6</ele><time>2025-08-09T13:26:48Z</time></trkpt>
<trkpt lat="46.18539" lon="7.5639"><ele>2089.2</ele><time>2025-08-09T13:26:49Z</time></trkpt>
<trkpt lat="46.18547" lon="7.56398"><ele>2087.8</ele><time>2025-08-09T13:26:50Z</time></trkpt>
<trkpt lat="46.18556" lon="7.56408"><ele>2086.2</ele><time>2025-08-09T13:26:51Z</time></trkpt>
<trkpt lat="46.18564" lon="7.56419"><ele>2084.4</ele><time>2025-08-09T13:26:52Z</time></trkpt>
<trkpt lat="46.18571" lon="7.5643"><ele>2082.8</ele><time>2025-08-09T13:26:53Z</time></trkpt>
<trkpt lat="46.18578" lon="7.5644"><ele>2081.4</ele><time>2025-08-09T13:26:54Z</time></trkpt>
<trkpt lat="46.18585" lon="7.56449"><ele>2080.6</ele><time>2025-08-09T13:26:55Z</time></trkpt>
<trkpt lat="46.18592" lon="7.56455"><ele>2080</ele><time>2025-08-09T13:26:56Z</time></trkpt>
<trkpt lat="46.18604" lon="7.56466"><ele>2079.4</ele><time>2025-08-09T13:26:58Z</time></trkpt>
<trkpt lat="46.18612" lon="7.56473"><ele>2078.6</ele><time>2025-08-09T13:27:00Z</time></trkpt>
<trkpt lat="46.1862" lon="7.5648"><ele>2077.8</ele><time>2025-08-09T13:27:02Z</time></trkpt>
<trkpt lat="46.18624" lon="7.56484"><ele>2077.6</ele><time>2025-08-09T13:27:03Z</time></trkpt>
<trkpt lat="46.18631" lon="7.56493"><ele>2076.8</ele><time>2025-08-09T13:27:05Z</time></trkpt>
<trkpt lat="46.18634" lon="7.56497"><ele>2076.4</ele><time>2025-08-09T13:27:06Z</time></trkpt>
<trkpt lat="46.18637" lon="7.56501"><ele>2076</ele><time>2025-08-09T13:27:07Z</time></trkpt>
<trkpt lat="46.18642" lon="7.5651"><ele>2075</ele><time>2025-08-09T13:27:09Z</time></trkpt>
<trkpt lat="46.18648" lon="7.56519"><ele>2074.2</ele><time>2025-08-09T13:27:11Z</time></trkpt>
<trkpt lat="46.18651" lon="7.56524"><ele>2073.6</ele><time>2025-08-09T13:27:12Z</time></trkpt>
<trkpt lat="46.18656" lon="7.5653"><ele>2072.8</ele><time>2025-08-09T13:27:13Z</time></trkpt>
<trkpt lat="46.1866" lon="7.56536"><ele>2072</ele><time>2025-08-09T13:27:14Z</time></trkpt>
<trkpt lat="46.18665" lon="7.56544"><ele>2071</ele><time>2025-08-09T13:27:15Z</time></trkpt>
<trkpt lat="46.18671" lon="7.56552"><ele>2069.8</ele><time>2025-08-09T13:27:16Z</time></trkpt>
<trkpt lat="46.18679" lon="7.56561"><ele>2068.6</ele><time>2025-08-09T13:27:17Z</time></trkpt>
<trkpt lat="46.18687" lon="7.5657"><ele>2067.4</ele><time>2025-08-09T13:27:18Z</time></trkpt>
<trkpt lat="46.18696" lon="7.5658"><ele>2066.2</ele><time>2025-08-09T13:27:19Z</time></trkpt>
<trkpt lat="46.18702" lon="7.56593"><ele>2065</ele><time>2025-08-09T13:27:20Z</time></trkpt>
<trkpt lat="46.18707" lon="7.56604"><ele>2063.8</ele><time>2025-08-09T13:27:21Z</time></trkpt>
<trkpt lat="46.18713" lon="7.56613"><ele>2063</ele><time>2025-08-09T13:27:22Z</time></trkpt>
<trkpt lat="46.18719" lon="7.56619"><ele>2062.2</ele><time>2025-08-09T13:27:23Z</time></trkpt>
<trkpt lat="46.18729" lon="7.56629"><ele>2060.8</ele><time>2025-08-09T13:27:25Z</time></trkpt>
<trkpt lat="46.18731" lon="7.56634"><ele>2060</ele><time>2025-08-09T13:27:26Z</time></trkpt>
<trkpt lat="46.18731" lon="7.56639"><ele>2059.4</ele><time>2025-08-09T13:27:27Z</time></trkpt>
<trkpt lat="46.18736" lon="7.56647"><ele>2059</ele><time>2025-08-09T13:27:29Z</time></trkpt>
<trkpt lat="46.1874" lon="7.56648"><ele>2059</ele><time>2025-08-09T13:27:30Z</time></trkpt>
<trkpt lat="46.18744" lon="7.56647"><ele>2059</ele><time>2025-08-09T13:27:31Z</time></trkpt>
<trkpt lat="46.18754" lon="7.56642"><ele>2059</ele><time>2025-08-09T13:27:33Z</time></trkpt>
<trkpt lat="46.18767" lon="7.56631"><ele>2058.8</ele><time>2025-08-09T13:27:36Z</time></trkpt>
<trkpt lat="46.18773" lon="7.56628"><ele>2059.2</ele><time>2025-08-09T13:27:38Z</time></trkpt>
<trkpt lat="46.18782" lon="7.56624"><ele>2060.4</ele><time>2025-08-09T13:27:42Z</time></trkpt>
<trkpt lat="46.18784" lon="7.56624"><ele>2060.8</ele><time>2025-08-09T13:27:43Z</time></trkpt>
<trkpt lat="46.18793" lon="7.56621"><ele>2061.4</ele><time>2025-08-09T13:27:47Z</time></trkpt>
<trkpt lat="46.18798" lon="7.5662"><ele>2061.6</ele><time>2025-08-09T13:27:49Z</time></trkpt>
<trkpt lat="46.18804" lon="7.56618"><ele>2062.2</ele><time>2025-08-09T13:27:52Z</time></trkpt>
<trkpt lat="46.18809" lon="7.56617"><ele>2062.6</ele><time>2025-08-09T13:27:55Z</time></trkpt>
<trkpt lat="46.18815" lon="7.56616"><ele>2063.4</ele><time>2025-08-09T13:27:58Z</time></trkpt>
<trkpt lat="46.18819" lon="7.56616"><ele>2063.8</ele><time>2025-08-09T13:28:00Z</time></trkpt>
<trkpt lat="46.18827" lon="7.56613"><ele>2064.2</ele><time>2025-08-09T13:28:04Z</time></trkpt>
<trkpt lat="46.18839" lon="7.56606"><ele>2064.4</ele><time>2025-08-09T13:28:09Z</time></trkpt>
<trkpt lat="46.18851" lon="7.56601"><ele>2064.2</ele><time>2025-08-09T13:28:12Z</time></trkpt>
<trkpt lat="46.1886" lon="7.56601"><ele>2064.4</ele><time>2025-08-09T13:28:14Z</time></trkpt>
<trkpt lat="46.18872" lon="7.56604"><ele>2064</ele><time>2025-08-09T13:28:17Z</time></trkpt>
<trkpt lat="46.18883" lon="7.56607"><ele>2063.6</ele><time>2025-08-09T13:28:20Z</time></trkpt>
<trkpt lat="46.18911" lon="7.56608"><ele>2063.4</ele><time>2025-08-09T13:28:27Z</time></trkpt>
<trkpt lat="46.18938" lon="7.56608"><ele>2063.6</ele><time>2025-08-09T13:28:34Z</time></trkpt>
<trkpt lat="46.18973" lon="7.566"><ele>2063</ele><time>2025-08-09T13:28:42Z</time></trkpt>
<trkpt lat="46.18978" lon="7.56598"><ele>2062.6</ele><time>2025-08-09T13:28:43Z</time></trkpt>
<trkpt lat="46.18983" lon="7.56598"><ele>2061.8</ele><time>2025-08-09T13:28:44Z</time></trkpt>
<trkpt lat="46.18989" lon="7.56599"><ele>2061.4</ele><time>2025-08-09T13:28:45Z</time></trkpt>
<trkpt lat="46.18995" lon="7.56601"><ele>2060.8</ele><time>2025-08-09T13:28:46Z</time></trkpt>
<trkpt lat="46.19001" lon="7.56604"><ele>2060.2</ele><time>2025-08-09T13:28:47Z</time></trkpt>
<trkpt lat="46.19014" lon="7.56609"><ele>2059</ele><time>2025-08-09T13:28:49Z</time></trkpt>
<trkpt lat="46.19025" lon="7.56611"><ele>2058.6</ele><time>2025-08-09T13:28:51Z</time></trkpt>
<trkpt lat="46.1903" lon="7.56609"><ele>2058</ele><time>2025-08-09T13:28:52Z</time></trkpt>
<trkpt lat="46.19034" lon="7.56604"><ele>2057.2</ele><time>2025-08-09T13:28:53Z</time></trkpt>
<trkpt lat="46.19043" lon="7.56595"><ele>2056.8</ele><time>2025-08-09T13:28:55Z</time></trkpt>
<trkpt lat="46.1905" lon="7.5659"><ele>2056</ele><time>2025-08-09T13:28:56Z</time></trkpt>
<trkpt lat="46.19058" lon="7.56587"><ele>2055.6</ele><time>2025-08-09T13:28:57Z</time></trkpt>
<trkpt lat="46.19064" lon="7.56584"><ele>2055.4</ele><time>2025-08-09T13:28:58Z</time></trkpt>
<trkpt lat="46.1907" lon="7.56582"><ele>2054.6</ele><time>2025-08-09T13:28:59Z</time></trkpt>
<trkpt lat="46.19081" lon="7.56582"><ele>2053.4</ele><time>2025-08-09T13:29:01Z</time></trkpt>
<trkpt lat="46.19093" lon="7.5658"><ele>2053.8</ele><time>2025-08-09T13:29:04Z</time></trkpt>
<trkpt lat="46.19099" lon="7.56581"><ele>2054</ele><time>2025-08-09T13:29:06Z</time></trkpt>
<trkpt lat="46.19105" lon="7.56583"><ele>2054</ele><time>2025-08-09T13:29:09Z</time></trkpt>
<trkpt lat="46.1911" lon="7.56583"><ele>2053.8</ele><time>2025-08-09T13:29:11Z</time></trkpt>
<trkpt lat="46.19111" lon="7.56582"><ele>2054</ele><time>2025-08-09T13:29:12Z</time></trkpt>
<trkpt lat="46.19111" lon="7.56581"><ele>2054.4</ele><time>2025-08-09T13:29:16Z</time></trkpt>
<trkpt lat="46.19111" lon="7.56581"><ele>2054.4</ele><time>2025-08-09T13:29:24Z</time></trkpt>
<trkpt lat="46.1911" lon="7.56582"><ele>2054.4</ele><time>2025-08-09T13:29:25Z</time></trkpt>
<trkpt lat="46.19109" lon="7.56585"><ele>2053.8</ele><time>2025-08-09T13:29:31Z</time></trkpt>
<trkpt lat="46.19111" lon="7.56585"><ele>2053.4</ele><time>2025-08-09T13:29:37Z</time></trkpt>
<trkpt lat="46.19111" lon="7.56585"><ele>2053.2</ele><time>2025-08-09T13:29:38Z</time></trkpt>
<trkpt lat="46.19111" lon="7.56585"><ele>2053.2</ele><time>2025-08-09T13:29:47Z</time></trkpt>
<trkpt lat="46.19111" lon="7.56585"><ele>2053</ele><time>2025-08-09T13:29:55Z</time></trkpt>
<trkpt lat="46.1911" lon="7.56586"><ele>2053</ele><time>2025-08-09T13:29:59Z</time></trkpt>
<trkpt lat="46.19112" lon="7.5659"><ele>2052.2</ele><time>2025-08-09T13:30:05Z</time></trkpt>
<trkpt lat="46.19112" lon="7.5659"><ele>2052</ele><time>2025-08-09T13:30:06Z</time></trkpt>
<trkpt lat="46.19114" lon="7.56593"><ele>2051</ele><time>2025-08-09T13:30:10Z</time></trkpt>
<trkpt lat="46.19115" lon="7.56593"><ele>2050.8</ele><time>2025-08-09T13:30:11Z</time></trkpt>
<trkpt lat="46.19117" lon="7.56596"><ele>2049.8</ele><time>2025-08-09T13:30:15Z</time></trkpt>
<trkpt lat="46.1912" lon="7.56597"><ele>2048.8</ele><time>2025-08-09T13:30:18Z</time></trkpt>
<trkpt lat="46.1912" lon="7.56598"><ele>2048.4</ele><time>2025-08-09T13:30:19Z</time></trkpt>
<trkpt lat="46.1912" lon="7.566"><ele>2047.6</ele><time>2025-08-09T13:30:21Z</time></trkpt>
<trkpt lat="46.19122" lon="7.56604"><ele>2046.6</ele><time>2025-08-09T13:30:24Z</time></trkpt>
<trkpt lat="46.19123" lon="7.56606"><ele>2045.8</ele><time>2025-08-09T13:30:26Z</time></trkpt>
<trkpt lat="46.19124" lon="7.56607"><ele>2045.4</ele><time>2025-08-09T13:30:27Z</time></trkpt>
<trkpt lat="46.19126" lon="7.56604"><ele>2044.2</ele><time>2025-08-09T13:30:31Z</time></trkpt>
<trkpt lat="46.19127" lon="7.56604"><ele>2044.2</ele><time>2025-08-09T13:30:32Z</time></trkpt>
<trkpt lat="46.19129" lon="7.56604"><ele>2043.8</ele><time>2025-08-09T13:30:38Z</time></trkpt>
<trkpt lat="46.19131" lon="7.56604"><ele>2043.6</ele><time>2025-08-09T13:30:39Z</time></trkpt>
<trkpt lat="46.19134" lon="7.56602"><ele>2043.2</ele><time>2025-08-09T13:30:40Z</time></trkpt>
<trkpt lat="46.1914" lon="7.56596"><ele>2042.4</ele><time>2025-08-09T13:30:43Z</time></trkpt>
<trkpt lat="46.19144" lon="7.56596"><ele>2042.6</ele><time>2025-08-09T13:30:46Z</time></trkpt>
<trkpt lat="46.19146" lon="7.56597"><ele>2042.4</ele><time>2025-08-09T13:30:47Z</time></trkpt>
<trkpt lat="46.19147" lon="7.56596"><ele>2042.2</ele><time>2025-08-09T13:30:48Z</time></trkpt>
<trkpt lat="46.1915" lon="7.56593"><ele>2041.8</ele><time>2025-08-09T13:30:49Z</time></trkpt>
<trkpt lat="46.19155" lon="7.56589"><ele>2041.2</ele><time>2025-08-09T13:30:51Z</time></trkpt>
<trkpt lat="46.19156" lon="7.56586"><ele>2040.8</ele><time>2025-08-09T13:30:52Z</time></trkpt>
<trkpt lat="46.19162" lon="7.56577"><ele>2040</ele><time>2025-08-09T13:30:55Z</time></trkpt>
<trkpt lat="46.19165" lon="7.56577"><ele>2039.6</ele><time>2025-08-09T13:30:56Z</time></trkpt>
<trkpt lat="46.19169" lon="7.56571"><ele>2038.8</ele><time>2025-08-09T13:30:58Z</time></trkpt>
<trkpt lat="46.19171" lon="7.56568"><ele>2038.2</ele><time>2025-08-09T13:30:59Z</time></trkpt>
<trkpt lat="46.19175" lon="7.56562"><ele>2037.2</ele><time>2025-08-09T13:31:01Z</time></trkpt>
<trkpt lat="46.19179" lon="7.56556"><ele>2036.2</ele><time>2025-08-09T13:31:03Z</time></trkpt>
<trkpt lat="46.19181" lon="7.56553"><ele>2035.8</ele><time>2025-08-09T13:31:04Z</time></trkpt>
<trkpt lat="46.19184" lon="7.56547"><ele>2034.6</ele><time>2025-08-09T13:31:06Z</time></trkpt>
<trkpt lat="46.19185" lon="7.56546"><ele>2034.4</ele><time>2025-08-09T13:31:07Z</time></trkpt>
<trkpt lat="46.19187" lon="7.56543"><ele>2033.8</ele><time>2025-08-09T13:31:12Z</time></trkpt>
<trkpt lat="46.19189" lon="7.56542"><ele>2033.6</ele><time>2025-08-09T13:31:17Z</time></trkpt>
<trkpt lat="46.1919" lon="7.5654"><ele>2033.4</ele><time>2025-08-09T13:31:19Z</time></trkpt>
<trkpt lat="46.19195" lon="7.56539"><ele>2033</ele><time>2025-08-09T13:31:23Z</time></trkpt>
<trkpt lat="46.19204" lon="7.56533"><ele>2033</ele><time>2025-08-09T13:31:29Z</time></trkpt>
<trkpt lat="46.19211" lon="7.56532"><ele>2032.8</ele><time>2025-08-09T13:31:32Z</time></trkpt>
<trkpt lat="46.19214" lon="7.56531"><ele>2032.2</ele><time>2025-08-09T13:31:33Z</time></trkpt>
<trkpt lat="46.1922" lon="7.56528"><ele>2030.8</ele><time>2025-08-09T13:31:35Z</time></trkpt>
<trkpt lat="46.19224" lon="7.56523"><ele>2030</ele><time>2025-08-09T13:31:37Z</time></trkpt>
<trkpt lat="46.19226" lon="7.56522"><ele>2030.2</ele><time>2025-08-09T13:31:41Z</time></trkpt>
<trkpt lat="46.1923" lon="7.56519"><ele>2029.8</ele><time>2025-08-09T13:31:45Z</time></trkpt>
<trkpt lat="46.19231" lon="7.56518"><ele>2029.6</ele><time>2025-08-09T13:31:46Z</time></trkpt>
<trkpt lat="46.19232" lon="7.56518"><ele>2029.4</ele><time>2025-08-09T13:31:47Z</time></trkpt>
<trkpt lat="46.19232" lon="7.56516"><ele>2028.8</ele><time>2025-08-09T13:31:49Z</time></trkpt>
<trkpt lat="46.19232" lon="7.56516"><ele>2028.4</ele><time>2025-08-09T13:31:50Z</time></trkpt>
<trkpt lat="46.19233" lon="7.56515"><ele>2028.2</ele><time>2025-08-09T13:31:52Z</time></trkpt>
<trkpt lat="46.1924" lon="7.56508"><ele>2027.8</ele><time>2025-08-09T13:31:55Z</time></trkpt>
<trkpt lat="46.19242" lon="7.56506"><ele>2027.4</ele><time>2025-08-09T13:31:57Z</time></trkpt>
<trkpt lat="46.19243" lon="7.56505"><ele>2027.4</ele><time>2025-08-09T13:31:58Z</time></trkpt>
<trkpt lat="46.19247" lon="7.56505"><ele>2027.6</ele><time>2025-08-09T13:32:04Z</time></trkpt>
<trkpt lat="46.19251" lon="7.56503"><ele>2028.2</ele><time>2025-08-09T13:32:09Z</time></trkpt>
<trkpt lat="46.19252" lon="7.56502"><ele>2028.6</ele><time>2025-08-09T13:32:11Z</time></trkpt>
<trkpt lat="46.19254" lon="7.56501"><ele>2028.8</ele><time>2025-08-09T13:32:13Z</time></trkpt>
<trkpt lat="46.19255" lon="7.565"><ele>2028.6</ele><time>2025-08-09T13:32:14Z</time></trkpt>
<trkpt lat="46.19261" lon="7.56494"><ele>2028</ele><time>2025-08-09T13:32:17Z</time></trkpt>
<trkpt lat="46.19266" lon="7.56492"><ele>2028.6</ele><time>2025-08-09T13:32:21Z</time></trkpt>
<trkpt lat="46.19267" lon="7.5649"><ele>2029</ele><time>2025-08-09T13:32:26Z</time></trkpt>
<trkpt lat="46.19268" lon="7.56486"><ele>2029</ele><time>2025-08-09T13:32:31Z</time></trkpt>
<trkpt lat="46.19271" lon="7.56483"><ele>2029.2</ele><time>2025-08-09T13:32:35Z</time></trkpt>
<trkpt lat="46.19272" lon="7.56483"><ele>2029.2</ele><time>2025-08-09T13:32:36Z</time></trkpt>
<trkpt lat="46.19276" lon="7.56484"><ele>2029.4</ele><time>2025-08-09T13:32:42Z</time></trkpt>
<trkpt lat="46.19279" lon="7.56487"><ele>2028.2</ele><time>2025-08-09T13:32:47Z</time></trkpt>
<trkpt lat="46.19279" lon="7.56489"><ele>2027.8</ele><time>2025-08-09T13:32:49Z</time></trkpt>
<trkpt lat="46.1928" lon="7.5649"><ele>2027.4</ele><time>2025-08-09T13:32:50Z</time></trkpt>
<trkpt lat="46.19281" lon="7.56492"><ele>2026.4</ele><time>2025-08-09T13:32:53Z</time></trkpt>
<trkpt lat="46.19283" lon="7.56494"><ele>2025.8</ele><time>2025-08-09T13:32:55Z</time></trkpt>
<trkpt lat="46.19284" lon="7.56497"><ele>2025.2</ele><time>2025-08-09T13:32:57Z</time></trkpt>
<trkpt lat="46.19287" lon="7.56499"><ele>2024.4</ele><time>2025-08-09T13:33:00Z</time></trkpt>
<trkpt lat="46.19289" lon="7.565"><ele>2024.2</ele><time>2025-08-09T13:33:02Z</time></trkpt>
<trkpt lat="46.19293" lon="7.56501"><ele>2024.2</ele><time>2025-08-09T13:33:05Z</time></trkpt>
<trkpt lat="46.19293" lon="7.56501"><ele>2024.4</ele><time>2025-08-09T13:33:06Z</time></trkpt>
<trkpt lat="46.19294" lon="7.56501"><ele>2024.4</ele><time>2025-08-09T13:33:07Z</time></trkpt>
<trkpt lat="46.19295" lon="7.56501"><ele>2024.2</ele><time>2025-08-09T13:33:09Z</time></trkpt>
<trkpt lat="46.19298" lon="7.56503"><ele>2024.2</ele><time>2025-08-09T13:33:11Z</time></trkpt>
<trkpt lat="46.19304" lon="7.56504"><ele>2023</ele><time>2025-08-09T13:33:14Z</time></trkpt>
<trkpt lat="46.19309" lon="7.56501"><ele>2022.4</ele><time>2025-08-09T13:33:17Z</time></trkpt>
<trkpt lat="46.19312" lon="7.56498"><ele>2022.8</ele><time>2025-08-09T13:33:20Z</time></trkpt>
<trkpt lat="46.19313" lon="7.56495"><ele>2023</ele><time>2025-08-09T13:33:22Z</time></trkpt>
<trkpt lat="46.19317" lon="7.56485"><ele>2023.4</ele><time>2025-08-09T13:33:28Z</time></trkpt>
<trkpt lat="46.19322" lon="7.56469"><ele>2024.2</ele><time>2025-08-09T13:33:35Z</time></trkpt>
<trkpt lat="46.19324" lon="7.56466"><ele>2024.4</ele><time>2025-08-09T13:33:37Z</time></trkpt>
<trkpt lat="46.1933" lon="7.5646"><ele>2025</ele><time>2025-08-09T13:33:42Z</time></trkpt>
<trkpt lat="46.19331" lon="7.5646"><ele>2025.2</ele><time>2025-08-09T13:33:43Z</time></trkpt>
<trkpt lat="46.19338" lon="7.56457"><ele>2025.8</ele><time>2025-08-09T13:33:47Z</time></trkpt>
<trkpt lat="46.19339" lon="7.56456"><ele>2026</ele><time>2025-08-09T13:33:48Z</time></trkpt>
<trkpt lat="46.19342" lon="7.56455"><ele>2026.2</ele><time>2025-08-09T13:33:50Z</time></trkpt>
<trkpt lat="46.19348" lon="7.5645"><ele>2027</ele><time>2025-08-09T13:33:55Z</time></trkpt>
<trkpt lat="46.19349" lon="7.56449"><ele>2027</ele><time>2025-08-09T13:33:56Z</time></trkpt>
<trkpt lat="46.19351" lon="7.56446"><ele>2027.2</ele><time>2025-08-09T13:33:58Z</time></trkpt>
<trkpt lat="46.19356" lon="7.56441"><ele>2027.8</ele><time>2025-08-09T13:34:02Z</time></trkpt>
<trkpt lat="46.19362" lon="7.56437"><ele>2028.4</ele><time>2025-08-09T13:34:06Z</time></trkpt>
<trkpt lat="46.19365" lon="7.56436"><ele>2028.6</ele><time>2025-08-09T13:34:08Z</time></trkpt>
<trkpt lat="46.19376" lon="7.56435"><ele>2029.4</ele><time>2025-08-09T13:34:15Z</time></trkpt>
<trkpt lat="46.19377" lon="7.56435"><ele>2029.6</ele><time>2025-08-09T13:34:16Z</time></trkpt>
<trkpt lat="46.1938" lon="7.56435"><ele>2030</ele><time>2025-08-09T13:34:19Z</time></trkpt>
<trkpt lat="46.19383" lon="7.56435"><ele>2030.6</ele><time>2025-08-09T13:34:22Z</time></trkpt>
<trkpt lat="46.19385" lon="7.56435"><ele>2030.8</ele><time>2025-08-09T13:34:24Z</time></trkpt>
<trkpt lat="46.19393" lon="7.56433"><ele>2031.6</ele><time>2025-08-09T13:34:30Z</time></trkpt>
<trkpt lat="46.19395" lon="7.56432"><ele>2031.8</ele><time>2025-08-09T13:34:31Z</time></trkpt>
<trkpt lat="46.19396" lon="7.56431"><ele>2032</ele><time>2025-08-09T13:34:32Z</time></trkpt>
<trkpt lat="46.19397" lon="7.5643"><ele>2032</ele><time>2025-08-09T13:34:33Z</time></trkpt>
<trkpt lat="46.19399" lon="7.56429"><ele>2032.2</ele><time>2025-08-09T13:34:34Z</time></trkpt>
<trkpt lat="46.19401" lon="7.56428"><ele>2032.6</ele><time>2025-08-09T13:34:36Z</time></trkpt>
<trkpt lat="46.19403" lon="7.56428"><ele>2032.8</ele><time>2025-08-09T13:34:37Z</time></trkpt>
<trkpt lat="46.19404" lon="7.56428"><ele>2032.8</ele><time>2025-08-09T13:34:38Z</time></trkpt>
<trkpt lat="46.19411" lon="7.56423"><ele>2033.4</ele><time>2025-08-09T13:34:43Z</time></trkpt>
<trkpt lat="46.19412" lon="7.56423"><ele>2033.4</ele><time>2025-08-09T13:34:44Z</time></trkpt>
<trkpt lat="46.19414" lon="7.56422"><ele>2033.6</ele><time>2025-08-09T13:34:45Z</time></trkpt>
<trkpt lat="46.19415" lon="7.56421"><ele>2033.8</ele><time>2025-08-09T13:34:46Z</time></trkpt>
<trkpt lat="46.19422" lon="7.56418"><ele>2034.6</ele><time>2025-08-09T13:34:51Z</time></trkpt>
<trkpt lat="46.19423" lon="7.56418"><ele>2034.8</ele><time>2025-08-09T13:34:52Z</time></trkpt>
<trkpt lat="46.1943" lon="7.5642"><ele>2035.6</ele><time>2025-08-09T13:34:57Z</time></trkpt>
<trkpt lat="46.19433" lon="7.56421"><ele>2035.8</ele><time>2025-08-09T13:34:59Z</time></trkpt>
<trkpt lat="46.19441" lon="7.56426"><ele>2036.2</ele><time>2025-08-09T13:35:05Z</time></trkpt>
<trkpt lat="46.19451" lon="7.56433"><ele>2036.8</ele><time>2025-08-09T13:35:11Z</time></trkpt>
<trkpt lat="46.19454" lon="7.56435"><ele>2037.2</ele><time>2025-08-09T13:35:13Z</time></trkpt>
<trkpt lat="46.19465" lon="7.56436"><ele>2038</ele><time>2025-08-09T13:35:19Z</time></trkpt>
<trkpt lat="46.1948" lon="7.56432"><ele>2039.2</ele><time>2025-08-09T13:35:26Z</time></trkpt>
<trkpt lat="46.19482" lon="7.56432"><ele>2039.2</ele><time>2025-08-09T13:35:27Z</time></trkpt>
<trkpt lat="46.19493" lon="7.56433"><ele>2040.2</ele><time>2025-08-09T13:35:33Z</time></trkpt>
<trkpt lat="46.19496" lon="7.56434"><ele>2040.6</ele><time>2025-08-09T13:35:35Z</time></trkpt>
<trkpt lat="46.19507" lon="7.56443"><ele>2041.4</ele><time>2025-08-09T13:35:42Z</time></trkpt>
<trkpt lat="46.19511" lon="7.56446"><ele>2041.6</ele><time>2025-08-09T13:35:45Z</time></trkpt>
<trkpt lat="46.19518" lon="7.56457"><ele>2042.2</ele><time>2025-08-09T13:35:51Z</time></trkpt>
<trkpt lat="46.1952" lon="7.56459"><ele>2042.4</ele><time>2025-08-09T13:35:53Z</time></trkpt>
<trkpt lat="46.19526" lon="7.56465"><ele>2042.8</ele><time>2025-08-09T13:35:58Z</time></trkpt>
<trkpt lat="46.19533" lon="7.56475"><ele>2043.4</ele><time>2025-08-09T13:36:04Z</time></trkpt>
<trkpt lat="46.19536" lon="7.56477"><ele>2043.6</ele><time>2025-08-09T13:36:06Z</time></trkpt>
<trkpt lat="46.19546" lon="7.56482"><ele>2044.4</ele><time>2025-08-09T13:36:13Z</time></trkpt>
<trkpt lat="46.19549" lon="7.56483"><ele>2044.4</ele><time>2025-08-09T13:36:15Z</time></trkpt>
<trkpt lat="46.19559" lon="7.56485"><ele>2045.2</ele><time>2025-08-09T13:36:22Z</time></trkpt>
<trkpt lat="46.19564" lon="7.56485"><ele>2045.6</ele><time>2025-08-09T13:36:25Z</time></trkpt>
<trkpt lat="46.1957" lon="7.56484"><ele>2046</ele><time>2025-08-09T13:36:30Z</time></trkpt>
<trkpt lat="46.19578" lon="7.56481"><ele>2046.6</ele><time>2025-08-09T13:36:35Z</time></trkpt>
<trkpt lat="46.19581" lon="7.56479"><ele>2046.8</ele><time>2025-08-09T13:36:37Z</time></trkpt>
<trkpt lat="46.19589" lon="7.56474"><ele>2047.6</ele><time>2025-08-09T13:36:44Z</time></trkpt>
<trkpt lat="46.19599" lon="7.56464"><ele>2048.4</ele><time>2025-08-09T13:36:52Z</time></trkpt>
<trkpt lat="46.19607" lon="7.56455"><ele>2048.8</ele><time>2025-08-09T13:36:58Z</time></trkpt>
<trkpt lat="46.19615" lon="7.56445"><ele>2049.4</ele><time>2025-08-09T13:37:05Z</time></trkpt>
<trkpt lat="46.19617" lon="7.56443"><ele>2049.8</ele><time>2025-08-09T13:37:07Z</time></trkpt>
<trkpt lat="46.19624" lon="7.56435"><ele>2050.4</ele><time>2025-08-09T13:37:13Z</time></trkpt>
<trkpt lat="46.19627" lon="7.5643"><ele>2050.8</ele><time>2025-08-09T13:37:16Z</time></trkpt>
<trkpt lat="46.1963" lon="7.56427"><ele>2051.2</ele><time>2025-08-09T13:37:19Z</time></trkpt>
<trkpt lat="46.19635" lon="7.56419"><ele>2052</ele><time>2025-08-09T13:37:24Z</time></trkpt>
<trkpt lat="46.19635" lon="7.56418"><ele>2052.2</ele><time>2025-08-09T13:37:25Z</time></trkpt>
<trkpt lat="46.19641" lon="7.5641"><ele>2053</ele><time>2025-08-09T13:37:30Z</time></trkpt>
<trkpt lat="46.19642" lon="7.56409"><ele>2053</ele><time>2025-08-09T13:37:31Z</time></trkpt>
<trkpt lat="46.19646" lon="7.56406"><ele>2053.4</ele><time>2025-08-09T13:37:34Z</time></trkpt>
<trkpt lat="46.19649" lon="7.56405"><ele>2053.8</ele><time>2025-08-09T13:37:36Z</time></trkpt>
<trkpt lat="46.19651" lon="7.56405"><ele>2054.2</ele><time>2025-08-09T13:37:38Z</time></trkpt>
<trkpt lat="46.19657" lon="7.56407"><ele>2054.6</ele><time>2025-08-09T13:37:42Z</time></trkpt>
<trkpt lat="46.19662" lon="7.5641"><ele>2055.2</ele><time>2025-08-09T13:37:46Z</time></trkpt>
<trkpt lat="46.19665" lon="7.56413"><ele>2055.4</ele><time>2025-08-09T13:37:48Z</time></trkpt>
<trkpt lat="46.19673" lon="7.56418"><ele>2056.2</ele><time>2025-08-09T13:37:54Z</time></trkpt>
<trkpt lat="46.19674" lon="7.56419"><ele>2056.4</ele><time>2025-08-09T13:37:55Z</time></trkpt>
<trkpt lat="46.19682" lon="7.56424"><ele>2057.4</ele><time>2025-08-09T13:38:02Z</time></trkpt>
<trkpt lat="46.19691" lon="7.56431"><ele>2058.2</ele><time>2025-08-09T13:38:10Z</time></trkpt>
<trkpt lat="46.19692" lon="7.56432"><ele>2058.4</ele><time>2025-08-09T13:38:12Z</time></trkpt>
<trkpt lat="46.19697" lon="7.56435"><ele>2059.2</ele><time>2025-08-09T13:38:16Z</time></trkpt>
<trkpt lat="46.197" lon="7.56436"><ele>2059.4</ele><time>2025-08-09T13:38:18Z</time></trkpt>
<trkpt lat="46.19703" lon="7.56437"><ele>2060</ele><time>2025-08-09T13:38:21Z</time></trkpt>
<trkpt lat="46.19708" lon="7.56438"><ele>2060.4</ele><time>2025-08-09T13:38:25Z</time></trkpt>
<trkpt lat="46.1971" lon="7.56438"><ele>2060.4</ele><time>2025-08-09T13:38:26Z</time></trkpt>
<trkpt lat="46.19711" lon="7.56438"><ele>2060.6</ele><time>2025-08-09T13:38:27Z</time></trkpt>
<trkpt lat="46.19715" lon="7.56439"><ele>2061</ele><time>2025-08-09T13:38:31Z</time></trkpt>
<trkpt lat="46.19718" lon="7.56439"><ele>2061.4</ele><time>2025-08-09T13:38:33Z</time></trkpt>
<trkpt lat="46.1972" lon="7.56439"><ele>2061.6</ele><time>2025-08-09T13:38:35Z</time></trkpt>
<trkpt lat="46.19724" lon="7.56438"><ele>2062</ele><time>2025-08-09T13:38:39Z</time></trkpt>
<trkpt lat="46.19734" lon="7.56435"><ele>2062.6</ele><time>2025-08-09T13:38:46Z</time></trkpt>
<trkpt lat="46.19739" lon="7.56435"><ele>2063.6</ele><time>2025-08-09T13:38:50Z</time></trkpt>
<trkpt lat="46.1974" lon="7.56436"><ele>2063.8</ele><time>2025-08-09T13:38:51Z</time></trkpt>
<trkpt lat="46.19741" lon="7.56437"><ele>2064</ele><time>2025-08-09T13:38:52Z</time></trkpt>
<trkpt lat="46.19742" lon="7.56434"><ele>2064</ele><time>2025-08-09T13:38:54Z</time></trkpt>
<trkpt lat="46.19743" lon="7.56433"><ele>2064.4</ele><time>2025-08-09T13:38:56Z</time></trkpt>
<trkpt lat="46.19744" lon="7.56432"><ele>2064.6</ele><time>2025-08-09T13:38:57Z</time></trkpt>
<trkpt lat="46.19748" lon="7.56433"><ele>2065.2</ele><time>2025-08-09T13:39:01Z</time></trkpt>
<trkpt lat="46.19752" lon="7.56432"><ele>2065.8</ele><time>2025-08-09T13:39:06Z</time></trkpt>
<trkpt lat="46.19753" lon="7.56432"><ele>2065.8</ele><time>2025-08-09T13:39:07Z</time></trkpt>
<trkpt lat="46.19759" lon="7.56428"><ele>2066.8</ele><time>2025-08-09T13:39:12Z</time></trkpt>
<trkpt lat="46.1976" lon="7.56428"><ele>2066.8</ele><time>2025-08-09T13:39:13Z</time></trkpt>
<trkpt lat="46.19765" lon="7.56424"><ele>2067.2</ele><time>2025-08-09T13:39:19Z</time></trkpt>
<trkpt lat="46.19771" lon="7.56421"><ele>2067.8</ele><time>2025-08-09T13:39:24Z</time></trkpt>
<trkpt lat="46.19778" lon="7.5642"><ele>2068.6</ele><time>2025-08-09T13:39:31Z</time></trkpt>
<trkpt lat="46.19782" lon="7.56418"><ele>2068.8</ele><time>2025-08-09T13:39:35Z</time></trkpt>
<trkpt lat="46.19784" lon="7.56417"><ele>2069.2</ele><time>2025-08-09T13:39:37Z</time></trkpt>
<trkpt lat="46.19792" lon="7.5641"><ele>2070</ele><time>2025-08-09T13:39:45Z</time></trkpt>
<trkpt lat="46.19798" lon="7.56403"><ele>2070.6</ele><time>2025-08-09T13:39:51Z</time></trkpt>
<trkpt lat="46.19803" lon="7.56395"><ele>2071</ele><time>2025-08-09T13:39:56Z</time></trkpt>
<trkpt lat="46.19804" lon="7.56394"><ele>2071</ele><time>2025-08-09T13:39:57Z</time></trkpt>
<trkpt lat="46.1981" lon="7.56386"><ele>2071.8</ele><time>2025-08-09T13:40:04Z</time></trkpt>
<trkpt lat="46.19813" lon="7.56384"><ele>2072.2</ele><time>2025-08-09T13:40:06Z</time></trkpt>
<trkpt lat="46.19817" lon="7.56379"><ele>2072.6</ele><time>2025-08-09T13:40:10Z</time></trkpt>
<trkpt lat="46.19821" lon="7.56377"><ele>2073.2</ele><time>2025-08-09T13:40:14Z</time></trkpt>
<trkpt lat="46.19826" lon="7.56374"><ele>2073.8</ele><time>2025-08-09T13:40:18Z</time></trkpt>
<trkpt lat="46.1983" lon="7.56373"><ele>2074.2</ele><time>2025-08-09T13:40:22Z</time></trkpt>
<trkpt lat="46.19833" lon="7.56373"><ele>2074.6</ele><time>2025-08-09T13:40:25Z</time></trkpt>
<trkpt lat="46.19837" lon="7.56371"><ele>2075.2</ele><time>2025-08-09T13:40:28Z</time></trkpt>
<trkpt lat="46.19842" lon="7.56368"><ele>2075.8</ele><time>2025-08-09T13:40:32Z</time></trkpt>
<trkpt lat="46.19847" lon="7.56363"><ele>2076.4</ele><time>2025-08-09T13:40:36Z</time></trkpt>
<trkpt lat="46.19849" lon="7.56362"><ele>2076.6</ele><time>2025-08-09T13:40:38Z</time></trkpt>
<trkpt lat="46.19856" lon="7.56355"><ele>2077.2</ele><time>2025-08-09T13:40:45Z</time></trkpt>
<trkpt lat="46.19859" lon="7.56353"><ele>2077.4</ele><time>2025-08-09T13:40:47Z</time></trkpt>
<trkpt lat="46.19867" lon="7.5635"><ele>2078</ele><time>2025-08-09T13:40:53Z</time></trkpt>
<trkpt lat="46.1987" lon="7.56349"><ele>2078.4</ele><time>2025-08-09T13:40:55Z</time></trkpt>
<trkpt lat="46.19878" lon="7.56344"><ele>2079.4</ele><time>2025-08-09T13:41:01Z</time></trkpt>
<trkpt lat="46.19879" lon="7.56343"><ele>2079.4</ele><time>2025-08-09T13:41:02Z</time></trkpt>
<trkpt lat="46.19886" lon="7.56334"><ele>2080</ele><time>2025-08-09T13:41:08Z</time></trkpt>
<trkpt lat="46.1989" lon="7.56327"><ele>2080.6</ele><time>2025-08-09T13:41:12Z</time></trkpt>
<trkpt lat="46.19893" lon="7.56323"><ele>2081</ele><time>2025-08-09T13:41:15Z</time></trkpt>
<trkpt lat="46.19898" lon="7.56316"><ele>2081.8</ele><time>2025-08-09T13:41:20Z</time></trkpt>
<trkpt lat="46.19901" lon="7.56312"><ele>2082.2</ele><time>2025-08-09T13:41:23Z</time></trkpt>
<trkpt lat="46.19907" lon="7.5631"><ele>2082.8</ele><time>2025-08-09T13:41:28Z</time></trkpt>
<trkpt lat="46.19913" lon="7.56309"><ele>2083.2</ele><time>2025-08-09T13:41:32Z</time></trkpt>
<trkpt lat="46.19921" lon="7.56309"><ele>2084</ele><time>2025-08-09T13:41:37Z</time></trkpt>
<trkpt lat="46.19923" lon="7.56309"><ele>2084.2</ele><time>2025-08-09T13:41:38Z</time></trkpt>
<trkpt lat="46.19935" lon="7.5631"><ele>2085</ele><time>2025-08-09T13:41:46Z</time></trkpt>
<trkpt lat="46.19946" lon="7.5631"><ele>2086.2</ele><time>2025-08-09T13:41:53Z</time></trkpt>
<trkpt lat="46.19953" lon="7.56304"><ele>2087.2</ele><time>2025-08-09T13:41:59Z</time></trkpt>
<trkpt lat="46.19954" lon="7.56303"><ele>2087.4</ele><time>2025-08-09T13:42:00Z</time></trkpt>
<trkpt lat="46.19963" lon="7.56295"><ele>2088.2</ele><time>2025-08-09T13:42:06Z</time></trkpt>
<trkpt lat="46.19965" lon="7.56292"><ele>2088.4</ele><time>2025-08-09T13:42:08Z</time></trkpt>
<trkpt lat="46.19971" lon="7.56279"><ele>2089</ele><time>2025-08-09T13:42:14Z</time></trkpt>
<trkpt lat="46.19976" lon="7.56269"><ele>2089.6</ele><time>2025-08-09T13:42:19Z</time></trkpt>
<trkpt lat="46.19977" lon="7.56265"><ele>2090</ele><time>2025-08-09T13:42:21Z</time></trkpt>
<trkpt lat="46.1998" lon="7.5625"><ele>2090.4</ele><time>2025-08-09T13:42:27Z</time></trkpt>
<trkpt lat="46.19982" lon="7.5624"><ele>2090.6</ele><time>2025-08-09T13:42:31Z</time></trkpt>
<trkpt lat="46.19983" lon="7.56237"><ele>2090.8</ele><time>2025-08-09T13:42:32Z</time></trkpt>
<trkpt lat="46.19988" lon="7.56217"><ele>2091.6</ele><time>2025-08-09T13:42:40Z</time></trkpt>
<trkpt lat="46.19995" lon="7.56205"><ele>2092.2</ele><time>2025-08-09T13:42:46Z</time></trkpt>
<trkpt lat="46.20006" lon="7.56188"><ele>2092.8</ele><time>2025-08-09T13:42:54Z</time></trkpt>
<trkpt lat="46.20016" lon="7.56181"><ele>2093</ele><time>2025-08-09T13:43:00Z</time></trkpt>
<trkpt lat="46.20028" lon="7.56173"><ele>2093.6</ele><time>2025-08-09T13:43:06Z</time></trkpt>
<trkpt lat="46.20036" lon="7.56167"><ele>2093.8</ele><time>2025-08-09T13:43:10Z</time></trkpt>
<trkpt lat="46.2004" lon="7.56164"><ele>2094</ele><time>2025-08-09T13:43:12Z</time></trkpt>
<trkpt lat="46.20055" lon="7.56162"><ele>2094.6</ele><time>2025-08-09T13:43:19Z</time></trkpt>
<trkpt lat="46.20059" lon="7.56163"><ele>2094.8</ele><time>2025-08-09T13:43:21Z</time></trkpt>
<trkpt lat="46.20068" lon="7.56169"><ele>2095.2</ele><time>2025-08-09T13:43:26Z</time></trkpt>
<trkpt lat="46.20079" lon="7.56165"><ele>2095.2</ele><time>2025-08-09T13:43:31Z</time></trkpt>
<trkpt lat="46.20088" lon="7.56148"><ele>2096</ele><time>2025-08-09T13:43:37Z</time></trkpt>
<trkpt lat="46.201" lon="7.56128"><ele>2096.8</ele><time>2025-08-09T13:43:45Z</time></trkpt>
<trkpt lat="46.20117" lon="7.56121"><ele>2096.8</ele><time>2025-08-09T13:43:52Z</time></trkpt>
<trkpt lat="46.20129" lon="7.56122"><ele>2097</ele><time>2025-08-09T13:43:57Z</time></trkpt>
<trkpt lat="46.20133" lon="7.56123"><ele>2097.2</ele><time>2025-08-09T13:43:59Z</time></trkpt>
<trkpt lat="46.20146" lon="7.56125"><ele>2097.6</ele><time>2025-08-09T13:44:05Z</time></trkpt>
<trkpt lat="46.20161" lon="7.56123"><ele>2098</ele><time>2025-08-09T13:44:12Z</time></trkpt>
<trkpt lat="46.2017" lon="7.56121"><ele>2098.4</ele><time>2025-08-09T13:44:18Z</time></trkpt>
<trkpt lat="46.20175" lon="7.56114"><ele>2098.8</ele><time>2025-08-09T13:44:24Z</time></trkpt>
<trkpt lat="46.20175" lon="7.56109"><ele>2099.2</ele><time>2025-08-09T13:44:27Z</time></trkpt>
<trkpt lat="46.20173" lon="7.56105"><ele>2099.6</ele><time>2025-08-09T13:44:30Z</time></trkpt>
<trkpt lat="46.20171" lon="7.56102"><ele>2100.4</ele><time>2025-08-09T13:44:34Z</time></trkpt>
<trkpt lat="46.20169" lon="7.561"><ele>2100.6</ele><time>2025-08-09T13:44:36Z</time></trkpt>
<trkpt lat="46.20166" lon="7.56096"><ele>2101.2</ele><time>2025-08-09T13:44:41Z</time></trkpt>
<trkpt lat="46.20165" lon="7.56096"><ele>2101.4</ele><time>2025-08-09T13:44:42Z</time></trkpt>
<trkpt lat="46.20164" lon="7.56095"><ele>2101.4</ele><time>2025-08-09T13:44:43Z</time></trkpt>
<trkpt lat="46.20159" lon="7.56093"><ele>2102</ele><time>2025-08-09T13:44:49Z</time></trkpt>
<trkpt lat="46.20156" lon="7.56093"><ele>2102.4</ele><time>2025-08-09T13:44:52Z</time></trkpt>
<trkpt lat="46.20155" lon="7.56092"><ele>2102.8</ele><time>2025-08-09T13:44:54Z</time></trkpt>
<trkpt lat="46.20148" lon="7.56091"><ele>2103.4</ele><time>2025-08-09T13:45:01Z</time></trkpt>
<trkpt lat="46.20147" lon="7.56091"><ele>2103.6</ele><time>2025-08-09T13:45:02Z</time></trkpt>
<trkpt lat="46.20139" lon="7.5609"><ele>2104</ele><time>2025-08-09T13:45:09Z</time></trkpt>
<trkpt lat="46.20134" lon="7.56089"><ele>2104.6</ele><time>2025-08-09T13:45:13Z</time></trkpt>
<trkpt lat="46.20131" lon="7.56088"><ele>2104.8</ele><time>2025-08-09T13:45:16Z</time></trkpt>
<trkpt lat="46.20125" lon="7.56087"><ele>2105.2</ele><time>2025-08-09T13:45:22Z</time></trkpt>
<trkpt lat="46.20122" lon="7.56086"><ele>2105.6</ele><time>2025-08-09T13:45:25Z</time></trkpt>
<trkpt lat="46.20119" lon="7.56086"><ele>2106.2</ele><time>2025-08-09T13:45:28Z</time></trkpt>
<trkpt lat="46.20115" lon="7.56085"><ele>2106.6</ele><time>2025-08-09T13:45:32Z</time></trkpt>
<trkpt lat="46.20113" lon="7.56085"><ele>2107</ele><time>2025-08-09T13:45:34Z</time></trkpt>
<trkpt lat="46.20109" lon="7.56085"><ele>2107.8</ele><time>2025-08-09T13:45:38Z</time></trkpt>
<trkpt lat="46.20107" lon="7.56084"><ele>2108.4</ele><time>2025-08-09T13:45:41Z</time></trkpt>
<trkpt lat="46.20105" lon="7.56084"><ele>2108.8</ele><time>2025-08-09T13:45:43Z</time></trkpt>
<trkpt lat="46.20103" lon="7.56083"><ele>2109.4</ele><time>2025-08-09T13:45:46Z</time></trkpt>
<trkpt lat="46.20101" lon="7.56083"><ele>2109.8</ele><time>2025-08-09T13:45:48Z</time></trkpt>
<trkpt lat="46.20097" lon="7.56081"><ele>2110.8</ele><time>2025-08-09T13:45:53Z</time></trkpt>
<trkpt lat="46.20096" lon="7.56081"><ele>2111</ele><time>2025-08-09T13:45:54Z</time></trkpt>
<trkpt lat="46.20091" lon="7.56078"><ele>2111.6</ele><time>2025-08-09T13:45:58Z</time></trkpt>
<trkpt lat="46.20091" lon="7.56078"><ele>2111.8</ele><time>2025-08-09T13:45:59Z</time></trkpt>
<trkpt lat="46.20089" lon="7.56075"><ele>2112</ele><time>2025-08-09T13:46:02Z</time></trkpt>
<trkpt lat="46.20089" lon="7.5607"><ele>2112.4</ele><time>2025-08-09T13:46:05Z</time></trkpt>
<trkpt lat="46.20092" lon="7.56065"><ele>2112.8</ele><time>2025-08-09T13:46:10Z</time></trkpt>
<trkpt lat="46.20093" lon="7.56063"><ele>2113</ele><time>2025-08-09T13:46:12Z</time></trkpt>
<trkpt lat="46.20095" lon="7.56062"><ele>2113.2</ele><time>2025-08-09T13:46:14Z</time></trkpt>
<trkpt lat="46.20096" lon="7.56061"><ele>2113.4</ele><time>2025-08-09T13:46:15Z</time></trkpt>
<trkpt lat="46.20097" lon="7.5606"><ele>2113.6</ele><time>2025-08-09T13:46:17Z</time></trkpt>
<trkpt lat="46.20099" lon="7.5606"><ele>2114</ele><time>2025-08-09T13:46:20Z</time></trkpt>
<trkpt lat="46.20102" lon="7.56059"><ele>2114.4</ele><time>2025-08-09T13:46:23Z</time></trkpt>
<trkpt lat="46.20105" lon="7.56058"><ele>2115</ele><time>2025-08-09T13:46:27Z</time></trkpt>
<trkpt lat="46.20107" lon="7.56056"><ele>2115.6</ele><time>2025-08-09T13:46:30Z</time></trkpt>
<trkpt lat="46.20108" lon="7.56055"><ele>2116</ele><time>2025-08-09T13:46:32Z</time></trkpt>
<trkpt lat="46.2011" lon="7.56056"><ele>2116.2</ele><time>2025-08-09T13:46:34Z</time></trkpt>
<trkpt lat="46.20113" lon="7.56056"><ele>2116.6</ele><time>2025-08-09T13:46:38Z</time></trkpt>
<trkpt lat="46.20118" lon="7.56054"><ele>2117.2</ele><time>2025-08-09T13:46:44Z</time></trkpt>
<trkpt lat="46.20119" lon="7.56053"><ele>2117.4</ele><time>2025-08-09T13:46:46Z</time></trkpt>
<trkpt lat="46.20122" lon="7.56051"><ele>2117.6</ele><time>2025-08-09T13:46:49Z</time></trkpt>
<trkpt lat="46.20123" lon="7.56051"><ele>2117.8</ele><time>2025-08-09T13:46:50Z</time></trkpt>
<trkpt lat="46.20127" lon="7.56046"><ele>2118.4</ele><time>2025-08-09T13:46:56Z</time></trkpt>
<trkpt lat="46.20129" lon="7.56044"><ele>2118.6</ele><time>2025-08-09T13:46:58Z</time></trkpt>
<trkpt lat="46.20132" lon="7.56041"><ele>2119</ele><time>2025-08-09T13:47:02Z</time></trkpt>
<trkpt lat="46.20135" lon="7.56037"><ele>2119.4</ele><time>2025-08-09T13:47:06Z</time></trkpt>
<trkpt lat="46.20136" lon="7.56037"><ele>2119.4</ele><time>2025-08-09T13:47:07Z</time></trkpt>
<trkpt lat="46.20137" lon="7.56036"><ele>2119.6</ele><time>2025-08-09T13:47:08Z</time></trkpt>
<trkpt lat="46.20138" lon="7.56034"><ele>2119.8</ele><time>2025-08-09T13:47:10Z</time></trkpt>
<trkpt lat="46.2014" lon="7.56032"><ele>2120.2</ele><time>2025-08-09T13:47:13Z</time></trkpt>
<trkpt lat="46.20144" lon="7.5603"><ele>2120.8</ele><time>2025-08-09T13:47:17Z</time></trkpt>
<trkpt lat="46.20144" lon="7.5603"><ele>2121</ele><time>2025-08-09T13:47:18Z</time></trkpt>
<trkpt lat="46.20149" lon="7.56027"><ele>2121.6</ele><time>2025-08-09T13:47:23Z</time></trkpt>
<trkpt lat="46.20149" lon="7.56026"><ele>2121.8</ele><time>2025-08-09T13:47:24Z</time></trkpt>
<trkpt lat="46.20154" lon="7.56024"><ele>2122.8</ele><time>2025-08-09T13:47:30Z</time></trkpt>
<trkpt lat="46.20154" lon="7.56024"><ele>2122.8</ele><time>2025-08-09T13:47:31Z</time></trkpt>
<trkpt lat="46.20156" lon="7.56025"><ele>2123.2</ele><time>2025-08-09T13:47:33Z</time></trkpt>
<trkpt lat="46.20158" lon="7.56026"><ele>2123.4</ele><time>2025-08-09T13:47:35Z</time></trkpt>
<trkpt lat="46.20159" lon="7.56026"><ele>2123.6</ele><time>2025-08-09T13:47:36Z</time></trkpt>
<trkpt lat="46.2016" lon="7.56025"><ele>2124</ele><time>2025-08-09T13:47:38Z</time></trkpt>
<trkpt lat="46.2016" lon="7.56025"><ele>2124.2</ele><time>2025-08-09T13:47:40Z</time></trkpt>
<trkpt lat="46.20164" lon="7.56024"><ele>2124.8</ele><time>2025-08-09T13:47:46Z</time></trkpt>
<trkpt lat="46.20165" lon="7.56022"><ele>2125.2</ele><time>2025-08-09T13:47:48Z</time></trkpt>
<trkpt lat="46.20168" lon="7.56021"><ele>2126</ele><time>2025-08-09T13:47:55Z</time></trkpt>
<trkpt lat="46.2017" lon="7.5602"><ele>2126.2</ele><time>2025-08-09T13:47:58Z</time></trkpt>
<trkpt lat="46.20172" lon="7.56019"><ele>2126.4</ele><time>2025-08-09T13:48:01Z</time></trkpt>
<trkpt lat="46.20174" lon="7.56013"><ele>2127.2</ele><time>2025-08-09T13:48:08Z</time></trkpt>
<trkpt lat="46.20177" lon="7.56008"><ele>2128</ele><time>2025-08-09T13:48:15Z</time></trkpt>
<trkpt lat="46.20177" lon="7.56006"><ele>2128.2</ele><time>2025-08-09T13:48:16Z</time></trkpt>
<trkpt lat="46.20178" lon="7.56002"><ele>2128.8</ele><time>2025-08-09T13:48:21Z</time></trkpt>
<trkpt lat="46.20179" lon="7.55999"><ele>2129.2</ele><time>2025-08-09T13:48:25Z</time></trkpt>
<trkpt lat="46.2018" lon="7.55997"><ele>2129.6</ele><time>2025-08-09T13:48:28Z</time></trkpt>
<trkpt lat="46.20182" lon="7.55992"><ele>2130.4</ele><time>2025-08-09T13:48:34Z</time></trkpt>
<trkpt lat="46.20182" lon="7.55991"><ele>2130.6</ele><time>2025-08-09T13:48:35Z</time></trkpt>
<trkpt lat="46.20182" lon="7.55982"><ele>2131.4</ele><time>2025-08-09T13:48:44Z</time></trkpt>
<trkpt lat="46.20183" lon="7.55981"><ele>2131.4</ele><time>2025-08-09T13:48:46Z</time></trkpt>
<trkpt lat="46.20184" lon="7.55975"><ele>2132</ele><time>2025-08-09T13:48:51Z</time></trkpt>
<trkpt lat="46.20185" lon="7.55972"><ele>2132.6</ele><time>2025-08-09T13:48:56Z</time></trkpt>
<trkpt lat="46.20186" lon="7.55971"><ele>2132.6</ele><time>2025-08-09T13:48:57Z</time></trkpt>
<trkpt lat="46.20188" lon="7.55963"><ele>2133.6</ele><time>2025-08-09T13:49:06Z</time></trkpt>
<trkpt lat="46.20188" lon="7.55962"><ele>2133.6</ele><time>2025-08-09T13:49:07Z</time></trkpt>
<trkpt lat="46.20191" lon="7.55955"><ele>2134.4</ele><time>2025-08-09T13:49:15Z</time></trkpt>
<trkpt lat="46.20192" lon="7.55954"><ele>2134.6</ele><time>2025-08-09T13:49:17Z</time></trkpt>
<trkpt lat="46.20193" lon="7.55948"><ele>2135</ele><time>2025-08-09T13:49:23Z</time></trkpt>
<trkpt lat="46.20196" lon="7.55944"><ele>2135.6</ele><time>2025-08-09T13:49:29Z</time></trkpt>
<trkpt lat="46.20196" lon="7.55942"><ele>2135.8</ele><time>2025-08-09T13:49:31Z</time></trkpt>
<trkpt lat="46.20198" lon="7.55934"><ele>2136.8</ele><time>2025-08-09T13:49:40Z</time></trkpt>
<trkpt lat="46.20198" lon="7.55933"><ele>2136.8</ele><time>2025-08-09T13:49:41Z</time></trkpt>
<trkpt lat="46.20201" lon="7.5593"><ele>2137.8</ele><time>2025-08-09T13:49:48Z</time></trkpt>
<trkpt lat="46.20204" lon="7.55925"><ele>2138.8</ele><time>2025-08-09T13:49:56Z</time></trkpt>
<trkpt lat="46.20205" lon="7.55924"><ele>2139</ele><time>2025-08-09T13:49:57Z</time></trkpt>
<trkpt lat="46.20206" lon="7.55922"><ele>2139.8</ele><time>2025-08-09T13:50:02Z</time></trkpt>
<trkpt lat="46.20206" lon="7.55919"><ele>2140.2</ele><time>2025-08-09T13:50:05Z</time></trkpt>
<trkpt lat="46.20208" lon="7.55914"><ele>2141</ele><time>2025-08-09T13:50:11Z</time></trkpt>
<trkpt lat="46.20208" lon="7.55912"><ele>2141.2</ele><time>2025-08-09T13:50:13Z</time></trkpt>
<trkpt lat="46.20205" lon="7.55904"><ele>2142.2</ele><time>2025-08-09T13:50:21Z</time></trkpt>
<trkpt lat="46.20201" lon="7.55904"><ele>2142.8</ele><time>2025-08-09T13:50:27Z</time></trkpt>
<trkpt lat="46.20199" lon="7.55903"><ele>2143.2</ele><time>2025-08-09T13:50:30Z</time></trkpt>
<trkpt lat="46.20195" lon="7.55902"><ele>2143.6</ele><time>2025-08-09T13:50:35Z</time></trkpt>
<trkpt lat="46.20193" lon="7.55904"><ele>2144.2</ele><time>2025-08-09T13:50:40Z</time></trkpt>
<trkpt lat="46.20191" lon="7.55905"><ele>2144.6</ele><time>2025-08-09T13:50:43Z</time></trkpt>
<trkpt lat="46.20188" lon="7.55906"><ele>2145.4</ele><time>2025-08-09T13:50:49Z</time></trkpt>
<trkpt lat="46.20187" lon="7.55906"><ele>2145.6</ele><time>2025-08-09T13:50:51Z</time></trkpt>
<trkpt lat="46.20184" lon="7.55906"><ele>2146.4</ele><time>2025-08-09T13:50:55Z</time></trkpt>
<trkpt lat="46.20182" lon="7.55905"><ele>2147</ele><time>2025-08-09T13:50:59Z</time></trkpt>
<trkpt lat="46.2018" lon="7.55905"><ele>2147.4</ele><time>2025-08-09T13:51:02Z</time></trkpt>
<trkpt lat="46.20178" lon="7.55905"><ele>2148</ele><time>2025-08-09T13:51:07Z</time></trkpt>
<trkpt lat="46.20175" lon="7.55906"><ele>2148.4</ele><time>2025-08-09T13:51:12Z</time></trkpt>
<trkpt lat="46.20174" lon="7.55906"><ele>2149.2</ele><time>2025-08-09T13:51:15Z</time></trkpt>
<trkpt lat="46.20174" lon="7.55906"><ele>2149.4</ele><time>2025-08-09T13:51:17Z</time></trkpt>
<trkpt lat="46.20174" lon="7.55905"><ele>2149.2</ele><time>2025-08-09T13:51:25Z</time></trkpt>
<trkpt lat="46.20174" lon="7.55906"><ele>2149.4</ele><time>2025-08-09T13:51:32Z</time></trkpt>
<trkpt lat="46.20174" lon="7.55906"><ele>2149.2</ele><time>2025-08-09T13:51:42Z</time></trkpt>
<trkpt lat="46.20174" lon="7.55906"><ele>2149.4</ele><time>2025-08-09T13:51:46Z</time></trkpt>
<trkpt lat="46.20173" lon="7.55904"><ele>2149.4</ele><time>2025-08-09T13:52:01Z</time></trkpt>
<trkpt lat="46.20173" lon="7.55904"><ele>2149.4</ele><time>2025-08-09T13:52:03Z</time></trkpt>
<trkpt lat="46.20174" lon="7.55903"><ele>2149.4</ele><time>2025-08-09T13:52:11Z</time></trkpt>
<trkpt lat="46.20176" lon="7.55901"><ele>2149.2</ele><time>2025-08-09T13:52:13Z</time></trkpt>
<trkpt lat="46.20177" lon="7.55901"><ele>2149.2</ele><time>2025-08-09T13:52:18Z</time></trkpt>
<trkpt lat="46.2018" lon="7.55898"><ele>2149.6</ele><time>2025-08-09T13:52:22Z</time></trkpt>
<trkpt lat="46.20185" lon="7.55894"><ele>2149.8</ele><time>2025-08-09T13:52:25Z</time></trkpt>
<trkpt lat="46.20189" lon="7.55891"><ele>2150.2</ele><time>2025-08-09T13:52:28Z</time></trkpt>
<trkpt lat="46.20191" lon="7.55889"><ele>2150.6</ele><time>2025-08-09T13:52:30Z</time></trkpt>
<trkpt lat="46.20195" lon="7.55887"><ele>2151.2</ele><time>2025-08-09T13:52:33Z</time></trkpt>
<trkpt lat="46.20197" lon="7.55883"><ele>2151.4</ele><time>2025-08-09T13:52:36Z</time></trkpt>
<trkpt lat="46.20198" lon="7.55881"><ele>2151.4</ele><time>2025-08-09T13:52:37Z</time></trkpt>
<trkpt lat="46.20201" lon="7.55876"><ele>2151.6</ele><time>2025-08-09T13:52:40Z</time></trkpt>
<trkpt lat="46.20204" lon="7.5587"><ele>2151.8</ele><time>2025-08-09T13:52:43Z</time></trkpt>
<trkpt lat="46.20211" lon="7.55856"><ele>2152.6</ele><time>2025-08-09T13:52:50Z</time></trkpt>
<trkpt lat="46.20219" lon="7.55848"><ele>2153.6</ele><time>2025-08-09T13:52:57Z</time></trkpt>
<trkpt lat="46.2022" lon="7.55847"><ele>2153.8</ele><time>2025-08-09T13:52:58Z</time></trkpt>
<trkpt lat="46.20225" lon="7.55839"><ele>2154.4</ele><time>2025-08-09T13:53:02Z</time></trkpt>
<trkpt lat="46.20227" lon="7.55837"><ele>2154.2</ele><time>2025-08-09T13:53:03Z</time></trkpt>
<trkpt lat="46.20232" lon="7.55836"><ele>2154.2</ele><time>2025-08-09T13:53:06Z</time></trkpt>
<trkpt lat="46.20239" lon="7.55836"><ele>2154.8</ele><time>2025-08-09T13:53:10Z</time></trkpt>
<trkpt lat="46.20242" lon="7.55835"><ele>2155.2</ele><time>2025-08-09T13:53:12Z</time></trkpt>
<trkpt lat="46.20245" lon="7.55831"><ele>2155.8</ele><time>2025-08-09T13:53:16Z</time></trkpt>
<trkpt lat="46.20245" lon="7.5583"><ele>2156</ele><time>2025-08-09T13:53:17Z</time></trkpt>
<trkpt lat="46.20248" lon="7.55819"><ele>2156.8</ele><time>2025-08-09T13:53:24Z</time></trkpt>
<trkpt lat="46.20248" lon="7.55818"><ele>2157</ele><time>2025-08-09T13:53:25Z</time></trkpt>
<trkpt lat="46.20249" lon="7.5581"><ele>2158</ele><time>2025-08-09T13:53:30Z</time></trkpt>
<trkpt lat="46.20249" lon="7.55808"><ele>2158.2</ele><time>2025-08-09T13:53:31Z</time></trkpt>
<trkpt lat="46.20249" lon="7.55797"><ele>2159</ele><time>2025-08-09T13:53:37Z</time></trkpt>
<trkpt lat="46.20248" lon="7.55796"><ele>2159.2</ele><time>2025-08-09T13:53:38Z</time></trkpt>
<trkpt lat="46.20248" lon="7.55794"><ele>2159.2</ele><time>2025-08-09T13:53:39Z</time></trkpt>
<trkpt lat="46.20247" lon="7.55783"><ele>2160</ele><time>2025-08-09T13:53:45Z</time></trkpt>
<trkpt lat="46.20248" lon="7.55779"><ele>2160.2</ele><time>2025-08-09T13:53:47Z</time></trkpt>
<trkpt lat="46.20249" lon="7.5577"><ele>2160.2</ele><time>2025-08-09T13:53:52Z</time></trkpt>
<trkpt lat="46.2025" lon="7.55756"><ele>2160.8</ele><time>2025-08-09T13:53:59Z</time></trkpt>
<trkpt lat="46.20251" lon="7.55752"><ele>2161.2</ele><time>2025-08-09T13:54:01Z</time></trkpt>
<trkpt lat="46.2025" lon="7.55743"><ele>2162.2</ele><time>2025-08-09T13:54:06Z</time></trkpt>
<trkpt lat="46.20251" lon="7.55741"><ele>2162.2</ele><time>2025-08-09T13:54:07Z</time></trkpt>
<trkpt lat="46.20247" lon="7.55733"><ele>2162.8</ele><time>2025-08-09T13:54:12Z</time></trkpt>
<trkpt lat="46.20245" lon="7.55729"><ele>2163.2</ele><time>2025-08-09T13:54:15Z</time></trkpt>
<trkpt lat="46.20244" lon="7.55725"><ele>2163.6</ele><time>2025-08-09T13:54:18Z</time></trkpt>
<trkpt lat="46.20245" lon="7.55714"><ele>2164</ele><time>2025-08-09T13:54:24Z</time></trkpt>
<trkpt lat="46.20246" lon="7.55709"><ele>2164.4</ele><time>2025-08-09T13:54:27Z</time></trkpt>
<trkpt lat="46.20246" lon="7.55705"><ele>2164.4</ele><time>2025-08-09T13:54:29Z</time></trkpt>
<trkpt lat="46.20249" lon="7.55697"><ele>2164.6</ele><time>2025-08-09T13:54:33Z</time></trkpt>
<trkpt lat="46.2025" lon="7.5569"><ele>2164.6</ele><time>2025-08-09T13:54:36Z</time></trkpt>
<trkpt lat="46.2025" lon="7.55684"><ele>2165.2</ele><time>2025-08-09T13:54:39Z</time></trkpt>
<trkpt lat="46.2025" lon="7.5568"><ele>2165.4</ele><time>2025-08-09T13:54:41Z</time></trkpt>
<trkpt lat="46.20254" lon="7.55669"><ele>2165.2</ele><time>2025-08-09T13:54:46Z</time></trkpt>
<trkpt lat="46.2026" lon="7.55657"><ele>2166</ele><time>2025-08-09T13:54:53Z</time></trkpt>
<trkpt lat="46.20264" lon="7.55646"><ele>2166</ele><time>2025-08-09T13:54:58Z</time></trkpt>
<trkpt lat="46.20272" lon="7.55635"><ele>2166.2</ele><time>2025-08-09T13:55:05Z</time></trkpt>
<trkpt lat="46.20276" lon="7.55632"><ele>2166.4</ele><time>2025-08-09T13:55:08Z</time></trkpt>
<trkpt lat="46.20277" lon="7.55627"><ele>2166.6</ele><time>2025-08-09T13:55:11Z</time></trkpt>
<trkpt lat="46.20284" lon="7.55618"><ele>2166.6</ele><time>2025-08-09T13:55:16Z</time></trkpt>
<trkpt lat="46.20289" lon="7.55609"><ele>2166.4</ele><time>2025-08-09T13:55:22Z</time></trkpt>
<trkpt lat="46.20293" lon="7.55606"><ele>2166.2</ele><time>2025-08-09T13:55:27Z</time></trkpt>
<trkpt lat="46.20295" lon="7.55607"><ele>2165.8</ele><time>2025-08-09T13:55:29Z</time></trkpt>
<trkpt lat="46.20299" lon="7.55612"><ele>2165.2</ele><time>2025-08-09T13:55:32Z</time></trkpt>
<trkpt lat="46.20307" lon="7.55616"><ele>2164</ele><time>2025-08-09T13:55:37Z</time></trkpt>
<trkpt lat="46.20315" lon="7.55622"><ele>2163</ele><time>2025-08-09T13:55:42Z</time></trkpt>
<trkpt lat="46.20321" lon="7.55627"><ele>2162</ele><time>2025-08-09T13:55:45Z</time></trkpt>
<trkpt lat="46.20328" lon="7.5563"><ele>2160.8</ele><time>2025-08-09T13:55:48Z</time></trkpt>
<trkpt lat="46.20337" lon="7.5563"><ele>2159.6</ele><time>2025-08-09T13:55:53Z</time></trkpt>
<trkpt lat="46.20343" lon="7.55631"><ele>2158.8</ele><time>2025-08-09T13:55:57Z</time></trkpt>
<trkpt lat="46.20347" lon="7.5563"><ele>2158.2</ele><time>2025-08-09T13:55:59Z</time></trkpt>
<trkpt lat="46.2035" lon="7.55631"><ele>2157.6</ele><time>2025-08-09T13:56:01Z</time></trkpt>
<trkpt lat="46.20351" lon="7.55633"><ele>2157.2</ele><time>2025-08-09T13:56:02Z</time></trkpt>
<trkpt lat="46.20356" lon="7.55639"><ele>2156</ele><time>2025-08-09T13:56:06Z</time></trkpt>
<trkpt lat="46.20362" lon="7.55643"><ele>2154.8</ele><time>2025-08-09T13:56:10Z</time></trkpt>
<trkpt lat="46.20365" lon="7.55642"><ele>2154.6</ele><time>2025-08-09T13:56:11Z</time></trkpt>
<trkpt lat="46.20372" lon="7.55643"><ele>2153.8</ele><time>2025-08-09T13:56:14Z</time></trkpt>
<trkpt lat="46.20374" lon="7.55645"><ele>2153.6</ele><time>2025-08-09T13:56:15Z</time></trkpt>
<trkpt lat="46.20381" lon="7.55652"><ele>2152.6</ele><time>2025-08-09T13:56:19Z</time></trkpt>
<trkpt lat="46.20389" lon="7.55662"><ele>2151.4</ele><time>2025-08-09T13:56:23Z</time></trkpt>
<trkpt lat="46.20391" lon="7.55665"><ele>2151</ele><time>2025-08-09T13:56:24Z</time></trkpt>
<trkpt lat="46.20401" lon="7.55671"><ele>2150.2</ele><time>2025-08-09T13:56:28Z</time></trkpt>
<trkpt lat="46.20403" lon="7.55672"><ele>2149.8</ele><time>2025-08-09T13:56:29Z</time></trkpt>
<trkpt lat="46.20408" lon="7.55674"><ele>2149.2</ele><time>2025-08-09T13:56:31Z</time></trkpt>
<trkpt lat="46.20415" lon="7.55676"><ele>2148.8</ele><time>2025-08-09T13:56:33Z</time></trkpt>
<trkpt lat="46.20421" lon="7.55677"><ele>2149.4</ele><time>2025-08-09T13:56:37Z</time></trkpt>
<trkpt lat="46.2043" lon="7.5568"><ele>2150</ele><time>2025-08-09T13:56:43Z</time></trkpt>
<trkpt lat="46.2043" lon="7.55682"><ele>2150</ele><time>2025-08-09T13:56:44Z</time></trkpt>
<trkpt lat="46.20434" lon="7.55682"><ele>2150.2</ele><time>2025-08-09T13:56:47Z</time></trkpt>
<trkpt lat="46.2044" lon="7.55678"><ele>2150.8</ele><time>2025-08-09T13:56:52Z</time></trkpt>
<trkpt lat="46.20442" lon="7.55678"><ele>2150.8</ele><time>2025-08-09T13:56:53Z</time></trkpt>
<trkpt lat="46.20446" lon="7.55679"><ele>2151.2</ele><time>2025-08-09T13:56:56Z</time></trkpt>
<trkpt lat="46.20452" lon="7.5568"><ele>2151.6</ele><time>2025-08-09T13:57:00Z</time></trkpt>
<trkpt lat="46.20453" lon="7.5568"><ele>2151.8</ele><time>2025-08-09T13:57:01Z</time></trkpt>
<trkpt lat="46.20459" lon="7.55683"><ele>2152.4</ele><time>2025-08-09T13:57:06Z</time></trkpt>
<trkpt lat="46.2046" lon="7.55684"><ele>2152.6</ele><time>2025-08-09T13:57:07Z</time></trkpt>
<trkpt lat="46.20466" lon="7.55689"><ele>2153.4</ele><time>2025-08-09T13:57:11Z</time></trkpt>
<trkpt lat="46.20468" lon="7.55691"><ele>2153.8</ele><time>2025-08-09T13:57:13Z</time></trkpt>
<trkpt lat="46.20476" lon="7.55695"><ele>2154.4</ele><time>2025-08-09T13:57:19Z</time></trkpt>
<trkpt lat="46.20477" lon="7.55696"><ele>2154.4</ele><time>2025-08-09T13:57:20Z</time></trkpt>
<trkpt lat="46.20479" lon="7.55697"><ele>2154.8</ele><time>2025-08-09T13:57:22Z</time></trkpt>
<trkpt lat="46.20482" lon="7.55697"><ele>2155.2</ele><time>2025-08-09T13:57:24Z</time></trkpt>
<trkpt lat="46.20485" lon="7.55697"><ele>2155.6</ele><time>2025-08-09T13:57:26Z</time></trkpt>
<trkpt lat="46.20488" lon="7.55698"><ele>2156.2</ele><time>2025-08-09T13:57:31Z</time></trkpt>
<trkpt lat="46.20488" lon="7.55698"><ele>2156.4</ele><time>2025-08-09T13:57:34Z</time></trkpt>
<trkpt lat="46.20488" lon="7.55698"><ele>2156.4</ele><time>2025-08-09T13:57:38Z</time></trkpt>
<trkpt lat="46.20488" lon="7.55698"><ele>2156.2</ele><time>2025-08-09T13:57:50Z</time></trkpt>
<trkpt lat="46.20489" lon="7.55696"><ele>2156.6</ele><time>2025-08-09T13:58:00Z</time></trkpt>
<trkpt lat="46.20489" lon="7.55694"><ele>2156.8</ele><time>2025-08-09T13:58:02Z</time></trkpt>
<trkpt lat="46.2049" lon="7.55692"><ele>2157</ele><time>2025-08-09T13:58:05Z</time></trkpt>
<trkpt lat="46.20493" lon="7.55688"><ele>2157.4</ele><time>2025-08-09T13:58:09Z</time></trkpt>
<trkpt lat="46.20495" lon="7.55685"><ele>2157.8</ele><time>2025-08-09T13:58:12Z</time></trkpt>
<trkpt lat="46.20498" lon="7.5568"><ele>2158.2</ele><time>2025-08-09T13:58:16Z</time></trkpt>
<trkpt lat="46.20502" lon="7.55678"><ele>2158.2</ele><time>2025-08-09T13:58:19Z</time></trkpt>
<trkpt lat="46.20509" lon="7.55677"><ele>2157.6</ele><time>2025-08-09T13:58:22Z</time></trkpt>
<trkpt lat="46.20518" lon="7.55674"><ele>2158.4</ele><time>2025-08-09T13:58:29Z</time></trkpt>
<trkpt lat="46.20527" lon="7.5568"><ele>2157.8</ele><time>2025-08-09T13:58:34Z</time></trkpt>
<trkpt lat="46.20532" lon="7.55679"><ele>2156.8</ele><time>2025-08-09T13:58:36Z</time></trkpt>
<trkpt lat="46.20537" lon="7.55676"><ele>2155.8</ele><time>2025-08-09T13:58:38Z</time></trkpt>
<trkpt lat="46.20542" lon="7.55675"><ele>2154.6</ele><time>2025-08-09T13:58:40Z</time></trkpt>
<trkpt lat="46.20551" lon="7.55671"><ele>2154.2</ele><time>2025-08-09T13:58:43Z</time></trkpt>
<trkpt lat="46.20555" lon="7.55666"><ele>2153.6</ele><time>2025-08-09T13:58:45Z</time></trkpt>
<trkpt lat="46.20557" lon="7.55661"><ele>2153.2</ele><time>2025-08-09T13:58:46Z</time></trkpt>
<trkpt lat="46.2056" lon="7.55658"><ele>2152.6</ele><time>2025-08-09T13:58:47Z</time></trkpt>
<trkpt lat="46.20563" lon="7.55655"><ele>2152</ele><time>2025-08-09T13:58:48Z</time></trkpt>
<trkpt lat="46.20567" lon="7.55655"><ele>2151.6</ele><time>2025-08-09T13:58:49Z</time></trkpt>
<trkpt lat="46.2057" lon="7.55654"><ele>2151.6</ele><time>2025-08-09T13:58:50Z</time></trkpt>
<trkpt lat="46.20575" lon="7.55649"><ele>2151</ele><time>2025-08-09T13:58:52Z</time></trkpt>
<trkpt lat="46.20577" lon="7.55644"><ele>2151</ele><time>2025-08-09T13:58:54Z</time></trkpt>
<trkpt lat="46.20579" lon="7.55641"><ele>2151</ele><time>2025-08-09T13:58:55Z</time></trkpt>
<trkpt lat="46.20588" lon="7.55633"><ele>2150.2</ele><time>2025-08-09T13:58:58Z</time></trkpt>
<trkpt lat="46.20592" lon="7.55632"><ele>2149.8</ele><time>2025-08-09T13:58:59Z</time></trkpt>
<trkpt lat="46.20598" lon="7.55632"><ele>2149.2</ele><time>2025-08-09T13:59:01Z</time></trkpt>
<trkpt lat="46.20601" lon="7.5563"><ele>2149</ele><time>2025-08-09T13:59:02Z</time></trkpt>
<trkpt lat="46.20604" lon="7.55627"><ele>2149.4</ele><time>2025-08-09T13:59:05Z</time></trkpt>
<trkpt lat="46.20613" lon="7.55621"><ele>2150.8</ele><time>2025-08-09T13:59:11Z</time></trkpt>
<trkpt lat="46.20615" lon="7.55621"><ele>2150.8</ele><time>2025-08-09T13:59:12Z</time></trkpt>
<trkpt lat="46.20619" lon="7.55618"><ele>2151.2</ele><time>2025-08-09T13:59:16Z</time></trkpt>
<trkpt lat="46.20619" lon="7.55617"><ele>2151.4</ele><time>2025-08-09T13:59:21Z</time></trkpt>
<trkpt lat="46.20618" lon="7.55619"><ele>2151.2</ele><time>2025-08-09T13:59:31Z</time></trkpt>
<trkpt lat="46.20625" lon="7.5562"><ele>2150.6</ele><time>2025-08-09T13:59:35Z</time></trkpt>
<trkpt lat="46.20633" lon="7.55618"><ele>2149.8</ele><time>2025-08-09T13:59:38Z</time></trkpt>
<trkpt lat="46.20635" lon="7.55617"><ele>2149.6</ele><time>2025-08-09T13:59:39Z</time></trkpt>
<trkpt lat="46.20637" lon="7.55614"><ele>2149.2</ele><time>2025-08-09T13:59:40Z</time></trkpt>
<trkpt lat="46.2064" lon="7.55609"><ele>2148.2</ele><time>2025-08-09T13:59:42Z</time></trkpt>
<trkpt lat="46.20647" lon="7.55604"><ele>2147.2</ele><time>2025-08-09T13:59:45Z</time></trkpt>
<trkpt lat="46.20654" lon="7.55602"><ele>2145.8</ele><time>2025-08-09T13:59:48Z</time></trkpt>
<trkpt lat="46.20657" lon="7.55601"><ele>2145.8</ele><time>2025-08-09T13:59:49Z</time></trkpt>
<trkpt lat="46.20667" lon="7.55595"><ele>2144.8</ele><time>2025-08-09T13:59:53Z</time></trkpt>
<trkpt lat="46.20669" lon="7.55598"><ele>2144.4</ele><time>2025-08-09T13:59:54Z</time></trkpt>
<trkpt lat="46.20669" lon="7.55607"><ele>2143.6</ele><time>2025-08-09T13:59:56Z</time></trkpt>
<trkpt lat="46.20668" lon="7.55611"><ele>2143</ele><time>2025-08-09T13:59:57Z</time></trkpt>
<trkpt lat="46.20667" lon="7.55614"><ele>2142.2</ele><time>2025-08-09T13:59:58Z</time></trkpt>
<trkpt lat="46.20665" lon="7.55625"><ele>2141.6</ele><time>2025-08-09T14:00:01Z</time></trkpt>
<trkpt lat="46.20672" lon="7.55625"><ele>2140.8</ele><time>2025-08-09T14:00:04Z</time></trkpt>
<trkpt lat="46.20679" lon="7.55622"><ele>2139.6</ele><time>2025-08-09T14:00:07Z</time></trkpt>
<trkpt lat="46.20682" lon="7.55622"><ele>2139.4</ele><time>2025-08-09T14:00:08Z</time></trkpt>
<trkpt lat="46.20689" lon="7.55618"><ele>2138.4</ele><time>2025-08-09T14:00:11Z</time></trkpt>
<trkpt lat="46.20691" lon="7.55616"><ele>2137.6</ele><time>2025-08-09T14:00:12Z</time></trkpt>
<trkpt lat="46.20694" lon="7.55613"><ele>2137.2</ele><time>2025-08-09T14:00:13Z</time></trkpt>
<trkpt lat="46.20699" lon="7.55613"><ele>2136.6</ele><time>2025-08-09T14:00:15Z</time></trkpt>
<trkpt lat="46.20702" lon="7.55612"><ele>2136</ele><time>2025-08-09T14:00:16Z</time></trkpt>
<trkpt lat="46.20712" lon="7.55608"><ele>2134.4</ele><time>2025-08-09T14:00:19Z</time></trkpt>
<trkpt lat="46.20717" lon="7.55607"><ele>2133.4</ele><time>2025-08-09T14:00:21Z</time></trkpt>
<trkpt lat="46.20724" lon="7.55614"><ele>2132.2</ele><time>2025-08-09T14:00:24Z</time></trkpt>
<trkpt lat="46.20729" lon="7.55613"><ele>2131</ele><time>2025-08-09T14:00:26Z</time></trkpt>
<trkpt lat="46.20733" lon="7.55607"><ele>2129.8</ele><time>2025-08-09T14:00:28Z</time></trkpt>
<trkpt lat="46.20739" lon="7.55597"><ele>2128.6</ele><time>2025-08-09T14:00:31Z</time></trkpt>
<trkpt lat="46.20747" lon="7.55587"><ele>2127.2</ele><time>2025-08-09T14:00:34Z</time></trkpt>
<trkpt lat="46.20757" lon="7.55577"><ele>2126.8</ele><time>2025-08-09T14:00:38Z</time></trkpt>
<trkpt lat="46.20764" lon="7.55569"><ele>2127.8</ele><time>2025-08-09T14:00:42Z</time></trkpt>
<trkpt lat="46.20765" lon="7.55569"><ele>2128</ele><time>2025-08-09T14:00:43Z</time></trkpt>
<trkpt lat="46.20773" lon="7.55562"><ele>2128</ele><time>2025-08-09T14:00:48Z</time></trkpt>
<trkpt lat="46.20775" lon="7.55559"><ele>2128.2</ele><time>2025-08-09T14:00:50Z</time></trkpt>
<trkpt lat="46.20777" lon="7.55555"><ele>2128.8</ele><time>2025-08-09T14:00:53Z</time></trkpt>
<trkpt lat="46.2078" lon="7.55552"><ele>2129.2</ele><time>2025-08-09T14:00:55Z</time></trkpt>
<trkpt lat="46.20781" lon="7.55549"><ele>2129.4</ele><time>2025-08-09T14:00:57Z</time></trkpt>
<trkpt lat="46.20782" lon="7.55545"><ele>2129.4</ele><time>2025-08-09T14:00:59Z</time></trkpt>
<trkpt lat="46.20787" lon="7.55542"><ele>2130.2</ele><time>2025-08-09T14:01:04Z</time></trkpt>
<trkpt lat="46.20788" lon="7.55543"><ele>2130.2</ele><time>2025-08-09T14:01:05Z</time></trkpt>
<trkpt lat="46.20794" lon="7.55544"><ele>2130.4</ele><time>2025-08-09T14:01:09Z</time></trkpt>
<trkpt lat="46.20794" lon="7.55543"><ele>2130.4</ele><time>2025-08-09T14:01:10Z</time></trkpt>
<trkpt lat="46.20797" lon="7.55529"><ele>2131</ele><time>2025-08-09T14:01:17Z</time></trkpt>
<trkpt lat="46.20798" lon="7.55523"><ele>2131.4</ele><time>2025-08-09T14:01:21Z</time></trkpt>
<trkpt lat="46.208" lon="7.5552"><ele>2131.8</ele><time>2025-08-09T14:01:23Z</time></trkpt>
<trkpt lat="46.20801" lon="7.55516"><ele>2132.6</ele><time>2025-08-09T14:01:26Z</time></trkpt>
<trkpt lat="46.20803" lon="7.55511"><ele>2133.2</ele><time>2025-08-09T14:01:29Z</time></trkpt>
<trkpt lat="46.20805" lon="7.55507"><ele>2133.6</ele><time>2025-08-09T14:01:32Z</time></trkpt>
<trkpt lat="46.20808" lon="7.55502"><ele>2134</ele><time>2025-08-09T14:01:35Z</time></trkpt>
<trkpt lat="46.20813" lon="7.55492"><ele>2134</ele><time>2025-08-09T14:01:41Z</time></trkpt>
<trkpt lat="46.20817" lon="7.55485"><ele>2133.8</ele><time>2025-08-09T14:01:45Z</time></trkpt>
<trkpt lat="46.20817" lon="7.55483"><ele>2134</ele><time>2025-08-09T14:01:46Z</time></trkpt>
<trkpt lat="46.20823" lon="7.55474"><ele>2134.8</ele><time>2025-08-09T14:01:53Z</time></trkpt>
<trkpt lat="46.20824" lon="7.55473"><ele>2134.8</ele><time>2025-08-09T14:01:54Z</time></trkpt>
<trkpt lat="46.20825" lon="7.55472"><ele>2135</ele><time>2025-08-09T14:01:55Z</time></trkpt>
<trkpt lat="46.2083" lon="7.55467"><ele>2135.4</ele><time>2025-08-09T14:01:59Z</time></trkpt>
<trkpt lat="46.20831" lon="7.55465"><ele>2135.8</ele><time>2025-08-09T14:02:01Z</time></trkpt>
<trkpt lat="46.20834" lon="7.55461"><ele>2136.4</ele><time>2025-08-09T14:02:04Z</time></trkpt>
<trkpt lat="46.2084" lon="7.55451"><ele>2136.6</ele><time>2025-08-09T14:02:10Z</time></trkpt>
<trkpt lat="46.20846" lon="7.55435"><ele>2136</ele><time>2025-08-09T14:02:14Z</time></trkpt>
<trkpt lat="46.20852" lon="7.55417"><ele>2135.8</ele><time>2025-08-09T14:02:19Z</time></trkpt>
<trkpt lat="46.2086" lon="7.55397"><ele>2134.8</ele><time>2025-08-09T14:02:23Z</time></trkpt>
<trkpt lat="46.20863" lon="7.55392"><ele>2134.4</ele><time>2025-08-09T14:02:24Z</time></trkpt>
<trkpt lat="46.20871" lon="7.55379"><ele>2134</ele><time>2025-08-09T14:02:28Z</time></trkpt>
<trkpt lat="46.20877" lon="7.55374"><ele>2135</ele><time>2025-08-09T14:02:33Z</time></trkpt>
<trkpt lat="46.20881" lon="7.55367"><ele>2135.4</ele><time>2025-08-09T14:02:38Z</time></trkpt>
<trkpt lat="46.20882" lon="7.55366"><ele>2135.6</ele><time>2025-08-09T14:02:39Z</time></trkpt>
<trkpt lat="46.20886" lon="7.55358"><ele>2136.6</ele><time>2025-08-09T14:02:44Z</time></trkpt>
<trkpt lat="46.20886" lon="7.55356"><ele>2136.8</ele><time>2025-08-09T14:02:45Z</time></trkpt>
<trkpt lat="46.20889" lon="7.55347"><ele>2137.4</ele><time>2025-08-09T14:02:51Z</time></trkpt>
<trkpt lat="46.20891" lon="7.55341"><ele>2137.6</ele><time>2025-08-09T14:02:55Z</time></trkpt>
<trkpt lat="46.2089" lon="7.5534"><ele>2137.6</ele><time>2025-08-09T14:02:56Z</time></trkpt>
<trkpt lat="46.2089" lon="7.55339"><ele>2137.8</ele><time>2025-08-09T14:02:58Z</time></trkpt>
<trkpt lat="46.2089" lon="7.55338"><ele>2138</ele><time>2025-08-09T14:03:04Z</time></trkpt>
<trkpt lat="46.2089" lon="7.55338"><ele>2138</ele><time>2025-08-09T14:03:18Z</time></trkpt>
<trkpt lat="46.2089" lon="7.55338"><ele>2138</ele><time>2025-08-09T14:03:32Z</time></trkpt>
<trkpt lat="46.2089" lon="7.55338"><ele>2138</ele><time>2025-08-09T14:03:43Z</time></trkpt>
<trkpt lat="46.2089" lon="7.55338"><ele>2137.8</ele><time>2025-08-09T14:03:46Z</time></trkpt>
<trkpt lat="46.2089" lon="7.55338"><ele>2137.6</ele><time>2025-08-09T14:03:57Z</time></trkpt>
<trkpt lat="46.2089" lon="7.55337"><ele>2137.6</ele><time>2025-08-09T14:04:04Z</time></trkpt>
<trkpt lat="46.2089" lon="7.55338"><ele>2137.8</ele><time>2025-08-09T14:04:11Z</time></trkpt>
<trkpt lat="46.2089" lon="7.55338"><ele>2137.8</ele><time>2025-08-09T14:04:15Z</time></trkpt>
<trkpt lat="46.2089" lon="7.55338"><ele>2137.8</ele><time>2025-08-09T14:04:19Z</time></trkpt>
<trkpt lat="46.2089" lon="7.55338"><ele>2137.8</ele><time>2025-08-09T14:04:25Z</time></trkpt>
<trkpt lat="46.2089" lon="7.55338"><ele>2137.4</ele><time>2025-08-09T14:04:37Z</time></trkpt>
<trkpt lat="46.2089" lon="7.55338"><ele>2137.6</ele><time>2025-08-09T14:04:46Z</time></trkpt>
<trkpt lat="46.2089" lon="7.55338"><ele>2137.6</ele><time>2025-08-09T14:04:59Z</time></trkpt>
<trkpt lat="46.2089" lon="7.55338"><ele>2137.6</ele><time>2025-08-09T14:05:06Z</time></trkpt>
<trkpt lat="46.2089" lon="7.55338"><ele>2137.6</ele><time>2025-08-09T14:05:07Z</time></trkpt>
<trkpt lat="46.2089" lon="7.55338"><ele>2137.6</ele><time>2025-08-09T14:05:09Z</time></trkpt>
<trkpt lat="46.2089" lon="7.55337"><ele>2137.6</ele><time>2025-08-09T14:05:21Z</time></trkpt>
<trkpt lat="46.2089" lon="7.55337"><ele>2137.6</ele><time>2025-08-09T14:05:29Z</time></trkpt>
<trkpt lat="46.2089" lon="7.55336"><ele>2137.6</ele><time>2025-08-09T14:05:32Z</time></trkpt>
<trkpt lat="46.20891" lon="7.55335"><ele>2137.6</ele><time>2025-08-09T14:05:34Z</time></trkpt>
<trkpt lat="46.20895" lon="7.55331"><ele>2138</ele><time>2025-08-09T14:05:36Z</time></trkpt>
<trkpt lat="46.20897" lon="7.55318"><ele>2137.2</ele><time>2025-08-09T14:05:39Z</time></trkpt>
<trkpt lat="46.20897" lon="7.55314"><ele>2136.6</ele><time>2025-08-09T14:05:40Z</time></trkpt>
<trkpt lat="46.20896" lon="7.55306"><ele>2135.2</ele><time>2025-08-09T14:05:42Z</time></trkpt>
<trkpt lat="46.20896" lon="7.55296"><ele>2134</ele><time>2025-08-09T14:05:44Z</time></trkpt>
<trkpt lat="46.20896" lon="7.55291"><ele>2133.6</ele><time>2025-08-09T14:05:45Z</time></trkpt>
<trkpt lat="46.20895" lon="7.55265"><ele>2133.2</ele><time>2025-08-09T14:05:50Z</time></trkpt>
<trkpt lat="46.20897" lon="7.5526"><ele>2134</ele><time>2025-08-09T14:05:53Z</time></trkpt>
<trkpt lat="46.20897" lon="7.55247"><ele>2135</ele><time>2025-08-09T14:06:00Z</time></trkpt>
<trkpt lat="46.20894" lon="7.5523"><ele>2133.2</ele><time>2025-08-09T14:06:04Z</time></trkpt>
<trkpt lat="46.20895" lon="7.55226"><ele>2132.6</ele><time>2025-08-09T14:06:05Z</time></trkpt>
<trkpt lat="46.20895" lon="7.55211"><ele>2131.8</ele><time>2025-08-09T14:06:08Z</time></trkpt>
<trkpt lat="46.20889" lon="7.55199"><ele>2132.4</ele><time>2025-08-09T14:06:13Z</time></trkpt>
<trkpt lat="46.20887" lon="7.55185"><ele>2133</ele><time>2025-08-09T14:06:18Z</time></trkpt>
<trkpt lat="46.20888" lon="7.55182"><ele>2133</ele><time>2025-08-09T14:06:19Z</time></trkpt>
<trkpt lat="46.20892" lon="7.55171"><ele>2132.2</ele><time>2025-08-09T14:06:22Z</time></trkpt>
<trkpt lat="46.20894" lon="7.55169"><ele>2131.8</ele><time>2025-08-09T14:06:23Z</time></trkpt>
<trkpt lat="46.20896" lon="7.55167"><ele>2131.2</ele><time>2025-08-09T14:06:24Z</time></trkpt>
<trkpt lat="46.20899" lon="7.55164"><ele>2130.6</ele><time>2025-08-09T14:06:26Z</time></trkpt>
<trkpt lat="46.20902" lon="7.55164"><ele>2130.4</ele><time>2025-08-09T14:06:27Z</time></trkpt>
<trkpt lat="46.20903" lon="7.55166"><ele>2130</ele><time>2025-08-09T14:06:28Z</time></trkpt>
<trkpt lat="46.20906" lon="7.55169"><ele>2129.2</ele><time>2025-08-09T14:06:30Z</time></trkpt>
<trkpt lat="46.20908" lon="7.55168"><ele>2128.6</ele><time>2025-08-09T14:06:31Z</time></trkpt>
<trkpt lat="46.20912" lon="7.55161"><ele>2127.6</ele><time>2025-08-09T14:06:34Z</time></trkpt>
<trkpt lat="46.20915" lon="7.55159"><ele>2127.8</ele><time>2025-08-09T14:06:36Z</time></trkpt>
<trkpt lat="46.20918" lon="7.55159"><ele>2128.2</ele><time>2025-08-09T14:06:38Z</time></trkpt>
<trkpt lat="46.20922" lon="7.5516"><ele>2128.8</ele><time>2025-08-09T14:06:41Z</time></trkpt>
<trkpt lat="46.20927" lon="7.55159"><ele>2129.2</ele><time>2025-08-09T14:06:44Z</time></trkpt>
<trkpt lat="46.2094" lon="7.5515"><ele>2129.4</ele><time>2025-08-09T14:06:50Z</time></trkpt>
<trkpt lat="46.20945" lon="7.55143"><ele>2129</ele><time>2025-08-09T14:06:52Z</time></trkpt>
<trkpt lat="46.20952" lon="7.55136"><ele>2128.6</ele><time>2025-08-09T14:06:54Z</time></trkpt>
<trkpt lat="46.20956" lon="7.55133"><ele>2128.8</ele><time>2025-08-09T14:06:55Z</time></trkpt>
<trkpt lat="46.20966" lon="7.55123"><ele>2129.2</ele><time>2025-08-09T14:06:58Z</time></trkpt>
<trkpt lat="46.20971" lon="7.55115"><ele>2129.4</ele><time>2025-08-09T14:07:00Z</time></trkpt>
<trkpt lat="46.20976" lon="7.55107"><ele>2129.8</ele><time>2025-08-09T14:07:02Z</time></trkpt>
<trkpt lat="46.20986" lon="7.55095"><ele>2130.4</ele><time>2025-08-09T14:07:06Z</time></trkpt>
<trkpt lat="46.2099" lon="7.55091"><ele>2130.8</ele><time>2025-08-09T14:07:08Z</time></trkpt>
<trkpt lat="46.20992" lon="7.55088"><ele>2130.8</ele><time>2025-08-09T14:07:09Z</time></trkpt>
<trkpt lat="46.21001" lon="7.55072"><ele>2131.4</ele><time>2025-08-09T14:07:14Z</time></trkpt>
<trkpt lat="46.21009" lon="7.55061"><ele>2131</ele><time>2025-08-09T14:07:18Z</time></trkpt>
<trkpt lat="46.21011" lon="7.5506"><ele>2130.8</ele><time>2025-08-09T14:07:19Z</time></trkpt>
<trkpt lat="46.21026" lon="7.55055"><ele>2131</ele><time>2025-08-09T14:07:25Z</time></trkpt>
<trkpt lat="46.21038" lon="7.55051"><ele>2131.2</ele><time>2025-08-09T14:07:30Z</time></trkpt>
<trkpt lat="46.21057" lon="7.55049"><ele>2130.8</ele><time>2025-08-09T14:07:36Z</time></trkpt>
<trkpt lat="46.2107" lon="7.55058"><ele>2131.8</ele><time>2025-08-09T14:07:41Z</time></trkpt>
<trkpt lat="46.21072" lon="7.55059"><ele>2132</ele><time>2025-08-09T14:07:42Z</time></trkpt>
<trkpt lat="46.21081" lon="7.55063"><ele>2132.8</ele><time>2025-08-09T14:07:47Z</time></trkpt>
<trkpt lat="46.21085" lon="7.55063"><ele>2133.2</ele><time>2025-08-09T14:07:49Z</time></trkpt>
<trkpt lat="46.21092" lon="7.55065"><ele>2133.8</ele><time>2025-08-09T14:07:53Z</time></trkpt>
<trkpt lat="46.21095" lon="7.55067"><ele>2134.2</ele><time>2025-08-09T14:07:55Z</time></trkpt>
<trkpt lat="46.21103" lon="7.55073"><ele>2134.8</ele><time>2025-08-09T14:08:00Z</time></trkpt>
<trkpt lat="46.2111" lon="7.55078"><ele>2135.4</ele><time>2025-08-09T14:08:04Z</time></trkpt>
<trkpt lat="46.21121" lon="7.55087"><ele>2135.8</ele><time>2025-08-09T14:08:10Z</time></trkpt>
<trkpt lat="46.21127" lon="7.55091"><ele>2136.4</ele><time>2025-08-09T14:08:14Z</time></trkpt>
<trkpt lat="46.21131" lon="7.55093"><ele>2136.8</ele><time>2025-08-09T14:08:16Z</time></trkpt>
<trkpt lat="46.21145" lon="7.55091"><ele>2136.8</ele><time>2025-08-09T14:08:22Z</time></trkpt>
<trkpt lat="46.21151" lon="7.55073"><ele>2137.2</ele><time>2025-08-09T14:08:28Z</time></trkpt>
<trkpt lat="46.21155" lon="7.55064"><ele>2137.4</ele><time>2025-08-09T14:08:31Z</time></trkpt>
<trkpt lat="46.21162" lon="7.55048"><ele>2138</ele><time>2025-08-09T14:08:36Z</time></trkpt>
<trkpt lat="46.21176" lon="7.55031"><ele>2138</ele><time>2025-08-09T14:08:42Z</time></trkpt>
<trkpt lat="46.21192" lon="7.55028"><ele>2138</ele><time>2025-08-09T14:08:47Z</time></trkpt>
<trkpt lat="46.212" lon="7.55028"><ele>2138.6</ele><time>2025-08-09T14:08:50Z</time></trkpt>
<trkpt lat="46.21206" lon="7.55026"><ele>2139</ele><time>2025-08-09T14:08:53Z</time></trkpt>
<trkpt lat="46.21216" lon="7.55013"><ele>2139.6</ele><time>2025-08-09T14:08:58Z</time></trkpt>
<trkpt lat="46.21223" lon="7.55006"><ele>2139.4</ele><time>2025-08-09T14:09:00Z</time></trkpt>
<trkpt lat="46.21231" lon="7.55005"><ele>2139.4</ele><time>2025-08-09T14:09:02Z</time></trkpt>
<trkpt lat="46.2125" lon="7.5501"><ele>2139.6</ele><time>2025-08-09T14:09:07Z</time></trkpt>
<trkpt lat="46.21269" lon="7.55021"><ele>2140.2</ele><time>2025-08-09T14:09:13Z</time></trkpt>
<trkpt lat="46.21289" lon="7.55031"><ele>2140</ele><time>2025-08-09T14:09:19Z</time></trkpt>
<trkpt lat="46.21294" lon="7.55029"><ele>2139.8</ele><time>2025-08-09T14:09:20Z</time></trkpt>
<trkpt lat="46.21311" lon="7.55027"><ele>2138</ele><time>2025-08-09T14:09:23Z</time></trkpt>
<trkpt lat="46.21321" lon="7.55032"><ele>2137.4</ele><time>2025-08-09T14:09:25Z</time></trkpt>
<trkpt lat="46.21326" lon="7.55037"><ele>2137</ele><time>2025-08-09T14:09:26Z</time></trkpt>
<trkpt lat="46.21329" lon="7.55042"><ele>2136.8</ele><time>2025-08-09T14:09:27Z</time></trkpt>
<trkpt lat="46.21346" lon="7.5506"><ele>2136</ele><time>2025-08-09T14:09:31Z</time></trkpt>
<trkpt lat="46.21351" lon="7.55065"><ele>2136</ele><time>2025-08-09T14:09:32Z</time></trkpt>
<trkpt lat="46.21359" lon="7.55073"><ele>2135.8</ele><time>2025-08-09T14:09:35Z</time></trkpt>
<trkpt lat="46.21363" lon="7.55077"><ele>2135.8</ele><time>2025-08-09T14:09:39Z</time></trkpt>
<trkpt lat="46.21363" lon="7.55075"><ele>2135.8</ele><time>2025-08-09T14:09:41Z</time></trkpt>
<trkpt lat="46.21363" lon="7.55075"><ele>2135.6</ele><time>2025-08-09T14:09:42Z</time></trkpt>
<trkpt lat="46.21364" lon="7.55075"><ele>2135.4</ele><time>2025-08-09T14:09:44Z</time></trkpt>
<trkpt lat="46.21363" lon="7.55077"><ele>2135.6</ele><time>2025-08-09T14:09:50Z</time></trkpt>
<trkpt lat="46.21363" lon="7.55077"><ele>2135.8</ele><time>2025-08-09T14:09:52Z</time></trkpt>
<trkpt lat="46.21366" lon="7.55082"><ele>2135.8</ele><time>2025-08-09T14:09:54Z</time></trkpt>
<trkpt lat="46.21372" lon="7.55087"><ele>2135.4</ele><time>2025-08-09T14:09:56Z</time></trkpt>
<trkpt lat="46.21379" lon="7.55092"><ele>2135</ele><time>2025-08-09T14:09:58Z</time></trkpt>
<trkpt lat="46.21401" lon="7.551"><ele>2134.6</ele><time>2025-08-09T14:10:03Z</time></trkpt>
<trkpt lat="46.21426" lon="7.55112"><ele>2134.4</ele><time>2025-08-09T14:10:09Z</time></trkpt>
<trkpt lat="46.21434" lon="7.55118"><ele>2134.4</ele><time>2025-08-09T14:10:11Z</time></trkpt>
<trkpt lat="46.21451" lon="7.55127"><ele>2134.4</ele><time>2025-08-09T14:10:15Z</time></trkpt>
<trkpt lat="46.21482" lon="7.55133"><ele>2134.2</ele><time>2025-08-09T14:10:22Z</time></trkpt>
<trkpt lat="46.21507" lon="7.55126"><ele>2135</ele><time>2025-08-09T14:10:28Z</time></trkpt>
<trkpt lat="46.21511" lon="7.55124"><ele>2134.8</ele><time>2025-08-09T14:10:29Z</time></trkpt>
<trkpt lat="46.21523" lon="7.55115"><ele>2134</ele><time>2025-08-09T14:10:32Z</time></trkpt>
<trkpt lat="46.21526" lon="7.55112"><ele>2134</ele><time>2025-08-09T14:10:33Z</time></trkpt>
<trkpt lat="46.21554" lon="7.5509"><ele>2132.8</ele><time>2025-08-09T14:10:39Z</time></trkpt>
<trkpt lat="46.21565" lon="7.55082"><ele>2132.4</ele><time>2025-08-09T14:10:41Z</time></trkpt>
<trkpt lat="46.21575" lon="7.5507"><ele>2132</ele><time>2025-08-09T14:10:43Z</time></trkpt>
<trkpt lat="46.21587" lon="7.55047"><ele>2132.2</ele><time>2025-08-09T14:10:46Z</time></trkpt>
<trkpt lat="46.21593" lon="7.55031"><ele>2132.2</ele><time>2025-08-09T14:10:48Z</time></trkpt>
<trkpt lat="46.21596" lon="7.55024"><ele>2132.4</ele><time>2025-08-09T14:10:49Z</time></trkpt>
<trkpt lat="46.21606" lon="7.55016"><ele>2132.4</ele><time>2025-08-09T14:10:51Z</time></trkpt>
<trkpt lat="46.21618" lon="7.55011"><ele>2132.8</ele><time>2025-08-09T14:10:54Z</time></trkpt>
<trkpt lat="46.21621" lon="7.55007"><ele>2132.8</ele><time>2025-08-09T14:10:55Z</time></trkpt>
<trkpt lat="46.21636" lon="7.54988"><ele>2133</ele><time>2025-08-09T14:10:59Z</time></trkpt>
<trkpt lat="46.21645" lon="7.54984"><ele>2133.2</ele><time>2025-08-09T14:11:01Z</time></trkpt>
<trkpt lat="46.21663" lon="7.54981"><ele>2133</ele><time>2025-08-09T14:11:05Z</time></trkpt>
<trkpt lat="46.21667" lon="7.54977"><ele>2133.2</ele><time>2025-08-09T14:11:06Z</time></trkpt>
<trkpt lat="46.21668" lon="7.54971"><ele>2133.2</ele><time>2025-08-09T14:11:07Z</time></trkpt>
<trkpt lat="46.21674" lon="7.54958"><ele>2133</ele><time>2025-08-09T14:11:09Z</time></trkpt>
<trkpt lat="46.21684" lon="7.5495"><ele>2132.4</ele><time>2025-08-09T14:11:11Z</time></trkpt>
<trkpt lat="46.21689" lon="7.54949"><ele>2132.4</ele><time>2025-08-09T14:11:12Z</time></trkpt>
<trkpt lat="46.217" lon="7.54943"><ele>2132</ele><time>2025-08-09T14:11:14Z</time></trkpt>
<trkpt lat="46.21704" lon="7.54938"><ele>2131.6</ele><time>2025-08-09T14:11:15Z</time></trkpt>
<trkpt lat="46.21709" lon="7.54933"><ele>2131.4</ele><time>2025-08-09T14:11:16Z</time></trkpt>
<trkpt lat="46.21713" lon="7.5493"><ele>2131.4</ele><time>2025-08-09T14:11:17Z</time></trkpt>
<trkpt lat="46.21723" lon="7.54926"><ele>2131.8</ele><time>2025-08-09T14:11:19Z</time></trkpt>
<trkpt lat="46.21752" lon="7.54914"><ele>2132.4</ele><time>2025-08-09T14:11:25Z</time></trkpt>
<trkpt lat="46.21787" lon="7.54907"><ele>2132</ele><time>2025-08-09T14:11:32Z</time></trkpt>
<trkpt lat="46.21793" lon="7.54908"><ele>2132.2</ele><time>2025-08-09T14:11:33Z</time></trkpt>
<trkpt lat="46.21804" lon="7.54907"><ele>2131.8</ele><time>2025-08-09T14:11:35Z</time></trkpt>
<trkpt lat="46.2181" lon="7.54906"><ele>2131.6</ele><time>2025-08-09T14:11:36Z</time></trkpt>
<trkpt lat="46.21829" lon="7.54902"><ele>2130.4</ele><time>2025-08-09T14:11:39Z</time></trkpt>
<trkpt lat="46.21844" lon="7.549"><ele>2129.6</ele><time>2025-08-09T14:11:41Z</time></trkpt>
<trkpt lat="46.21864" lon="7.54895"><ele>2129</ele><time>2025-08-09T14:11:44Z</time></trkpt>
<trkpt lat="46.21885" lon="7.54895"><ele>2127.8</ele><time>2025-08-09T14:11:47Z</time></trkpt>
<trkpt lat="46.21893" lon="7.54896"><ele>2127.4</ele><time>2025-08-09T14:11:48Z</time></trkpt>
<trkpt lat="46.21907" lon="7.54899"><ele>2126.8</ele><time>2025-08-09T14:11:50Z</time></trkpt>
<trkpt lat="46.21916" lon="7.54902"><ele>2126</ele><time>2025-08-09T14:11:51Z</time></trkpt>
<trkpt lat="46.21924" lon="7.54905"><ele>2125.2</ele><time>2025-08-09T14:11:52Z</time></trkpt>
<trkpt lat="46.21933" lon="7.54908"><ele>2124.4</ele><time>2025-08-09T14:11:53Z</time></trkpt>
<trkpt lat="46.21956" lon="7.54922"><ele>2123.8</ele><time>2025-08-09T14:11:56Z</time></trkpt>
<trkpt lat="46.21963" lon="7.54927"><ele>2123.6</ele><time>2025-08-09T14:11:57Z</time></trkpt>
<trkpt lat="46.2197" lon="7.54931"><ele>2123.4</ele><time>2025-08-09T14:11:58Z</time></trkpt>
<trkpt lat="46.21977" lon="7.54934"><ele>2123.4</ele><time>2025-08-09T14:11:59Z</time></trkpt>
<trkpt lat="46.21989" lon="7.54933"><ele>2123.2</ele><time>2025-08-09T14:12:01Z</time></trkpt>
<trkpt lat="46.22008" lon="7.54924"><ele>2121.6</ele><time>2025-08-09T14:12:04Z</time></trkpt>
<trkpt lat="46.22014" lon="7.54923"><ele>2120.6</ele><time>2025-08-09T14:12:05Z</time></trkpt>
<trkpt lat="46.22021" lon="7.54923"><ele>2119.4</ele><time>2025-08-09T14:12:06Z</time></trkpt>
<trkpt lat="46.22037" lon="7.54926"><ele>2117.8</ele><time>2025-08-09T14:12:08Z</time></trkpt>
<trkpt lat="46.22044" lon="7.54929"><ele>2117.2</ele><time>2025-08-09T14:12:09Z</time></trkpt>
<trkpt lat="46.22056" lon="7.54936"><ele>2116.6</ele><time>2025-08-09T14:12:11Z</time></trkpt>
<trkpt lat="46.22061" lon="7.5494"><ele>2116.4</ele><time>2025-08-09T14:12:12Z</time></trkpt>
<trkpt lat="46.22071" lon="7.54942"><ele>2116</ele><time>2025-08-09T14:12:14Z</time></trkpt>
<trkpt lat="46.22075" lon="7.54939"><ele>2115.6</ele><time>2025-08-09T14:12:15Z</time></trkpt>
<trkpt lat="46.2208" lon="7.54936"><ele>2115</ele><time>2025-08-09T14:12:16Z</time></trkpt>
<trkpt lat="46.2209" lon="7.54927"><ele>2113.6</ele><time>2025-08-09T14:12:18Z</time></trkpt>
<trkpt lat="46.22096" lon="7.54924"><ele>2113</ele><time>2025-08-09T14:12:19Z</time></trkpt>
<trkpt lat="46.22113" lon="7.54917"><ele>2112.4</ele><time>2025-08-09T14:12:22Z</time></trkpt>
<trkpt lat="46.22118" lon="7.54913"><ele>2111.6</ele><time>2025-08-09T14:12:23Z</time></trkpt>
<trkpt lat="46.22122" lon="7.54906"><ele>2110.6</ele><time>2025-08-09T14:12:24Z</time></trkpt>
<trkpt lat="46.22132" lon="7.54897"><ele>2108.4</ele><time>2025-08-09T14:12:26Z</time></trkpt>
<trkpt lat="46.22144" lon="7.54893"><ele>2107</ele><time>2025-08-09T14:12:28Z</time></trkpt>
<trkpt lat="46.2215" lon="7.5489"><ele>2106.6</ele><time>2025-08-09T14:12:29Z</time></trkpt>
<trkpt lat="46.22155" lon="7.54887"><ele>2106.2</ele><time>2025-08-09T14:12:30Z</time></trkpt>
<trkpt lat="46.22161" lon="7.54884"><ele>2105.2</ele><time>2025-08-09T14:12:31Z</time></trkpt>
<trkpt lat="46.22168" lon="7.54879"><ele>2104</ele><time>2025-08-09T14:12:32Z</time></trkpt>
<trkpt lat="46.22174" lon="7.54874"><ele>2102.6</ele><time>2025-08-09T14:12:33Z</time></trkpt>
<trkpt lat="46.2218" lon="7.54869"><ele>2101</ele><time>2025-08-09T14:12:34Z</time></trkpt>
<trkpt lat="46.22185" lon="7.54863"><ele>2100.4</ele><time>2025-08-09T14:12:35Z</time></trkpt>
<trkpt lat="46.22189" lon="7.54857"><ele>2099.4</ele><time>2025-08-09T14:12:36Z</time></trkpt>
<trkpt lat="46.22194" lon="7.54849"><ele>2097.8</ele><time>2025-08-09T14:12:37Z</time></trkpt>
<trkpt lat="46.22202" lon="7.54836"><ele>2096</ele><time>2025-08-09T14:12:39Z</time></trkpt>
<trkpt lat="46.22209" lon="7.54831"><ele>2095</ele><time>2025-08-09T14:12:40Z</time></trkpt>
<trkpt lat="46.22222" lon="7.54823"><ele>2094.4</ele><time>2025-08-09T14:12:42Z</time></trkpt>
<trkpt lat="46.22235" lon="7.54811"><ele>2093.8</ele><time>2025-08-09T14:12:44Z</time></trkpt>
<trkpt lat="46.22243" lon="7.548"><ele>2092.2</ele><time>2025-08-09T14:12:46Z</time></trkpt>
<trkpt lat="46.22249" lon="7.54785"><ele>2091</ele><time>2025-08-09T14:12:48Z</time></trkpt>
<trkpt lat="46.22252" lon="7.54777"><ele>2089.2</ele><time>2025-08-09T14:12:49Z</time></trkpt>
<trkpt lat="46.22257" lon="7.54761"><ele>2088</ele><time>2025-08-09T14:12:51Z</time></trkpt>
<trkpt lat="46.22262" lon="7.54755"><ele>2086.6</ele><time>2025-08-09T14:12:52Z</time></trkpt>
<trkpt lat="46.22267" lon="7.5475"><ele>2085.8</ele><time>2025-08-09T14:12:53Z</time></trkpt>
<trkpt lat="46.22272" lon="7.54744"><ele>2084.8</ele><time>2025-08-09T14:12:54Z</time></trkpt>
<trkpt lat="46.22278" lon="7.5474"><ele>2084</ele><time>2025-08-09T14:12:55Z</time></trkpt>
<trkpt lat="46.22284" lon="7.54734"><ele>2082.8</ele><time>2025-08-09T14:12:56Z</time></trkpt>
<trkpt lat="46.22301" lon="7.54721"><ele>2081.2</ele><time>2025-08-09T14:12:59Z</time></trkpt>
<trkpt lat="46.22307" lon="7.54716"><ele>2080.4</ele><time>2025-08-09T14:13:00Z</time></trkpt>
<trkpt lat="46.22314" lon="7.54713"><ele>2079.6</ele><time>2025-08-09T14:13:01Z</time></trkpt>
<trkpt lat="46.2232" lon="7.5471"><ele>2079</ele><time>2025-08-09T14:13:02Z</time></trkpt>
<trkpt lat="46.22327" lon="7.54708"><ele>2078</ele><time>2025-08-09T14:13:03Z</time></trkpt>
<trkpt lat="46.22333" lon="7.54705"><ele>2076.8</ele><time>2025-08-09T14:13:04Z</time></trkpt>
<trkpt lat="46.22339" lon="7.54702"><ele>2075.2</ele><time>2025-08-09T14:13:05Z</time></trkpt>
<trkpt lat="46.22345" lon="7.54699"><ele>2073.8</ele><time>2025-08-09T14:13:06Z</time></trkpt>
<trkpt lat="46.22357" lon="7.54694"><ele>2072.6</ele><time>2025-08-09T14:13:08Z</time></trkpt>
<trkpt lat="46.22363" lon="7.54694"><ele>2071.8</ele><time>2025-08-09T14:13:09Z</time></trkpt>
<trkpt lat="46.22368" lon="7.54695"><ele>2070.6</ele><time>2025-08-09T14:13:10Z</time></trkpt>
<trkpt lat="46.22378" lon="7.54694"><ele>2068.8</ele><time>2025-08-09T14:13:12Z</time></trkpt>
<trkpt lat="46.2239" lon="7.54693"><ele>2067.4</ele><time>2025-08-09T14:13:14Z</time></trkpt>
<trkpt lat="46.22395" lon="7.54693"><ele>2066.6</ele><time>2025-08-09T14:13:15Z</time></trkpt>
<trkpt lat="46.224" lon="7.54693"><ele>2066.2</ele><time>2025-08-09T14:13:16Z</time></trkpt>
<trkpt lat="46.22411" lon="7.54692"><ele>2064.8</ele><time>2025-08-09T14:13:18Z</time></trkpt>
<trkpt lat="46.22421" lon="7.54692"><ele>2063</ele><time>2025-08-09T14:13:20Z</time></trkpt>
<trkpt lat="46.22426" lon="7.54691"><ele>2062</ele><time>2025-08-09T14:13:21Z</time></trkpt>
<trkpt lat="46.22431" lon="7.54689"><ele>2061</ele><time>2025-08-09T14:13:22Z</time></trkpt>
<trkpt lat="46.22434" lon="7.54687"><ele>2060.6</ele><time>2025-08-09T14:13:23Z</time></trkpt>
<trkpt lat="46.22438" lon="7.54682"><ele>2060</ele><time>2025-08-09T14:13:24Z</time></trkpt>
<trkpt lat="46.22441" lon="7.54675"><ele>2059.4</ele><time>2025-08-09T14:13:25Z</time></trkpt>
<trkpt lat="46.22448" lon="7.54662"><ele>2057.8</ele><time>2025-08-09T14:13:27Z</time></trkpt>
<trkpt lat="46.22452" lon="7.54655"><ele>2056.8</ele><time>2025-08-09T14:13:28Z</time></trkpt>
<trkpt lat="46.22456" lon="7.54648"><ele>2055</ele><time>2025-08-09T14:13:29Z</time></trkpt>
<trkpt lat="46.2246" lon="7.54643"><ele>2054</ele><time>2025-08-09T14:13:30Z</time></trkpt>
<trkpt lat="46.22464" lon="7.54638"><ele>2053</ele><time>2025-08-09T14:13:31Z</time></trkpt>
<trkpt lat="46.2247" lon="7.54627"><ele>2052.4</ele><time>2025-08-09T14:13:33Z</time></trkpt>
<trkpt lat="46.22472" lon="7.5462"><ele>2051.8</ele><time>2025-08-09T14:13:34Z</time></trkpt>
<trkpt lat="46.22473" lon="7.54612"><ele>2051.2</ele><time>2025-08-09T14:13:35Z</time></trkpt>
<trkpt lat="46.22475" lon="7.54603"><ele>2050.4</ele><time>2025-08-09T14:13:36Z</time></trkpt>
<trkpt lat="46.22481" lon="7.54585"><ele>2048</ele><time>2025-08-09T14:13:38Z</time></trkpt>
<trkpt lat="46.22486" lon="7.54579"><ele>2047</ele><time>2025-08-09T14:13:39Z</time></trkpt>
<trkpt lat="46.2249" lon="7.54574"><ele>2045.8</ele><time>2025-08-09T14:13:40Z</time></trkpt>
<trkpt lat="46.22494" lon="7.54568"><ele>2044.2</ele><time>2025-08-09T14:13:41Z</time></trkpt>
<trkpt lat="46.22496" lon="7.54562"><ele>2043.4</ele><time>2025-08-09T14:13:42Z</time></trkpt>
<trkpt lat="46.22498" lon="7.54555"><ele>2042.4</ele><time>2025-08-09T14:13:43Z</time></trkpt>
<trkpt lat="46.22499" lon="7.54547"><ele>2041.4</ele><time>2025-08-09T14:13:44Z</time></trkpt>
<trkpt lat="46.22501" lon="7.5454"><ele>2041</ele><time>2025-08-09T14:13:45Z</time></trkpt>
<trkpt lat="46.22503" lon="7.54534"><ele>2040</ele><time>2025-08-09T14:13:46Z</time></trkpt>
<trkpt lat="46.22506" lon="7.5453"><ele>2038.8</ele><time>2025-08-09T14:13:47Z</time></trkpt>
<trkpt lat="46.22512" lon="7.54524"><ele>2037</ele><time>2025-08-09T14:13:49Z</time></trkpt>
<trkpt lat="46.22524" lon="7.54519"><ele>2035.4</ele><time>2025-08-09T14:13:52Z</time></trkpt>
<trkpt lat="46.22533" lon="7.54517"><ele>2033.6</ele><time>2025-08-09T14:13:54Z</time></trkpt>
<trkpt lat="46.22538" lon="7.54517"><ele>2032.2</ele><time>2025-08-09T14:13:55Z</time></trkpt>
<trkpt lat="46.22544" lon="7.54517"><ele>2031.2</ele><time>2025-08-09T14:13:56Z</time></trkpt>
<trkpt lat="46.22549" lon="7.54518"><ele>2030.6</ele><time>2025-08-09T14:13:57Z</time></trkpt>
<trkpt lat="46.2256" lon="7.54521"><ele>2028.6</ele><time>2025-08-09T14:13:59Z</time></trkpt>
<trkpt lat="46.2257" lon="7.54521"><ele>2026.8</ele><time>2025-08-09T14:14:01Z</time></trkpt>
<trkpt lat="46.22574" lon="7.5452"><ele>2024.8</ele><time>2025-08-09T14:14:02Z</time></trkpt>
<trkpt lat="46.22578" lon="7.5452"><ele>2023.8</ele><time>2025-08-09T14:14:03Z</time></trkpt>
<trkpt lat="46.22588" lon="7.54518"><ele>2022.4</ele><time>2025-08-09T14:14:05Z</time></trkpt>
<trkpt lat="46.22598" lon="7.54522"><ele>2021.2</ele><time>2025-08-09T14:14:07Z</time></trkpt>
<trkpt lat="46.22612" lon="7.54524"><ele>2019.6</ele><time>2025-08-09T14:14:09Z</time></trkpt>
<trkpt lat="46.2262" lon="7.54524"><ele>2018</ele><time>2025-08-09T14:14:10Z</time></trkpt>
<trkpt lat="46.22629" lon="7.54525"><ele>2016.6</ele><time>2025-08-09T14:14:11Z</time></trkpt>
<trkpt lat="46.22637" lon="7.54526"><ele>2015.2</ele><time>2025-08-09T14:14:12Z</time></trkpt>
<trkpt lat="46.22657" lon="7.54529"><ele>2014</ele><time>2025-08-09T14:14:14Z</time></trkpt>
<trkpt lat="46.22667" lon="7.54533"><ele>2013.6</ele><time>2025-08-09T14:14:15Z</time></trkpt>
<trkpt lat="46.22677" lon="7.54536"><ele>2013</ele><time>2025-08-09T14:14:16Z</time></trkpt>
<trkpt lat="46.22703" lon="7.54549"><ele>2012</ele><time>2025-08-09T14:14:19Z</time></trkpt>
<trkpt lat="46.22708" lon="7.54556"><ele>2011</ele><time>2025-08-09T14:14:20Z</time></trkpt>
<trkpt lat="46.22717" lon="7.54566"><ele>2010</ele><time>2025-08-09T14:14:22Z</time></trkpt>
<trkpt lat="46.22723" lon="7.54568"><ele>2009.6</ele><time>2025-08-09T14:14:23Z</time></trkpt>
<trkpt lat="46.22729" lon="7.54569"><ele>2009.2</ele><time>2025-08-09T14:14:24Z</time></trkpt>
<trkpt lat="46.22735" lon="7.54568"><ele>2008.8</ele><time>2025-08-09T14:14:25Z</time></trkpt>
<trkpt lat="46.22751" lon="7.54562"><ele>2007.4</ele><time>2025-08-09T14:14:28Z</time></trkpt>
<trkpt lat="46.22762" lon="7.54559"><ele>2006</ele><time>2025-08-09T14:14:30Z</time></trkpt>
<trkpt lat="46.22768" lon="7.54558"><ele>2004.8</ele><time>2025-08-09T14:14:31Z</time></trkpt>
<trkpt lat="46.2278" lon="7.54559"><ele>2003.4</ele><time>2025-08-09T14:14:33Z</time></trkpt>
<trkpt lat="46.22786" lon="7.5456"><ele>2002</ele><time>2025-08-09T14:14:34Z</time></trkpt>
<trkpt lat="46.22792" lon="7.54561"><ele>2001</ele><time>2025-08-09T14:14:35Z</time></trkpt>
<trkpt lat="46.22798" lon="7.5456"><ele>1999.4</ele><time>2025-08-09T14:14:36Z</time></trkpt>
<trkpt lat="46.22809" lon="7.54555"><ele>1997.8</ele><time>2025-08-09T14:14:38Z</time></trkpt>
<trkpt lat="46.22819" lon="7.54547"><ele>1996.2</ele><time>2025-08-09T14:14:40Z</time></trkpt>
<trkpt lat="46.22829" lon="7.54542"><ele>1994.2</ele><time>2025-08-09T14:14:42Z</time></trkpt>
<trkpt lat="46.22834" lon="7.54544"><ele>1993.4</ele><time>2025-08-09T14:14:43Z</time></trkpt>
<trkpt lat="46.22838" lon="7.54547"><ele>1992.6</ele><time>2025-08-09T14:14:44Z</time></trkpt>
<trkpt lat="46.22849" lon="7.54552"><ele>1991.2</ele><time>2025-08-09T14:14:46Z</time></trkpt>
<trkpt lat="46.22854" lon="7.54555"><ele>1989.2</ele><time>2025-08-09T14:14:47Z</time></trkpt>
<trkpt lat="46.2286" lon="7.54558"><ele>1987.4</ele><time>2025-08-09T14:14:48Z</time></trkpt>
<trkpt lat="46.22865" lon="7.54559"><ele>1985.6</ele><time>2025-08-09T14:14:49Z</time></trkpt>
<trkpt lat="46.2287" lon="7.5456"><ele>1985</ele><time>2025-08-09T14:14:50Z</time></trkpt>
<trkpt lat="46.22876" lon="7.5456"><ele>1984</ele><time>2025-08-09T14:14:51Z</time></trkpt>
<trkpt lat="46.22883" lon="7.5456"><ele>1983</ele><time>2025-08-09T14:14:52Z</time></trkpt>
<trkpt lat="46.22889" lon="7.54558"><ele>1982.4</ele><time>2025-08-09T14:14:53Z</time></trkpt>
<trkpt lat="46.22895" lon="7.54556"><ele>1981.2</ele><time>2025-08-09T14:14:54Z</time></trkpt>
<trkpt lat="46.22901" lon="7.54553"><ele>1980.4</ele><time>2025-08-09T14:14:55Z</time></trkpt>
<trkpt lat="46.22906" lon="7.54551"><ele>1978.6</ele><time>2025-08-09T14:14:56Z</time></trkpt>
<trkpt lat="46.22915" lon="7.54545"><ele>1977</ele><time>2025-08-09T14:14:58Z</time></trkpt>
<trkpt lat="46.2292" lon="7.54544"><ele>1974.8</ele><time>2025-08-09T14:14:59Z</time></trkpt>
<trkpt lat="46.22924" lon="7.54545"><ele>1973.8</ele><time>2025-08-09T14:15:00Z</time></trkpt>
<trkpt lat="46.22929" lon="7.54545"><ele>1972.6</ele><time>2025-08-09T14:15:01Z</time></trkpt>
<trkpt lat="46.22943" lon="7.54546"><ele>1971</ele><time>2025-08-09T14:15:04Z</time></trkpt>
<trkpt lat="46.22948" lon="7.54547"><ele>1969.8</ele><time>2025-08-09T14:15:05Z</time></trkpt>
<trkpt lat="46.22952" lon="7.54548"><ele>1968.8</ele><time>2025-08-09T14:15:06Z</time></trkpt>
<trkpt lat="46.22957" lon="7.54549"><ele>1968.2</ele><time>2025-08-09T14:15:07Z</time></trkpt>
<trkpt lat="46.22961" lon="7.5455"><ele>1967.6</ele><time>2025-08-09T14:15:08Z</time></trkpt>
<trkpt lat="46.22966" lon="7.5455"><ele>1967.2</ele><time>2025-08-09T14:15:09Z</time></trkpt>
<trkpt lat="46.22975" lon="7.54546"><ele>1965.4</ele><time>2025-08-09T14:15:11Z</time></trkpt>
<trkpt lat="46.22981" lon="7.54544"><ele>1964.4</ele><time>2025-08-09T14:15:12Z</time></trkpt>
<trkpt lat="46.22995" lon="7.54541"><ele>1963</ele><time>2025-08-09T14:15:14Z</time></trkpt>
<trkpt lat="46.2301" lon="7.54544"><ele>1962.2</ele><time>2025-08-09T14:15:16Z</time></trkpt>
<trkpt lat="46.23017" lon="7.54547"><ele>1961.4</ele><time>2025-08-09T14:15:17Z</time></trkpt>
<trkpt lat="46.23023" lon="7.54551"><ele>1960</ele><time>2025-08-09T14:15:18Z</time></trkpt>
<trkpt lat="46.23027" lon="7.54556"><ele>1959.4</ele><time>2025-08-09T14:15:19Z</time></trkpt>
<trkpt lat="46.23032" lon="7.54561"><ele>1958.6</ele><time>2025-08-09T14:15:20Z</time></trkpt>
<trkpt lat="46.23036" lon="7.54565"><ele>1958.6</ele><time>2025-08-09T14:15:21Z</time></trkpt>
<trkpt lat="46.23046" lon="7.54567"><ele>1958.2</ele><time>2025-08-09T14:15:23Z</time></trkpt>
<trkpt lat="46.23055" lon="7.54565"><ele>1957.8</ele><time>2025-08-09T14:15:25Z</time></trkpt>
<trkpt lat="46.2306" lon="7.54564"><ele>1956.6</ele><time>2025-08-09T14:15:26Z</time></trkpt>
<trkpt lat="46.23066" lon="7.54563"><ele>1955.8</ele><time>2025-08-09T14:15:27Z</time></trkpt>
<trkpt lat="46.23071" lon="7.54563"><ele>1955.4</ele><time>2025-08-09T14:15:28Z</time></trkpt>
<trkpt lat="46.23076" lon="7.5456"><ele>1954.4</ele><time>2025-08-09T14:15:29Z</time></trkpt>
<trkpt lat="46.23082" lon="7.54557"><ele>1953</ele><time>2025-08-09T14:15:30Z</time></trkpt>
<trkpt lat="46.23087" lon="7.54553"><ele>1951.4</ele><time>2025-08-09T14:15:31Z</time></trkpt>
<trkpt lat="46.23092" lon="7.54549"><ele>1950.6</ele><time>2025-08-09T14:15:32Z</time></trkpt>
<trkpt lat="46.23097" lon="7.54544"><ele>1949.6</ele><time>2025-08-09T14:15:33Z</time></trkpt>
<trkpt lat="46.23108" lon="7.54532"><ele>1948.6</ele><time>2025-08-09T14:15:35Z</time></trkpt>
<trkpt lat="46.23115" lon="7.54528"><ele>1948.2</ele><time>2025-08-09T14:15:36Z</time></trkpt>
<trkpt lat="46.23143" lon="7.54519"><ele>1947</ele><time>2025-08-09T14:15:40Z</time></trkpt>
<trkpt lat="46.2315" lon="7.54518"><ele>1946.4</ele><time>2025-08-09T14:15:41Z</time></trkpt>
<trkpt lat="46.23156" lon="7.54517"><ele>1945.8</ele><time>2025-08-09T14:15:42Z</time></trkpt>
<trkpt lat="46.23161" lon="7.54514"><ele>1945.2</ele><time>2025-08-09T14:15:43Z</time></trkpt>
<trkpt lat="46.23171" lon="7.54507"><ele>1944.4</ele><time>2025-08-09T14:15:45Z</time></trkpt>
<trkpt lat="46.23175" lon="7.54503"><ele>1942</ele><time>2025-08-09T14:15:46Z</time></trkpt>
<trkpt lat="46.23177" lon="7.54497"><ele>1940.6</ele><time>2025-08-09T14:15:47Z</time></trkpt>
<trkpt lat="46.2318" lon="7.54492"><ele>1938.2</ele><time>2025-08-09T14:15:48Z</time></trkpt>
<trkpt lat="46.23183" lon="7.54486"><ele>1938</ele><time>2025-08-09T14:15:49Z</time></trkpt>
<trkpt lat="46.23187" lon="7.5448"><ele>1937</ele><time>2025-08-09T14:15:50Z</time></trkpt>
<trkpt lat="46.23192" lon="7.54476"><ele>1935.6</ele><time>2025-08-09T14:15:51Z</time></trkpt>
<trkpt lat="46.23197" lon="7.54471"><ele>1934.8</ele><time>2025-08-09T14:15:52Z</time></trkpt>
<trkpt lat="46.23203" lon="7.54467"><ele>1933.6</ele><time>2025-08-09T14:15:53Z</time></trkpt>
<trkpt lat="46.23213" lon="7.54461"><ele>1931.8</ele><time>2025-08-09T14:15:55Z</time></trkpt>
<trkpt lat="46.23217" lon="7.54458"><ele>1930.8</ele><time>2025-08-09T14:15:56Z</time></trkpt>
<trkpt lat="46.23221" lon="7.54454"><ele>1930</ele><time>2025-08-09T14:15:57Z</time></trkpt>
<trkpt lat="46.23224" lon="7.54449"><ele>1929.2</ele><time>2025-08-09T14:15:58Z</time></trkpt>
<trkpt lat="46.23225" lon="7.54443"><ele>1929</ele><time>2025-08-09T14:15:59Z</time></trkpt>
<trkpt lat="46.23228" lon="7.54433"><ele>1928.6</ele><time>2025-08-09T14:16:01Z</time></trkpt>
<trkpt lat="46.23236" lon="7.54423"><ele>1929.6</ele><time>2025-08-09T14:16:05Z</time></trkpt>
<trkpt lat="46.23241" lon="7.54417"><ele>1930.2</ele><time>2025-08-09T14:16:09Z</time></trkpt>
<trkpt lat="46.23241" lon="7.54416"><ele>1930.2</ele><time>2025-08-09T14:16:10Z</time></trkpt>
<trkpt lat="46.23245" lon="7.54412"><ele>1931</ele><time>2025-08-09T14:16:14Z</time></trkpt>
<trkpt lat="46.23251" lon="7.54405"><ele>1931.2</ele><time>2025-08-09T14:16:20Z</time></trkpt>
<trkpt lat="46.23251" lon="7.54404"><ele>1931.4</ele><time>2025-08-09T14:16:21Z</time></trkpt>
<trkpt lat="46.23254" lon="7.544"><ele>1931.6</ele><time>2025-08-09T14:16:24Z</time></trkpt>
<trkpt lat="46.23257" lon="7.54396"><ele>1932</ele><time>2025-08-09T14:16:27Z</time></trkpt>
<trkpt lat="46.23258" lon="7.54393"><ele>1932.4</ele><time>2025-08-09T14:16:30Z</time></trkpt>
<trkpt lat="46.2326" lon="7.54387"><ele>1932.8</ele><time>2025-08-09T14:16:34Z</time></trkpt>
<trkpt lat="46.23262" lon="7.54382"><ele>1933.4</ele><time>2025-08-09T14:16:38Z</time></trkpt>
<trkpt lat="46.23264" lon="7.54378"><ele>1934</ele><time>2025-08-09T14:16:42Z</time></trkpt>
<trkpt lat="46.23265" lon="7.54375"><ele>1934.2</ele><time>2025-08-09T14:16:44Z</time></trkpt>
<trkpt lat="46.23267" lon="7.54373"><ele>1934.4</ele><time>2025-08-09T14:16:46Z</time></trkpt>
<trkpt lat="46.23267" lon="7.54371"><ele>1934.6</ele><time>2025-08-09T14:16:47Z</time></trkpt>
<trkpt lat="46.23269" lon="7.54368"><ele>1935.2</ele><time>2025-08-09T14:16:50Z</time></trkpt>
<trkpt lat="46.23269" lon="7.54366"><ele>1935.2</ele><time>2025-08-09T14:16:51Z</time></trkpt>
<trkpt lat="46.2327" lon="7.54364"><ele>1935.6</ele><time>2025-08-09T14:16:53Z</time></trkpt>
<trkpt lat="46.23271" lon="7.54362"><ele>1936</ele><time>2025-08-09T14:16:55Z</time></trkpt>
<trkpt lat="46.23271" lon="7.5436"><ele>1936.2</ele><time>2025-08-09T14:16:57Z</time></trkpt>
<trkpt lat="46.23274" lon="7.54355"><ele>1936.8</ele><time>2025-08-09T14:17:01Z</time></trkpt>
<trkpt lat="46.23274" lon="7.54351"><ele>1937</ele><time>2025-08-09T14:17:04Z</time></trkpt>
<trkpt lat="46.23276" lon="7.54344"><ele>1937.8</ele><time>2025-08-09T14:17:10Z</time></trkpt>
<trkpt lat="46.2328" lon="7.54337"><ele>1938.6</ele><time>2025-08-09T14:17:16Z</time></trkpt>
<trkpt lat="46.23282" lon="7.54334"><ele>1938.8</ele><time>2025-08-09T14:17:19Z</time></trkpt>
<trkpt lat="46.23284" lon="7.54332"><ele>1939.2</ele><time>2025-08-09T14:17:22Z</time></trkpt>
<trkpt lat="46.23285" lon="7.54331"><ele>1939.2</ele><time>2025-08-09T14:17:23Z</time></trkpt>
<trkpt lat="46.23285" lon="7.5433"><ele>1939.4</ele><time>2025-08-09T14:17:24Z</time></trkpt>
<trkpt lat="46.23286" lon="7.54329"><ele>1939.6</ele><time>2025-08-09T14:17:25Z</time></trkpt>
<trkpt lat="46.2329" lon="7.54326"><ele>1939.8</ele><time>2025-08-09T14:17:29Z</time></trkpt>
<trkpt lat="46.23291" lon="7.54325"><ele>1940</ele><time>2025-08-09T14:17:30Z</time></trkpt>
<trkpt lat="46.23297" lon="7.54321"><ele>1940.4</ele><time>2025-08-09T14:17:36Z</time></trkpt>
<trkpt lat="46.23302" lon="7.54318"><ele>1940.8</ele><time>2025-08-09T14:17:41Z</time></trkpt>
<trkpt lat="46.23303" lon="7.54318"><ele>1941</ele><time>2025-08-09T14:17:42Z</time></trkpt>
<trkpt lat="46.23304" lon="7.54317"><ele>1941</ele><time>2025-08-09T14:17:43Z</time></trkpt>
<trkpt lat="46.23312" lon="7.54312"><ele>1941.6</ele><time>2025-08-09T14:17:50Z</time></trkpt>
<trkpt lat="46.23322" lon="7.54308"><ele>1941.8</ele><time>2025-08-09T14:17:57Z</time></trkpt>
<trkpt lat="46.23326" lon="7.54305"><ele>1942</ele><time>2025-08-09T14:18:00Z</time></trkpt>
<trkpt lat="46.23331" lon="7.54301"><ele>1942.4</ele><time>2025-08-09T14:18:03Z</time></trkpt>
<trkpt lat="46.23344" lon="7.54289"><ele>1943</ele><time>2025-08-09T14:18:10Z</time></trkpt>
<trkpt lat="46.23346" lon="7.54287"><ele>1943.2</ele><time>2025-08-09T14:18:11Z</time></trkpt>
<trkpt lat="46.23362" lon="7.54278"><ele>1943.8</ele><time>2025-08-09T14:18:18Z</time></trkpt>
<trkpt lat="46.23367" lon="7.54276"><ele>1944</ele><time>2025-08-09T14:18:20Z</time></trkpt>
<trkpt lat="46.23382" lon="7.54268"><ele>1944.4</ele><time>2025-08-09T14:18:26Z</time></trkpt>
<trkpt lat="46.23388" lon="7.54252"><ele>1944.2</ele><time>2025-08-09T14:18:30Z</time></trkpt>
<trkpt lat="46.23389" lon="7.54242"><ele>1943.6</ele><time>2025-08-09T14:18:32Z</time></trkpt>
<trkpt lat="46.23388" lon="7.54227"><ele>1943.2</ele><time>2025-08-09T14:18:34Z</time></trkpt>
<trkpt lat="46.2339" lon="7.5422"><ele>1942.8</ele><time>2025-08-09T14:18:35Z</time></trkpt>
<trkpt lat="46.23393" lon="7.542"><ele>1941.8</ele><time>2025-08-09T14:18:37Z</time></trkpt>
<trkpt lat="46.23395" lon="7.5419"><ele>1941.2</ele><time>2025-08-09T14:18:38Z</time></trkpt>
<trkpt lat="46.23401" lon="7.5416"><ele>1939.8</ele><time>2025-08-09T14:18:41Z</time></trkpt>
<trkpt lat="46.23401" lon="7.54151"><ele>1939.4</ele><time>2025-08-09T14:18:42Z</time></trkpt>
<trkpt lat="46.23397" lon="7.54135"><ele>1939.8</ele><time>2025-08-09T14:18:44Z</time></trkpt>
<trkpt lat="46.23394" lon="7.54127"><ele>1939.6</ele><time>2025-08-09T14:18:45Z</time></trkpt>
<trkpt lat="46.23392" lon="7.5411"><ele>1939.6</ele><time>2025-08-09T14:18:47Z</time></trkpt>
<trkpt lat="46.23392" lon="7.54091"><ele>1939.2</ele><time>2025-08-09T14:18:49Z</time></trkpt>
<trkpt lat="46.23392" lon="7.5406"><ele>1938.6</ele><time>2025-08-09T14:18:52Z</time></trkpt>
<trkpt lat="46.23395" lon="7.54032"><ele>1938.6</ele><time>2025-08-09T14:18:55Z</time></trkpt>
<trkpt lat="46.234" lon="7.54006"><ele>1939</ele><time>2025-08-09T14:18:58Z</time></trkpt>
<trkpt lat="46.234" lon="7.53987"><ele>1938.8</ele><time>2025-08-09T14:19:00Z</time></trkpt>
<trkpt lat="46.23399" lon="7.53955"><ele>1938.4</ele><time>2025-08-09T14:19:04Z</time></trkpt>
<trkpt lat="46.23396" lon="7.53935"><ele>1938.8</ele><time>2025-08-09T14:19:07Z</time></trkpt>
<trkpt lat="46.23392" lon="7.53924"><ele>1939.4</ele><time>2025-08-09T14:19:09Z</time></trkpt>
<trkpt lat="46.2339" lon="7.5392"><ele>1939.6</ele><time>2025-08-09T14:19:10Z</time></trkpt>
<trkpt lat="46.23387" lon="7.53911"><ele>1940.4</ele><time>2025-08-09T14:19:13Z</time></trkpt>
<trkpt lat="46.23386" lon="7.53906"><ele>1940.6</ele><time>2025-08-09T14:19:15Z</time></trkpt>
<trkpt lat="46.23383" lon="7.53893"><ele>1941.4</ele><time>2025-08-09T14:19:20Z</time></trkpt>
<trkpt lat="46.23383" lon="7.53889"><ele>1941.8</ele><time>2025-08-09T14:19:22Z</time></trkpt>
<trkpt lat="46.23383" lon="7.53877"><ele>1942.6</ele><time>2025-08-09T14:19:27Z</time></trkpt>
<trkpt lat="46.23384" lon="7.53873"><ele>1942.8</ele><time>2025-08-09T14:19:29Z</time></trkpt>
<trkpt lat="46.23384" lon="7.53867"><ele>1943.2</ele><time>2025-08-09T14:19:32Z</time></trkpt>
<trkpt lat="46.23385" lon="7.53859"><ele>1944</ele><time>2025-08-09T14:19:36Z</time></trkpt>
<trkpt lat="46.23385" lon="7.53855"><ele>1944.2</ele><time>2025-08-09T14:19:38Z</time></trkpt>
<trkpt lat="46.23386" lon="7.53848"><ele>1944.8</ele><time>2025-08-09T14:19:42Z</time></trkpt>
<trkpt lat="46.23386" lon="7.53846"><ele>1944.8</ele><time>2025-08-09T14:19:43Z</time></trkpt>
<trkpt lat="46.23385" lon="7.53844"><ele>1945</ele><time>2025-08-09T14:19:44Z</time></trkpt>
<trkpt lat="46.23384" lon="7.53833"><ele>1945.6</ele><time>2025-08-09T14:19:50Z</time></trkpt>
<trkpt lat="46.23384" lon="7.53828"><ele>1946</ele><time>2025-08-09T14:19:53Z</time></trkpt>
<trkpt lat="46.23385" lon="7.53823"><ele>1946.4</ele><time>2025-08-09T14:19:56Z</time></trkpt>
<trkpt lat="46.23384" lon="7.53822"><ele>1946.4</ele><time>2025-08-09T14:19:57Z</time></trkpt>
<trkpt lat="46.23383" lon="7.53812"><ele>1947</ele><time>2025-08-09T14:20:02Z</time></trkpt>
<trkpt lat="46.23383" lon="7.5381"><ele>1947</ele><time>2025-08-09T14:20:03Z</time></trkpt>
<trkpt lat="46.23382" lon="7.53798"><ele>1948</ele><time>2025-08-09T14:20:10Z</time></trkpt>
<trkpt lat="46.23382" lon="7.53797"><ele>1948</ele><time>2025-08-09T14:20:11Z</time></trkpt>
<trkpt lat="46.23382" lon="7.53787"><ele>1948.8</ele><time>2025-08-09T14:20:17Z</time></trkpt>
<trkpt lat="46.23383" lon="7.53783"><ele>1949</ele><time>2025-08-09T14:20:19Z</time></trkpt>
<trkpt lat="46.23383" lon="7.53782"><ele>1949</ele><time>2025-08-09T14:20:20Z</time></trkpt>
<trkpt lat="46.23382" lon="7.53776"><ele>1949.4</ele><time>2025-08-09T14:20:24Z</time></trkpt>
<trkpt lat="46.23382" lon="7.53774"><ele>1949.6</ele><time>2025-08-09T14:20:25Z</time></trkpt>
<trkpt lat="46.23382" lon="7.53768"><ele>1950.2</ele><time>2025-08-09T14:20:29Z</time></trkpt>
<trkpt lat="46.23382" lon="7.53765"><ele>1950.4</ele><time>2025-08-09T14:20:31Z</time></trkpt>
<trkpt lat="46.23382" lon="7.53763"><ele>1950.4</ele><time>2025-08-09T14:20:32Z</time></trkpt>
<trkpt lat="46.23381" lon="7.53759"><ele>1950.8</ele><time>2025-08-09T14:20:34Z</time></trkpt>
<trkpt lat="46.2338" lon="7.53754"><ele>1951.2</ele><time>2025-08-09T14:20:37Z</time></trkpt>
<trkpt lat="46.23379" lon="7.53751"><ele>1951.6</ele><time>2025-08-09T14:20:40Z</time></trkpt>
<trkpt lat="46.23379" lon="7.53749"><ele>1951.8</ele><time>2025-08-09T14:20:41Z</time></trkpt>
<trkpt lat="46.23379" lon="7.5374"><ele>1952</ele><time>2025-08-09T14:20:46Z</time></trkpt>
<trkpt lat="46.23379" lon="7.53737"><ele>1952.2</ele><time>2025-08-09T14:20:48Z</time></trkpt>
<trkpt lat="46.23376" lon="7.53727"><ele>1952.8</ele><time>2025-08-09T14:20:52Z</time></trkpt>
<trkpt lat="46.23375" lon="7.53723"><ele>1953.2</ele><time>2025-08-09T14:20:54Z</time></trkpt>
<trkpt lat="46.23374" lon="7.53718"><ele>1954.4</ele><time>2025-08-09T14:20:58Z</time></trkpt>
<trkpt lat="46.23375" lon="7.53708"><ele>1955.2</ele><time>2025-08-09T14:21:05Z</time></trkpt>
<trkpt lat="46.23375" lon="7.53704"><ele>1955.4</ele><time>2025-08-09T14:21:07Z</time></trkpt>
<trkpt lat="46.23376" lon="7.53699"><ele>1955.6</ele><time>2025-08-09T14:21:10Z</time></trkpt>
<trkpt lat="46.23375" lon="7.53688"><ele>1956.2</ele><time>2025-08-09T14:21:17Z</time></trkpt>
<trkpt lat="46.23375" lon="7.53684"><ele>1956.4</ele><time>2025-08-09T14:21:19Z</time></trkpt>
<trkpt lat="46.23375" lon="7.53675"><ele>1956.8</ele><time>2025-08-09T14:21:23Z</time></trkpt>
<trkpt lat="46.23375" lon="7.53661"><ele>1957.6</ele><time>2025-08-09T14:21:31Z</time></trkpt>
<trkpt lat="46.23374" lon="7.53653"><ele>1958.2</ele><time>2025-08-09T14:21:36Z</time></trkpt>
<trkpt lat="46.23375" lon="7.53648"><ele>1958.6</ele><time>2025-08-09T14:21:40Z</time></trkpt>
<trkpt lat="46.23375" lon="7.5364"><ele>1959.2</ele><time>2025-08-09T14:21:44Z</time></trkpt>
<trkpt lat="46.23376" lon="7.53634"><ele>1959.6</ele><time>2025-08-09T14:21:48Z</time></trkpt>
<trkpt lat="46.23376" lon="7.53631"><ele>1959.8</ele><time>2025-08-09T14:21:50Z</time></trkpt>
<trkpt lat="46.23378" lon="7.53622"><ele>1960.8</ele><time>2025-08-09T14:21:56Z</time></trkpt>
<trkpt lat="46.23379" lon="7.53612"><ele>1961.6</ele><time>2025-08-09T14:22:03Z</time></trkpt>
<trkpt lat="46.23379" lon="7.53606"><ele>1961.8</ele><time>2025-08-09T14:22:06Z</time></trkpt>
<trkpt lat="46.23379" lon="7.53604"><ele>1962</ele><time>2025-08-09T14:22:07Z</time></trkpt>
<trkpt lat="46.23379" lon="7.53601"><ele>1962</ele><time>2025-08-09T14:22:09Z</time></trkpt>
<trkpt lat="46.23381" lon="7.53592"><ele>1962.8</ele><time>2025-08-09T14:22:16Z</time></trkpt>
<trkpt lat="46.23382" lon="7.53581"><ele>1963.6</ele><time>2025-08-09T14:22:22Z</time></trkpt>
<trkpt lat="46.23382" lon="7.53578"><ele>1963.8</ele><time>2025-08-09T14:22:24Z</time></trkpt>
<trkpt lat="46.23383" lon="7.5357"><ele>1964.6</ele><time>2025-08-09T14:22:29Z</time></trkpt>
<trkpt lat="46.23383" lon="7.53563"><ele>1965</ele><time>2025-08-09T14:22:33Z</time></trkpt>
<trkpt lat="46.23383" lon="7.53561"><ele>1965.2</ele><time>2025-08-09T14:22:34Z</time></trkpt>
<trkpt lat="46.23384" lon="7.53552"><ele>1966</ele><time>2025-08-09T14:22:40Z</time></trkpt>
<trkpt lat="46.23384" lon="7.53549"><ele>1966</ele><time>2025-08-09T14:22:42Z</time></trkpt>
<trkpt lat="46.23386" lon="7.53539"><ele>1966.6</ele><time>2025-08-09T14:22:48Z</time></trkpt>
<trkpt lat="46.23389" lon="7.53532"><ele>1967.2</ele><time>2025-08-09T14:22:52Z</time></trkpt>
<trkpt lat="46.23389" lon="7.53527"><ele>1967.6</ele><time>2025-08-09T14:22:55Z</time></trkpt>
<trkpt lat="46.2339" lon="7.5352"><ele>1968.2</ele><time>2025-08-09T14:23:00Z</time></trkpt>
<trkpt lat="46.23391" lon="7.53519"><ele>1968.2</ele><time>2025-08-09T14:23:01Z</time></trkpt>
<trkpt lat="46.23393" lon="7.53511"><ele>1968.8</ele><time>2025-08-09T14:23:05Z</time></trkpt>
<trkpt lat="46.23393" lon="7.53505"><ele>1969.2</ele><time>2025-08-09T14:23:09Z</time></trkpt>
<trkpt lat="46.23395" lon="7.53499"><ele>1969.6</ele><time>2025-08-09T14:23:13Z</time></trkpt>
<trkpt lat="46.23396" lon="7.53489"><ele>1970</ele><time>2025-08-09T14:23:19Z</time></trkpt>
<trkpt lat="46.23397" lon="7.53485"><ele>1970.2</ele><time>2025-08-09T14:23:21Z</time></trkpt>
<trkpt lat="46.23398" lon="7.53476"><ele>1970.8</ele><time>2025-08-09T14:23:25Z</time></trkpt>
<trkpt lat="46.23402" lon="7.53467"><ele>1971</ele><time>2025-08-09T14:23:31Z</time></trkpt>
<trkpt lat="46.23405" lon="7.5346"><ele>1971.4</ele><time>2025-08-09T14:23:35Z</time></trkpt>
<trkpt lat="46.23408" lon="7.53454"><ele>1971.6</ele><time>2025-08-09T14:23:38Z</time></trkpt>
<trkpt lat="46.23413" lon="7.5344"><ele>1972</ele><time>2025-08-09T14:23:45Z</time></trkpt>
<trkpt lat="46.23418" lon="7.5343"><ele>1972.4</ele><time>2025-08-09T14:23:50Z</time></trkpt>
<trkpt lat="46.23419" lon="7.53427"><ele>1972.4</ele><time>2025-08-09T14:23:51Z</time></trkpt>
<trkpt lat="46.23425" lon="7.53415"><ele>1973</ele><time>2025-08-09T14:23:57Z</time></trkpt>
<trkpt lat="46.23429" lon="7.53411"><ele>1973.6</ele><time>2025-08-09T14:24:00Z</time></trkpt>
<trkpt lat="46.23434" lon="7.53407"><ele>1974.4</ele><time>2025-08-09T14:24:04Z</time></trkpt>
<trkpt lat="46.23438" lon="7.53402"><ele>1974.6</ele><time>2025-08-09T14:24:08Z</time></trkpt>
<trkpt lat="46.23441" lon="7.53398"><ele>1975</ele><time>2025-08-09T14:24:11Z</time></trkpt>
<trkpt lat="46.23449" lon="7.53389"><ele>1975.6</ele><time>2025-08-09T14:24:18Z</time></trkpt>
<trkpt lat="46.23451" lon="7.53386"><ele>1975.8</ele><time>2025-08-09T14:24:20Z</time></trkpt>
<trkpt lat="46.23456" lon="7.53381"><ele>1976.6</ele><time>2025-08-09T14:24:25Z</time></trkpt>
<trkpt lat="46.23458" lon="7.5338"><ele>1976.6</ele><time>2025-08-09T14:24:26Z</time></trkpt>
<trkpt lat="46.23468" lon="7.53376"><ele>1977</ele><time>2025-08-09T14:24:32Z</time></trkpt>
<trkpt lat="46.23476" lon="7.53372"><ele>1977.6</ele><time>2025-08-09T14:24:38Z</time></trkpt>
<trkpt lat="46.23479" lon="7.5337"><ele>1977.8</ele><time>2025-08-09T14:24:40Z</time></trkpt>
<trkpt lat="46.23485" lon="7.53367"><ele>1978</ele><time>2025-08-09T14:24:44Z</time></trkpt>
<trkpt lat="46.23495" lon="7.53364"><ele>1978.6</ele><time>2025-08-09T14:24:50Z</time></trkpt>
<trkpt lat="46.23497" lon="7.53363"><ele>1978.8</ele><time>2025-08-09T14:24:51Z</time></trkpt>
<trkpt lat="46.23503" lon="7.5336"><ele>1979</ele><time>2025-08-09T14:24:55Z</time></trkpt>
<trkpt lat="46.23511" lon="7.5335"><ele>1979.8</ele><time>2025-08-09T14:25:01Z</time></trkpt>
<trkpt lat="46.23522" lon="7.53331"><ele>1980</ele><time>2025-08-09T14:25:09Z</time></trkpt>
<trkpt lat="46.23533" lon="7.53313"><ele>1980.4</ele><time>2025-08-09T14:25:16Z</time></trkpt>
<trkpt lat="46.23543" lon="7.533"><ele>1980.6</ele><time>2025-08-09T14:25:22Z</time></trkpt>
<trkpt lat="46.23548" lon="7.53294"><ele>1981</ele><time>2025-08-09T14:25:26Z</time></trkpt>
<trkpt lat="46.23549" lon="7.53293"><ele>1981</ele><time>2025-08-09T14:25:27Z</time></trkpt>
<trkpt lat="46.23557" lon="7.53283"><ele>1981.6</ele><time>2025-08-09T14:25:33Z</time></trkpt>
<trkpt lat="46.23562" lon="7.53277"><ele>1982</ele><time>2025-08-09T14:25:38Z</time></trkpt>
<trkpt lat="46.23565" lon="7.53275"><ele>1982.2</ele><time>2025-08-09T14:25:40Z</time></trkpt>
<trkpt lat="46.23574" lon="7.53268"><ele>1983</ele><time>2025-08-09T14:25:48Z</time></trkpt>
<trkpt lat="46.2358" lon="7.53255"><ele>1984</ele><time>2025-08-09T14:25:57Z</time></trkpt>
<trkpt lat="46.23581" lon="7.53253"><ele>1984.2</ele><time>2025-08-09T14:25:59Z</time></trkpt>
<trkpt lat="46.23584" lon="7.53244"><ele>1985</ele><time>2025-08-09T14:26:04Z</time></trkpt>
<trkpt lat="46.23586" lon="7.53241"><ele>1985.4</ele><time>2025-08-09T14:26:06Z</time></trkpt>
<trkpt lat="46.23589" lon="7.53236"><ele>1986.6</ele><time>2025-08-09T14:26:11Z</time></trkpt>
<trkpt lat="46.23592" lon="7.53224"><ele>1987.4</ele><time>2025-08-09T14:26:18Z</time></trkpt>
<trkpt lat="46.23593" lon="7.53222"><ele>1987.6</ele><time>2025-08-09T14:26:19Z</time></trkpt>
<trkpt lat="46.23595" lon="7.53209"><ele>1988</ele><time>2025-08-09T14:26:26Z</time></trkpt>
<trkpt lat="46.23598" lon="7.53198"><ele>1988.6</ele><time>2025-08-09T14:26:32Z</time></trkpt>
<trkpt lat="46.236" lon="7.53195"><ele>1988.8</ele><time>2025-08-09T14:26:34Z</time></trkpt>
<trkpt lat="46.23603" lon="7.53181"><ele>1989.4</ele><time>2025-08-09T14:26:42Z</time></trkpt>
<trkpt lat="46.23607" lon="7.53173"><ele>1989.6</ele><time>2025-08-09T14:26:47Z</time></trkpt>
<trkpt lat="46.23608" lon="7.53171"><ele>1989.6</ele><time>2025-08-09T14:26:48Z</time></trkpt>
<trkpt lat="46.23612" lon="7.53161"><ele>1990.2</ele><time>2025-08-09T14:26:54Z</time></trkpt>
<trkpt lat="46.23615" lon="7.53156"><ele>1990.6</ele><time>2025-08-09T14:26:57Z</time></trkpt>
<trkpt lat="46.2362" lon="7.53147"><ele>1991.4</ele><time>2025-08-09T14:27:02Z</time></trkpt>
<trkpt lat="46.23622" lon="7.53143"><ele>1991.6</ele><time>2025-08-09T14:27:05Z</time></trkpt>
<trkpt lat="46.23625" lon="7.53138"><ele>1992</ele><time>2025-08-09T14:27:08Z</time></trkpt>
<trkpt lat="46.2363" lon="7.53131"><ele>1992.6</ele><time>2025-08-09T14:27:13Z</time></trkpt>
<trkpt lat="46.23631" lon="7.53129"><ele>1992.8</ele><time>2025-08-09T14:27:14Z</time></trkpt>
<trkpt lat="46.23638" lon="7.53121"><ele>1993.4</ele><time>2025-08-09T14:27:20Z</time></trkpt>
<trkpt lat="46.23642" lon="7.53116"><ele>1993.8</ele><time>2025-08-09T14:27:24Z</time></trkpt>
<trkpt lat="46.23645" lon="7.53112"><ele>1994.2</ele><time>2025-08-09T14:27:27Z</time></trkpt>
<trkpt lat="46.23653" lon="7.531"><ele>1994.6</ele><time>2025-08-09T14:27:35Z</time></trkpt>
<trkpt lat="46.23654" lon="7.53098"><ele>1994.8</ele><time>2025-08-09T14:27:36Z</time></trkpt>
<trkpt lat="46.2366" lon="7.53087"><ele>1995.4</ele><time>2025-08-09T14:27:43Z</time></trkpt>
<trkpt lat="46.23662" lon="7.53081"><ele>1995.8</ele><time>2025-08-09T14:27:47Z</time></trkpt>
<trkpt lat="46.23665" lon="7.53074"><ele>1996</ele><time>2025-08-09T14:27:51Z</time></trkpt>
<trkpt lat="46.23668" lon="7.53061"><ele>1996.4</ele><time>2025-08-09T14:27:57Z</time></trkpt>
<trkpt lat="46.23674" lon="7.53049"><ele>1996.6</ele><time>2025-08-09T14:28:04Z</time></trkpt>
<trkpt lat="46.23676" lon="7.53047"><ele>1996.8</ele><time>2025-08-09T14:28:06Z</time></trkpt>
<trkpt lat="46.23682" lon="7.5304"><ele>1997.2</ele><time>2025-08-09T14:28:12Z</time></trkpt>
<trkpt lat="46.23687" lon="7.53035"><ele>1998</ele><time>2025-08-09T14:28:17Z</time></trkpt>
<trkpt lat="46.23688" lon="7.53033"><ele>1998.2</ele><time>2025-08-09T14:28:18Z</time></trkpt>
<trkpt lat="46.2369" lon="7.53023"><ele>1999</ele><time>2025-08-09T14:28:24Z</time></trkpt>
<trkpt lat="46.23691" lon="7.5302"><ele>1999.2</ele><time>2025-08-09T14:28:26Z</time></trkpt>
<trkpt lat="46.23691" lon="7.53008"><ele>1999.8</ele><time>2025-08-09T14:28:34Z</time></trkpt>
<trkpt lat="46.23692" lon="7.52998"><ele>2000.2</ele><time>2025-08-09T14:28:40Z</time></trkpt>
<trkpt lat="46.23692" lon="7.52993"><ele>2000.6</ele><time>2025-08-09T14:28:43Z</time></trkpt>
<trkpt lat="46.23692" lon="7.52981"><ele>2001</ele><time>2025-08-09T14:28:50Z</time></trkpt>
<trkpt lat="46.23692" lon="7.52976"><ele>2001.4</ele><time>2025-08-09T14:28:53Z</time></trkpt>
<trkpt lat="46.23692" lon="7.5297"><ele>2001.8</ele><time>2025-08-09T14:28:57Z</time></trkpt>
<trkpt lat="46.23692" lon="7.52962"><ele>2002.4</ele><time>2025-08-09T14:29:02Z</time></trkpt>
<trkpt lat="46.23692" lon="7.52958"><ele>2002.8</ele><time>2025-08-09T14:29:05Z</time></trkpt>
<trkpt lat="46.23692" lon="7.52948"><ele>2003.4</ele><time>2025-08-09T14:29:10Z</time></trkpt>
<trkpt lat="46.23691" lon="7.52947"><ele>2003.6</ele><time>2025-08-09T14:29:11Z</time></trkpt>
<trkpt lat="46.23692" lon="7.5294"><ele>2004</ele><time>2025-08-09T14:29:17Z</time></trkpt>
<trkpt lat="46.23692" lon="7.52939"><ele>2004</ele><time>2025-08-09T14:29:22Z</time></trkpt>
<trkpt lat="46.23692" lon="7.52939"><ele>2004</ele><time>2025-08-09T14:29:25Z</time></trkpt>
<trkpt lat="46.23692" lon="7.52939"><ele>2003.8</ele><time>2025-08-09T14:29:32Z</time></trkpt>
<trkpt lat="46.23691" lon="7.52938"><ele>2004</ele><time>2025-08-09T14:29:40Z</time></trkpt>
<trkpt lat="46.23692" lon="7.52933"><ele>2004</ele><time>2025-08-09T14:29:46Z</time></trkpt>
<trkpt lat="46.23691" lon="7.52927"><ele>2003.6</ele><time>2025-08-09T14:29:52Z</time></trkpt>
<trkpt lat="46.23692" lon="7.52927"><ele>2003</ele><time>2025-08-09T14:29:57Z</time></trkpt>
<trkpt lat="46.23691" lon="7.52927"><ele>2003.6</ele><time>2025-08-09T14:30:03Z</time></trkpt>
<trkpt lat="46.23691" lon="7.52928"><ele>2003.2</ele><time>2025-08-09T14:30:08Z</time></trkpt>
<trkpt lat="46.23691" lon="7.52929"><ele>2003.4</ele><time>2025-08-09T14:30:13Z</time></trkpt>
<trkpt lat="46.23692" lon="7.52929"><ele>2003.4</ele><time>2025-08-09T14:30:20Z</time></trkpt>
<trkpt lat="46.23691" lon="7.52928"><ele>2003.6</ele><time>2025-08-09T14:30:26Z</time></trkpt>
<trkpt lat="46.23691" lon="7.52929"><ele>2003.4</ele><time>2025-08-09T14:30:33Z</time></trkpt>
<trkpt lat="46.23691" lon="7.52929"><ele>2003.4</ele><time>2025-08-09T14:30:41Z</time></trkpt>
<trkpt lat="46.23691" lon="7.52929"><ele>2003.4</ele><time>2025-08-09T14:30:46Z</time></trkpt>
<trkpt lat="46.23691" lon="7.52929"><ele>2003.4</ele><time>2025-08-09T14:30:54Z</time></trkpt>
<trkpt lat="46.2369" lon="7.52928"><ele>2003.8</ele><time>2025-08-09T14:31:01Z</time></trkpt>
<trkpt lat="46.23691" lon="7.52928"><ele>2004.2</ele><time>2025-08-09T14:31:06Z</time></trkpt>
<trkpt lat="46.23691" lon="7.52928"><ele>2004.6</ele><time>2025-08-09T14:31:08Z</time></trkpt>
<trkpt lat="46.23692" lon="7.52929"><ele>2003.8</ele><time>2025-08-09T14:31:12Z</time></trkpt>
<trkpt lat="46.23692" lon="7.52931"><ele>2004</ele><time>2025-08-09T14:31:19Z</time></trkpt>
<trkpt lat="46.23693" lon="7.52931"><ele>2004</ele><time>2025-08-09T14:31:22Z</time></trkpt>
<trkpt lat="46.23692" lon="7.5293"><ele>2004</ele><time>2025-08-09T14:31:24Z</time></trkpt>
<trkpt lat="46.23693" lon="7.52928"><ele>2004</ele><time>2025-08-09T14:31:30Z</time></trkpt>
<trkpt lat="46.23691" lon="7.52928"><ele>2004</ele><time>2025-08-09T14:31:32Z</time></trkpt>
<trkpt lat="46.23692" lon="7.52927"><ele>2004</ele><time>2025-08-09T14:31:35Z</time></trkpt>
<trkpt lat="46.23691" lon="7.52927"><ele>2004</ele><time>2025-08-09T14:31:41Z</time></trkpt>
<trkpt lat="46.23689" lon="7.52925"><ele>2004</ele><time>2025-08-09T14:31:45Z</time></trkpt>
<trkpt lat="46.2369" lon="7.52931"><ele>2004</ele><time>2025-08-09T14:31:49Z</time></trkpt>
<trkpt lat="46.23691" lon="7.52933"><ele>2004</ele><time>2025-08-09T14:31:50Z</time></trkpt>
<trkpt lat="46.23694" lon="7.52934"><ele>2003.8</ele><time>2025-08-09T14:31:52Z</time></trkpt>
<trkpt lat="46.23701" lon="7.52937"><ele>2002.6</ele><time>2025-08-09T14:31:54Z</time></trkpt>
<trkpt lat="46.23706" lon="7.5294"><ele>2001.2</ele><time>2025-08-09T14:31:55Z</time></trkpt>
<trkpt lat="46.23711" lon="7.5294"><ele>2000</ele><time>2025-08-09T14:31:56Z</time></trkpt>
<trkpt lat="46.23715" lon="7.52937"><ele>1998.8</ele><time>2025-08-09T14:31:57Z</time></trkpt>
<trkpt lat="46.23719" lon="7.52931"><ele>1997.6</ele><time>2025-08-09T14:31:58Z</time></trkpt>
<trkpt lat="46.2372" lon="7.52927"><ele>1996.8</ele><time>2025-08-09T14:31:59Z</time></trkpt>
<trkpt lat="46.23723" lon="7.52922"><ele>1996.4</ele><time>2025-08-09T14:32:00Z</time></trkpt>
<trkpt lat="46.23727" lon="7.52904"><ele>1994.6</ele><time>2025-08-09T14:32:02Z</time></trkpt>
<trkpt lat="46.23728" lon="7.52887"><ele>1993</ele><time>2025-08-09T14:32:04Z</time></trkpt>
<trkpt lat="46.23735" lon="7.52868"><ele>1991.8</ele><time>2025-08-09T14:32:06Z</time></trkpt>
<trkpt lat="46.23737" lon="7.52861"><ele>1991.2</ele><time>2025-08-09T14:32:07Z</time></trkpt>
<trkpt lat="46.23738" lon="7.52853"><ele>1990</ele><time>2025-08-09T14:32:08Z</time></trkpt>
<trkpt lat="46.2374" lon="7.52846"><ele>1988.6</ele><time>2025-08-09T14:32:09Z</time></trkpt>
<trkpt lat="46.23743" lon="7.52833"><ele>1987.8</ele><time>2025-08-09T14:32:11Z</time></trkpt>
<trkpt lat="46.23744" lon="7.52817"><ele>1987.6</ele><time>2025-08-09T14:32:13Z</time></trkpt>
<trkpt lat="46.23744" lon="7.5281"><ele>1987.6</ele><time>2025-08-09T14:32:14Z</time></trkpt>
<trkpt lat="46.23748" lon="7.52803"><ele>1987.6</ele><time>2025-08-09T14:32:16Z</time></trkpt>
<trkpt lat="46.23752" lon="7.52807"><ele>1987.4</ele><time>2025-08-09T14:32:17Z</time></trkpt>
<trkpt lat="46.23752" lon="7.5282"><ele>1987</ele><time>2025-08-09T14:32:19Z</time></trkpt>
<trkpt lat="46.23752" lon="7.52825"><ele>1984.4</ele><time>2025-08-09T14:32:20Z</time></trkpt>
<trkpt lat="46.23758" lon="7.52833"><ele>1983</ele><time>2025-08-09T14:32:22Z</time></trkpt>
<trkpt lat="46.23763" lon="7.52821"><ele>1982.2</ele><time>2025-08-09T14:32:24Z</time></trkpt>
<trkpt lat="46.23765" lon="7.52814"><ele>1981.4</ele><time>2025-08-09T14:32:25Z</time></trkpt>
<trkpt lat="46.23771" lon="7.52798"><ele>1979.6</ele><time>2025-08-09T14:32:27Z</time></trkpt>
<trkpt lat="46.23773" lon="7.52788"><ele>1978.4</ele><time>2025-08-09T14:32:28Z</time></trkpt>
<trkpt lat="46.23777" lon="7.52774"><ele>1976.6</ele><time>2025-08-09T14:32:30Z</time></trkpt>
<trkpt lat="46.2378" lon="7.52773"><ele>1976</ele><time>2025-08-09T14:32:31Z</time></trkpt>
<trkpt lat="46.23785" lon="7.52776"><ele>1975.2</ele><time>2025-08-09T14:32:32Z</time></trkpt>
<trkpt lat="46.23787" lon="7.52795"><ele>1973.2</ele><time>2025-08-09T14:32:34Z</time></trkpt>
<trkpt lat="46.23789" lon="7.52809"><ele>1971.2</ele><time>2025-08-09T14:32:35Z</time></trkpt>
<trkpt lat="46.23789" lon="7.52824"><ele>1970.2</ele><time>2025-08-09T14:32:36Z</time></trkpt>
<trkpt lat="46.23789" lon="7.52837"><ele>1969.4</ele><time>2025-08-09T14:32:37Z</time></trkpt>
<trkpt lat="46.23789" lon="7.52848"><ele>1968</ele><time>2025-08-09T14:32:38Z</time></trkpt>
<trkpt lat="46.23788" lon="7.52857"><ele>1968.2</ele><time>2025-08-09T14:32:39Z</time></trkpt>
<trkpt lat="46.23787" lon="7.52865"><ele>1969</ele><time>2025-08-09T14:32:40Z</time></trkpt>
<trkpt lat="46.23788" lon="7.52886"><ele>1968.8</ele><time>2025-08-09T14:32:43Z</time></trkpt>
<trkpt lat="46.23792" lon="7.52886"><ele>1968.4</ele><time>2025-08-09T14:32:44Z</time></trkpt>
<trkpt lat="46.23793" lon="7.52881"><ele>1967.8</ele><time>2025-08-09T14:32:45Z</time></trkpt>
<trkpt lat="46.23794" lon="7.52874"><ele>1966.6</ele><time>2025-08-09T14:32:47Z</time></trkpt>
<trkpt lat="46.23794" lon="7.52873"><ele>1966.2</ele><time>2025-08-09T14:32:48Z</time></trkpt>
<trkpt lat="46.23795" lon="7.5287"><ele>1965.6</ele><time>2025-08-09T14:32:53Z</time></trkpt>
<trkpt lat="46.23799" lon="7.52866"><ele>1964.2</ele><time>2025-08-09T14:32:57Z</time></trkpt>
<trkpt lat="46.23801" lon="7.52865"><ele>1963</ele><time>2025-08-09T14:32:59Z</time></trkpt>
<trkpt lat="46.23802" lon="7.52861"><ele>1961.8</ele><time>2025-08-09T14:33:02Z</time></trkpt>
<trkpt lat="46.23802" lon="7.52857"><ele>1961.6</ele><time>2025-08-09T14:33:03Z</time></trkpt>
<trkpt lat="46.23802" lon="7.5285"><ele>1961.2</ele><time>2025-08-09T14:33:04Z</time></trkpt>
<trkpt lat="46.23803" lon="7.52837"><ele>1960.4</ele><time>2025-08-09T14:33:06Z</time></trkpt>
<trkpt lat="46.23804" lon="7.5283"><ele>1960</ele><time>2025-08-09T14:33:07Z</time></trkpt>
<trkpt lat="46.23808" lon="7.52811"><ele>1958.8</ele><time>2025-08-09T14:33:09Z</time></trkpt>
<trkpt lat="46.23813" lon="7.52791"><ele>1955.2</ele><time>2025-08-09T14:33:11Z</time></trkpt>
<trkpt lat="46.23814" lon="7.52778"><ele>1957</ele><time>2025-08-09T14:33:13Z</time></trkpt>
<trkpt lat="46.23819" lon="7.52768"><ele>1957.6</ele><time>2025-08-09T14:33:15Z</time></trkpt>
<trkpt lat="46.23824" lon="7.52769"><ele>1957.8</ele><time>2025-08-09T14:33:16Z</time></trkpt>
<trkpt lat="46.2383" lon="7.52783"><ele>1955</ele><time>2025-08-09T14:33:18Z</time></trkpt>
<trkpt lat="46.2383" lon="7.52797"><ele>1953.6</ele><time>2025-08-09T14:33:19Z</time></trkpt>
<trkpt lat="46.23831" lon="7.52808"><ele>1951.2</ele><time>2025-08-09T14:33:20Z</time></trkpt>
<trkpt lat="46.23833" lon="7.52819"><ele>1949.6</ele><time>2025-08-09T14:33:21Z</time></trkpt>
<trkpt lat="46.23835" lon="7.52829"><ele>1947.8</ele><time>2025-08-09T14:33:22Z</time></trkpt>
<trkpt lat="46.23833" lon="7.52838"><ele>1947.6</ele><time>2025-08-09T14:33:23Z</time></trkpt>
<trkpt lat="46.23837" lon="7.52849"><ele>1948</ele><time>2025-08-09T14:33:26Z</time></trkpt>
<trkpt lat="46.23844" lon="7.52835"><ele>1947.2</ele><time>2025-08-09T14:33:28Z</time></trkpt>
<trkpt lat="46.23846" lon="7.52828"><ele>1946.2</ele><time>2025-08-09T14:33:29Z</time></trkpt>
<trkpt lat="46.23849" lon="7.52819"><ele>1943.8</ele><time>2025-08-09T14:33:30Z</time></trkpt>
<trkpt lat="46.23851" lon="7.5281"><ele>1942.6</ele><time>2025-08-09T14:33:31Z</time></trkpt>
<trkpt lat="46.23858" lon="7.52788"><ele>1941.2</ele><time>2025-08-09T14:33:33Z</time></trkpt>
<trkpt lat="46.23869" lon="7.5277"><ele>1939</ele><time>2025-08-09T14:33:35Z</time></trkpt>
<trkpt lat="46.23883" lon="7.52742"><ele>1935.2</ele><time>2025-08-09T14:33:38Z</time></trkpt>
<trkpt lat="46.23889" lon="7.52736"><ele>1935.2</ele><time>2025-08-09T14:33:39Z</time></trkpt>
<trkpt lat="46.23893" lon="7.52736"><ele>1935</ele><time>2025-08-09T14:33:40Z</time></trkpt>
<trkpt lat="46.23899" lon="7.52735"><ele>1934.6</ele><time>2025-08-09T14:33:41Z</time></trkpt>
<trkpt lat="46.23907" lon="7.52735"><ele>1934</ele><time>2025-08-09T14:33:42Z</time></trkpt>
<trkpt lat="46.23914" lon="7.52734"><ele>1933.8</ele><time>2025-08-09T14:33:43Z</time></trkpt>
<trkpt lat="46.23919" lon="7.52735"><ele>1933.2</ele><time>2025-08-09T14:33:44Z</time></trkpt>
<trkpt lat="46.23925" lon="7.52741"><ele>1932.8</ele><time>2025-08-09T14:33:45Z</time></trkpt>
<trkpt lat="46.23939" lon="7.5276"><ele>1929.4</ele><time>2025-08-09T14:33:48Z</time></trkpt>
<trkpt lat="46.23941" lon="7.52768"><ele>1927</ele><time>2025-08-09T14:33:49Z</time></trkpt>
<trkpt lat="46.2394" lon="7.52775"><ele>1926.4</ele><time>2025-08-09T14:33:50Z</time></trkpt>
<trkpt lat="46.23938" lon="7.52783"><ele>1925.2</ele><time>2025-08-09T14:33:51Z</time></trkpt>
<trkpt lat="46.23933" lon="7.52797"><ele>1923.6</ele><time>2025-08-09T14:33:53Z</time></trkpt>
<trkpt lat="46.2393" lon="7.52804"><ele>1921.8</ele><time>2025-08-09T14:33:54Z</time></trkpt>
<trkpt lat="46.23926" lon="7.52819"><ele>1920</ele><time>2025-08-09T14:33:56Z</time></trkpt>
<trkpt lat="46.23924" lon="7.52827"><ele>1919.8</ele><time>2025-08-09T14:33:57Z</time></trkpt>
<trkpt lat="46.23921" lon="7.52843"><ele>1919.4</ele><time>2025-08-09T14:33:59Z</time></trkpt>
<trkpt lat="46.2392" lon="7.52859"><ele>1918.8</ele><time>2025-08-09T14:34:01Z</time></trkpt>
<trkpt lat="46.23919" lon="7.52866"><ele>1918.6</ele><time>2025-08-09T14:34:02Z</time></trkpt>
<trkpt lat="46.23918" lon="7.52874"><ele>1917.6</ele><time>2025-08-09T14:34:03Z</time></trkpt>
<trkpt lat="46.23917" lon="7.52881"><ele>1916.2</ele><time>2025-08-09T14:34:04Z</time></trkpt>
<trkpt lat="46.23915" lon="7.52889"><ele>1915.2</ele><time>2025-08-09T14:34:05Z</time></trkpt>
<trkpt lat="46.23912" lon="7.5291"><ele>1913.6</ele><time>2025-08-09T14:34:08Z</time></trkpt>
<trkpt lat="46.2391" lon="7.52917"><ele>1913</ele><time>2025-08-09T14:34:09Z</time></trkpt>
<trkpt lat="46.23905" lon="7.52929"><ele>1911.6</ele><time>2025-08-09T14:34:11Z</time></trkpt>
<trkpt lat="46.23903" lon="7.52936"><ele>1910.6</ele><time>2025-08-09T14:34:12Z</time></trkpt>
<trkpt lat="46.23899" lon="7.5295"><ele>1908.8</ele><time>2025-08-09T14:34:14Z</time></trkpt>
<trkpt lat="46.23897" lon="7.52957"><ele>1907.4</ele><time>2025-08-09T14:34:15Z</time></trkpt>
<trkpt lat="46.23893" lon="7.52971"><ele>1906.2</ele><time>2025-08-09T14:34:17Z</time></trkpt>
<trkpt lat="46.23892" lon="7.52978"><ele>1905.4</ele><time>2025-08-09T14:34:18Z</time></trkpt>
<trkpt lat="46.23893" lon="7.52984"><ele>1904.8</ele><time>2025-08-09T14:34:19Z</time></trkpt>
<trkpt lat="46.23896" lon="7.52994"><ele>1903.8</ele><time>2025-08-09T14:34:21Z</time></trkpt>
<trkpt lat="46.239" lon="7.53"><ele>1903</ele><time>2025-08-09T14:34:23Z</time></trkpt>
<trkpt lat="46.23901" lon="7.53004"><ele>1902.4</ele><time>2025-08-09T14:34:24Z</time></trkpt>
<trkpt lat="46.23901" lon="7.5301"><ele>1901.2</ele><time>2025-08-09T14:34:26Z</time></trkpt>
<trkpt lat="46.239" lon="7.53014"><ele>1900.4</ele><time>2025-08-09T14:34:27Z</time></trkpt>
<trkpt lat="46.23899" lon="7.53017"><ele>1899.6</ele><time>2025-08-09T14:34:28Z</time></trkpt>
<trkpt lat="46.23895" lon="7.53024"><ele>1898.6</ele><time>2025-08-09T14:34:30Z</time></trkpt>
<trkpt lat="46.23894" lon="7.53026"><ele>1898.4</ele><time>2025-08-09T14:34:31Z</time></trkpt>
<trkpt lat="46.23894" lon="7.5303"><ele>1898.4</ele><time>2025-08-09T14:34:32Z</time></trkpt>
<trkpt lat="46.23894" lon="7.53039"><ele>1898.4</ele><time>2025-08-09T14:34:35Z</time></trkpt>
<trkpt lat="46.23895" lon="7.53042"><ele>1898.2</ele><time>2025-08-09T14:34:36Z</time></trkpt>
<trkpt lat="46.23902" lon="7.53043"><ele>1897.2</ele><time>2025-08-09T14:34:38Z</time></trkpt>
<trkpt lat="46.23903" lon="7.5304"><ele>1896</ele><time>2025-08-09T14:34:39Z</time></trkpt>
<trkpt lat="46.23906" lon="7.53032"><ele>1894.6</ele><time>2025-08-09T14:34:41Z</time></trkpt>
<trkpt lat="46.23909" lon="7.53026"><ele>1894</ele><time>2025-08-09T14:34:43Z</time></trkpt>
<trkpt lat="46.23913" lon="7.53026"><ele>1893.8</ele><time>2025-08-09T14:34:44Z</time></trkpt>
<trkpt lat="46.23915" lon="7.53029"><ele>1893.6</ele><time>2025-08-09T14:34:45Z</time></trkpt>
<trkpt lat="46.2392" lon="7.53038"><ele>1892.2</ele><time>2025-08-09T14:34:47Z</time></trkpt>
<trkpt lat="46.23923" lon="7.53041"><ele>1891</ele><time>2025-08-09T14:34:48Z</time></trkpt>
<trkpt lat="46.23927" lon="7.5304"><ele>1889.8</ele><time>2025-08-09T14:34:49Z</time></trkpt>
<trkpt lat="46.2393" lon="7.53037"><ele>1888.4</ele><time>2025-08-09T14:34:50Z</time></trkpt>
<trkpt lat="46.23934" lon="7.53036"><ele>1887.2</ele><time>2025-08-09T14:34:51Z</time></trkpt>
<trkpt lat="46.23937" lon="7.53037"><ele>1886.2</ele><time>2025-08-09T14:34:52Z</time></trkpt>
<trkpt lat="46.23939" lon="7.53041"><ele>1885.4</ele><time>2025-08-09T14:34:53Z</time></trkpt>
<trkpt lat="46.23945" lon="7.53042"><ele>1883.8</ele><time>2025-08-09T14:34:55Z</time></trkpt>
<trkpt lat="46.23947" lon="7.53038"><ele>1883</ele><time>2025-08-09T14:34:56Z</time></trkpt>
<trkpt lat="46.23948" lon="7.53034"><ele>1882.4</ele><time>2025-08-09T14:34:57Z</time></trkpt>
<trkpt lat="46.23951" lon="7.53033"><ele>1882.2</ele><time>2025-08-09T14:34:58Z</time></trkpt>
<trkpt lat="46.23957" lon="7.53033"><ele>1881.4</ele><time>2025-08-09T14:35:00Z</time></trkpt>
<trkpt lat="46.2396" lon="7.53032"><ele>1881.2</ele><time>2025-08-09T14:35:01Z</time></trkpt>
<trkpt lat="46.23966" lon="7.53024"><ele>1880.6</ele><time>2025-08-09T14:35:04Z</time></trkpt>
<trkpt lat="46.23966" lon="7.53022"><ele>1880.4</ele><time>2025-08-09T14:35:07Z</time></trkpt>
<trkpt lat="46.23967" lon="7.53022"><ele>1880.4</ele><time>2025-08-09T14:35:13Z</time></trkpt>
<trkpt lat="46.23967" lon="7.53022"><ele>1880.4</ele><time>2025-08-09T14:35:16Z</time></trkpt>
<trkpt lat="46.23967" lon="7.53022"><ele>1880.8</ele><time>2025-08-09T14:35:24Z</time></trkpt>
<trkpt lat="46.23967" lon="7.53022"><ele>1880.6</ele><time>2025-08-09T14:35:38Z</time></trkpt>
<trkpt lat="46.23967" lon="7.53022"><ele>1880.4</ele><time>2025-08-09T14:35:45Z</time></trkpt>
<trkpt lat="46.23967" lon="7.53022"><ele>1880.2</ele><time>2025-08-09T14:35:46Z</time></trkpt>
<trkpt lat="46.23966" lon="7.53022"><ele>1880.2</ele><time>2025-08-09T14:35:50Z</time></trkpt>
<trkpt lat="46.23966" lon="7.53021"><ele>1880.4</ele><time>2025-08-09T14:35:51Z</time></trkpt>
<trkpt lat="46.23971" lon="7.53005"><ele>1880</ele><time>2025-08-09T14:35:55Z</time></trkpt>
<trkpt lat="46.2398" lon="7.52993"><ele>1878.8</ele><time>2025-08-09T14:35:58Z</time></trkpt>
<trkpt lat="46.23984" lon="7.52992"><ele>1878.2</ele><time>2025-08-09T14:35:59Z</time></trkpt>
<trkpt lat="46.23987" lon="7.52993"><ele>1877.6</ele><time>2025-08-09T14:36:00Z</time></trkpt>
<trkpt lat="46.23992" lon="7.53"><ele>1876.6</ele><time>2025-08-09T14:36:02Z</time></trkpt>
<trkpt lat="46.23995" lon="7.53014"><ele>1875.2</ele><time>2025-08-09T14:36:05Z</time></trkpt>
<trkpt lat="46.23995" lon="7.53018"><ele>1874.6</ele><time>2025-08-09T14:36:06Z</time></trkpt>
<trkpt lat="46.23996" lon="7.53026"><ele>1873.8</ele><time>2025-08-09T14:36:08Z</time></trkpt>
<trkpt lat="46.24" lon="7.53041"><ele>1872.2</ele><time>2025-08-09T14:36:11Z</time></trkpt>
<trkpt lat="46.24003" lon="7.53056"><ele>1869.8</ele><time>2025-08-09T14:36:13Z</time></trkpt>
<trkpt lat="46.24006" lon="7.53061"><ele>1868.2</ele><time>2025-08-09T14:36:14Z</time></trkpt>
<trkpt lat="46.24016" lon="7.53066"><ele>1866.6</ele><time>2025-08-09T14:36:16Z</time></trkpt>
<trkpt lat="46.2402" lon="7.53074"><ele>1866.2</ele><time>2025-08-09T14:36:17Z</time></trkpt>
<trkpt lat="46.24022" lon="7.53083"><ele>1865</ele><time>2025-08-09T14:36:18Z</time></trkpt>
<trkpt lat="46.2403" lon="7.53093"><ele>1863.4</ele><time>2025-08-09T14:36:20Z</time></trkpt>
<trkpt lat="46.24036" lon="7.5309"><ele>1863</ele><time>2025-08-09T14:36:21Z</time></trkpt>
<trkpt lat="46.24039" lon="7.53082"><ele>1861.6</ele><time>2025-08-09T14:36:22Z</time></trkpt>
<trkpt lat="46.24041" lon="7.53073"><ele>1860.6</ele><time>2025-08-09T14:36:23Z</time></trkpt>
<trkpt lat="46.24047" lon="7.5307"><ele>1859.4</ele><time>2025-08-09T14:36:24Z</time></trkpt>
<trkpt lat="46.24052" lon="7.53071"><ele>1858</ele><time>2025-08-09T14:36:25Z</time></trkpt>
<trkpt lat="46.24057" lon="7.53075"><ele>1857.4</ele><time>2025-08-09T14:36:26Z</time></trkpt>
<trkpt lat="46.24063" lon="7.53079"><ele>1856.8</ele><time>2025-08-09T14:36:27Z</time></trkpt>
<trkpt lat="46.24069" lon="7.53079"><ele>1856</ele><time>2025-08-09T14:36:28Z</time></trkpt>
<trkpt lat="46.24074" lon="7.53083"><ele>1854.8</ele><time>2025-08-09T14:36:29Z</time></trkpt>
<trkpt lat="46.24077" lon="7.53089"><ele>1853.4</ele><time>2025-08-09T14:36:30Z</time></trkpt>
<trkpt lat="46.24078" lon="7.53097"><ele>1852.2</ele><time>2025-08-09T14:36:31Z</time></trkpt>
<trkpt lat="46.24077" lon="7.53106"><ele>1851.4</ele><time>2025-08-09T14:36:32Z</time></trkpt>
<trkpt lat="46.24073" lon="7.53112"><ele>1851</ele><time>2025-08-09T14:36:33Z</time></trkpt>
<trkpt lat="46.24063" lon="7.53133"><ele>1850.2</ele><time>2025-08-09T14:36:36Z</time></trkpt>
<trkpt lat="46.24066" lon="7.53141"><ele>1849.4</ele><time>2025-08-09T14:36:37Z</time></trkpt>
<trkpt lat="46.24072" lon="7.53146"><ele>1848.6</ele><time>2025-08-09T14:36:38Z</time></trkpt>
<trkpt lat="46.24078" lon="7.53146"><ele>1848.2</ele><time>2025-08-09T14:36:39Z</time></trkpt>
<trkpt lat="46.24085" lon="7.53146"><ele>1847.4</ele><time>2025-08-09T14:36:40Z</time></trkpt>
<trkpt lat="46.24089" lon="7.53149"><ele>1846.4</ele><time>2025-08-09T14:36:41Z</time></trkpt>
<trkpt lat="46.24092" lon="7.53155"><ele>1845.2</ele><time>2025-08-09T14:36:42Z</time></trkpt>
<trkpt lat="46.24101" lon="7.53165"><ele>1844.2</ele><time>2025-08-09T14:36:45Z</time></trkpt>
<trkpt lat="46.24104" lon="7.53167"><ele>1843.8</ele><time>2025-08-09T14:36:46Z</time></trkpt>
<trkpt lat="46.2411" lon="7.5317"><ele>1842.8</ele><time>2025-08-09T14:36:48Z</time></trkpt>
<trkpt lat="46.24115" lon="7.53176"><ele>1841.2</ele><time>2025-08-09T14:36:50Z</time></trkpt>
<trkpt lat="46.24117" lon="7.53178"><ele>1840</ele><time>2025-08-09T14:36:51Z</time></trkpt>
<trkpt lat="46.24124" lon="7.53186"><ele>1838.6</ele><time>2025-08-09T14:36:53Z</time></trkpt>
<trkpt lat="46.24129" lon="7.53185"><ele>1837.8</ele><time>2025-08-09T14:36:54Z</time></trkpt>
<trkpt lat="46.24134" lon="7.53182"><ele>1837.2</ele><time>2025-08-09T14:36:55Z</time></trkpt>
<trkpt lat="46.24138" lon="7.53178"><ele>1836.2</ele><time>2025-08-09T14:36:56Z</time></trkpt>
<trkpt lat="46.24142" lon="7.5317"><ele>1835.4</ele><time>2025-08-09T14:36:57Z</time></trkpt>
<trkpt lat="46.24143" lon="7.53162"><ele>1833.2</ele><time>2025-08-09T14:36:58Z</time></trkpt>
<trkpt lat="46.24143" lon="7.53153"><ele>1831.4</ele><time>2025-08-09T14:36:59Z</time></trkpt>
<trkpt lat="46.24141" lon="7.53145"><ele>1830.4</ele><time>2025-08-09T14:37:00Z</time></trkpt>
<trkpt lat="46.24138" lon="7.53137"><ele>1829.8</ele><time>2025-08-09T14:37:01Z</time></trkpt>
<trkpt lat="46.24137" lon="7.53127"><ele>1830</ele><time>2025-08-09T14:37:02Z</time></trkpt>
<trkpt lat="46.24141" lon="7.53121"><ele>1830.6</ele><time>2025-08-09T14:37:03Z</time></trkpt>
<trkpt lat="46.24151" lon="7.53126"><ele>1830.2</ele><time>2025-08-09T14:37:05Z</time></trkpt>
<trkpt lat="46.24154" lon="7.53121"><ele>1829.8</ele><time>2025-08-09T14:37:06Z</time></trkpt>
<trkpt lat="46.24153" lon="7.53112"><ele>1828.6</ele><time>2025-08-09T14:37:07Z</time></trkpt>
<trkpt lat="46.24158" lon="7.53099"><ele>1827.2</ele><time>2025-08-09T14:37:09Z</time></trkpt>
<trkpt lat="46.24161" lon="7.53104"><ele>1826.8</ele><time>2025-08-09T14:37:10Z</time></trkpt>
<trkpt lat="46.24166" lon="7.53117"><ele>1826.2</ele><time>2025-08-09T14:37:12Z</time></trkpt>
<trkpt lat="46.24172" lon="7.53118"><ele>1825.4</ele><time>2025-08-09T14:37:13Z</time></trkpt>
<trkpt lat="46.24181" lon="7.53124"><ele>1824.6</ele><time>2025-08-09T14:37:15Z</time></trkpt>
<trkpt lat="46.24185" lon="7.53118"><ele>1823.8</ele><time>2025-08-09T14:37:16Z</time></trkpt>
<trkpt lat="46.24187" lon="7.53099"><ele>1822.8</ele><time>2025-08-09T14:37:18Z</time></trkpt>
<trkpt lat="46.24187" lon="7.53091"><ele>1821.4</ele><time>2025-08-09T14:37:19Z</time></trkpt>
<trkpt lat="46.24191" lon="7.53087"><ele>1819.8</ele><time>2025-08-09T14:37:20Z</time></trkpt>
<trkpt lat="46.24193" lon="7.53085"><ele>1818.8</ele><time>2025-08-09T14:37:21Z</time></trkpt>
<trkpt lat="46.24196" lon="7.53083"><ele>1818.2</ele><time>2025-08-09T14:37:22Z</time></trkpt>
<trkpt lat="46.24201" lon="7.53074"><ele>1816.4</ele><time>2025-08-09T14:37:24Z</time></trkpt>
<trkpt lat="46.24203" lon="7.53069"><ele>1815.6</ele><time>2025-08-09T14:37:25Z</time></trkpt>
<trkpt lat="46.24204" lon="7.53064"><ele>1814.4</ele><time>2025-08-09T14:37:26Z</time></trkpt>
<trkpt lat="46.24208" lon="7.53057"><ele>1813.2</ele><time>2025-08-09T14:37:28Z</time></trkpt>
<trkpt lat="46.24212" lon="7.53057"><ele>1813.2</ele><time>2025-08-09T14:37:29Z</time></trkpt>
<trkpt lat="46.2422" lon="7.53054"><ele>1811.8</ele><time>2025-08-09T14:37:31Z</time></trkpt>
<trkpt lat="46.24224" lon="7.5305"><ele>1811</ele><time>2025-08-09T14:37:32Z</time></trkpt>
<trkpt lat="46.24228" lon="7.53045"><ele>1809.6</ele><time>2025-08-09T14:37:33Z</time></trkpt>
<trkpt lat="46.24232" lon="7.53041"><ele>1808.4</ele><time>2025-08-09T14:37:34Z</time></trkpt>
<trkpt lat="46.2424" lon="7.53034"><ele>1807</ele><time>2025-08-09T14:37:36Z</time></trkpt>
<trkpt lat="46.24245" lon="7.53033"><ele>1806.6</ele><time>2025-08-09T14:37:37Z</time></trkpt>
<trkpt lat="46.24249" lon="7.53028"><ele>1806</ele><time>2025-08-09T14:37:38Z</time></trkpt>
<trkpt lat="46.24253" lon="7.53022"><ele>1804.8</ele><time>2025-08-09T14:37:39Z</time></trkpt>
<trkpt lat="46.24257" lon="7.53016"><ele>1804</ele><time>2025-08-09T14:37:40Z</time></trkpt>
<trkpt lat="46.24262" lon="7.53012"><ele>1802.6</ele><time>2025-08-09T14:37:41Z</time></trkpt>
<trkpt lat="46.24271" lon="7.53002"><ele>1801.8</ele><time>2025-08-09T14:37:43Z</time></trkpt>
<trkpt lat="46.24274" lon="7.52995"><ele>1801.6</ele><time>2025-08-09T14:37:44Z</time></trkpt>
<trkpt lat="46.24278" lon="7.52992"><ele>1801.6</ele><time>2025-08-09T14:37:45Z</time></trkpt>
<trkpt lat="46.24283" lon="7.52994"><ele>1801.8</ele><time>2025-08-09T14:37:46Z</time></trkpt>
<trkpt lat="46.24289" lon="7.53004"><ele>1801.4</ele><time>2025-08-09T14:37:48Z</time></trkpt>
<trkpt lat="46.2429" lon="7.53011"><ele>1801</ele><time>2025-08-09T14:37:49Z</time></trkpt>
<trkpt lat="46.24293" lon="7.5302"><ele>1799.4</ele><time>2025-08-09T14:37:50Z</time></trkpt>
<trkpt lat="46.24299" lon="7.53025"><ele>1798.4</ele><time>2025-08-09T14:37:51Z</time></trkpt>
<trkpt lat="46.24306" lon="7.53024"><ele>1797.2</ele><time>2025-08-09T14:37:52Z</time></trkpt>
<trkpt lat="46.24314" lon="7.53023"><ele>1796.8</ele><time>2025-08-09T14:37:54Z</time></trkpt>
<trkpt lat="46.24312" lon="7.53032"><ele>1797</ele><time>2025-08-09T14:37:56Z</time></trkpt>
<trkpt lat="46.24314" lon="7.53037"><ele>1797</ele><time>2025-08-09T14:37:57Z</time></trkpt>
<trkpt lat="46.24314" lon="7.53044"><ele>1796.2</ele><time>2025-08-09T14:37:58Z</time></trkpt>
<trkpt lat="46.24312" lon="7.53051"><ele>1795.4</ele><time>2025-08-09T14:37:59Z</time></trkpt>
<trkpt lat="46.24309" lon="7.53058"><ele>1794</ele><time>2025-08-09T14:38:00Z</time></trkpt>
<trkpt lat="46.24306" lon="7.53068"><ele>1792.2</ele><time>2025-08-09T14:38:01Z</time></trkpt>
<trkpt lat="46.24302" lon="7.53077"><ele>1791</ele><time>2025-08-09T14:38:02Z</time></trkpt>
<trkpt lat="46.24298" lon="7.53087"><ele>1789</ele><time>2025-08-09T14:38:03Z</time></trkpt>
<trkpt lat="46.24294" lon="7.53099"><ele>1788</ele><time>2025-08-09T14:38:04Z</time></trkpt>
<trkpt lat="46.24289" lon="7.5311"><ele>1787.4</ele><time>2025-08-09T14:38:05Z</time></trkpt>
<trkpt lat="46.24285" lon="7.53118"><ele>1786.8</ele><time>2025-08-09T14:38:06Z</time></trkpt>
<trkpt lat="46.24281" lon="7.53124"><ele>1787</ele><time>2025-08-09T14:38:07Z</time></trkpt>
<trkpt lat="46.24275" lon="7.53135"><ele>1788.6</ele><time>2025-08-09T14:38:09Z</time></trkpt>
<trkpt lat="46.24276" lon="7.53139"><ele>1789.2</ele><time>2025-08-09T14:38:10Z</time></trkpt>
<trkpt lat="46.24279" lon="7.53141"><ele>1789.4</ele><time>2025-08-09T14:38:11Z</time></trkpt>
<trkpt lat="46.24289" lon="7.5314"><ele>1788.6</ele><time>2025-08-09T14:38:14Z</time></trkpt>
<trkpt lat="46.24295" lon="7.53143"><ele>1787.6</ele><time>2025-08-09T14:38:16Z</time></trkpt>
<trkpt lat="46.24295" lon="7.53147"><ele>1787</ele><time>2025-08-09T14:38:17Z</time></trkpt>
<trkpt lat="46.24294" lon="7.53152"><ele>1786.2</ele><time>2025-08-09T14:38:18Z</time></trkpt>
<trkpt lat="46.2429" lon="7.5316"><ele>1785.6</ele><time>2025-08-09T14:38:20Z</time></trkpt>
<trkpt lat="46.24288" lon="7.53171"><ele>1784.4</ele><time>2025-08-09T14:38:22Z</time></trkpt>
<trkpt lat="46.24289" lon="7.53185"><ele>1782.2</ele><time>2025-08-09T14:38:24Z</time></trkpt>
<trkpt lat="46.2429" lon="7.53192"><ele>1781.2</ele><time>2025-08-09T14:38:25Z</time></trkpt>
<trkpt lat="46.24291" lon="7.532"><ele>1780.2</ele><time>2025-08-09T14:38:26Z</time></trkpt>
<trkpt lat="46.24291" lon="7.53207"><ele>1778.4</ele><time>2025-08-09T14:38:27Z</time></trkpt>
<trkpt lat="46.2429" lon="7.53215"><ele>1777.4</ele><time>2025-08-09T14:38:28Z</time></trkpt>
<trkpt lat="46.2429" lon="7.5322"><ele>1776.2</ele><time>2025-08-09T14:38:29Z</time></trkpt>
<trkpt lat="46.24289" lon="7.53226"><ele>1775.8</ele><time>2025-08-09T14:38:30Z</time></trkpt>
<trkpt lat="46.24291" lon="7.53237"><ele>1775.2</ele><time>2025-08-09T14:38:32Z</time></trkpt>
<trkpt lat="46.24291" lon="7.53243"><ele>1774.8</ele><time>2025-08-09T14:38:33Z</time></trkpt>
<trkpt lat="46.24289" lon="7.53254"><ele>1773.4</ele><time>2025-08-09T14:38:35Z</time></trkpt>
<trkpt lat="46.24289" lon="7.53259"><ele>1772.8</ele><time>2025-08-09T14:38:36Z</time></trkpt>
<trkpt lat="46.24288" lon="7.53264"><ele>1771.8</ele><time>2025-08-09T14:38:37Z</time></trkpt>
<trkpt lat="46.24284" lon="7.53274"><ele>1770.6</ele><time>2025-08-09T14:38:39Z</time></trkpt>
<trkpt lat="46.24282" lon="7.53278"><ele>1770</ele><time>2025-08-09T14:38:40Z</time></trkpt>
<trkpt lat="46.24281" lon="7.53281"><ele>1769.4</ele><time>2025-08-09T14:38:41Z</time></trkpt>
<trkpt lat="46.24279" lon="7.53294"><ele>1768.4</ele><time>2025-08-09T14:38:44Z</time></trkpt>
<trkpt lat="46.24277" lon="7.53302"><ele>1766.8</ele><time>2025-08-09T14:38:46Z</time></trkpt>
<trkpt lat="46.24275" lon="7.53311"><ele>1765</ele><time>2025-08-09T14:38:48Z</time></trkpt>
<trkpt lat="46.24273" lon="7.53316"><ele>1764.4</ele><time>2025-08-09T14:38:49Z</time></trkpt>
<trkpt lat="46.24271" lon="7.53321"><ele>1763.6</ele><time>2025-08-09T14:38:50Z</time></trkpt>
<trkpt lat="46.24265" lon="7.5333"><ele>1762.4</ele><time>2025-08-09T14:38:52Z</time></trkpt>
<trkpt lat="46.24263" lon="7.53334"><ele>1761.2</ele><time>2025-08-09T14:38:53Z</time></trkpt>
<trkpt lat="46.24262" lon="7.53338"><ele>1760.8</ele><time>2025-08-09T14:38:54Z</time></trkpt>
<trkpt lat="46.24257" lon="7.53349"><ele>1759.6</ele><time>2025-08-09T14:38:56Z</time></trkpt>
<trkpt lat="46.24258" lon="7.53361"><ele>1757.8</ele><time>2025-08-09T14:38:58Z</time></trkpt>
<trkpt lat="46.24256" lon="7.53369"><ele>1756.6</ele><time>2025-08-09T14:38:59Z</time></trkpt>
<trkpt lat="46.24255" lon="7.53376"><ele>1755.4</ele><time>2025-08-09T14:39:00Z</time></trkpt>
<trkpt lat="46.24249" lon="7.53393"><ele>1754.2</ele><time>2025-08-09T14:39:02Z</time></trkpt>
<trkpt lat="46.24246" lon="7.53403"><ele>1753</ele><time>2025-08-09T14:39:03Z</time></trkpt>
<trkpt lat="46.24244" lon="7.53411"><ele>1752.4</ele><time>2025-08-09T14:39:04Z</time></trkpt>
<trkpt lat="46.2424" lon="7.53415"><ele>1752</ele><time>2025-08-09T14:39:05Z</time></trkpt>
<trkpt lat="46.24238" lon="7.53424"><ele>1752</ele><time>2025-08-09T14:39:07Z</time></trkpt>
<trkpt lat="46.24241" lon="7.53423"><ele>1752</ele><time>2025-08-09T14:39:08Z</time></trkpt>
<trkpt lat="46.24248" lon="7.53414"><ele>1749.8</ele><time>2025-08-09T14:39:11Z</time></trkpt>
<trkpt lat="46.24243" lon="7.53425"><ele>1748.6</ele><time>2025-08-09T14:39:13Z</time></trkpt>
<trkpt lat="46.24243" lon="7.53433"><ele>1747.4</ele><time>2025-08-09T14:39:14Z</time></trkpt>
<trkpt lat="46.24243" lon="7.53442"><ele>1746.2</ele><time>2025-08-09T14:39:15Z</time></trkpt>
<trkpt lat="46.24245" lon="7.53451"><ele>1745.4</ele><time>2025-08-09T14:39:16Z</time></trkpt>
<trkpt lat="46.24248" lon="7.53458"><ele>1744.4</ele><time>2025-08-09T14:39:17Z</time></trkpt>
<trkpt lat="46.24252" lon="7.53463"><ele>1743.6</ele><time>2025-08-09T14:39:18Z</time></trkpt>
<trkpt lat="46.24255" lon="7.53468"><ele>1742.8</ele><time>2025-08-09T14:39:19Z</time></trkpt>
<trkpt lat="46.24263" lon="7.5347"><ele>1741.2</ele><time>2025-08-09T14:39:21Z</time></trkpt>
<trkpt lat="46.24266" lon="7.5347"><ele>1740.2</ele><time>2025-08-09T14:39:22Z</time></trkpt>
<trkpt lat="46.2427" lon="7.53471"><ele>1740</ele><time>2025-08-09T14:39:23Z</time></trkpt>
<trkpt lat="46.24278" lon="7.53476"><ele>1739</ele><time>2025-08-09T14:39:25Z</time></trkpt>
<trkpt lat="46.24283" lon="7.5348"><ele>1738.8</ele><time>2025-08-09T14:39:26Z</time></trkpt>
<trkpt lat="46.24289" lon="7.53483"><ele>1737.8</ele><time>2025-08-09T14:39:27Z</time></trkpt>
<trkpt lat="46.24295" lon="7.53481"><ele>1736.4</ele><time>2025-08-09T14:39:28Z</time></trkpt>
<trkpt lat="46.24299" lon="7.53475"><ele>1735</ele><time>2025-08-09T14:39:29Z</time></trkpt>
<trkpt lat="46.24302" lon="7.5347"><ele>1734</ele><time>2025-08-09T14:39:30Z</time></trkpt>
<trkpt lat="46.24308" lon="7.53458"><ele>1733.6</ele><time>2025-08-09T14:39:32Z</time></trkpt>
<trkpt lat="46.24314" lon="7.53437"><ele>1734.4</ele><time>2025-08-09T14:39:36Z</time></trkpt>
<trkpt lat="46.24319" lon="7.53447"><ele>1734.2</ele><time>2025-08-09T14:39:38Z</time></trkpt>
<trkpt lat="46.24319" lon="7.53461"><ele>1732.8</ele><time>2025-08-09T14:39:40Z</time></trkpt>
<trkpt lat="46.24324" lon="7.53462"><ele>1731.8</ele><time>2025-08-09T14:39:41Z</time></trkpt>
<trkpt lat="46.24325" lon="7.53456"><ele>1730.8</ele><time>2025-08-09T14:39:42Z</time></trkpt>
<trkpt lat="46.24325" lon="7.5345"><ele>1730.4</ele><time>2025-08-09T14:39:43Z</time></trkpt>
<trkpt lat="46.24328" lon="7.53444"><ele>1730</ele><time>2025-08-09T14:39:44Z</time></trkpt>
<trkpt lat="46.24333" lon="7.53447"><ele>1729.8</ele><time>2025-08-09T14:39:45Z</time></trkpt>
<trkpt lat="46.24333" lon="7.53456"><ele>1729.4</ele><time>2025-08-09T14:39:46Z</time></trkpt>
<trkpt lat="46.24331" lon="7.53465"><ele>1728.8</ele><time>2025-08-09T14:39:47Z</time></trkpt>
<trkpt lat="46.2433" lon="7.53471"><ele>1727.8</ele><time>2025-08-09T14:39:48Z</time></trkpt>
<trkpt lat="46.2433" lon="7.53478"><ele>1727</ele><time>2025-08-09T14:39:49Z</time></trkpt>
<trkpt lat="46.24332" lon="7.53486"><ele>1726.8</ele><time>2025-08-09T14:39:50Z</time></trkpt>
<trkpt lat="46.24328" lon="7.53494"><ele>1725.6</ele><time>2025-08-09T14:39:51Z</time></trkpt>
<trkpt lat="46.24324" lon="7.535"><ele>1724.8</ele><time>2025-08-09T14:39:52Z</time></trkpt>
<trkpt lat="46.24321" lon="7.53505"><ele>1724.4</ele><time>2025-08-09T14:39:53Z</time></trkpt>
<trkpt lat="46.24321" lon="7.53516"><ele>1723.8</ele><time>2025-08-09T14:39:55Z</time></trkpt>
<trkpt lat="46.24323" lon="7.53519"><ele>1723.6</ele><time>2025-08-09T14:39:56Z</time></trkpt>
<trkpt lat="46.24326" lon="7.5352"><ele>1722.4</ele><time>2025-08-09T14:39:57Z</time></trkpt>
<trkpt lat="46.24329" lon="7.53518"><ele>1721.2</ele><time>2025-08-09T14:39:58Z</time></trkpt>
<trkpt lat="46.24332" lon="7.53517"><ele>1720.4</ele><time>2025-08-09T14:39:59Z</time></trkpt>
<trkpt lat="46.24335" lon="7.53513"><ele>1719</ele><time>2025-08-09T14:40:00Z</time></trkpt>
<trkpt lat="46.2434" lon="7.53511"><ele>1717.6</ele><time>2025-08-09T14:40:01Z</time></trkpt>
<trkpt lat="46.24345" lon="7.53511"><ele>1716.4</ele><time>2025-08-09T14:40:02Z</time></trkpt>
<trkpt lat="46.24354" lon="7.53509"><ele>1714.6</ele><time>2025-08-09T14:40:03Z</time></trkpt>
<trkpt lat="46.24364" lon="7.53494"><ele>1713.4</ele><time>2025-08-09T14:40:05Z</time></trkpt>
<trkpt lat="46.2437" lon="7.53484"><ele>1712.8</ele><time>2025-08-09T14:40:07Z</time></trkpt>
<trkpt lat="46.24374" lon="7.53493"><ele>1713</ele><time>2025-08-09T14:40:09Z</time></trkpt>
<trkpt lat="46.24379" lon="7.53493"><ele>1712</ele><time>2025-08-09T14:40:11Z</time></trkpt>
<trkpt lat="46.24382" lon="7.5349"><ele>1711.4</ele><time>2025-08-09T14:40:12Z</time></trkpt>
<trkpt lat="46.24385" lon="7.53486"><ele>1710.8</ele><time>2025-08-09T14:40:13Z</time></trkpt>
<trkpt lat="46.24388" lon="7.53487"><ele>1710</ele><time>2025-08-09T14:40:14Z</time></trkpt>
<trkpt lat="46.2439" lon="7.53492"><ele>1709.2</ele><time>2025-08-09T14:40:15Z</time></trkpt>
<trkpt lat="46.24396" lon="7.53499"><ele>1707.2</ele><time>2025-08-09T14:40:17Z</time></trkpt>
<trkpt lat="46.24406" lon="7.535"><ele>1705.6</ele><time>2025-08-09T14:40:19Z</time></trkpt>
<trkpt lat="46.2441" lon="7.53496"><ele>1703.2</ele><time>2025-08-09T14:40:20Z</time></trkpt>
<trkpt lat="46.24413" lon="7.53492"><ele>1701.2</ele><time>2025-08-09T14:40:21Z</time></trkpt>
<trkpt lat="46.24416" lon="7.53486"><ele>1700</ele><time>2025-08-09T14:40:22Z</time></trkpt>
<trkpt lat="46.24423" lon="7.53476"><ele>1699.4</ele><time>2025-08-09T14:40:24Z</time></trkpt>
<trkpt lat="46.24427" lon="7.53473"><ele>1698.8</ele><time>2025-08-09T14:40:25Z</time></trkpt>
<trkpt lat="46.24432" lon="7.53472"><ele>1698.2</ele><time>2025-08-09T14:40:26Z</time></trkpt>
<trkpt lat="46.24437" lon="7.53473"><ele>1697.6</ele><time>2025-08-09T14:40:27Z</time></trkpt>
<trkpt lat="46.24442" lon="7.53474"><ele>1695.8</ele><time>2025-08-09T14:40:28Z</time></trkpt>
<trkpt lat="46.24446" lon="7.53474"><ele>1695</ele><time>2025-08-09T14:40:29Z</time></trkpt>
<trkpt lat="46.2445" lon="7.53474"><ele>1694.4</ele><time>2025-08-09T14:40:30Z</time></trkpt>
<trkpt lat="46.24453" lon="7.53477"><ele>1693.6</ele><time>2025-08-09T14:40:31Z</time></trkpt>
<trkpt lat="46.24452" lon="7.53484"><ele>1693</ele><time>2025-08-09T14:40:32Z</time></trkpt>
<trkpt lat="46.2445" lon="7.53495"><ele>1692</ele><time>2025-08-09T14:40:34Z</time></trkpt>
<trkpt lat="46.24451" lon="7.53502"><ele>1690.4</ele><time>2025-08-09T14:40:35Z</time></trkpt>
<trkpt lat="46.2445" lon="7.53509"><ele>1689.2</ele><time>2025-08-09T14:40:36Z</time></trkpt>
<trkpt lat="46.24451" lon="7.53515"><ele>1687.8</ele><time>2025-08-09T14:40:37Z</time></trkpt>
<trkpt lat="46.24453" lon="7.5352"><ele>1686.6</ele><time>2025-08-09T14:40:38Z</time></trkpt>
<trkpt lat="46.24463" lon="7.53515"><ele>1685</ele><time>2025-08-09T14:40:40Z</time></trkpt>
<trkpt lat="46.24468" lon="7.53513"><ele>1684</ele><time>2025-08-09T14:40:41Z</time></trkpt>
<trkpt lat="46.24472" lon="7.53525"><ele>1682.2</ele><time>2025-08-09T14:40:43Z</time></trkpt>
<trkpt lat="46.24475" lon="7.53536"><ele>1681</ele><time>2025-08-09T14:40:45Z</time></trkpt>
<trkpt lat="46.24478" lon="7.53541"><ele>1680.8</ele><time>2025-08-09T14:40:46Z</time></trkpt>
<trkpt lat="46.24478" lon="7.53553"><ele>1680</ele><time>2025-08-09T14:40:48Z</time></trkpt>
<trkpt lat="46.24477" lon="7.53559"><ele>1679.4</ele><time>2025-08-09T14:40:49Z</time></trkpt>
<trkpt lat="46.24475" lon="7.53563"><ele>1678.8</ele><time>2025-08-09T14:40:50Z</time></trkpt>
<trkpt lat="46.24475" lon="7.53572"><ele>1677</ele><time>2025-08-09T14:40:52Z</time></trkpt>
<trkpt lat="46.24477" lon="7.53575"><ele>1676.2</ele><time>2025-08-09T14:40:53Z</time></trkpt>
<trkpt lat="46.24481" lon="7.53578"><ele>1675.8</ele><time>2025-08-09T14:40:54Z</time></trkpt>
<trkpt lat="46.24483" lon="7.53582"><ele>1674.2</ele><time>2025-08-09T14:40:55Z</time></trkpt>
<trkpt lat="46.24481" lon="7.53586"><ele>1673.2</ele><time>2025-08-09T14:40:56Z</time></trkpt>
<trkpt lat="46.24484" lon="7.53591"><ele>1671.4</ele><time>2025-08-09T14:40:58Z</time></trkpt>
<trkpt lat="46.24487" lon="7.53589"><ele>1671</ele><time>2025-08-09T14:40:59Z</time></trkpt>
<trkpt lat="46.2449" lon="7.5359"><ele>1670.4</ele><time>2025-08-09T14:41:00Z</time></trkpt>
<trkpt lat="46.24492" lon="7.53595"><ele>1669.6</ele><time>2025-08-09T14:41:01Z</time></trkpt>
<trkpt lat="46.24491" lon="7.53599"><ele>1668.8</ele><time>2025-08-09T14:41:02Z</time></trkpt>
<trkpt lat="46.24487" lon="7.53606"><ele>1667</ele><time>2025-08-09T14:41:04Z</time></trkpt>
<trkpt lat="46.24483" lon="7.5361"><ele>1666</ele><time>2025-08-09T14:41:05Z</time></trkpt>
<trkpt lat="46.24479" lon="7.53613"><ele>1665</ele><time>2025-08-09T14:41:06Z</time></trkpt>
<trkpt lat="46.24475" lon="7.53615"><ele>1664.6</ele><time>2025-08-09T14:41:07Z</time></trkpt>
<trkpt lat="46.24472" lon="7.53618"><ele>1663</ele><time>2025-08-09T14:41:08Z</time></trkpt>
<trkpt lat="46.2447" lon="7.53622"><ele>1662</ele><time>2025-08-09T14:41:09Z</time></trkpt>
<trkpt lat="46.24469" lon="7.53629"><ele>1661.4</ele><time>2025-08-09T14:41:10Z</time></trkpt>
<trkpt lat="46.24469" lon="7.53636"><ele>1660.2</ele><time>2025-08-09T14:41:11Z</time></trkpt>
<trkpt lat="46.2447" lon="7.53643"><ele>1659.6</ele><time>2025-08-09T14:41:12Z</time></trkpt>
<trkpt lat="46.24471" lon="7.53649"><ele>1658.2</ele><time>2025-08-09T14:41:13Z</time></trkpt>
<trkpt lat="46.24475" lon="7.53651"><ele>1656.8</ele><time>2025-08-09T14:41:14Z</time></trkpt>
<trkpt lat="46.24482" lon="7.5365"><ele>1655.2</ele><time>2025-08-09T14:41:16Z</time></trkpt>
<trkpt lat="46.24488" lon="7.53654"><ele>1654</ele><time>2025-08-09T14:41:18Z</time></trkpt>
<trkpt lat="46.24493" lon="7.53655"><ele>1652.4</ele><time>2025-08-09T14:41:20Z</time></trkpt>
<trkpt lat="46.24494" lon="7.53655"><ele>1651.6</ele><time>2025-08-09T14:41:22Z</time></trkpt>
<trkpt lat="46.24493" lon="7.53656"><ele>1651.4</ele><time>2025-08-09T14:41:23Z</time></trkpt>
<trkpt lat="46.24494" lon="7.53655"><ele>1651.4</ele><time>2025-08-09T14:41:24Z</time></trkpt>
<trkpt lat="46.24494" lon="7.53654"><ele>1650.8</ele><time>2025-08-09T14:41:32Z</time></trkpt>
<trkpt lat="46.24492" lon="7.53654"><ele>1651</ele><time>2025-08-09T14:41:39Z</time></trkpt>
<trkpt lat="46.24493" lon="7.53654"><ele>1650.6</ele><time>2025-08-09T14:41:46Z</time></trkpt>
<trkpt lat="46.24494" lon="7.53655"><ele>1650.4</ele><time>2025-08-09T14:41:51Z</time></trkpt>
<trkpt lat="46.24495" lon="7.53655"><ele>1650.2</ele><time>2025-08-09T14:41:53Z</time></trkpt>
<trkpt lat="46.24495" lon="7.53657"><ele>1650.2</ele><time>2025-08-09T14:41:56Z</time></trkpt>
<trkpt lat="46.24496" lon="7.53656"><ele>1650.4</ele><time>2025-08-09T14:41:59Z</time></trkpt>
<trkpt lat="46.24497" lon="7.53656"><ele>1650.4</ele><time>2025-08-09T14:42:03Z</time></trkpt>
<trkpt lat="46.24497" lon="7.53655"><ele>1650.2</ele><time>2025-08-09T14:42:09Z</time></trkpt>
<trkpt lat="46.24498" lon="7.53655"><ele>1650.2</ele><time>2025-08-09T14:42:16Z</time></trkpt>
<trkpt lat="46.24498" lon="7.53658"><ele>1649.8</ele><time>2025-08-09T14:42:28Z</time></trkpt>
<trkpt lat="46.24498" lon="7.53658"><ele>1649.4</ele><time>2025-08-09T14:42:37Z</time></trkpt>
<trkpt lat="46.24498" lon="7.53658"><ele>1649.4</ele><time>2025-08-09T14:42:44Z</time></trkpt>
<trkpt lat="46.24498" lon="7.53658"><ele>1649.2</ele><time>2025-08-09T14:42:47Z</time></trkpt>
<trkpt lat="46.24498" lon="7.53657"><ele>1649.2</ele><time>2025-08-09T14:42:48Z</time></trkpt>
<trkpt lat="46.24497" lon="7.53656"><ele>1648.6</ele><time>2025-08-09T14:42:55Z</time></trkpt>
<trkpt lat="46.24496" lon="7.53654"><ele>1648.6</ele><time>2025-08-09T14:43:01Z</time></trkpt>
<trkpt lat="46.24497" lon="7.53654"><ele>1648.4</ele><time>2025-08-09T14:43:08Z</time></trkpt>
<trkpt lat="46.24498" lon="7.53654"><ele>1648.2</ele><time>2025-08-09T14:43:14Z</time></trkpt>
<trkpt lat="46.24498" lon="7.53654"><ele>1648</ele><time>2025-08-09T14:43:16Z</time></trkpt>
<trkpt lat="46.24496" lon="7.53655"><ele>1648</ele><time>2025-08-09T14:43:24Z</time></trkpt>
<trkpt lat="46.24496" lon="7.53654"><ele>1648</ele><time>2025-08-09T14:43:27Z</time></trkpt>
<trkpt lat="46.24496" lon="7.53654"><ele>1648</ele><time>2025-08-09T14:43:29Z</time></trkpt>
<trkpt lat="46.24496" lon="7.53654"><ele>1647.8</ele><time>2025-08-09T14:43:36Z</time></trkpt>
<trkpt lat="46.24497" lon="7.53654"><ele>1648</ele><time>2025-08-09T14:43:42Z</time></trkpt>
<trkpt lat="46.24496" lon="7.53654"><ele>1648.2</ele><time>2025-08-09T14:43:49Z</time></trkpt>
<trkpt lat="46.24496" lon="7.53655"><ele>1647.6</ele><time>2025-08-09T14:43:55Z</time></trkpt>
<trkpt lat="46.24495" lon="7.53655"><ele>1647.2</ele><time>2025-08-09T14:44:03Z</time></trkpt>
<trkpt lat="46.24496" lon="7.53655"><ele>1647.2</ele><time>2025-08-09T14:44:10Z</time></trkpt>
<trkpt lat="46.24496" lon="7.53654"><ele>1647.2</ele><time>2025-08-09T14:44:14Z</time></trkpt>
<trkpt lat="46.24496" lon="7.53654"><ele>1647.2</ele><time>2025-08-09T14:44:16Z</time></trkpt>
<trkpt lat="46.24494" lon="7.53654"><ele>1646.8</ele><time>2025-08-09T14:44:23Z</time></trkpt>
<trkpt lat="46.24495" lon="7.53654"><ele>1646.8</ele><time>2025-08-09T14:44:30Z</time></trkpt>
<trkpt lat="46.24495" lon="7.53655"><ele>1646.4</ele><time>2025-08-09T14:44:34Z</time></trkpt>
<trkpt lat="46.24494" lon="7.53654"><ele>1646.4</ele><time>2025-08-09T14:44:36Z</time></trkpt>
<trkpt lat="46.24496" lon="7.53653"><ele>1646.2</ele><time>2025-08-09T14:44:42Z</time></trkpt>
<trkpt lat="46.24496" lon="7.53652"><ele>1646</ele><time>2025-08-09T14:44:46Z</time></trkpt>
<trkpt lat="46.24498" lon="7.53652"><ele>1646</ele><time>2025-08-09T14:44:47Z</time></trkpt>
<trkpt lat="46.24504" lon="7.53652"><ele>1644.8</ele><time>2025-08-09T14:44:50Z</time></trkpt>
<trkpt lat="46.24512" lon="7.53651"><ele>1643.4</ele><time>2025-08-09T14:44:52Z</time></trkpt>
<trkpt lat="46.24519" lon="7.53649"><ele>1641.6</ele><time>2025-08-09T14:44:54Z</time></trkpt>
<trkpt lat="46.24521" lon="7.53648"><ele>1641</ele><time>2025-08-09T14:44:55Z</time></trkpt>
<trkpt lat="46.24524" lon="7.53647"><ele>1640.6</ele><time>2025-08-09T14:44:56Z</time></trkpt>
<trkpt lat="46.24534" lon="7.53644"><ele>1639</ele><time>2025-08-09T14:44:59Z</time></trkpt>
<trkpt lat="46.24537" lon="7.53643"><ele>1638.4</ele><time>2025-08-09T14:45:00Z</time></trkpt>
<trkpt lat="46.24541" lon="7.5364"><ele>1637.6</ele><time>2025-08-09T14:45:01Z</time></trkpt>
<trkpt lat="46.2455" lon="7.53636"><ele>1636.4</ele><time>2025-08-09T14:45:03Z</time></trkpt>
<trkpt lat="46.24559" lon="7.53631"><ele>1634.8</ele><time>2025-08-09T14:45:05Z</time></trkpt>
<trkpt lat="46.24567" lon="7.53627"><ele>1633.4</ele><time>2025-08-09T14:45:07Z</time></trkpt>
<trkpt lat="46.24576" lon="7.53624"><ele>1632</ele><time>2025-08-09T14:45:09Z</time></trkpt>
<trkpt lat="46.24582" lon="7.53624"><ele>1630.8</ele><time>2025-08-09T14:45:10Z</time></trkpt>
<trkpt lat="46.24592" lon="7.53624"><ele>1629.4</ele><time>2025-08-09T14:45:12Z</time></trkpt>
<trkpt lat="46.24599" lon="7.53623"><ele>1628.8</ele><time>2025-08-09T14:45:13Z</time></trkpt>
<trkpt lat="46.24604" lon="7.53622"><ele>1628.4</ele><time>2025-08-09T14:45:14Z</time></trkpt>
<trkpt lat="46.24611" lon="7.5362"><ele>1628.4</ele><time>2025-08-09T14:45:16Z</time></trkpt>
<trkpt lat="46.24613" lon="7.53617"><ele>1628.4</ele><time>2025-08-09T14:45:17Z</time></trkpt>
<trkpt lat="46.24625" lon="7.53608"><ele>1627</ele><time>2025-08-09T14:45:21Z</time></trkpt>
<trkpt lat="46.24628" lon="7.53607"><ele>1626.6</ele><time>2025-08-09T14:45:22Z</time></trkpt>
<trkpt lat="46.24635" lon="7.53608"><ele>1625.4</ele><time>2025-08-09T14:45:24Z</time></trkpt>
<trkpt lat="46.24642" lon="7.53607"><ele>1624</ele><time>2025-08-09T14:45:26Z</time></trkpt>
<trkpt lat="46.24645" lon="7.53604"><ele>1622.4</ele><time>2025-08-09T14:45:27Z</time></trkpt>
<trkpt lat="46.24649" lon="7.536"><ele>1621.2</ele><time>2025-08-09T14:45:29Z</time></trkpt>
<trkpt lat="46.24654" lon="7.53593"><ele>1620.8</ele><time>2025-08-09T14:45:32Z</time></trkpt>
<trkpt lat="46.24665" lon="7.53581"><ele>1619.6</ele><time>2025-08-09T14:45:36Z</time></trkpt>
<trkpt lat="46.24667" lon="7.53578"><ele>1618.8</ele><time>2025-08-09T14:45:37Z</time></trkpt>
<trkpt lat="46.24668" lon="7.53574"><ele>1617.6</ele><time>2025-08-09T14:45:38Z</time></trkpt>
<trkpt lat="46.2467" lon="7.53564"><ele>1616</ele><time>2025-08-09T14:45:40Z</time></trkpt>
<trkpt lat="46.24672" lon="7.5356"><ele>1615.6</ele><time>2025-08-09T14:45:41Z</time></trkpt>
<trkpt lat="46.24677" lon="7.53552"><ele>1614.4</ele><time>2025-08-09T14:45:43Z</time></trkpt>
<trkpt lat="46.24681" lon="7.53544"><ele>1613.4</ele><time>2025-08-09T14:45:45Z</time></trkpt>
<trkpt lat="46.24691" lon="7.53534"><ele>1612.2</ele><time>2025-08-09T14:45:48Z</time></trkpt>
<trkpt lat="46.24696" lon="7.53529"><ele>1611.2</ele><time>2025-08-09T14:45:50Z</time></trkpt>
<trkpt lat="46.247" lon="7.53525"><ele>1610</ele><time>2025-08-09T14:45:52Z</time></trkpt>
<trkpt lat="46.24702" lon="7.53519"><ele>1609.2</ele><time>2025-08-09T14:45:54Z</time></trkpt>
<trkpt lat="46.24702" lon="7.53514"><ele>1608.4</ele><time>2025-08-09T14:45:55Z</time></trkpt>
<trkpt lat="46.24708" lon="7.53501"><ele>1607</ele><time>2025-08-09T14:45:58Z</time></trkpt>
<trkpt lat="46.24712" lon="7.53492"><ele>1605.8</ele><time>2025-08-09T14:46:01Z</time></trkpt>
<trkpt lat="46.2471" lon="7.53488"><ele>1605.2</ele><time>2025-08-09T14:46:02Z</time></trkpt>
<trkpt lat="46.24707" lon="7.53485"><ele>1604.6</ele><time>2025-08-09T14:46:03Z</time></trkpt>
<trkpt lat="46.24703" lon="7.53485"><ele>1604</ele><time>2025-08-09T14:46:04Z</time></trkpt>
<trkpt lat="46.247" lon="7.53485"><ele>1603.2</ele><time>2025-08-09T14:46:05Z</time></trkpt>
<trkpt lat="46.24696" lon="7.53484"><ele>1602.6</ele><time>2025-08-09T14:46:06Z</time></trkpt>
<trkpt lat="46.24695" lon="7.5348"><ele>1602</ele><time>2025-08-09T14:46:07Z</time></trkpt>
<trkpt lat="46.24697" lon="7.53469"><ele>1601</ele><time>2025-08-09T14:46:09Z</time></trkpt>
<trkpt lat="46.24699" lon="7.53465"><ele>1600.6</ele><time>2025-08-09T14:46:10Z</time></trkpt>
<trkpt lat="46.24701" lon="7.5346"><ele>1600</ele><time>2025-08-09T14:46:11Z</time></trkpt>
<trkpt lat="46.24707" lon="7.5345"><ele>1598</ele><time>2025-08-09T14:46:13Z</time></trkpt>
<trkpt lat="46.2471" lon="7.53446"><ele>1597.4</ele><time>2025-08-09T14:46:14Z</time></trkpt>
<trkpt lat="46.24713" lon="7.53443"><ele>1596</ele><time>2025-08-09T14:46:15Z</time></trkpt>
<trkpt lat="46.24716" lon="7.53439"><ele>1595</ele><time>2025-08-09T14:46:16Z</time></trkpt>
<trkpt lat="46.2472" lon="7.53436"><ele>1594.6</ele><time>2025-08-09T14:46:17Z</time></trkpt>
<trkpt lat="46.24724" lon="7.53434"><ele>1592.6</ele><time>2025-08-09T14:46:18Z</time></trkpt>
<trkpt lat="46.24728" lon="7.53434"><ele>1592.6</ele><time>2025-08-09T14:46:19Z</time></trkpt>
<trkpt lat="46.24732" lon="7.53433"><ele>1591</ele><time>2025-08-09T14:46:20Z</time></trkpt>
<trkpt lat="46.24737" lon="7.53433"><ele>1589</ele><time>2025-08-09T14:46:21Z</time></trkpt>
<trkpt lat="46.2474" lon="7.53435"><ele>1588</ele><time>2025-08-09T14:46:22Z</time></trkpt>
<trkpt lat="46.24744" lon="7.53438"><ele>1587</ele><time>2025-08-09T14:46:23Z</time></trkpt>
<trkpt lat="46.24747" lon="7.53439"><ele>1586.2</ele><time>2025-08-09T14:46:24Z</time></trkpt>
<trkpt lat="46.2475" lon="7.53441"><ele>1584.8</ele><time>2025-08-09T14:46:25Z</time></trkpt>
<trkpt lat="46.24758" lon="7.53446"><ele>1583.6</ele><time>2025-08-09T14:46:27Z</time></trkpt>
<trkpt lat="46.24765" lon="7.53451"><ele>1582.2</ele><time>2025-08-09T14:46:29Z</time></trkpt>
<trkpt lat="46.24768" lon="7.53453"><ele>1581.4</ele><time>2025-08-09T14:46:30Z</time></trkpt>
<trkpt lat="46.24771" lon="7.53454"><ele>1580.8</ele><time>2025-08-09T14:46:31Z</time></trkpt>
<trkpt lat="46.2478" lon="7.53457"><ele>1579.4</ele><time>2025-08-09T14:46:34Z</time></trkpt>
<trkpt lat="46.24785" lon="7.5346"><ele>1578.4</ele><time>2025-08-09T14:46:36Z</time></trkpt>
<trkpt lat="46.24788" lon="7.53461"><ele>1577.6</ele><time>2025-08-09T14:46:38Z</time></trkpt>
<trkpt lat="46.2479" lon="7.5346"><ele>1577.2</ele><time>2025-08-09T14:46:39Z</time></trkpt>
<trkpt lat="46.24793" lon="7.53461"><ele>1576.2</ele><time>2025-08-09T14:46:43Z</time></trkpt>
<trkpt lat="46.24796" lon="7.53462"><ele>1575.8</ele><time>2025-08-09T14:46:49Z</time></trkpt>
<trkpt lat="46.24799" lon="7.53462"><ele>1575.4</ele><time>2025-08-09T14:46:52Z</time></trkpt>
<trkpt lat="46.248" lon="7.53463"><ele>1575.2</ele><time>2025-08-09T14:46:53Z</time></trkpt>
<trkpt lat="46.24802" lon="7.53464"><ele>1574.6</ele><time>2025-08-09T14:46:55Z</time></trkpt>
<trkpt lat="46.24804" lon="7.53465"><ele>1574</ele><time>2025-08-09T14:46:57Z</time></trkpt>
<trkpt lat="46.24807" lon="7.53463"><ele>1573</ele><time>2025-08-09T14:47:00Z</time></trkpt>
<trkpt lat="46.2481" lon="7.53463"><ele>1572</ele><time>2025-08-09T14:47:04Z</time></trkpt>
<trkpt lat="46.2481" lon="7.53462"><ele>1571.8</ele><time>2025-08-09T14:47:05Z</time></trkpt>
<trkpt lat="46.24809" lon="7.53462"><ele>1571.6</ele><time>2025-08-09T14:47:06Z</time></trkpt>
<trkpt lat="46.2481" lon="7.53464"><ele>1571.4</ele><time>2025-08-09T14:47:11Z</time></trkpt>
<trkpt lat="46.24813" lon="7.53474"><ele>1570.4</ele><time>2025-08-09T14:47:14Z</time></trkpt>
<trkpt lat="46.2482" lon="7.53479"><ele>1569.2</ele><time>2025-08-09T14:47:16Z</time></trkpt>
<trkpt lat="46.24827" lon="7.53484"><ele>1567.8</ele><time>2025-08-09T14:47:18Z</time></trkpt>
<trkpt lat="46.24834" lon="7.53481"><ele>1566.4</ele><time>2025-08-09T14:47:21Z</time></trkpt>
<trkpt lat="46.24845" lon="7.53474"><ele>1566.2</ele><time>2025-08-09T14:47:25Z</time></trkpt>
<trkpt lat="46.24847" lon="7.53475"><ele>1566</ele><time>2025-08-09T14:47:26Z</time></trkpt>
<trkpt lat="46.24851" lon="7.53479"><ele>1565</ele><time>2025-08-09T14:47:28Z</time></trkpt>
<trkpt lat="46.24857" lon="7.5348"><ele>1564</ele><time>2025-08-09T14:47:30Z</time></trkpt>
<trkpt lat="46.2486" lon="7.53478"><ele>1563</ele><time>2025-08-09T14:47:31Z</time></trkpt>
<trkpt lat="46.24863" lon="7.53474"><ele>1562.2</ele><time>2025-08-09T14:47:32Z</time></trkpt>
<trkpt lat="46.24865" lon="7.53471"><ele>1561.8</ele><time>2025-08-09T14:47:33Z</time></trkpt>
<trkpt lat="46.24873" lon="7.53469"><ele>1560.8</ele><time>2025-08-09T14:47:36Z</time></trkpt>
<trkpt lat="46.24875" lon="7.53467"><ele>1560.4</ele><time>2025-08-09T14:47:37Z</time></trkpt>
<trkpt lat="46.24879" lon="7.53463"><ele>1558.8</ele><time>2025-08-09T14:47:40Z</time></trkpt>
<trkpt lat="46.24881" lon="7.53465"><ele>1558</ele><time>2025-08-09T14:47:41Z</time></trkpt>
<trkpt lat="46.24884" lon="7.53468"><ele>1557.4</ele><time>2025-08-09T14:47:42Z</time></trkpt>
<trkpt lat="46.24888" lon="7.53469"><ele>1557</ele><time>2025-08-09T14:47:43Z</time></trkpt>
<trkpt lat="46.24893" lon="7.53471"><ele>1556.2</ele><time>2025-08-09T14:47:45Z</time></trkpt>
<trkpt lat="46.24895" lon="7.53472"><ele>1555.8</ele><time>2025-08-09T14:47:46Z</time></trkpt>
<trkpt lat="46.24903" lon="7.5347"><ele>1554.8</ele><time>2025-08-09T14:47:50Z</time></trkpt>
<trkpt lat="46.24906" lon="7.5347"><ele>1554.2</ele><time>2025-08-09T14:47:51Z</time></trkpt>
<trkpt lat="46.24908" lon="7.53469"><ele>1553.8</ele><time>2025-08-09T14:47:52Z</time></trkpt>
<trkpt lat="46.24913" lon="7.53469"><ele>1552.2</ele><time>2025-08-09T14:47:54Z</time></trkpt>
<trkpt lat="46.24914" lon="7.53467"><ele>1551.6</ele><time>2025-08-09T14:47:55Z</time></trkpt>
<trkpt lat="46.24916" lon="7.53463"><ele>1550.8</ele><time>2025-08-09T14:47:56Z</time></trkpt>
<trkpt lat="46.24919" lon="7.53453"><ele>1549.8</ele><time>2025-08-09T14:47:58Z</time></trkpt>
<trkpt lat="46.24924" lon="7.53442"><ele>1548.4</ele><time>2025-08-09T14:48:00Z</time></trkpt>
<trkpt lat="46.24928" lon="7.53437"><ele>1547.8</ele><time>2025-08-09T14:48:01Z</time></trkpt>
<trkpt lat="46.24934" lon="7.53428"><ele>1547.4</ele><time>2025-08-09T14:48:03Z</time></trkpt>
<trkpt lat="46.24937" lon="7.53423"><ele>1546.8</ele><time>2025-08-09T14:48:04Z</time></trkpt>
<trkpt lat="46.24944" lon="7.53415"><ele>1545.8</ele><time>2025-08-09T14:48:06Z</time></trkpt>
<trkpt lat="46.24947" lon="7.53404"><ele>1544.4</ele><time>2025-08-09T14:48:08Z</time></trkpt>
<trkpt lat="46.24953" lon="7.53393"><ele>1542.8</ele><time>2025-08-09T14:48:10Z</time></trkpt>
<trkpt lat="46.24958" lon="7.53394"><ele>1542</ele><time>2025-08-09T14:48:11Z</time></trkpt>
<trkpt lat="46.24963" lon="7.5339"><ele>1541.8</ele><time>2025-08-09T14:48:12Z</time></trkpt>
<trkpt lat="46.24967" lon="7.53384"><ele>1541</ele><time>2025-08-09T14:48:13Z</time></trkpt>
<trkpt lat="46.24972" lon="7.53376"><ele>1540.2</ele><time>2025-08-09T14:48:14Z</time></trkpt>
<trkpt lat="46.24975" lon="7.53368"><ele>1539.2</ele><time>2025-08-09T14:48:15Z</time></trkpt>
<trkpt lat="46.24979" lon="7.5336"><ele>1537.4</ele><time>2025-08-09T14:48:16Z</time></trkpt>
<trkpt lat="46.24988" lon="7.53342"><ele>1534</ele><time>2025-08-09T14:48:18Z</time></trkpt>
<trkpt lat="46.24989" lon="7.53332"><ele>1533.2</ele><time>2025-08-09T14:48:19Z</time></trkpt>
<trkpt lat="46.24987" lon="7.53325"><ele>1532.2</ele><time>2025-08-09T14:48:20Z</time></trkpt>
<trkpt lat="46.24983" lon="7.53319"><ele>1531.2</ele><time>2025-08-09T14:48:21Z</time></trkpt>
<trkpt lat="46.24981" lon="7.53307"><ele>1531.8</ele><time>2025-08-09T14:48:23Z</time></trkpt>
<trkpt lat="46.24975" lon="7.53298"><ele>1531.4</ele><time>2025-08-09T14:48:25Z</time></trkpt>
<trkpt lat="46.24971" lon="7.53295"><ele>1531</ele><time>2025-08-09T14:48:26Z</time></trkpt>
<trkpt lat="46.24966" lon="7.53292"><ele>1529.6</ele><time>2025-08-09T14:48:27Z</time></trkpt>
<trkpt lat="46.24957" lon="7.53284"><ele>1527.8</ele><time>2025-08-09T14:48:29Z</time></trkpt>
<trkpt lat="46.24952" lon="7.53279"><ele>1526.6</ele><time>2025-08-09T14:48:30Z</time></trkpt>
<trkpt lat="46.24951" lon="7.53273"><ele>1526</ele><time>2025-08-09T14:48:31Z</time></trkpt>
<trkpt lat="46.2495" lon="7.53268"><ele>1525.2</ele><time>2025-08-09T14:48:32Z</time></trkpt>
<trkpt lat="46.24951" lon="7.53262"><ele>1524.6</ele><time>2025-08-09T14:48:33Z</time></trkpt>
<trkpt lat="46.24952" lon="7.53256"><ele>1524.2</ele><time>2025-08-09T14:48:34Z</time></trkpt>
<trkpt lat="46.24954" lon="7.53249"><ele>1523.6</ele><time>2025-08-09T14:48:35Z</time></trkpt>
<trkpt lat="46.24957" lon="7.53242"><ele>1522.6</ele><time>2025-08-09T14:48:36Z</time></trkpt>
<trkpt lat="46.24962" lon="7.53228"><ele>1520.8</ele><time>2025-08-09T14:48:38Z</time></trkpt>
<trkpt lat="46.24964" lon="7.53222"><ele>1519.2</ele><time>2025-08-09T14:48:39Z</time></trkpt>
<trkpt lat="46.24966" lon="7.53215"><ele>1517.6</ele><time>2025-08-09T14:48:40Z</time></trkpt>
<trkpt lat="46.24968" lon="7.53208"><ele>1515.8</ele><time>2025-08-09T14:48:41Z</time></trkpt>
<trkpt lat="46.24973" lon="7.53195"><ele>1514.4</ele><time>2025-08-09T14:48:43Z</time></trkpt>
<trkpt lat="46.24975" lon="7.53187"><ele>1513</ele><time>2025-08-09T14:48:44Z</time></trkpt>
<trkpt lat="46.24983" lon="7.53166"><ele>1510.4</ele><time>2025-08-09T14:48:47Z</time></trkpt>
<trkpt lat="46.24987" lon="7.53159"><ele>1508.8</ele><time>2025-08-09T14:48:48Z</time></trkpt>
<trkpt lat="46.24992" lon="7.53146"><ele>1506.6</ele><time>2025-08-09T14:48:50Z</time></trkpt>
<trkpt lat="46.24995" lon="7.5314"><ele>1505.6</ele><time>2025-08-09T14:48:51Z</time></trkpt>
<trkpt lat="46.24998" lon="7.53135"><ele>1504.2</ele><time>2025-08-09T14:48:52Z</time></trkpt>
<trkpt lat="46.25002" lon="7.53124"><ele>1503</ele><time>2025-08-09T14:48:54Z</time></trkpt>
<trkpt lat="46.25006" lon="7.53113"><ele>1501</ele><time>2025-08-09T14:48:56Z</time></trkpt>
<trkpt lat="46.25008" lon="7.53108"><ele>1499.6</ele><time>2025-08-09T14:48:57Z</time></trkpt>
<trkpt lat="46.25009" lon="7.53102"><ele>1498</ele><time>2025-08-09T14:48:58Z</time></trkpt>
<trkpt lat="46.2501" lon="7.53098"><ele>1497.2</ele><time>2025-08-09T14:48:59Z</time></trkpt>
<trkpt lat="46.25011" lon="7.53092"><ele>1496</ele><time>2025-08-09T14:49:00Z</time></trkpt>
<trkpt lat="46.25011" lon="7.53087"><ele>1495</ele><time>2025-08-09T14:49:01Z</time></trkpt>
<trkpt lat="46.25013" lon="7.53082"><ele>1494</ele><time>2025-08-09T14:49:02Z</time></trkpt>
<trkpt lat="46.25017" lon="7.53073"><ele>1492</ele><time>2025-08-09T14:49:04Z</time></trkpt>
<trkpt lat="46.2502" lon="7.53067"><ele>1490.6</ele><time>2025-08-09T14:49:05Z</time></trkpt>
<trkpt lat="46.25023" lon="7.53062"><ele>1488.6</ele><time>2025-08-09T14:49:06Z</time></trkpt>
<trkpt lat="46.2503" lon="7.53052"><ele>1485.8</ele><time>2025-08-09T14:49:08Z</time></trkpt>
<trkpt lat="46.25034" lon="7.53044"><ele>1483.6</ele><time>2025-08-09T14:49:09Z</time></trkpt>
<trkpt lat="46.25038" lon="7.53037"><ele>1482</ele><time>2025-08-09T14:49:10Z</time></trkpt>
<trkpt lat="46.25043" lon="7.53031"><ele>1480</ele><time>2025-08-09T14:49:11Z</time></trkpt>
<trkpt lat="46.25047" lon="7.53027"><ele>1479.2</ele><time>2025-08-09T14:49:12Z</time></trkpt>
<trkpt lat="46.2505" lon="7.53024"><ele>1477.8</ele><time>2025-08-09T14:49:13Z</time></trkpt>
<trkpt lat="46.25052" lon="7.53024"><ele>1477.4</ele><time>2025-08-09T14:49:14Z</time></trkpt>
<trkpt lat="46.25054" lon="7.53024"><ele>1477.2</ele><time>2025-08-09T14:49:15Z</time></trkpt>
<trkpt lat="46.25055" lon="7.53024"><ele>1477</ele><time>2025-08-09T14:49:16Z</time></trkpt>
<trkpt lat="46.25057" lon="7.53022"><ele>1476.8</ele><time>2025-08-09T14:49:17Z</time></trkpt>
<trkpt lat="46.2506" lon="7.53013"><ele>1476.2</ele><time>2025-08-09T14:49:19Z</time></trkpt>
<trkpt lat="46.25062" lon="7.53008"><ele>1475.6</ele><time>2025-08-09T14:49:20Z</time></trkpt>
<trkpt lat="46.25065" lon="7.53003"><ele>1474.8</ele><time>2025-08-09T14:49:21Z</time></trkpt>
<trkpt lat="46.25067" lon="7.52997"><ele>1474</ele><time>2025-08-09T14:49:22Z</time></trkpt>
<trkpt lat="46.25069" lon="7.52991"><ele>1473.6</ele><time>2025-08-09T14:49:23Z</time></trkpt>
<trkpt lat="46.25072" lon="7.5299"><ele>1472.8</ele><time>2025-08-09T14:49:24Z</time></trkpt>
<trkpt lat="46.25074" lon="7.52993"><ele>1472</ele><time>2025-08-09T14:49:25Z</time></trkpt>
<trkpt lat="46.25077" lon="7.52995"><ele>1471.2</ele><time>2025-08-09T14:49:26Z</time></trkpt>
<trkpt lat="46.25079" lon="7.52991"><ele>1470.6</ele><time>2025-08-09T14:49:27Z</time></trkpt>
<trkpt lat="46.25082" lon="7.52989"><ele>1469.8</ele><time>2025-08-09T14:49:28Z</time></trkpt>
<trkpt lat="46.25086" lon="7.52991"><ele>1469</ele><time>2025-08-09T14:49:29Z</time></trkpt>
<trkpt lat="46.2509" lon="7.52996"><ele>1467.8</ele><time>2025-08-09T14:49:30Z</time></trkpt>
<trkpt lat="46.25093" lon="7.53001"><ele>1466.6</ele><time>2025-08-09T14:49:31Z</time></trkpt>
<trkpt lat="46.25095" lon="7.53008"><ele>1465.4</ele><time>2025-08-09T14:49:32Z</time></trkpt>
<trkpt lat="46.25099" lon="7.53014"><ele>1464</ele><time>2025-08-09T14:49:33Z</time></trkpt>
<trkpt lat="46.25103" lon="7.53019"><ele>1463.2</ele><time>2025-08-09T14:49:34Z</time></trkpt>
<trkpt lat="46.25106" lon="7.53025"><ele>1462.2</ele><time>2025-08-09T14:49:35Z</time></trkpt>
<trkpt lat="46.25119" lon="7.53039"><ele>1461.6</ele><time>2025-08-09T14:49:38Z</time></trkpt>
<trkpt lat="46.25123" lon="7.53043"><ele>1460.6</ele><time>2025-08-09T14:49:39Z</time></trkpt>
<trkpt lat="46.2513" lon="7.53048"><ele>1458.8</ele><time>2025-08-09T14:49:41Z</time></trkpt>
<trkpt lat="46.25135" lon="7.53053"><ele>1457.6</ele><time>2025-08-09T14:49:43Z</time></trkpt>
<trkpt lat="46.25137" lon="7.53056"><ele>1457.2</ele><time>2025-08-09T14:49:44Z</time></trkpt>
<trkpt lat="46.2514" lon="7.53064"><ele>1456.4</ele><time>2025-08-09T14:49:46Z</time></trkpt>
<trkpt lat="46.25145" lon="7.53074"><ele>1455.2</ele><time>2025-08-09T14:49:48Z</time></trkpt>
<trkpt lat="46.25149" lon="7.53088"><ele>1453.2</ele><time>2025-08-09T14:49:50Z</time></trkpt>
<trkpt lat="46.25154" lon="7.53096"><ele>1451.8</ele><time>2025-08-09T14:49:52Z</time></trkpt>
<trkpt lat="46.25158" lon="7.53099"><ele>1451.2</ele><time>2025-08-09T14:49:53Z</time></trkpt>
<trkpt lat="46.25164" lon="7.53111"><ele>1450</ele><time>2025-08-09T14:49:55Z</time></trkpt>
<trkpt lat="46.25167" lon="7.53118"><ele>1449</ele><time>2025-08-09T14:49:56Z</time></trkpt>
<trkpt lat="46.25172" lon="7.53126"><ele>1447</ele><time>2025-08-09T14:49:58Z</time></trkpt>
<trkpt lat="46.25179" lon="7.53117"><ele>1446</ele><time>2025-08-09T14:50:00Z</time></trkpt>
<trkpt lat="46.25181" lon="7.5311"><ele>1445</ele><time>2025-08-09T14:50:01Z</time></trkpt>
<trkpt lat="46.25184" lon="7.53104"><ele>1443.8</ele><time>2025-08-09T14:50:02Z</time></trkpt>
<trkpt lat="46.25185" lon="7.53096"><ele>1442.8</ele><time>2025-08-09T14:50:03Z</time></trkpt>
<trkpt lat="46.25185" lon="7.53089"><ele>1441.8</ele><time>2025-08-09T14:50:04Z</time></trkpt>
<trkpt lat="46.25185" lon="7.53083"><ele>1441.4</ele><time>2025-08-09T14:50:05Z</time></trkpt>
<trkpt lat="46.2519" lon="7.53072"><ele>1441.6</ele><time>2025-08-09T14:50:09Z</time></trkpt>
<trkpt lat="46.25191" lon="7.53069"><ele>1440.4</ele><time>2025-08-09T14:50:12Z</time></trkpt>
<trkpt lat="46.25193" lon="7.53067"><ele>1439.4</ele><time>2025-08-09T14:50:15Z</time></trkpt>
<trkpt lat="46.25195" lon="7.53064"><ele>1438.6</ele><time>2025-08-09T14:50:17Z</time></trkpt>
<trkpt lat="46.25195" lon="7.53063"><ele>1438.4</ele><time>2025-08-09T14:50:18Z</time></trkpt>
<trkpt lat="46.25196" lon="7.5306"><ele>1438</ele><time>2025-08-09T14:50:19Z</time></trkpt>
<trkpt lat="46.25194" lon="7.53057"><ele>1436.8</ele><time>2025-08-09T14:50:21Z</time></trkpt>
<trkpt lat="46.25194" lon="7.53057"><ele>1435.8</ele><time>2025-08-09T14:50:23Z</time></trkpt>
<trkpt lat="46.25193" lon="7.53053"><ele>1435.2</ele><time>2025-08-09T14:50:25Z</time></trkpt>
<trkpt lat="46.25189" lon="7.53041"><ele>1434.4</ele><time>2025-08-09T14:50:27Z</time></trkpt>
<trkpt lat="46.25185" lon="7.53035"><ele>1433.2</ele><time>2025-08-09T14:50:28Z</time></trkpt>
<trkpt lat="46.25181" lon="7.53031"><ele>1432</ele><time>2025-08-09T14:50:29Z</time></trkpt>
<trkpt lat="46.25179" lon="7.53021"><ele>1431.4</ele><time>2025-08-09T14:50:31Z</time></trkpt>
<trkpt lat="46.25186" lon="7.53022"><ele>1431.2</ele><time>2025-08-09T14:50:33Z</time></trkpt>
<trkpt lat="46.25197" lon="7.53027"><ele>1430</ele><time>2025-08-09T14:50:35Z</time></trkpt>
<trkpt lat="46.25204" lon="7.53033"><ele>1428.6</ele><time>2025-08-09T14:50:36Z</time></trkpt>
<trkpt lat="46.25217" lon="7.53048"><ele>1427.4</ele><time>2025-08-09T14:50:39Z</time></trkpt>
<trkpt lat="46.25219" lon="7.53053"><ele>1427.2</ele><time>2025-08-09T14:50:40Z</time></trkpt>
<trkpt lat="46.25221" lon="7.53065"><ele>1427.2</ele><time>2025-08-09T14:50:42Z</time></trkpt>
<trkpt lat="46.25223" lon="7.53069"><ele>1426.6</ele><time>2025-08-09T14:50:44Z</time></trkpt>
<trkpt lat="46.25225" lon="7.53066"><ele>1426.2</ele><time>2025-08-09T14:50:45Z</time></trkpt>
<trkpt lat="46.25228" lon="7.53057"><ele>1424.4</ele><time>2025-08-09T14:50:47Z</time></trkpt>
<trkpt lat="46.25233" lon="7.53054"><ele>1422.8</ele><time>2025-08-09T14:50:49Z</time></trkpt>
<trkpt lat="46.25239" lon="7.53058"><ele>1421.4</ele><time>2025-08-09T14:50:51Z</time></trkpt>
<trkpt lat="46.25244" lon="7.53064"><ele>1420.2</ele><time>2025-08-09T14:50:53Z</time></trkpt>
<trkpt lat="46.25244" lon="7.53068"><ele>1419.6</ele><time>2025-08-09T14:50:54Z</time></trkpt>
<trkpt lat="46.25246" lon="7.53072"><ele>1418.6</ele><time>2025-08-09T14:50:55Z</time></trkpt>
<trkpt lat="46.25248" lon="7.53074"><ele>1418</ele><time>2025-08-09T14:50:56Z</time></trkpt>
<trkpt lat="46.25252" lon="7.53073"><ele>1417.4</ele><time>2025-08-09T14:50:57Z</time></trkpt>
<trkpt lat="46.25254" lon="7.53072"><ele>1416.2</ele><time>2025-08-09T14:50:58Z</time></trkpt>
<trkpt lat="46.25262" lon="7.53071"><ele>1414</ele><time>2025-08-09T14:51:00Z</time></trkpt>
<trkpt lat="46.25266" lon="7.53074"><ele>1412.8</ele><time>2025-08-09T14:51:01Z</time></trkpt>
<trkpt lat="46.2527" lon="7.53078"><ele>1411.8</ele><time>2025-08-09T14:51:02Z</time></trkpt>
<trkpt lat="46.25277" lon="7.53087"><ele>1410.6</ele><time>2025-08-09T14:51:04Z</time></trkpt>
<trkpt lat="46.2528" lon="7.5309"><ele>1410.2</ele><time>2025-08-09T14:51:05Z</time></trkpt>
<trkpt lat="46.25284" lon="7.53094"><ele>1410.2</ele><time>2025-08-09T14:51:06Z</time></trkpt>
<trkpt lat="46.25289" lon="7.53108"><ele>1409</ele><time>2025-08-09T14:51:08Z</time></trkpt>
<trkpt lat="46.25291" lon="7.53113"><ele>1408.8</ele><time>2025-08-09T14:51:09Z</time></trkpt>
<trkpt lat="46.25301" lon="7.53123"><ele>1407.6</ele><time>2025-08-09T14:51:12Z</time></trkpt>
<trkpt lat="46.25302" lon="7.53129"><ele>1406.8</ele><time>2025-08-09T14:51:13Z</time></trkpt>
<trkpt lat="46.25302" lon="7.53134"><ele>1405.6</ele><time>2025-08-09T14:51:14Z</time></trkpt>
<trkpt lat="46.25305" lon="7.53139"><ele>1405</ele><time>2025-08-09T14:51:15Z</time></trkpt>
<trkpt lat="46.25306" lon="7.53143"><ele>1404.2</ele><time>2025-08-09T14:51:16Z</time></trkpt>
<trkpt lat="46.25312" lon="7.53147"><ele>1402.2</ele><time>2025-08-09T14:51:18Z</time></trkpt>
<trkpt lat="46.25315" lon="7.53143"><ele>1401</ele><time>2025-08-09T14:51:19Z</time></trkpt>
<trkpt lat="46.25318" lon="7.53131"><ele>1399.4</ele><time>2025-08-09T14:51:21Z</time></trkpt>
<trkpt lat="46.2532" lon="7.53128"><ele>1398.8</ele><time>2025-08-09T14:51:22Z</time></trkpt>
<trkpt lat="46.25321" lon="7.53124"><ele>1398.2</ele><time>2025-08-09T14:51:23Z</time></trkpt>
<trkpt lat="46.25327" lon="7.53118"><ele>1397.8</ele><time>2025-08-09T14:51:25Z</time></trkpt>
<trkpt lat="46.25331" lon="7.5312"><ele>1397.2</ele><time>2025-08-09T14:51:26Z</time></trkpt>
<trkpt lat="46.25336" lon="7.53123"><ele>1395.6</ele><time>2025-08-09T14:51:27Z</time></trkpt>
<trkpt lat="46.25339" lon="7.53118"><ele>1394</ele><time>2025-08-09T14:51:28Z</time></trkpt>
<trkpt lat="46.25341" lon="7.53113"><ele>1393</ele><time>2025-08-09T14:51:29Z</time></trkpt>
<trkpt lat="46.25345" lon="7.53111"><ele>1391.4</ele><time>2025-08-09T14:51:30Z</time></trkpt>
<trkpt lat="46.25355" lon="7.53111"><ele>1390</ele><time>2025-08-09T14:51:32Z</time></trkpt>
<trkpt lat="46.2536" lon="7.53113"><ele>1388.4</ele><time>2025-08-09T14:51:33Z</time></trkpt>
<trkpt lat="46.25367" lon="7.5312"><ele>1387.6</ele><time>2025-08-09T14:51:35Z</time></trkpt>
<trkpt lat="46.25371" lon="7.53125"><ele>1387</ele><time>2025-08-09T14:51:36Z</time></trkpt>
<trkpt lat="46.25376" lon="7.53137"><ele>1387</ele><time>2025-08-09T14:51:38Z</time></trkpt>
<trkpt lat="46.25381" lon="7.53138"><ele>1386.6</ele><time>2025-08-09T14:51:39Z</time></trkpt>
<trkpt lat="46.25384" lon="7.53135"><ele>1386</ele><time>2025-08-09T14:51:40Z</time></trkpt>
<trkpt lat="46.25385" lon="7.53122"><ele>1384.4</ele><time>2025-08-09T14:51:42Z</time></trkpt>
<trkpt lat="46.25386" lon="7.53114"><ele>1383.6</ele><time>2025-08-09T14:51:43Z</time></trkpt>
<trkpt lat="46.25391" lon="7.53115"><ele>1383</ele><time>2025-08-09T14:51:44Z</time></trkpt>
<trkpt lat="46.25394" lon="7.53126"><ele>1382.2</ele><time>2025-08-09T14:51:46Z</time></trkpt>
<trkpt lat="46.25395" lon="7.53132"><ele>1382</ele><time>2025-08-09T14:51:47Z</time></trkpt>
<trkpt lat="46.254" lon="7.53129"><ele>1381</ele><time>2025-08-09T14:51:48Z</time></trkpt>
<trkpt lat="46.25399" lon="7.53124"><ele>1380.4</ele><time>2025-08-09T14:51:49Z</time></trkpt>
<trkpt lat="46.25398" lon="7.53119"><ele>1379.8</ele><time>2025-08-09T14:51:50Z</time></trkpt>
<trkpt lat="46.25397" lon="7.53113"><ele>1378.8</ele><time>2025-08-09T14:51:51Z</time></trkpt>
<trkpt lat="46.25392" lon="7.531"><ele>1377</ele><time>2025-08-09T14:51:53Z</time></trkpt>
<trkpt lat="46.25389" lon="7.53087"><ele>1376</ele><time>2025-08-09T14:51:56Z</time></trkpt>
<trkpt lat="46.25396" lon="7.53089"><ele>1376.2</ele><time>2025-08-09T14:51:58Z</time></trkpt>
<trkpt lat="46.25396" lon="7.53083"><ele>1375.8</ele><time>2025-08-09T14:52:00Z</time></trkpt>
<trkpt lat="46.25395" lon="7.53082"><ele>1375.2</ele><time>2025-08-09T14:52:01Z</time></trkpt>
<trkpt lat="46.25394" lon="7.53078"><ele>1374.8</ele><time>2025-08-09T14:52:03Z</time></trkpt>
<trkpt lat="46.25394" lon="7.53077"><ele>1375</ele><time>2025-08-09T14:52:04Z</time></trkpt>
<trkpt lat="46.25395" lon="7.53077"><ele>1375.2</ele><time>2025-08-09T14:52:05Z</time></trkpt>
<trkpt lat="46.25397" lon="7.53078"><ele>1375.8</ele><time>2025-08-09T14:52:08Z</time></trkpt>
<trkpt lat="46.25398" lon="7.5308"><ele>1375.8</ele><time>2025-08-09T14:52:09Z</time></trkpt>
<trkpt lat="46.25399" lon="7.53083"><ele>1375.8</ele><time>2025-08-09T14:52:11Z</time></trkpt>
<trkpt lat="46.25401" lon="7.53087"><ele>1375.8</ele><time>2025-08-09T14:52:13Z</time></trkpt>
<trkpt lat="46.25409" lon="7.531"><ele>1375.4</ele><time>2025-08-09T14:52:18Z</time></trkpt>
<trkpt lat="46.25424" lon="7.53098"><ele>1375</ele><time>2025-08-09T14:52:22Z</time></trkpt>
<trkpt lat="46.25432" lon="7.53096"><ele>1375.6</ele><time>2025-08-09T14:52:25Z</time></trkpt>
<trkpt lat="46.25435" lon="7.53098"><ele>1375.6</ele><time>2025-08-09T14:52:26Z</time></trkpt>
<trkpt lat="46.25438" lon="7.53104"><ele>1375.6</ele><time>2025-08-09T14:52:28Z</time></trkpt>
<trkpt lat="46.25444" lon="7.53123"><ele>1375.2</ele><time>2025-08-09T14:52:32Z</time></trkpt>
<trkpt lat="46.25451" lon="7.53145"><ele>1375.4</ele><time>2025-08-09T14:52:37Z</time></trkpt>
<trkpt lat="46.25452" lon="7.53161"><ele>1376</ele><time>2025-08-09T14:52:41Z</time></trkpt>
<trkpt lat="46.25447" lon="7.53185"><ele>1376.4</ele><time>2025-08-09T14:52:46Z</time></trkpt>
<trkpt lat="46.25444" lon="7.53193"><ele>1377.2</ele><time>2025-08-09T14:52:48Z</time></trkpt>
<trkpt lat="46.25437" lon="7.53202"><ele>1377.6</ele><time>2025-08-09T14:52:52Z</time></trkpt>
<trkpt lat="46.25428" lon="7.53207"><ele>1377.8</ele><time>2025-08-09T14:52:55Z</time></trkpt>
<trkpt lat="46.25428" lon="7.53215"><ele>1377.8</ele><time>2025-08-09T14:52:57Z</time></trkpt>
<trkpt lat="46.25433" lon="7.53237"><ele>1376.4</ele><time>2025-08-09T14:53:01Z</time></trkpt>
<trkpt lat="46.25433" lon="7.53242"><ele>1375.8</ele><time>2025-08-09T14:53:02Z</time></trkpt>
<trkpt lat="46.25432" lon="7.53246"><ele>1375.4</ele><time>2025-08-09T14:53:03Z</time></trkpt>
<trkpt lat="46.25427" lon="7.53252"><ele>1375</ele><time>2025-08-09T14:53:05Z</time></trkpt>
<trkpt lat="46.25421" lon="7.53258"><ele>1374.8</ele><time>2025-08-09T14:53:07Z</time></trkpt>
<trkpt lat="46.25415" lon="7.53263"><ele>1374.8</ele><time>2025-08-09T14:53:09Z</time></trkpt>
<trkpt lat="46.25403" lon="7.53271"><ele>1375</ele><time>2025-08-09T14:53:13Z</time></trkpt>
<trkpt lat="46.25392" lon="7.5328"><ele>1375.2</ele><time>2025-08-09T14:53:18Z</time></trkpt>
<trkpt lat="46.25393" lon="7.53283"><ele>1375.2</ele><time>2025-08-09T14:53:19Z</time></trkpt>
<trkpt lat="46.25403" lon="7.53282"><ele>1374</ele><time>2025-08-09T14:53:22Z</time></trkpt>
<trkpt lat="46.25407" lon="7.53282"><ele>1372.8</ele><time>2025-08-09T14:53:23Z</time></trkpt>
<trkpt lat="46.25409" lon="7.53287"><ele>1371.6</ele><time>2025-08-09T14:53:24Z</time></trkpt>
<trkpt lat="46.2541" lon="7.53292"><ele>1370.2</ele><time>2025-08-09T14:53:25Z</time></trkpt>
<trkpt lat="46.25408" lon="7.53297"><ele>1369</ele><time>2025-08-09T14:53:26Z</time></trkpt>
<trkpt lat="46.25403" lon="7.53309"><ele>1367.4</ele><time>2025-08-09T14:53:28Z</time></trkpt>
<trkpt lat="46.254" lon="7.53317"><ele>1365.4</ele><time>2025-08-09T14:53:29Z</time></trkpt>
<trkpt lat="46.25392" lon="7.53333"><ele>1364</ele><time>2025-08-09T14:53:31Z</time></trkpt>
<trkpt lat="46.25383" lon="7.53346"><ele>1361.2</ele><time>2025-08-09T14:53:33Z</time></trkpt>
<trkpt lat="46.25379" lon="7.53351"><ele>1359</ele><time>2025-08-09T14:53:34Z</time></trkpt>
<trkpt lat="46.25377" lon="7.53357"><ele>1358</ele><time>2025-08-09T14:53:35Z</time></trkpt>
<trkpt lat="46.25377" lon="7.53364"><ele>1357.6</ele><time>2025-08-09T14:53:36Z</time></trkpt>
<trkpt lat="46.25375" lon="7.53376"><ele>1357.4</ele><time>2025-08-09T14:53:38Z</time></trkpt>
<trkpt lat="46.25371" lon="7.53388"><ele>1356.6</ele><time>2025-08-09T14:53:40Z</time></trkpt>
<trkpt lat="46.25371" lon="7.53392"><ele>1355.6</ele><time>2025-08-09T14:53:41Z</time></trkpt>
<trkpt lat="46.25372" lon="7.53395"><ele>1354.6</ele><time>2025-08-09T14:53:42Z</time></trkpt>
<trkpt lat="46.25375" lon="7.534"><ele>1353.4</ele><time>2025-08-09T14:53:44Z</time></trkpt>
<trkpt lat="46.25377" lon="7.53404"><ele>1353.4</ele><time>2025-08-09T14:53:45Z</time></trkpt>
<trkpt lat="46.25388" lon="7.53408"><ele>1353</ele><time>2025-08-09T14:53:48Z</time></trkpt>
<trkpt lat="46.2539" lon="7.53404"><ele>1352.6</ele><time>2025-08-09T14:53:49Z</time></trkpt>
<trkpt lat="46.25389" lon="7.53398"><ele>1352.4</ele><time>2025-08-09T14:53:50Z</time></trkpt>
<trkpt lat="46.25388" lon="7.53387"><ele>1351.8</ele><time>2025-08-09T14:53:52Z</time></trkpt>
<trkpt lat="46.25397" lon="7.53363"><ele>1351.6</ele><time>2025-08-09T14:53:57Z</time></trkpt>
<trkpt lat="46.25408" lon="7.53355"><ele>1352</ele><time>2025-08-09T14:54:02Z</time></trkpt>
<trkpt lat="46.2541" lon="7.53356"><ele>1351.8</ele><time>2025-08-09T14:54:06Z</time></trkpt>
</trkseg></trk></gpx>